<?xml version="1.0" encoding="UTF-8" standalone="no" ?>
<gpx xmlns="http://www.topografix.com/GPX/1/1" xmlns:xsi="http://www.w3.org/2001/XMLSchema-instance" xsi:schemaLocation="http://www.topografix.com/GPX/1/1 http://www.topografix.com/GPX/1/1/gpx.xsd" version="1.1" creator="VisuGPX - https://www.visugpx.com">
  <metadata>
    <name>Petit run en bord de save et Garonne</name>
    <desc><![CDATA[Parcours agréable et facile]]></desc>
  </metadata>
  <trk>
    <name><![CDATA[2016-01-02 10:09:20-Course]]></name>
    <trkseg>
      <trkpt lat="43.77999" lon="1.28903">
        <ele>146.74</ele>
        <time>2016-01-02T08:21:01Z</time>
      </trkpt>
      <trkpt lat="43.77998" lon="1.28904">
        <ele>146.74</ele>
        <time>2016-01-02T08:21:02Z</time>
      </trkpt>
      <trkpt lat="43.77999" lon="1.28906">
        <ele>146.74</ele>
        <time>2016-01-02T08:21:03Z</time>
      </trkpt>
      <trkpt lat="43.78" lon="1.28907">
        <ele>146.74</ele>
        <time>2016-01-02T08:21:04Z</time>
      </trkpt>
      <trkpt lat="43.78001" lon="1.28907">
        <ele>146.74</ele>
        <time>2016-01-02T08:21:05Z</time>
      </trkpt>
      <trkpt lat="43.78002" lon="1.28906">
        <ele>108.77</ele>
        <time>2016-01-02T08:21:06Z</time>
      </trkpt>
      <trkpt lat="43.78006" lon="1.28905">
        <ele>108.77</ele>
        <time>2016-01-02T08:21:07Z</time>
      </trkpt>
      <trkpt lat="43.78008" lon="1.28904">
        <ele>108.77</ele>
        <time>2016-01-02T08:21:08Z</time>
      </trkpt>
      <trkpt lat="43.78012" lon="1.28903">
        <ele>109.25</ele>
        <time>2016-01-02T08:21:09Z</time>
      </trkpt>
      <trkpt lat="43.78016" lon="1.28901">
        <ele>108.77</ele>
        <time>2016-01-02T08:21:10Z</time>
      </trkpt>
      <trkpt lat="43.78018" lon="1.28899">
        <ele>108.77</ele>
        <time>2016-01-02T08:21:11Z</time>
      </trkpt>
      <trkpt lat="43.78021" lon="1.28897">
        <ele>109.25</ele>
        <time>2016-01-02T08:21:12Z</time>
      </trkpt>
      <trkpt lat="43.78024" lon="1.28895">
        <ele>109.25</ele>
        <time>2016-01-02T08:21:13Z</time>
      </trkpt>
      <trkpt lat="43.78026" lon="1.28893">
        <ele>109.25</ele>
        <time>2016-01-02T08:21:14Z</time>
      </trkpt>
      <trkpt lat="43.78029" lon="1.28891">
        <ele>108.77</ele>
        <time>2016-01-02T08:21:15Z</time>
      </trkpt>
      <trkpt lat="43.78031" lon="1.28889">
        <ele>108.77</ele>
        <time>2016-01-02T08:21:16Z</time>
      </trkpt>
      <trkpt lat="43.78034" lon="1.28886">
        <ele>108.77</ele>
        <time>2016-01-02T08:21:17Z</time>
      </trkpt>
      <trkpt lat="43.78037" lon="1.28884">
        <ele>108.77</ele>
        <time>2016-01-02T08:21:18Z</time>
      </trkpt>
      <trkpt lat="43.7804" lon="1.28882">
        <ele>108.77</ele>
        <time>2016-01-02T08:21:19Z</time>
      </trkpt>
      <trkpt lat="43.78043" lon="1.2888">
        <ele>108.77</ele>
        <time>2016-01-02T08:21:20Z</time>
      </trkpt>
      <trkpt lat="43.78045" lon="1.28878">
        <ele>108.77</ele>
        <time>2016-01-02T08:21:21Z</time>
      </trkpt>
      <trkpt lat="43.78047" lon="1.28876">
        <ele>108.77</ele>
        <time>2016-01-02T08:21:22Z</time>
      </trkpt>
      <trkpt lat="43.7805" lon="1.28873">
        <ele>108.77</ele>
        <time>2016-01-02T08:21:23Z</time>
      </trkpt>
      <trkpt lat="43.78053" lon="1.28871">
        <ele>108.77</ele>
        <time>2016-01-02T08:21:24Z</time>
      </trkpt>
      <trkpt lat="43.78056" lon="1.28869">
        <ele>108.77</ele>
        <time>2016-01-02T08:21:25Z</time>
      </trkpt>
      <trkpt lat="43.78058" lon="1.28866">
        <ele>108.29</ele>
        <time>2016-01-02T08:21:26Z</time>
      </trkpt>
      <trkpt lat="43.7806" lon="1.28864">
        <ele>108.29</ele>
        <time>2016-01-02T08:21:27Z</time>
      </trkpt>
      <trkpt lat="43.78062" lon="1.28861">
        <ele>108.77</ele>
        <time>2016-01-02T08:21:28Z</time>
      </trkpt>
      <trkpt lat="43.78065" lon="1.28859">
        <ele>108.77</ele>
        <time>2016-01-02T08:21:29Z</time>
      </trkpt>
      <trkpt lat="43.78067" lon="1.28856">
        <ele>108.29</ele>
        <time>2016-01-02T08:21:30Z</time>
      </trkpt>
      <trkpt lat="43.7807" lon="1.28854">
        <ele>107.81</ele>
        <time>2016-01-02T08:21:31Z</time>
      </trkpt>
      <trkpt lat="43.78072" lon="1.28852">
        <ele>107.81</ele>
        <time>2016-01-02T08:21:32Z</time>
      </trkpt>
      <trkpt lat="43.78074" lon="1.28849">
        <ele>108.29</ele>
        <time>2016-01-02T08:21:33Z</time>
      </trkpt>
      <trkpt lat="43.78076" lon="1.28847">
        <ele>107.81</ele>
        <time>2016-01-02T08:21:34Z</time>
      </trkpt>
      <trkpt lat="43.78079" lon="1.28844">
        <ele>107.81</ele>
        <time>2016-01-02T08:21:35Z</time>
      </trkpt>
      <trkpt lat="43.78081" lon="1.28842">
        <ele>107.32</ele>
        <time>2016-01-02T08:21:36Z</time>
      </trkpt>
      <trkpt lat="43.78084" lon="1.28839">
        <ele>107.32</ele>
        <time>2016-01-02T08:21:37Z</time>
      </trkpt>
      <trkpt lat="43.78086" lon="1.28837">
        <ele>107.32</ele>
        <time>2016-01-02T08:21:38Z</time>
      </trkpt>
      <trkpt lat="43.78088" lon="1.28834">
        <ele>106.84</ele>
        <time>2016-01-02T08:21:39Z</time>
      </trkpt>
      <trkpt lat="43.78091" lon="1.28832">
        <ele>106.36</ele>
        <time>2016-01-02T08:21:40Z</time>
      </trkpt>
      <trkpt lat="43.78093" lon="1.28829">
        <ele>106.84</ele>
        <time>2016-01-02T08:21:41Z</time>
      </trkpt>
      <trkpt lat="43.78096" lon="1.28827">
        <ele>106.84</ele>
        <time>2016-01-02T08:21:42Z</time>
      </trkpt>
      <trkpt lat="43.78098" lon="1.28825">
        <ele>106.36</ele>
        <time>2016-01-02T08:21:43Z</time>
      </trkpt>
      <trkpt lat="43.78101" lon="1.28822">
        <ele>106.36</ele>
        <time>2016-01-02T08:21:44Z</time>
      </trkpt>
      <trkpt lat="43.78103" lon="1.28819">
        <ele>106.84</ele>
        <time>2016-01-02T08:21:45Z</time>
      </trkpt>
      <trkpt lat="43.78106" lon="1.28817">
        <ele>107.32</ele>
        <time>2016-01-02T08:21:46Z</time>
      </trkpt>
      <trkpt lat="43.78108" lon="1.28815">
        <ele>107.32</ele>
        <time>2016-01-02T08:21:47Z</time>
      </trkpt>
      <trkpt lat="43.78111" lon="1.28812">
        <ele>106.84</ele>
        <time>2016-01-02T08:21:48Z</time>
      </trkpt>
      <trkpt lat="43.78114" lon="1.28811">
        <ele>106.36</ele>
        <time>2016-01-02T08:21:49Z</time>
      </trkpt>
      <trkpt lat="43.78117" lon="1.28808">
        <ele>106.36</ele>
        <time>2016-01-02T08:21:50Z</time>
      </trkpt>
      <trkpt lat="43.78119" lon="1.28807">
        <ele>106.36</ele>
        <time>2016-01-02T08:21:51Z</time>
      </trkpt>
      <trkpt lat="43.78122" lon="1.28805">
        <ele>105.88</ele>
        <time>2016-01-02T08:21:52Z</time>
      </trkpt>
      <trkpt lat="43.78124" lon="1.28803">
        <ele>105.88</ele>
        <time>2016-01-02T08:21:53Z</time>
      </trkpt>
      <trkpt lat="43.78127" lon="1.288">
        <ele>106.36</ele>
        <time>2016-01-02T08:21:54Z</time>
      </trkpt>
      <trkpt lat="43.7813" lon="1.28798">
        <ele>106.36</ele>
        <time>2016-01-02T08:21:55Z</time>
      </trkpt>
      <trkpt lat="43.78133" lon="1.28797">
        <ele>105.88</ele>
        <time>2016-01-02T08:21:56Z</time>
      </trkpt>
      <trkpt lat="43.78136" lon="1.28795">
        <ele>105.88</ele>
        <time>2016-01-02T08:21:57Z</time>
      </trkpt>
      <trkpt lat="43.78138" lon="1.28792">
        <ele>105.88</ele>
        <time>2016-01-02T08:21:58Z</time>
      </trkpt>
      <trkpt lat="43.78141" lon="1.2879">
        <ele>105.88</ele>
        <time>2016-01-02T08:21:59Z</time>
      </trkpt>
      <trkpt lat="43.78143" lon="1.28788">
        <ele>105.4</ele>
        <time>2016-01-02T08:22:00Z</time>
      </trkpt>
      <trkpt lat="43.78146" lon="1.28785">
        <ele>105.4</ele>
        <time>2016-01-02T08:22:01Z</time>
      </trkpt>
      <trkpt lat="43.78149" lon="1.28783">
        <ele>105.88</ele>
        <time>2016-01-02T08:22:02Z</time>
      </trkpt>
      <trkpt lat="43.78151" lon="1.28781">
        <ele>105.4</ele>
        <time>2016-01-02T08:22:03Z</time>
      </trkpt>
      <trkpt lat="43.78154" lon="1.28779">
        <ele>105.4</ele>
        <time>2016-01-02T08:22:04Z</time>
      </trkpt>
      <trkpt lat="43.78157" lon="1.28777">
        <ele>105.4</ele>
        <time>2016-01-02T08:22:05Z</time>
      </trkpt>
      <trkpt lat="43.78159" lon="1.28774">
        <ele>105.4</ele>
        <time>2016-01-02T08:22:06Z</time>
      </trkpt>
      <trkpt lat="43.78162" lon="1.28771">
        <ele>105.4</ele>
        <time>2016-01-02T08:22:07Z</time>
      </trkpt>
      <trkpt lat="43.78164" lon="1.28769">
        <ele>104.92</ele>
        <time>2016-01-02T08:22:08Z</time>
      </trkpt>
      <trkpt lat="43.78166" lon="1.28766">
        <ele>104.44</ele>
        <time>2016-01-02T08:22:09Z</time>
      </trkpt>
      <trkpt lat="43.78168" lon="1.28762">
        <ele>104.92</ele>
        <time>2016-01-02T08:22:10Z</time>
      </trkpt>
      <trkpt lat="43.78169" lon="1.28759">
        <ele>104.44</ele>
        <time>2016-01-02T08:22:11Z</time>
      </trkpt>
      <trkpt lat="43.78169" lon="1.28755">
        <ele>103.96</ele>
        <time>2016-01-02T08:22:12Z</time>
      </trkpt>
      <trkpt lat="43.78168" lon="1.28752">
        <ele>103.96</ele>
        <time>2016-01-02T08:22:13Z</time>
      </trkpt>
      <trkpt lat="43.78167" lon="1.28748">
        <ele>103.96</ele>
        <time>2016-01-02T08:22:14Z</time>
      </trkpt>
      <trkpt lat="43.78165" lon="1.28744">
        <ele>104.44</ele>
        <time>2016-01-02T08:22:15Z</time>
      </trkpt>
      <trkpt lat="43.78164" lon="1.28741">
        <ele>104.44</ele>
        <time>2016-01-02T08:22:16Z</time>
      </trkpt>
      <trkpt lat="43.78163" lon="1.28738">
        <ele>104.44</ele>
        <time>2016-01-02T08:22:17Z</time>
      </trkpt>
      <trkpt lat="43.78163" lon="1.28734">
        <ele>103.96</ele>
        <time>2016-01-02T08:22:18Z</time>
      </trkpt>
      <trkpt lat="43.78164" lon="1.2873">
        <ele>103.96</ele>
        <time>2016-01-02T08:22:19Z</time>
      </trkpt>
      <trkpt lat="43.78165" lon="1.28726">
        <ele>103.96</ele>
        <time>2016-01-02T08:22:20Z</time>
      </trkpt>
      <trkpt lat="43.78167" lon="1.28722">
        <ele>104.44</ele>
        <time>2016-01-02T08:22:21Z</time>
      </trkpt>
      <trkpt lat="43.7817" lon="1.28718">
        <ele>104.44</ele>
        <time>2016-01-02T08:22:22Z</time>
      </trkpt>
      <trkpt lat="43.78173" lon="1.28716">
        <ele>104.44</ele>
        <time>2016-01-02T08:22:23Z</time>
      </trkpt>
      <trkpt lat="43.78176" lon="1.28713">
        <ele>104.44</ele>
        <time>2016-01-02T08:22:24Z</time>
      </trkpt>
      <trkpt lat="43.78179" lon="1.28711">
        <ele>104.92</ele>
        <time>2016-01-02T08:22:25Z</time>
      </trkpt>
      <trkpt lat="43.78182" lon="1.28709">
        <ele>104.44</ele>
        <time>2016-01-02T08:22:26Z</time>
      </trkpt>
      <trkpt lat="43.78185" lon="1.28707">
        <ele>103.96</ele>
        <time>2016-01-02T08:22:27Z</time>
      </trkpt>
      <trkpt lat="43.78188" lon="1.28705">
        <ele>103.96</ele>
        <time>2016-01-02T08:22:28Z</time>
      </trkpt>
      <trkpt lat="43.7819" lon="1.28702">
        <ele>103</ele>
        <time>2016-01-02T08:22:29Z</time>
      </trkpt>
      <trkpt lat="43.78192" lon="1.287">
        <ele>102.52</ele>
        <time>2016-01-02T08:22:30Z</time>
      </trkpt>
      <trkpt lat="43.78195" lon="1.28697">
        <ele>103</ele>
        <time>2016-01-02T08:22:31Z</time>
      </trkpt>
      <trkpt lat="43.78197" lon="1.28695">
        <ele>103</ele>
        <time>2016-01-02T08:22:32Z</time>
      </trkpt>
      <trkpt lat="43.78199" lon="1.28692">
        <ele>103.96</ele>
        <time>2016-01-02T08:22:33Z</time>
      </trkpt>
      <trkpt lat="43.78202" lon="1.2869">
        <ele>103.96</ele>
        <time>2016-01-02T08:22:34Z</time>
      </trkpt>
      <trkpt lat="43.78204" lon="1.28687">
        <ele>103.48</ele>
        <time>2016-01-02T08:22:35Z</time>
      </trkpt>
      <trkpt lat="43.78207" lon="1.28685">
        <ele>103.96</ele>
        <time>2016-01-02T08:22:36Z</time>
      </trkpt>
      <trkpt lat="43.7821" lon="1.28682">
        <ele>103.96</ele>
        <time>2016-01-02T08:22:37Z</time>
      </trkpt>
      <trkpt lat="43.78212" lon="1.28679">
        <ele>103.96</ele>
        <time>2016-01-02T08:22:38Z</time>
      </trkpt>
      <trkpt lat="43.78215" lon="1.28676">
        <ele>103.48</ele>
        <time>2016-01-02T08:22:39Z</time>
      </trkpt>
      <trkpt lat="43.78218" lon="1.28673">
        <ele>103.48</ele>
        <time>2016-01-02T08:22:40Z</time>
      </trkpt>
      <trkpt lat="43.7822" lon="1.28671">
        <ele>103.96</ele>
        <time>2016-01-02T08:22:41Z</time>
      </trkpt>
      <trkpt lat="43.78223" lon="1.28669">
        <ele>103.48</ele>
        <time>2016-01-02T08:22:42Z</time>
      </trkpt>
      <trkpt lat="43.78226" lon="1.28667">
        <ele>103</ele>
        <time>2016-01-02T08:22:43Z</time>
      </trkpt>
      <trkpt lat="43.78229" lon="1.28665">
        <ele>103</ele>
        <time>2016-01-02T08:22:44Z</time>
      </trkpt>
      <trkpt lat="43.78232" lon="1.28662">
        <ele>103</ele>
        <time>2016-01-02T08:22:45Z</time>
      </trkpt>
      <trkpt lat="43.78235" lon="1.2866">
        <ele>103</ele>
        <time>2016-01-02T08:22:46Z</time>
      </trkpt>
      <trkpt lat="43.78237" lon="1.28656">
        <ele>103</ele>
        <time>2016-01-02T08:22:47Z</time>
      </trkpt>
      <trkpt lat="43.78239" lon="1.28654">
        <ele>103</ele>
        <time>2016-01-02T08:22:48Z</time>
      </trkpt>
      <trkpt lat="43.78239" lon="1.28651">
        <ele>103</ele>
        <time>2016-01-02T08:22:49Z</time>
      </trkpt>
      <trkpt lat="43.78239" lon="1.28648">
        <ele>102.52</ele>
        <time>2016-01-02T08:22:50Z</time>
      </trkpt>
      <trkpt lat="43.78237" lon="1.28644">
        <ele>102.52</ele>
        <time>2016-01-02T08:22:51Z</time>
      </trkpt>
      <trkpt lat="43.78236" lon="1.2864">
        <ele>102.52</ele>
        <time>2016-01-02T08:22:52Z</time>
      </trkpt>
      <trkpt lat="43.78234" lon="1.28637">
        <ele>103</ele>
        <time>2016-01-02T08:22:53Z</time>
      </trkpt>
      <trkpt lat="43.78232" lon="1.28634">
        <ele>103</ele>
        <time>2016-01-02T08:22:54Z</time>
      </trkpt>
      <trkpt lat="43.78231" lon="1.2863">
        <ele>103</ele>
        <time>2016-01-02T08:22:55Z</time>
      </trkpt>
      <trkpt lat="43.78229" lon="1.28627">
        <ele>103</ele>
        <time>2016-01-02T08:22:56Z</time>
      </trkpt>
      <trkpt lat="43.78227" lon="1.28623">
        <ele>103</ele>
        <time>2016-01-02T08:22:57Z</time>
      </trkpt>
      <trkpt lat="43.78226" lon="1.28619">
        <ele>103</ele>
        <time>2016-01-02T08:22:58Z</time>
      </trkpt>
      <trkpt lat="43.78224" lon="1.28615">
        <ele>102.52</ele>
        <time>2016-01-02T08:22:59Z</time>
      </trkpt>
      <trkpt lat="43.78223" lon="1.28611">
        <ele>103</ele>
        <time>2016-01-02T08:23:00Z</time>
      </trkpt>
      <trkpt lat="43.78222" lon="1.28608">
        <ele>103</ele>
        <time>2016-01-02T08:23:01Z</time>
      </trkpt>
      <trkpt lat="43.78221" lon="1.28605">
        <ele>103</ele>
        <time>2016-01-02T08:23:02Z</time>
      </trkpt>
      <trkpt lat="43.78219" lon="1.28601">
        <ele>103</ele>
        <time>2016-01-02T08:23:03Z</time>
      </trkpt>
      <trkpt lat="43.78218" lon="1.28598">
        <ele>103</ele>
        <time>2016-01-02T08:23:04Z</time>
      </trkpt>
      <trkpt lat="43.78216" lon="1.28594">
        <ele>103</ele>
        <time>2016-01-02T08:23:05Z</time>
      </trkpt>
      <trkpt lat="43.78214" lon="1.28591">
        <ele>102.52</ele>
        <time>2016-01-02T08:23:06Z</time>
      </trkpt>
      <trkpt lat="43.78212" lon="1.28588">
        <ele>103</ele>
        <time>2016-01-02T08:23:07Z</time>
      </trkpt>
      <trkpt lat="43.7821" lon="1.28584">
        <ele>103</ele>
        <time>2016-01-02T08:23:08Z</time>
      </trkpt>
      <trkpt lat="43.78209" lon="1.28581">
        <ele>103</ele>
        <time>2016-01-02T08:23:09Z</time>
      </trkpt>
      <trkpt lat="43.78207" lon="1.28577">
        <ele>103</ele>
        <time>2016-01-02T08:23:10Z</time>
      </trkpt>
      <trkpt lat="43.78206" lon="1.28573">
        <ele>103</ele>
        <time>2016-01-02T08:23:11Z</time>
      </trkpt>
      <trkpt lat="43.78204" lon="1.28569">
        <ele>103</ele>
        <time>2016-01-02T08:23:12Z</time>
      </trkpt>
      <trkpt lat="43.78203" lon="1.28565">
        <ele>103</ele>
        <time>2016-01-02T08:23:13Z</time>
      </trkpt>
      <trkpt lat="43.78202" lon="1.28561">
        <ele>103</ele>
        <time>2016-01-02T08:23:14Z</time>
      </trkpt>
      <trkpt lat="43.78202" lon="1.28557">
        <ele>103</ele>
        <time>2016-01-02T08:23:15Z</time>
      </trkpt>
      <trkpt lat="43.78203" lon="1.28552">
        <ele>103.48</ele>
        <time>2016-01-02T08:23:16Z</time>
      </trkpt>
      <trkpt lat="43.78205" lon="1.28548">
        <ele>103</ele>
        <time>2016-01-02T08:23:17Z</time>
      </trkpt>
      <trkpt lat="43.78208" lon="1.28545">
        <ele>103</ele>
        <time>2016-01-02T08:23:18Z</time>
      </trkpt>
      <trkpt lat="43.7821" lon="1.28542">
        <ele>103</ele>
        <time>2016-01-02T08:23:19Z</time>
      </trkpt>
      <trkpt lat="43.78213" lon="1.28539">
        <ele>103</ele>
        <time>2016-01-02T08:23:20Z</time>
      </trkpt>
      <trkpt lat="43.78216" lon="1.28537">
        <ele>103</ele>
        <time>2016-01-02T08:23:21Z</time>
      </trkpt>
      <trkpt lat="43.78219" lon="1.28535">
        <ele>103</ele>
        <time>2016-01-02T08:23:22Z</time>
      </trkpt>
      <trkpt lat="43.78222" lon="1.28533">
        <ele>102.52</ele>
        <time>2016-01-02T08:23:23Z</time>
      </trkpt>
      <trkpt lat="43.78225" lon="1.28531">
        <ele>102.52</ele>
        <time>2016-01-02T08:23:24Z</time>
      </trkpt>
      <trkpt lat="43.78227" lon="1.28529">
        <ele>102.04</ele>
        <time>2016-01-02T08:23:25Z</time>
      </trkpt>
      <trkpt lat="43.78229" lon="1.28527">
        <ele>102.52</ele>
        <time>2016-01-02T08:23:26Z</time>
      </trkpt>
      <trkpt lat="43.78232" lon="1.28525">
        <ele>103</ele>
        <time>2016-01-02T08:23:27Z</time>
      </trkpt>
      <trkpt lat="43.78235" lon="1.28522">
        <ele>103</ele>
        <time>2016-01-02T08:23:28Z</time>
      </trkpt>
      <trkpt lat="43.78238" lon="1.2852">
        <ele>103</ele>
        <time>2016-01-02T08:23:29Z</time>
      </trkpt>
      <trkpt lat="43.7824" lon="1.28517">
        <ele>103</ele>
        <time>2016-01-02T08:23:30Z</time>
      </trkpt>
      <trkpt lat="43.78243" lon="1.28514">
        <ele>103</ele>
        <time>2016-01-02T08:23:31Z</time>
      </trkpt>
      <trkpt lat="43.78245" lon="1.28511">
        <ele>103</ele>
        <time>2016-01-02T08:23:32Z</time>
      </trkpt>
      <trkpt lat="43.78248" lon="1.28509">
        <ele>102.52</ele>
        <time>2016-01-02T08:23:33Z</time>
      </trkpt>
      <trkpt lat="43.78251" lon="1.28506">
        <ele>102.52</ele>
        <time>2016-01-02T08:23:34Z</time>
      </trkpt>
      <trkpt lat="43.78253" lon="1.28503">
        <ele>102.52</ele>
        <time>2016-01-02T08:23:35Z</time>
      </trkpt>
      <trkpt lat="43.78255" lon="1.28501">
        <ele>102.52</ele>
        <time>2016-01-02T08:23:36Z</time>
      </trkpt>
      <trkpt lat="43.78258" lon="1.28498">
        <ele>102.52</ele>
        <time>2016-01-02T08:23:37Z</time>
      </trkpt>
      <trkpt lat="43.78261" lon="1.28496">
        <ele>102.52</ele>
        <time>2016-01-02T08:23:38Z</time>
      </trkpt>
      <trkpt lat="43.78263" lon="1.28493">
        <ele>103</ele>
        <time>2016-01-02T08:23:39Z</time>
      </trkpt>
      <trkpt lat="43.78265" lon="1.28491">
        <ele>103</ele>
        <time>2016-01-02T08:23:40Z</time>
      </trkpt>
      <trkpt lat="43.78268" lon="1.28488">
        <ele>103</ele>
        <time>2016-01-02T08:23:41Z</time>
      </trkpt>
      <trkpt lat="43.78271" lon="1.28486">
        <ele>103</ele>
        <time>2016-01-02T08:23:42Z</time>
      </trkpt>
      <trkpt lat="43.78273" lon="1.28483">
        <ele>103</ele>
        <time>2016-01-02T08:23:43Z</time>
      </trkpt>
      <trkpt lat="43.78276" lon="1.28481">
        <ele>103</ele>
        <time>2016-01-02T08:23:44Z</time>
      </trkpt>
      <trkpt lat="43.78278" lon="1.28479">
        <ele>103</ele>
        <time>2016-01-02T08:23:45Z</time>
      </trkpt>
      <trkpt lat="43.7828" lon="1.28476">
        <ele>103</ele>
        <time>2016-01-02T08:23:46Z</time>
      </trkpt>
      <trkpt lat="43.78283" lon="1.28474">
        <ele>103</ele>
        <time>2016-01-02T08:23:47Z</time>
      </trkpt>
      <trkpt lat="43.78285" lon="1.28472">
        <ele>103</ele>
        <time>2016-01-02T08:23:48Z</time>
      </trkpt>
      <trkpt lat="43.78287" lon="1.2847">
        <ele>103</ele>
        <time>2016-01-02T08:23:49Z</time>
      </trkpt>
      <trkpt lat="43.7829" lon="1.28468">
        <ele>102.52</ele>
        <time>2016-01-02T08:23:50Z</time>
      </trkpt>
      <trkpt lat="43.78292" lon="1.28466">
        <ele>102.52</ele>
        <time>2016-01-02T08:23:51Z</time>
      </trkpt>
      <trkpt lat="43.78295" lon="1.28464">
        <ele>103</ele>
        <time>2016-01-02T08:23:52Z</time>
      </trkpt>
      <trkpt lat="43.78298" lon="1.28461">
        <ele>102.52</ele>
        <time>2016-01-02T08:23:53Z</time>
      </trkpt>
      <trkpt lat="43.78301" lon="1.28459">
        <ele>102.52</ele>
        <time>2016-01-02T08:23:54Z</time>
      </trkpt>
      <trkpt lat="43.78303" lon="1.28457">
        <ele>102.52</ele>
        <time>2016-01-02T08:23:55Z</time>
      </trkpt>
      <trkpt lat="43.78305" lon="1.28454">
        <ele>103</ele>
        <time>2016-01-02T08:23:56Z</time>
      </trkpt>
      <trkpt lat="43.78308" lon="1.28452">
        <ele>102.52</ele>
        <time>2016-01-02T08:23:57Z</time>
      </trkpt>
      <trkpt lat="43.7831" lon="1.2845">
        <ele>102.52</ele>
        <time>2016-01-02T08:23:58Z</time>
      </trkpt>
      <trkpt lat="43.78313" lon="1.28447">
        <ele>102.04</ele>
        <time>2016-01-02T08:23:59Z</time>
      </trkpt>
      <trkpt lat="43.78315" lon="1.28445">
        <ele>102.52</ele>
        <time>2016-01-02T08:24:00Z</time>
      </trkpt>
      <trkpt lat="43.78318" lon="1.28443">
        <ele>102.52</ele>
        <time>2016-01-02T08:24:01Z</time>
      </trkpt>
      <trkpt lat="43.7832" lon="1.2844">
        <ele>102.52</ele>
        <time>2016-01-02T08:24:02Z</time>
      </trkpt>
      <trkpt lat="43.78323" lon="1.28438">
        <ele>102.52</ele>
        <time>2016-01-02T08:24:03Z</time>
      </trkpt>
      <trkpt lat="43.78325" lon="1.28436">
        <ele>103</ele>
        <time>2016-01-02T08:24:04Z</time>
      </trkpt>
      <trkpt lat="43.78328" lon="1.28434">
        <ele>103</ele>
        <time>2016-01-02T08:24:05Z</time>
      </trkpt>
      <trkpt lat="43.78331" lon="1.28431">
        <ele>102.52</ele>
        <time>2016-01-02T08:24:06Z</time>
      </trkpt>
      <trkpt lat="43.78333" lon="1.28429">
        <ele>102.52</ele>
        <time>2016-01-02T08:24:07Z</time>
      </trkpt>
      <trkpt lat="43.78336" lon="1.28427">
        <ele>102.52</ele>
        <time>2016-01-02T08:24:08Z</time>
      </trkpt>
      <trkpt lat="43.78338" lon="1.28425">
        <ele>103</ele>
        <time>2016-01-02T08:24:09Z</time>
      </trkpt>
      <trkpt lat="43.78341" lon="1.28422">
        <ele>102.52</ele>
        <time>2016-01-02T08:24:10Z</time>
      </trkpt>
      <trkpt lat="43.78343" lon="1.2842">
        <ele>102.52</ele>
        <time>2016-01-02T08:24:11Z</time>
      </trkpt>
      <trkpt lat="43.78346" lon="1.28418">
        <ele>102.52</ele>
        <time>2016-01-02T08:24:12Z</time>
      </trkpt>
      <trkpt lat="43.78348" lon="1.28416">
        <ele>102.52</ele>
        <time>2016-01-02T08:24:13Z</time>
      </trkpt>
      <trkpt lat="43.78351" lon="1.28413">
        <ele>102.52</ele>
        <time>2016-01-02T08:24:14Z</time>
      </trkpt>
      <trkpt lat="43.78353" lon="1.28411">
        <ele>102.52</ele>
        <time>2016-01-02T08:24:15Z</time>
      </trkpt>
      <trkpt lat="43.78356" lon="1.28409">
        <ele>102.52</ele>
        <time>2016-01-02T08:24:16Z</time>
      </trkpt>
      <trkpt lat="43.78359" lon="1.28407">
        <ele>102.52</ele>
        <time>2016-01-02T08:24:17Z</time>
      </trkpt>
      <trkpt lat="43.78361" lon="1.28405">
        <ele>102.52</ele>
        <time>2016-01-02T08:24:18Z</time>
      </trkpt>
      <trkpt lat="43.78364" lon="1.28403">
        <ele>102.52</ele>
        <time>2016-01-02T08:24:19Z</time>
      </trkpt>
      <trkpt lat="43.78366" lon="1.28401">
        <ele>102.04</ele>
        <time>2016-01-02T08:24:20Z</time>
      </trkpt>
      <trkpt lat="43.78369" lon="1.28399">
        <ele>102.04</ele>
        <time>2016-01-02T08:24:21Z</time>
      </trkpt>
      <trkpt lat="43.78371" lon="1.28396">
        <ele>102.52</ele>
        <time>2016-01-02T08:24:22Z</time>
      </trkpt>
      <trkpt lat="43.78373" lon="1.28394">
        <ele>102.04</ele>
        <time>2016-01-02T08:24:23Z</time>
      </trkpt>
      <trkpt lat="43.78374" lon="1.28391">
        <ele>102.04</ele>
        <time>2016-01-02T08:24:24Z</time>
      </trkpt>
      <trkpt lat="43.78375" lon="1.28389">
        <ele>102.52</ele>
        <time>2016-01-02T08:24:25Z</time>
      </trkpt>
      <trkpt lat="43.78374" lon="1.28386">
        <ele>102.52</ele>
        <time>2016-01-02T08:24:26Z</time>
      </trkpt>
      <trkpt lat="43.78374" lon="1.28383">
        <ele>103</ele>
        <time>2016-01-02T08:24:27Z</time>
      </trkpt>
      <trkpt lat="43.78374" lon="1.28379">
        <ele>102.52</ele>
        <time>2016-01-02T08:24:28Z</time>
      </trkpt>
      <trkpt lat="43.78373" lon="1.28376">
        <ele>102.52</ele>
        <time>2016-01-02T08:24:29Z</time>
      </trkpt>
      <trkpt lat="43.78372" lon="1.28372">
        <ele>102.52</ele>
        <time>2016-01-02T08:24:30Z</time>
      </trkpt>
      <trkpt lat="43.78372" lon="1.28369">
        <ele>103</ele>
        <time>2016-01-02T08:24:31Z</time>
      </trkpt>
      <trkpt lat="43.78372" lon="1.28365">
        <ele>103</ele>
        <time>2016-01-02T08:24:32Z</time>
      </trkpt>
      <trkpt lat="43.78372" lon="1.28361">
        <ele>103</ele>
        <time>2016-01-02T08:24:33Z</time>
      </trkpt>
      <trkpt lat="43.78372" lon="1.28358">
        <ele>103</ele>
        <time>2016-01-02T08:24:34Z</time>
      </trkpt>
      <trkpt lat="43.78371" lon="1.28355">
        <ele>103</ele>
        <time>2016-01-02T08:24:35Z</time>
      </trkpt>
      <trkpt lat="43.78371" lon="1.2835">
        <ele>103</ele>
        <time>2016-01-02T08:24:36Z</time>
      </trkpt>
      <trkpt lat="43.7837" lon="1.28347">
        <ele>103</ele>
        <time>2016-01-02T08:24:37Z</time>
      </trkpt>
      <trkpt lat="43.78369" lon="1.28343">
        <ele>103</ele>
        <time>2016-01-02T08:24:38Z</time>
      </trkpt>
      <trkpt lat="43.78368" lon="1.28339">
        <ele>103</ele>
        <time>2016-01-02T08:24:39Z</time>
      </trkpt>
      <trkpt lat="43.78367" lon="1.28336">
        <ele>103</ele>
        <time>2016-01-02T08:24:40Z</time>
      </trkpt>
      <trkpt lat="43.78366" lon="1.28332">
        <ele>103</ele>
        <time>2016-01-02T08:24:41Z</time>
      </trkpt>
      <trkpt lat="43.78365" lon="1.28328">
        <ele>103</ele>
        <time>2016-01-02T08:24:42Z</time>
      </trkpt>
      <trkpt lat="43.78365" lon="1.28324">
        <ele>103</ele>
        <time>2016-01-02T08:24:43Z</time>
      </trkpt>
      <trkpt lat="43.78364" lon="1.2832">
        <ele>103</ele>
        <time>2016-01-02T08:24:44Z</time>
      </trkpt>
      <trkpt lat="43.78363" lon="1.28316">
        <ele>103</ele>
        <time>2016-01-02T08:24:45Z</time>
      </trkpt>
      <trkpt lat="43.78362" lon="1.28313">
        <ele>103</ele>
        <time>2016-01-02T08:24:46Z</time>
      </trkpt>
      <trkpt lat="43.78361" lon="1.28309">
        <ele>103.48</ele>
        <time>2016-01-02T08:24:47Z</time>
      </trkpt>
      <trkpt lat="43.78359" lon="1.28306">
        <ele>103.48</ele>
        <time>2016-01-02T08:24:48Z</time>
      </trkpt>
      <trkpt lat="43.78358" lon="1.28302">
        <ele>103.48</ele>
        <time>2016-01-02T08:24:49Z</time>
      </trkpt>
      <trkpt lat="43.78357" lon="1.28298">
        <ele>103</ele>
        <time>2016-01-02T08:24:50Z</time>
      </trkpt>
      <trkpt lat="43.78356" lon="1.28294">
        <ele>103.48</ele>
        <time>2016-01-02T08:24:51Z</time>
      </trkpt>
      <trkpt lat="43.78355" lon="1.28291">
        <ele>103.48</ele>
        <time>2016-01-02T08:24:52Z</time>
      </trkpt>
      <trkpt lat="43.78354" lon="1.28287">
        <ele>103.48</ele>
        <time>2016-01-02T08:24:53Z</time>
      </trkpt>
      <trkpt lat="43.78353" lon="1.28283">
        <ele>103</ele>
        <time>2016-01-02T08:24:54Z</time>
      </trkpt>
      <trkpt lat="43.78352" lon="1.2828">
        <ele>103</ele>
        <time>2016-01-02T08:24:55Z</time>
      </trkpt>
      <trkpt lat="43.78351" lon="1.28276">
        <ele>103</ele>
        <time>2016-01-02T08:24:56Z</time>
      </trkpt>
      <trkpt lat="43.7835" lon="1.28272">
        <ele>103</ele>
        <time>2016-01-02T08:24:57Z</time>
      </trkpt>
      <trkpt lat="43.78349" lon="1.28269">
        <ele>103.48</ele>
        <time>2016-01-02T08:24:58Z</time>
      </trkpt>
      <trkpt lat="43.78348" lon="1.28265">
        <ele>103</ele>
        <time>2016-01-02T08:24:59Z</time>
      </trkpt>
      <trkpt lat="43.78347" lon="1.28261">
        <ele>103</ele>
        <time>2016-01-02T08:25:00Z</time>
      </trkpt>
      <trkpt lat="43.78345" lon="1.28257">
        <ele>103</ele>
        <time>2016-01-02T08:25:01Z</time>
      </trkpt>
      <trkpt lat="43.78344" lon="1.28254">
        <ele>103</ele>
        <time>2016-01-02T08:25:02Z</time>
      </trkpt>
      <trkpt lat="43.78344" lon="1.28251">
        <ele>103</ele>
        <time>2016-01-02T08:25:03Z</time>
      </trkpt>
      <trkpt lat="43.78343" lon="1.28247">
        <ele>103</ele>
        <time>2016-01-02T08:25:04Z</time>
      </trkpt>
      <trkpt lat="43.78341" lon="1.28243">
        <ele>102.52</ele>
        <time>2016-01-02T08:25:05Z</time>
      </trkpt>
      <trkpt lat="43.7834" lon="1.28239">
        <ele>103</ele>
        <time>2016-01-02T08:25:06Z</time>
      </trkpt>
      <trkpt lat="43.78338" lon="1.28235">
        <ele>103</ele>
        <time>2016-01-02T08:25:07Z</time>
      </trkpt>
      <trkpt lat="43.78337" lon="1.28231">
        <ele>103.48</ele>
        <time>2016-01-02T08:25:08Z</time>
      </trkpt>
      <trkpt lat="43.78335" lon="1.28227">
        <ele>103.48</ele>
        <time>2016-01-02T08:25:09Z</time>
      </trkpt>
      <trkpt lat="43.78334" lon="1.28223">
        <ele>103</ele>
        <time>2016-01-02T08:25:10Z</time>
      </trkpt>
      <trkpt lat="43.78333" lon="1.28219">
        <ele>103</ele>
        <time>2016-01-02T08:25:11Z</time>
      </trkpt>
      <trkpt lat="43.78332" lon="1.28216">
        <ele>103</ele>
        <time>2016-01-02T08:25:12Z</time>
      </trkpt>
      <trkpt lat="43.78331" lon="1.28212">
        <ele>103.48</ele>
        <time>2016-01-02T08:25:13Z</time>
      </trkpt>
      <trkpt lat="43.78329" lon="1.28207">
        <ele>103</ele>
        <time>2016-01-02T08:25:14Z</time>
      </trkpt>
      <trkpt lat="43.78328" lon="1.28203">
        <ele>103</ele>
        <time>2016-01-02T08:25:15Z</time>
      </trkpt>
      <trkpt lat="43.78327" lon="1.28199">
        <ele>103</ele>
        <time>2016-01-02T08:25:16Z</time>
      </trkpt>
      <trkpt lat="43.78326" lon="1.28195">
        <ele>103</ele>
        <time>2016-01-02T08:25:17Z</time>
      </trkpt>
      <trkpt lat="43.78325" lon="1.28191">
        <ele>103</ele>
        <time>2016-01-02T08:25:18Z</time>
      </trkpt>
      <trkpt lat="43.78324" lon="1.28187">
        <ele>103</ele>
        <time>2016-01-02T08:25:19Z</time>
      </trkpt>
      <trkpt lat="43.78324" lon="1.28182">
        <ele>103</ele>
        <time>2016-01-02T08:25:20Z</time>
      </trkpt>
      <trkpt lat="43.78323" lon="1.28178">
        <ele>103</ele>
        <time>2016-01-02T08:25:21Z</time>
      </trkpt>
      <trkpt lat="43.78323" lon="1.28173">
        <ele>103</ele>
        <time>2016-01-02T08:25:22Z</time>
      </trkpt>
      <trkpt lat="43.78321" lon="1.28169">
        <ele>103</ele>
        <time>2016-01-02T08:25:23Z</time>
      </trkpt>
      <trkpt lat="43.78319" lon="1.28167">
        <ele>103</ele>
        <time>2016-01-02T08:25:24Z</time>
      </trkpt>
      <trkpt lat="43.78316" lon="1.28167">
        <ele>103</ele>
        <time>2016-01-02T08:25:25Z</time>
      </trkpt>
      <trkpt lat="43.78314" lon="1.28169">
        <ele>103</ele>
        <time>2016-01-02T08:25:26Z</time>
      </trkpt>
      <trkpt lat="43.78312" lon="1.28172">
        <ele>103</ele>
        <time>2016-01-02T08:25:27Z</time>
      </trkpt>
      <trkpt lat="43.7831" lon="1.28177">
        <ele>103</ele>
        <time>2016-01-02T08:25:28Z</time>
      </trkpt>
      <trkpt lat="43.78308" lon="1.28181">
        <ele>103</ele>
        <time>2016-01-02T08:25:29Z</time>
      </trkpt>
      <trkpt lat="43.78305" lon="1.28184">
        <ele>103</ele>
        <time>2016-01-02T08:25:30Z</time>
      </trkpt>
      <trkpt lat="43.78303" lon="1.28187">
        <ele>103</ele>
        <time>2016-01-02T08:25:31Z</time>
      </trkpt>
      <trkpt lat="43.783" lon="1.2819">
        <ele>103</ele>
        <time>2016-01-02T08:25:32Z</time>
      </trkpt>
      <trkpt lat="43.78297" lon="1.28193">
        <ele>103</ele>
        <time>2016-01-02T08:25:33Z</time>
      </trkpt>
      <trkpt lat="43.78294" lon="1.28196">
        <ele>103</ele>
        <time>2016-01-02T08:25:34Z</time>
      </trkpt>
      <trkpt lat="43.78292" lon="1.28199">
        <ele>103</ele>
        <time>2016-01-02T08:25:35Z</time>
      </trkpt>
      <trkpt lat="43.78289" lon="1.28201">
        <ele>103</ele>
        <time>2016-01-02T08:25:36Z</time>
      </trkpt>
      <trkpt lat="43.78286" lon="1.28203">
        <ele>103</ele>
        <time>2016-01-02T08:25:37Z</time>
      </trkpt>
      <trkpt lat="43.78283" lon="1.28206">
        <ele>103</ele>
        <time>2016-01-02T08:25:38Z</time>
      </trkpt>
      <trkpt lat="43.78281" lon="1.28208">
        <ele>102.52</ele>
        <time>2016-01-02T08:25:39Z</time>
      </trkpt>
      <trkpt lat="43.78278" lon="1.28211">
        <ele>102.52</ele>
        <time>2016-01-02T08:25:40Z</time>
      </trkpt>
      <trkpt lat="43.78276" lon="1.28213">
        <ele>102.52</ele>
        <time>2016-01-02T08:25:41Z</time>
      </trkpt>
      <trkpt lat="43.78273" lon="1.28215">
        <ele>102.52</ele>
        <time>2016-01-02T08:25:42Z</time>
      </trkpt>
      <trkpt lat="43.7827" lon="1.28217">
        <ele>102.52</ele>
        <time>2016-01-02T08:25:43Z</time>
      </trkpt>
      <trkpt lat="43.78268" lon="1.2822">
        <ele>103</ele>
        <time>2016-01-02T08:25:44Z</time>
      </trkpt>
      <trkpt lat="43.78265" lon="1.28222">
        <ele>103</ele>
        <time>2016-01-02T08:25:45Z</time>
      </trkpt>
      <trkpt lat="43.78262" lon="1.28224">
        <ele>102.52</ele>
        <time>2016-01-02T08:25:46Z</time>
      </trkpt>
      <trkpt lat="43.7826" lon="1.28227">
        <ele>102.52</ele>
        <time>2016-01-02T08:25:47Z</time>
      </trkpt>
      <trkpt lat="43.78257" lon="1.28229">
        <ele>103</ele>
        <time>2016-01-02T08:25:48Z</time>
      </trkpt>
      <trkpt lat="43.78254" lon="1.28231">
        <ele>103</ele>
        <time>2016-01-02T08:25:49Z</time>
      </trkpt>
      <trkpt lat="43.78252" lon="1.28234">
        <ele>103</ele>
        <time>2016-01-02T08:25:50Z</time>
      </trkpt>
      <trkpt lat="43.78249" lon="1.28237">
        <ele>102.52</ele>
        <time>2016-01-02T08:25:51Z</time>
      </trkpt>
      <trkpt lat="43.78247" lon="1.28239">
        <ele>102.52</ele>
        <time>2016-01-02T08:25:52Z</time>
      </trkpt>
      <trkpt lat="43.78244" lon="1.28242">
        <ele>103</ele>
        <time>2016-01-02T08:25:53Z</time>
      </trkpt>
      <trkpt lat="43.78242" lon="1.28245">
        <ele>103</ele>
        <time>2016-01-02T08:25:54Z</time>
      </trkpt>
      <trkpt lat="43.78239" lon="1.28247">
        <ele>103</ele>
        <time>2016-01-02T08:25:55Z</time>
      </trkpt>
      <trkpt lat="43.78237" lon="1.28249">
        <ele>102.52</ele>
        <time>2016-01-02T08:25:56Z</time>
      </trkpt>
      <trkpt lat="43.78234" lon="1.28251">
        <ele>103</ele>
        <time>2016-01-02T08:25:57Z</time>
      </trkpt>
      <trkpt lat="43.78232" lon="1.28253">
        <ele>103</ele>
        <time>2016-01-02T08:25:58Z</time>
      </trkpt>
      <trkpt lat="43.78229" lon="1.28255">
        <ele>103</ele>
        <time>2016-01-02T08:25:59Z</time>
      </trkpt>
      <trkpt lat="43.78227" lon="1.28257">
        <ele>103</ele>
        <time>2016-01-02T08:26:00Z</time>
      </trkpt>
      <trkpt lat="43.78224" lon="1.28259">
        <ele>103</ele>
        <time>2016-01-02T08:26:01Z</time>
      </trkpt>
      <trkpt lat="43.78221" lon="1.28262">
        <ele>103</ele>
        <time>2016-01-02T08:26:02Z</time>
      </trkpt>
      <trkpt lat="43.78219" lon="1.28264">
        <ele>102.52</ele>
        <time>2016-01-02T08:26:03Z</time>
      </trkpt>
      <trkpt lat="43.78216" lon="1.28266">
        <ele>103</ele>
        <time>2016-01-02T08:26:04Z</time>
      </trkpt>
      <trkpt lat="43.78213" lon="1.28268">
        <ele>103</ele>
        <time>2016-01-02T08:26:05Z</time>
      </trkpt>
      <trkpt lat="43.78211" lon="1.2827">
        <ele>103</ele>
        <time>2016-01-02T08:26:06Z</time>
      </trkpt>
      <trkpt lat="43.78208" lon="1.28272">
        <ele>103</ele>
        <time>2016-01-02T08:26:07Z</time>
      </trkpt>
      <trkpt lat="43.78206" lon="1.28274">
        <ele>103</ele>
        <time>2016-01-02T08:26:08Z</time>
      </trkpt>
      <trkpt lat="43.78203" lon="1.28276">
        <ele>103</ele>
        <time>2016-01-02T08:26:09Z</time>
      </trkpt>
      <trkpt lat="43.782" lon="1.28278">
        <ele>103</ele>
        <time>2016-01-02T08:26:10Z</time>
      </trkpt>
      <trkpt lat="43.78198" lon="1.2828">
        <ele>103</ele>
        <time>2016-01-02T08:26:11Z</time>
      </trkpt>
      <trkpt lat="43.78196" lon="1.28282">
        <ele>103</ele>
        <time>2016-01-02T08:26:12Z</time>
      </trkpt>
      <trkpt lat="43.78193" lon="1.28284">
        <ele>103.48</ele>
        <time>2016-01-02T08:26:13Z</time>
      </trkpt>
      <trkpt lat="43.78191" lon="1.28286">
        <ele>103.48</ele>
        <time>2016-01-02T08:26:14Z</time>
      </trkpt>
      <trkpt lat="43.78188" lon="1.28288">
        <ele>103</ele>
        <time>2016-01-02T08:26:15Z</time>
      </trkpt>
      <trkpt lat="43.78186" lon="1.2829">
        <ele>103</ele>
        <time>2016-01-02T08:26:16Z</time>
      </trkpt>
      <trkpt lat="43.78183" lon="1.28292">
        <ele>103</ele>
        <time>2016-01-02T08:26:17Z</time>
      </trkpt>
      <trkpt lat="43.78181" lon="1.28294">
        <ele>103.48</ele>
        <time>2016-01-02T08:26:18Z</time>
      </trkpt>
      <trkpt lat="43.78178" lon="1.28296">
        <ele>103</ele>
        <time>2016-01-02T08:26:19Z</time>
      </trkpt>
      <trkpt lat="43.78175" lon="1.28298">
        <ele>103</ele>
        <time>2016-01-02T08:26:20Z</time>
      </trkpt>
      <trkpt lat="43.78173" lon="1.28299">
        <ele>103</ele>
        <time>2016-01-02T08:26:21Z</time>
      </trkpt>
      <trkpt lat="43.7817" lon="1.28301">
        <ele>103</ele>
        <time>2016-01-02T08:26:22Z</time>
      </trkpt>
      <trkpt lat="43.78168" lon="1.28303">
        <ele>103</ele>
        <time>2016-01-02T08:26:23Z</time>
      </trkpt>
      <trkpt lat="43.78165" lon="1.28306">
        <ele>103</ele>
        <time>2016-01-02T08:26:24Z</time>
      </trkpt>
      <trkpt lat="43.78162" lon="1.28308">
        <ele>103</ele>
        <time>2016-01-02T08:26:25Z</time>
      </trkpt>
      <trkpt lat="43.78159" lon="1.2831">
        <ele>103</ele>
        <time>2016-01-02T08:26:26Z</time>
      </trkpt>
      <trkpt lat="43.78157" lon="1.28312">
        <ele>103</ele>
        <time>2016-01-02T08:26:27Z</time>
      </trkpt>
      <trkpt lat="43.78155" lon="1.28314">
        <ele>103</ele>
        <time>2016-01-02T08:26:28Z</time>
      </trkpt>
      <trkpt lat="43.78152" lon="1.28316">
        <ele>103.48</ele>
        <time>2016-01-02T08:26:29Z</time>
      </trkpt>
      <trkpt lat="43.78149" lon="1.28318">
        <ele>103.48</ele>
        <time>2016-01-02T08:26:30Z</time>
      </trkpt>
      <trkpt lat="43.78147" lon="1.28321">
        <ele>103</ele>
        <time>2016-01-02T08:26:31Z</time>
      </trkpt>
      <trkpt lat="43.78144" lon="1.28323">
        <ele>103</ele>
        <time>2016-01-02T08:26:32Z</time>
      </trkpt>
      <trkpt lat="43.78141" lon="1.28325">
        <ele>103.48</ele>
        <time>2016-01-02T08:26:33Z</time>
      </trkpt>
      <trkpt lat="43.78139" lon="1.28327">
        <ele>103.48</ele>
        <time>2016-01-02T08:26:34Z</time>
      </trkpt>
      <trkpt lat="43.78136" lon="1.28329">
        <ele>103.96</ele>
        <time>2016-01-02T08:26:35Z</time>
      </trkpt>
      <trkpt lat="43.78134" lon="1.28331">
        <ele>103.48</ele>
        <time>2016-01-02T08:26:36Z</time>
      </trkpt>
      <trkpt lat="43.78132" lon="1.28333">
        <ele>103</ele>
        <time>2016-01-02T08:26:37Z</time>
      </trkpt>
      <trkpt lat="43.78129" lon="1.28335">
        <ele>103.48</ele>
        <time>2016-01-02T08:26:38Z</time>
      </trkpt>
      <trkpt lat="43.78126" lon="1.28337">
        <ele>103.96</ele>
        <time>2016-01-02T08:26:39Z</time>
      </trkpt>
      <trkpt lat="43.78124" lon="1.28339">
        <ele>103.96</ele>
        <time>2016-01-02T08:26:40Z</time>
      </trkpt>
      <trkpt lat="43.78121" lon="1.28341">
        <ele>103.96</ele>
        <time>2016-01-02T08:26:41Z</time>
      </trkpt>
      <trkpt lat="43.78118" lon="1.28343">
        <ele>103.48</ele>
        <time>2016-01-02T08:26:42Z</time>
      </trkpt>
      <trkpt lat="43.78115" lon="1.28345">
        <ele>103.48</ele>
        <time>2016-01-02T08:26:43Z</time>
      </trkpt>
      <trkpt lat="43.78112" lon="1.28347">
        <ele>103.96</ele>
        <time>2016-01-02T08:26:44Z</time>
      </trkpt>
      <trkpt lat="43.78109" lon="1.28349">
        <ele>103.96</ele>
        <time>2016-01-02T08:26:45Z</time>
      </trkpt>
      <trkpt lat="43.78107" lon="1.2835">
        <ele>103.96</ele>
        <time>2016-01-02T08:26:46Z</time>
      </trkpt>
      <trkpt lat="43.78104" lon="1.28352">
        <ele>103.96</ele>
        <time>2016-01-02T08:26:47Z</time>
      </trkpt>
      <trkpt lat="43.78102" lon="1.28355">
        <ele>103.96</ele>
        <time>2016-01-02T08:26:48Z</time>
      </trkpt>
      <trkpt lat="43.78099" lon="1.28357">
        <ele>103.96</ele>
        <time>2016-01-02T08:26:49Z</time>
      </trkpt>
      <trkpt lat="43.78096" lon="1.2836">
        <ele>103.96</ele>
        <time>2016-01-02T08:26:50Z</time>
      </trkpt>
      <trkpt lat="43.78094" lon="1.28362">
        <ele>103.96</ele>
        <time>2016-01-02T08:26:51Z</time>
      </trkpt>
      <trkpt lat="43.78091" lon="1.28364">
        <ele>103.96</ele>
        <time>2016-01-02T08:26:52Z</time>
      </trkpt>
      <trkpt lat="43.78088" lon="1.28366">
        <ele>103.96</ele>
        <time>2016-01-02T08:26:53Z</time>
      </trkpt>
      <trkpt lat="43.78086" lon="1.28369">
        <ele>103.96</ele>
        <time>2016-01-02T08:26:54Z</time>
      </trkpt>
      <trkpt lat="43.78084" lon="1.28371">
        <ele>103.96</ele>
        <time>2016-01-02T08:26:55Z</time>
      </trkpt>
      <trkpt lat="43.78081" lon="1.28373">
        <ele>103.96</ele>
        <time>2016-01-02T08:26:56Z</time>
      </trkpt>
      <trkpt lat="43.78079" lon="1.28375">
        <ele>103.96</ele>
        <time>2016-01-02T08:26:57Z</time>
      </trkpt>
      <trkpt lat="43.78076" lon="1.28377">
        <ele>103.96</ele>
        <time>2016-01-02T08:26:58Z</time>
      </trkpt>
      <trkpt lat="43.78074" lon="1.2838">
        <ele>103.96</ele>
        <time>2016-01-02T08:26:59Z</time>
      </trkpt>
      <trkpt lat="43.78071" lon="1.28381">
        <ele>103.96</ele>
        <time>2016-01-02T08:27:00Z</time>
      </trkpt>
      <trkpt lat="43.78069" lon="1.28383">
        <ele>103.96</ele>
        <time>2016-01-02T08:27:01Z</time>
      </trkpt>
      <trkpt lat="43.78066" lon="1.28386">
        <ele>103.96</ele>
        <time>2016-01-02T08:27:02Z</time>
      </trkpt>
      <trkpt lat="43.78063" lon="1.28389">
        <ele>103.96</ele>
        <time>2016-01-02T08:27:03Z</time>
      </trkpt>
      <trkpt lat="43.78061" lon="1.28391">
        <ele>103.96</ele>
        <time>2016-01-02T08:27:04Z</time>
      </trkpt>
      <trkpt lat="43.78058" lon="1.28395">
        <ele>103.96</ele>
        <time>2016-01-02T08:27:05Z</time>
      </trkpt>
      <trkpt lat="43.78056" lon="1.28397">
        <ele>103.96</ele>
        <time>2016-01-02T08:27:06Z</time>
      </trkpt>
      <trkpt lat="43.78053" lon="1.284">
        <ele>103.96</ele>
        <time>2016-01-02T08:27:07Z</time>
      </trkpt>
      <trkpt lat="43.78051" lon="1.28402">
        <ele>103.48</ele>
        <time>2016-01-02T08:27:08Z</time>
      </trkpt>
      <trkpt lat="43.78048" lon="1.28404">
        <ele>103.48</ele>
        <time>2016-01-02T08:27:09Z</time>
      </trkpt>
      <trkpt lat="43.78045" lon="1.28406">
        <ele>103.96</ele>
        <time>2016-01-02T08:27:10Z</time>
      </trkpt>
      <trkpt lat="43.78043" lon="1.28408">
        <ele>103.96</ele>
        <time>2016-01-02T08:27:11Z</time>
      </trkpt>
      <trkpt lat="43.7804" lon="1.28411">
        <ele>103.96</ele>
        <time>2016-01-02T08:27:12Z</time>
      </trkpt>
      <trkpt lat="43.78038" lon="1.28413">
        <ele>103.96</ele>
        <time>2016-01-02T08:27:13Z</time>
      </trkpt>
      <trkpt lat="43.78035" lon="1.28415">
        <ele>103.48</ele>
        <time>2016-01-02T08:27:14Z</time>
      </trkpt>
      <trkpt lat="43.78033" lon="1.28417">
        <ele>103.96</ele>
        <time>2016-01-02T08:27:15Z</time>
      </trkpt>
      <trkpt lat="43.7803" lon="1.2842">
        <ele>103.96</ele>
        <time>2016-01-02T08:27:16Z</time>
      </trkpt>
      <trkpt lat="43.78027" lon="1.28422">
        <ele>103.96</ele>
        <time>2016-01-02T08:27:17Z</time>
      </trkpt>
      <trkpt lat="43.78025" lon="1.28424">
        <ele>103.48</ele>
        <time>2016-01-02T08:27:18Z</time>
      </trkpt>
      <trkpt lat="43.78022" lon="1.28426">
        <ele>103.96</ele>
        <time>2016-01-02T08:27:19Z</time>
      </trkpt>
      <trkpt lat="43.78019" lon="1.28428">
        <ele>103.96</ele>
        <time>2016-01-02T08:27:20Z</time>
      </trkpt>
      <trkpt lat="43.78017" lon="1.28429">
        <ele>104.44</ele>
        <time>2016-01-02T08:27:21Z</time>
      </trkpt>
      <trkpt lat="43.78015" lon="1.28431">
        <ele>104.44</ele>
        <time>2016-01-02T08:27:22Z</time>
      </trkpt>
      <trkpt lat="43.78012" lon="1.28434">
        <ele>103.96</ele>
        <time>2016-01-02T08:27:23Z</time>
      </trkpt>
      <trkpt lat="43.78009" lon="1.28436">
        <ele>103.96</ele>
        <time>2016-01-02T08:27:24Z</time>
      </trkpt>
      <trkpt lat="43.78007" lon="1.28438">
        <ele>104.44</ele>
        <time>2016-01-02T08:27:25Z</time>
      </trkpt>
      <trkpt lat="43.78004" lon="1.2844">
        <ele>104.44</ele>
        <time>2016-01-02T08:27:26Z</time>
      </trkpt>
      <trkpt lat="43.78001" lon="1.28442">
        <ele>103.96</ele>
        <time>2016-01-02T08:27:27Z</time>
      </trkpt>
      <trkpt lat="43.77999" lon="1.28444">
        <ele>103.96</ele>
        <time>2016-01-02T08:27:28Z</time>
      </trkpt>
      <trkpt lat="43.77996" lon="1.28446">
        <ele>103.96</ele>
        <time>2016-01-02T08:27:29Z</time>
      </trkpt>
      <trkpt lat="43.77994" lon="1.28449">
        <ele>104.44</ele>
        <time>2016-01-02T08:27:30Z</time>
      </trkpt>
      <trkpt lat="43.77991" lon="1.28452">
        <ele>104.44</ele>
        <time>2016-01-02T08:27:31Z</time>
      </trkpt>
      <trkpt lat="43.77989" lon="1.28454">
        <ele>104.44</ele>
        <time>2016-01-02T08:27:32Z</time>
      </trkpt>
      <trkpt lat="43.77987" lon="1.28456">
        <ele>103.96</ele>
        <time>2016-01-02T08:27:33Z</time>
      </trkpt>
      <trkpt lat="43.77984" lon="1.28458">
        <ele>103.96</ele>
        <time>2016-01-02T08:27:34Z</time>
      </trkpt>
      <trkpt lat="43.77981" lon="1.2846">
        <ele>103.96</ele>
        <time>2016-01-02T08:27:35Z</time>
      </trkpt>
      <trkpt lat="43.77979" lon="1.28462">
        <ele>104.44</ele>
        <time>2016-01-02T08:27:36Z</time>
      </trkpt>
      <trkpt lat="43.77976" lon="1.28464">
        <ele>104.44</ele>
        <time>2016-01-02T08:27:37Z</time>
      </trkpt>
      <trkpt lat="43.77974" lon="1.28466">
        <ele>104.44</ele>
        <time>2016-01-02T08:27:38Z</time>
      </trkpt>
      <trkpt lat="43.77971" lon="1.28468">
        <ele>103.96</ele>
        <time>2016-01-02T08:27:39Z</time>
      </trkpt>
      <trkpt lat="43.77969" lon="1.2847">
        <ele>103.96</ele>
        <time>2016-01-02T08:27:40Z</time>
      </trkpt>
      <trkpt lat="43.77966" lon="1.28472">
        <ele>104.44</ele>
        <time>2016-01-02T08:27:41Z</time>
      </trkpt>
      <trkpt lat="43.77963" lon="1.28474">
        <ele>104.44</ele>
        <time>2016-01-02T08:27:42Z</time>
      </trkpt>
      <trkpt lat="43.77961" lon="1.28476">
        <ele>104.44</ele>
        <time>2016-01-02T08:27:43Z</time>
      </trkpt>
      <trkpt lat="43.77958" lon="1.28479">
        <ele>103.96</ele>
        <time>2016-01-02T08:27:44Z</time>
      </trkpt>
      <trkpt lat="43.77956" lon="1.28481">
        <ele>103.96</ele>
        <time>2016-01-02T08:27:45Z</time>
      </trkpt>
      <trkpt lat="43.77954" lon="1.28483">
        <ele>103.96</ele>
        <time>2016-01-02T08:27:46Z</time>
      </trkpt>
      <trkpt lat="43.77951" lon="1.28485">
        <ele>104.44</ele>
        <time>2016-01-02T08:27:47Z</time>
      </trkpt>
      <trkpt lat="43.77949" lon="1.28487">
        <ele>104.44</ele>
        <time>2016-01-02T08:27:48Z</time>
      </trkpt>
      <trkpt lat="43.77946" lon="1.28489">
        <ele>103.96</ele>
        <time>2016-01-02T08:27:49Z</time>
      </trkpt>
      <trkpt lat="43.77944" lon="1.2849">
        <ele>103.96</ele>
        <time>2016-01-02T08:27:50Z</time>
      </trkpt>
      <trkpt lat="43.77941" lon="1.28492">
        <ele>103.96</ele>
        <time>2016-01-02T08:27:51Z</time>
      </trkpt>
      <trkpt lat="43.77939" lon="1.28494">
        <ele>103.96</ele>
        <time>2016-01-02T08:27:52Z</time>
      </trkpt>
      <trkpt lat="43.77937" lon="1.28495">
        <ele>104.44</ele>
        <time>2016-01-02T08:27:53Z</time>
      </trkpt>
      <trkpt lat="43.77935" lon="1.28497">
        <ele>104.44</ele>
        <time>2016-01-02T08:27:54Z</time>
      </trkpt>
      <trkpt lat="43.77932" lon="1.28499">
        <ele>103.96</ele>
        <time>2016-01-02T08:27:55Z</time>
      </trkpt>
      <trkpt lat="43.7793" lon="1.28501">
        <ele>103.96</ele>
        <time>2016-01-02T08:27:56Z</time>
      </trkpt>
      <trkpt lat="43.77927" lon="1.28504">
        <ele>104.44</ele>
        <time>2016-01-02T08:27:57Z</time>
      </trkpt>
      <trkpt lat="43.77925" lon="1.28506">
        <ele>104.44</ele>
        <time>2016-01-02T08:27:58Z</time>
      </trkpt>
      <trkpt lat="43.77922" lon="1.28509">
        <ele>104.92</ele>
        <time>2016-01-02T08:27:59Z</time>
      </trkpt>
      <trkpt lat="43.77919" lon="1.28511">
        <ele>104.44</ele>
        <time>2016-01-02T08:28:00Z</time>
      </trkpt>
      <trkpt lat="43.77917" lon="1.28513">
        <ele>104.44</ele>
        <time>2016-01-02T08:28:01Z</time>
      </trkpt>
      <trkpt lat="43.77914" lon="1.28515">
        <ele>104.44</ele>
        <time>2016-01-02T08:28:02Z</time>
      </trkpt>
      <trkpt lat="43.77912" lon="1.28518">
        <ele>104.44</ele>
        <time>2016-01-02T08:28:03Z</time>
      </trkpt>
      <trkpt lat="43.77909" lon="1.2852">
        <ele>104.92</ele>
        <time>2016-01-02T08:28:04Z</time>
      </trkpt>
      <trkpt lat="43.77906" lon="1.28523">
        <ele>104.92</ele>
        <time>2016-01-02T08:28:05Z</time>
      </trkpt>
      <trkpt lat="43.77904" lon="1.28526">
        <ele>104.92</ele>
        <time>2016-01-02T08:28:06Z</time>
      </trkpt>
      <trkpt lat="43.77901" lon="1.28528">
        <ele>104.44</ele>
        <time>2016-01-02T08:28:07Z</time>
      </trkpt>
      <trkpt lat="43.77899" lon="1.28531">
        <ele>104.44</ele>
        <time>2016-01-02T08:28:08Z</time>
      </trkpt>
      <trkpt lat="43.77896" lon="1.28533">
        <ele>104.44</ele>
        <time>2016-01-02T08:28:09Z</time>
      </trkpt>
      <trkpt lat="43.77893" lon="1.28536">
        <ele>104.92</ele>
        <time>2016-01-02T08:28:10Z</time>
      </trkpt>
      <trkpt lat="43.77891" lon="1.28538">
        <ele>104.92</ele>
        <time>2016-01-02T08:28:11Z</time>
      </trkpt>
      <trkpt lat="43.77888" lon="1.2854">
        <ele>104.44</ele>
        <time>2016-01-02T08:28:12Z</time>
      </trkpt>
      <trkpt lat="43.77885" lon="1.28542">
        <ele>104.44</ele>
        <time>2016-01-02T08:28:13Z</time>
      </trkpt>
      <trkpt lat="43.77883" lon="1.28545">
        <ele>104.44</ele>
        <time>2016-01-02T08:28:14Z</time>
      </trkpt>
      <trkpt lat="43.7788" lon="1.28547">
        <ele>104.44</ele>
        <time>2016-01-02T08:28:15Z</time>
      </trkpt>
      <trkpt lat="43.77877" lon="1.28549">
        <ele>104.92</ele>
        <time>2016-01-02T08:28:16Z</time>
      </trkpt>
      <trkpt lat="43.77875" lon="1.28552">
        <ele>104.92</ele>
        <time>2016-01-02T08:28:17Z</time>
      </trkpt>
      <trkpt lat="43.77872" lon="1.28553">
        <ele>104.44</ele>
        <time>2016-01-02T08:28:18Z</time>
      </trkpt>
      <trkpt lat="43.77869" lon="1.28555">
        <ele>104.44</ele>
        <time>2016-01-02T08:28:19Z</time>
      </trkpt>
      <trkpt lat="43.77867" lon="1.28558">
        <ele>104.92</ele>
        <time>2016-01-02T08:28:20Z</time>
      </trkpt>
      <trkpt lat="43.77864" lon="1.2856">
        <ele>104.92</ele>
        <time>2016-01-02T08:28:21Z</time>
      </trkpt>
      <trkpt lat="43.77858" lon="1.28564">
        <ele>104.92</ele>
        <time>2016-01-02T08:28:23Z</time>
      </trkpt>
      <trkpt lat="43.77856" lon="1.28566">
        <ele>104.92</ele>
        <time>2016-01-02T08:28:24Z</time>
      </trkpt>
      <trkpt lat="43.77853" lon="1.28569">
        <ele>104.92</ele>
        <time>2016-01-02T08:28:25Z</time>
      </trkpt>
      <trkpt lat="43.7785" lon="1.28571">
        <ele>104.92</ele>
        <time>2016-01-02T08:28:26Z</time>
      </trkpt>
      <trkpt lat="43.77847" lon="1.28573">
        <ele>104.44</ele>
        <time>2016-01-02T08:28:27Z</time>
      </trkpt>
      <trkpt lat="43.77845" lon="1.28575">
        <ele>104.44</ele>
        <time>2016-01-02T08:28:28Z</time>
      </trkpt>
      <trkpt lat="43.77842" lon="1.28578">
        <ele>104.44</ele>
        <time>2016-01-02T08:28:29Z</time>
      </trkpt>
      <trkpt lat="43.7784" lon="1.2858">
        <ele>104.92</ele>
        <time>2016-01-02T08:28:30Z</time>
      </trkpt>
      <trkpt lat="43.77837" lon="1.28582">
        <ele>104.92</ele>
        <time>2016-01-02T08:28:31Z</time>
      </trkpt>
      <trkpt lat="43.77834" lon="1.28584">
        <ele>104.92</ele>
        <time>2016-01-02T08:28:32Z</time>
      </trkpt>
      <trkpt lat="43.77832" lon="1.28586">
        <ele>104.44</ele>
        <time>2016-01-02T08:28:33Z</time>
      </trkpt>
      <trkpt lat="43.77829" lon="1.28588">
        <ele>104.44</ele>
        <time>2016-01-02T08:28:34Z</time>
      </trkpt>
      <trkpt lat="43.77827" lon="1.2859">
        <ele>104.92</ele>
        <time>2016-01-02T08:28:35Z</time>
      </trkpt>
      <trkpt lat="43.77824" lon="1.28592">
        <ele>104.92</ele>
        <time>2016-01-02T08:28:36Z</time>
      </trkpt>
      <trkpt lat="43.77821" lon="1.28594">
        <ele>104.92</ele>
        <time>2016-01-02T08:28:37Z</time>
      </trkpt>
      <trkpt lat="43.77819" lon="1.28597">
        <ele>104.92</ele>
        <time>2016-01-02T08:28:38Z</time>
      </trkpt>
      <trkpt lat="43.77816" lon="1.28599">
        <ele>104.92</ele>
        <time>2016-01-02T08:28:39Z</time>
      </trkpt>
      <trkpt lat="43.77814" lon="1.28601">
        <ele>105.4</ele>
        <time>2016-01-02T08:28:40Z</time>
      </trkpt>
      <trkpt lat="43.77811" lon="1.28603">
        <ele>105.4</ele>
        <time>2016-01-02T08:28:41Z</time>
      </trkpt>
      <trkpt lat="43.77808" lon="1.28605">
        <ele>104.92</ele>
        <time>2016-01-02T08:28:42Z</time>
      </trkpt>
      <trkpt lat="43.77806" lon="1.28607">
        <ele>104.92</ele>
        <time>2016-01-02T08:28:43Z</time>
      </trkpt>
      <trkpt lat="43.77803" lon="1.2861">
        <ele>104.92</ele>
        <time>2016-01-02T08:28:44Z</time>
      </trkpt>
      <trkpt lat="43.778" lon="1.28613">
        <ele>104.92</ele>
        <time>2016-01-02T08:28:45Z</time>
      </trkpt>
      <trkpt lat="43.77797" lon="1.28615">
        <ele>104.44</ele>
        <time>2016-01-02T08:28:46Z</time>
      </trkpt>
      <trkpt lat="43.77795" lon="1.28618">
        <ele>104.44</ele>
        <time>2016-01-02T08:28:47Z</time>
      </trkpt>
      <trkpt lat="43.77792" lon="1.2862">
        <ele>104.92</ele>
        <time>2016-01-02T08:28:48Z</time>
      </trkpt>
      <trkpt lat="43.77789" lon="1.28622">
        <ele>105.4</ele>
        <time>2016-01-02T08:28:49Z</time>
      </trkpt>
      <trkpt lat="43.77787" lon="1.28624">
        <ele>105.4</ele>
        <time>2016-01-02T08:28:50Z</time>
      </trkpt>
      <trkpt lat="43.77784" lon="1.28626">
        <ele>105.4</ele>
        <time>2016-01-02T08:28:51Z</time>
      </trkpt>
      <trkpt lat="43.77781" lon="1.28629">
        <ele>104.92</ele>
        <time>2016-01-02T08:28:52Z</time>
      </trkpt>
      <trkpt lat="43.77779" lon="1.28631">
        <ele>104.92</ele>
        <time>2016-01-02T08:28:53Z</time>
      </trkpt>
      <trkpt lat="43.77776" lon="1.28633">
        <ele>104.92</ele>
        <time>2016-01-02T08:28:54Z</time>
      </trkpt>
      <trkpt lat="43.77773" lon="1.28636">
        <ele>105.4</ele>
        <time>2016-01-02T08:28:55Z</time>
      </trkpt>
      <trkpt lat="43.7777" lon="1.28638">
        <ele>105.4</ele>
        <time>2016-01-02T08:28:56Z</time>
      </trkpt>
      <trkpt lat="43.77768" lon="1.2864">
        <ele>105.4</ele>
        <time>2016-01-02T08:28:57Z</time>
      </trkpt>
      <trkpt lat="43.77765" lon="1.28642">
        <ele>105.4</ele>
        <time>2016-01-02T08:28:58Z</time>
      </trkpt>
      <trkpt lat="43.77762" lon="1.28644">
        <ele>105.4</ele>
        <time>2016-01-02T08:28:59Z</time>
      </trkpt>
      <trkpt lat="43.77759" lon="1.28646">
        <ele>105.4</ele>
        <time>2016-01-02T08:29:00Z</time>
      </trkpt>
      <trkpt lat="43.77756" lon="1.28648">
        <ele>105.88</ele>
        <time>2016-01-02T08:29:01Z</time>
      </trkpt>
      <trkpt lat="43.77753" lon="1.2865">
        <ele>105.4</ele>
        <time>2016-01-02T08:29:02Z</time>
      </trkpt>
      <trkpt lat="43.7775" lon="1.28652">
        <ele>105.4</ele>
        <time>2016-01-02T08:29:03Z</time>
      </trkpt>
      <trkpt lat="43.77747" lon="1.28655">
        <ele>105.4</ele>
        <time>2016-01-02T08:29:04Z</time>
      </trkpt>
      <trkpt lat="43.77745" lon="1.28657">
        <ele>105.88</ele>
        <time>2016-01-02T08:29:05Z</time>
      </trkpt>
      <trkpt lat="43.77742" lon="1.2866">
        <ele>105.88</ele>
        <time>2016-01-02T08:29:06Z</time>
      </trkpt>
      <trkpt lat="43.7774" lon="1.28662">
        <ele>105.88</ele>
        <time>2016-01-02T08:29:07Z</time>
      </trkpt>
      <trkpt lat="43.77738" lon="1.28665">
        <ele>105.88</ele>
        <time>2016-01-02T08:29:08Z</time>
      </trkpt>
      <trkpt lat="43.77735" lon="1.28668">
        <ele>105.4</ele>
        <time>2016-01-02T08:29:09Z</time>
      </trkpt>
      <trkpt lat="43.77733" lon="1.2867">
        <ele>105.88</ele>
        <time>2016-01-02T08:29:10Z</time>
      </trkpt>
      <trkpt lat="43.77731" lon="1.28673">
        <ele>106.36</ele>
        <time>2016-01-02T08:29:11Z</time>
      </trkpt>
      <trkpt lat="43.77729" lon="1.28675">
        <ele>106.36</ele>
        <time>2016-01-02T08:29:12Z</time>
      </trkpt>
      <trkpt lat="43.77727" lon="1.28678">
        <ele>106.36</ele>
        <time>2016-01-02T08:29:13Z</time>
      </trkpt>
      <trkpt lat="43.77725" lon="1.28682">
        <ele>105.88</ele>
        <time>2016-01-02T08:29:14Z</time>
      </trkpt>
      <trkpt lat="43.77723" lon="1.28686">
        <ele>106.36</ele>
        <time>2016-01-02T08:29:15Z</time>
      </trkpt>
      <trkpt lat="43.77721" lon="1.2869">
        <ele>106.36</ele>
        <time>2016-01-02T08:29:16Z</time>
      </trkpt>
      <trkpt lat="43.7772" lon="1.28694">
        <ele>106.36</ele>
        <time>2016-01-02T08:29:17Z</time>
      </trkpt>
      <trkpt lat="43.77718" lon="1.28698">
        <ele>106.36</ele>
        <time>2016-01-02T08:29:18Z</time>
      </trkpt>
      <trkpt lat="43.77717" lon="1.28702">
        <ele>106.36</ele>
        <time>2016-01-02T08:29:19Z</time>
      </trkpt>
      <trkpt lat="43.77715" lon="1.28707">
        <ele>106.36</ele>
        <time>2016-01-02T08:29:20Z</time>
      </trkpt>
      <trkpt lat="43.77714" lon="1.28711">
        <ele>106.36</ele>
        <time>2016-01-02T08:29:21Z</time>
      </trkpt>
      <trkpt lat="43.77713" lon="1.28715">
        <ele>106.36</ele>
        <time>2016-01-02T08:29:22Z</time>
      </trkpt>
      <trkpt lat="43.77713" lon="1.2872">
        <ele>106.36</ele>
        <time>2016-01-02T08:29:23Z</time>
      </trkpt>
      <trkpt lat="43.77712" lon="1.28724">
        <ele>106.36</ele>
        <time>2016-01-02T08:29:24Z</time>
      </trkpt>
      <trkpt lat="43.77712" lon="1.28729">
        <ele>106.36</ele>
        <time>2016-01-02T08:29:25Z</time>
      </trkpt>
      <trkpt lat="43.77712" lon="1.28733">
        <ele>106.36</ele>
        <time>2016-01-02T08:29:26Z</time>
      </trkpt>
      <trkpt lat="43.77712" lon="1.28738">
        <ele>106.36</ele>
        <time>2016-01-02T08:29:27Z</time>
      </trkpt>
      <trkpt lat="43.77713" lon="1.28742">
        <ele>106.36</ele>
        <time>2016-01-02T08:29:28Z</time>
      </trkpt>
      <trkpt lat="43.77713" lon="1.28746">
        <ele>106.36</ele>
        <time>2016-01-02T08:29:29Z</time>
      </trkpt>
      <trkpt lat="43.77714" lon="1.28751">
        <ele>106.36</ele>
        <time>2016-01-02T08:29:30Z</time>
      </trkpt>
      <trkpt lat="43.77714" lon="1.28756">
        <ele>106.36</ele>
        <time>2016-01-02T08:29:31Z</time>
      </trkpt>
      <trkpt lat="43.77715" lon="1.2876">
        <ele>106.84</ele>
        <time>2016-01-02T08:29:32Z</time>
      </trkpt>
      <trkpt lat="43.77715" lon="1.28764">
        <ele>107.32</ele>
        <time>2016-01-02T08:29:33Z</time>
      </trkpt>
      <trkpt lat="43.77716" lon="1.28768">
        <ele>107.32</ele>
        <time>2016-01-02T08:29:34Z</time>
      </trkpt>
      <trkpt lat="43.77716" lon="1.28772">
        <ele>107.32</ele>
        <time>2016-01-02T08:29:35Z</time>
      </trkpt>
      <trkpt lat="43.77715" lon="1.28776">
        <ele>107.32</ele>
        <time>2016-01-02T08:29:36Z</time>
      </trkpt>
      <trkpt lat="43.77713" lon="1.28779">
        <ele>107.32</ele>
        <time>2016-01-02T08:29:37Z</time>
      </trkpt>
      <trkpt lat="43.7771" lon="1.28782">
        <ele>107.32</ele>
        <time>2016-01-02T08:29:38Z</time>
      </trkpt>
      <trkpt lat="43.77708" lon="1.28784">
        <ele>107.81</ele>
        <time>2016-01-02T08:29:39Z</time>
      </trkpt>
      <trkpt lat="43.77706" lon="1.28786">
        <ele>107.81</ele>
        <time>2016-01-02T08:29:40Z</time>
      </trkpt>
      <trkpt lat="43.77703" lon="1.28788">
        <ele>107.81</ele>
        <time>2016-01-02T08:29:41Z</time>
      </trkpt>
      <trkpt lat="43.777" lon="1.2879">
        <ele>107.81</ele>
        <time>2016-01-02T08:29:42Z</time>
      </trkpt>
      <trkpt lat="43.77698" lon="1.28792">
        <ele>107.81</ele>
        <time>2016-01-02T08:29:43Z</time>
      </trkpt>
      <trkpt lat="43.77695" lon="1.28794">
        <ele>107.81</ele>
        <time>2016-01-02T08:29:44Z</time>
      </trkpt>
      <trkpt lat="43.77692" lon="1.28794">
        <ele>107.81</ele>
        <time>2016-01-02T08:29:45Z</time>
      </trkpt>
      <trkpt lat="43.77689" lon="1.28793">
        <ele>107.81</ele>
        <time>2016-01-02T08:29:46Z</time>
      </trkpt>
      <trkpt lat="43.77687" lon="1.2879">
        <ele>107.32</ele>
        <time>2016-01-02T08:29:47Z</time>
      </trkpt>
      <trkpt lat="43.77685" lon="1.28786">
        <ele>107.32</ele>
        <time>2016-01-02T08:29:48Z</time>
      </trkpt>
      <trkpt lat="43.77684" lon="1.28782">
        <ele>107.32</ele>
        <time>2016-01-02T08:29:49Z</time>
      </trkpt>
      <trkpt lat="43.77682" lon="1.28779">
        <ele>107.81</ele>
        <time>2016-01-02T08:29:50Z</time>
      </trkpt>
      <trkpt lat="43.77681" lon="1.28775">
        <ele>107.81</ele>
        <time>2016-01-02T08:29:51Z</time>
      </trkpt>
      <trkpt lat="43.77679" lon="1.28771">
        <ele>107.81</ele>
        <time>2016-01-02T08:29:52Z</time>
      </trkpt>
      <trkpt lat="43.77677" lon="1.28767">
        <ele>107.81</ele>
        <time>2016-01-02T08:29:53Z</time>
      </trkpt>
      <trkpt lat="43.77676" lon="1.28764">
        <ele>107.81</ele>
        <time>2016-01-02T08:29:54Z</time>
      </trkpt>
      <trkpt lat="43.77674" lon="1.2876">
        <ele>107.81</ele>
        <time>2016-01-02T08:29:55Z</time>
      </trkpt>
      <trkpt lat="43.77673" lon="1.28757">
        <ele>108.29</ele>
        <time>2016-01-02T08:29:56Z</time>
      </trkpt>
      <trkpt lat="43.77671" lon="1.28753">
        <ele>108.29</ele>
        <time>2016-01-02T08:29:57Z</time>
      </trkpt>
      <trkpt lat="43.77669" lon="1.2875">
        <ele>107.81</ele>
        <time>2016-01-02T08:29:58Z</time>
      </trkpt>
      <trkpt lat="43.77667" lon="1.28746">
        <ele>107.81</ele>
        <time>2016-01-02T08:29:59Z</time>
      </trkpt>
      <trkpt lat="43.77666" lon="1.28743">
        <ele>108.29</ele>
        <time>2016-01-02T08:30:00Z</time>
      </trkpt>
      <trkpt lat="43.77664" lon="1.28739">
        <ele>108.29</ele>
        <time>2016-01-02T08:30:01Z</time>
      </trkpt>
      <trkpt lat="43.77663" lon="1.28736">
        <ele>108.77</ele>
        <time>2016-01-02T08:30:02Z</time>
      </trkpt>
      <trkpt lat="43.77661" lon="1.28733">
        <ele>108.77</ele>
        <time>2016-01-02T08:30:03Z</time>
      </trkpt>
      <trkpt lat="43.7766" lon="1.28729">
        <ele>108.29</ele>
        <time>2016-01-02T08:30:04Z</time>
      </trkpt>
      <trkpt lat="43.77658" lon="1.28725">
        <ele>108.29</ele>
        <time>2016-01-02T08:30:05Z</time>
      </trkpt>
      <trkpt lat="43.77656" lon="1.28721">
        <ele>108.29</ele>
        <time>2016-01-02T08:30:06Z</time>
      </trkpt>
      <trkpt lat="43.77654" lon="1.28718">
        <ele>108.29</ele>
        <time>2016-01-02T08:30:07Z</time>
      </trkpt>
      <trkpt lat="43.77652" lon="1.28714">
        <ele>108.77</ele>
        <time>2016-01-02T08:30:08Z</time>
      </trkpt>
      <trkpt lat="43.77651" lon="1.28711">
        <ele>108.77</ele>
        <time>2016-01-02T08:30:09Z</time>
      </trkpt>
      <trkpt lat="43.77649" lon="1.28707">
        <ele>108.77</ele>
        <time>2016-01-02T08:30:10Z</time>
      </trkpt>
      <trkpt lat="43.77648" lon="1.28703">
        <ele>108.77</ele>
        <time>2016-01-02T08:30:11Z</time>
      </trkpt>
      <trkpt lat="43.77647" lon="1.28699">
        <ele>108.77</ele>
        <time>2016-01-02T08:30:12Z</time>
      </trkpt>
      <trkpt lat="43.77645" lon="1.28695">
        <ele>108.77</ele>
        <time>2016-01-02T08:30:13Z</time>
      </trkpt>
      <trkpt lat="43.77644" lon="1.28692">
        <ele>109.25</ele>
        <time>2016-01-02T08:30:14Z</time>
      </trkpt>
      <trkpt lat="43.77643" lon="1.28689">
        <ele>109.25</ele>
        <time>2016-01-02T08:30:15Z</time>
      </trkpt>
      <trkpt lat="43.77641" lon="1.28685">
        <ele>109.25</ele>
        <time>2016-01-02T08:30:16Z</time>
      </trkpt>
      <trkpt lat="43.7764" lon="1.28682">
        <ele>108.77</ele>
        <time>2016-01-02T08:30:17Z</time>
      </trkpt>
      <trkpt lat="43.77638" lon="1.28678">
        <ele>108.77</ele>
        <time>2016-01-02T08:30:18Z</time>
      </trkpt>
      <trkpt lat="43.77637" lon="1.28675">
        <ele>108.77</ele>
        <time>2016-01-02T08:30:19Z</time>
      </trkpt>
      <trkpt lat="43.77636" lon="1.28673">
        <ele>109.73</ele>
        <time>2016-01-02T08:30:20Z</time>
      </trkpt>
      <trkpt lat="43.77634" lon="1.28669">
        <ele>109.73</ele>
        <time>2016-01-02T08:30:21Z</time>
      </trkpt>
      <trkpt lat="43.77632" lon="1.28666">
        <ele>109.73</ele>
        <time>2016-01-02T08:30:22Z</time>
      </trkpt>
      <trkpt lat="43.7763" lon="1.28663">
        <ele>109.25</ele>
        <time>2016-01-02T08:30:23Z</time>
      </trkpt>
      <trkpt lat="43.77629" lon="1.28659">
        <ele>108.77</ele>
        <time>2016-01-02T08:30:24Z</time>
      </trkpt>
      <trkpt lat="43.77628" lon="1.28656">
        <ele>108.77</ele>
        <time>2016-01-02T08:30:25Z</time>
      </trkpt>
      <trkpt lat="43.77626" lon="1.28653">
        <ele>108.77</ele>
        <time>2016-01-02T08:30:26Z</time>
      </trkpt>
      <trkpt lat="43.77625" lon="1.2865">
        <ele>108.77</ele>
        <time>2016-01-02T08:30:27Z</time>
      </trkpt>
      <trkpt lat="43.77623" lon="1.28647">
        <ele>109.25</ele>
        <time>2016-01-02T08:30:28Z</time>
      </trkpt>
      <trkpt lat="43.77621" lon="1.28643">
        <ele>109.25</ele>
        <time>2016-01-02T08:30:29Z</time>
      </trkpt>
      <trkpt lat="43.7762" lon="1.28639">
        <ele>109.25</ele>
        <time>2016-01-02T08:30:30Z</time>
      </trkpt>
      <trkpt lat="43.77618" lon="1.28635">
        <ele>108.77</ele>
        <time>2016-01-02T08:30:31Z</time>
      </trkpt>
      <trkpt lat="43.77616" lon="1.28632">
        <ele>108.77</ele>
        <time>2016-01-02T08:30:32Z</time>
      </trkpt>
      <trkpt lat="43.77615" lon="1.28629">
        <ele>108.77</ele>
        <time>2016-01-02T08:30:33Z</time>
      </trkpt>
      <trkpt lat="43.77613" lon="1.28626">
        <ele>108.77</ele>
        <time>2016-01-02T08:30:34Z</time>
      </trkpt>
      <trkpt lat="43.77612" lon="1.28622">
        <ele>108.77</ele>
        <time>2016-01-02T08:30:35Z</time>
      </trkpt>
      <trkpt lat="43.7761" lon="1.28619">
        <ele>109.25</ele>
        <time>2016-01-02T08:30:36Z</time>
      </trkpt>
      <trkpt lat="43.77609" lon="1.28616">
        <ele>109.25</ele>
        <time>2016-01-02T08:30:37Z</time>
      </trkpt>
      <trkpt lat="43.77607" lon="1.28612">
        <ele>108.77</ele>
        <time>2016-01-02T08:30:38Z</time>
      </trkpt>
      <trkpt lat="43.77605" lon="1.28608">
        <ele>108.77</ele>
        <time>2016-01-02T08:30:39Z</time>
      </trkpt>
      <trkpt lat="43.77604" lon="1.28603">
        <ele>108.29</ele>
        <time>2016-01-02T08:30:40Z</time>
      </trkpt>
      <trkpt lat="43.77602" lon="1.28599">
        <ele>108.29</ele>
        <time>2016-01-02T08:30:41Z</time>
      </trkpt>
      <trkpt lat="43.77601" lon="1.28595">
        <ele>108.77</ele>
        <time>2016-01-02T08:30:42Z</time>
      </trkpt>
      <trkpt lat="43.776" lon="1.28591">
        <ele>108.77</ele>
        <time>2016-01-02T08:30:43Z</time>
      </trkpt>
      <trkpt lat="43.77599" lon="1.28587">
        <ele>108.77</ele>
        <time>2016-01-02T08:30:44Z</time>
      </trkpt>
      <trkpt lat="43.77597" lon="1.28583">
        <ele>108.77</ele>
        <time>2016-01-02T08:30:45Z</time>
      </trkpt>
      <trkpt lat="43.77595" lon="1.2858">
        <ele>108.29</ele>
        <time>2016-01-02T08:30:46Z</time>
      </trkpt>
      <trkpt lat="43.77593" lon="1.28576">
        <ele>108.29</ele>
        <time>2016-01-02T08:30:47Z</time>
      </trkpt>
      <trkpt lat="43.77592" lon="1.28573">
        <ele>108.77</ele>
        <time>2016-01-02T08:30:48Z</time>
      </trkpt>
      <trkpt lat="43.7759" lon="1.28569">
        <ele>108.77</ele>
        <time>2016-01-02T08:30:49Z</time>
      </trkpt>
      <trkpt lat="43.77589" lon="1.28565">
        <ele>108.29</ele>
        <time>2016-01-02T08:30:50Z</time>
      </trkpt>
      <trkpt lat="43.77587" lon="1.28561">
        <ele>108.29</ele>
        <time>2016-01-02T08:30:51Z</time>
      </trkpt>
      <trkpt lat="43.77585" lon="1.28558">
        <ele>107.81</ele>
        <time>2016-01-02T08:30:52Z</time>
      </trkpt>
      <trkpt lat="43.77583" lon="1.28555">
        <ele>108.29</ele>
        <time>2016-01-02T08:30:53Z</time>
      </trkpt>
      <trkpt lat="43.77581" lon="1.28551">
        <ele>108.77</ele>
        <time>2016-01-02T08:30:54Z</time>
      </trkpt>
      <trkpt lat="43.77578" lon="1.28548">
        <ele>108.77</ele>
        <time>2016-01-02T08:30:55Z</time>
      </trkpt>
      <trkpt lat="43.77576" lon="1.28544">
        <ele>108.77</ele>
        <time>2016-01-02T08:30:56Z</time>
      </trkpt>
      <trkpt lat="43.77574" lon="1.2854">
        <ele>108.29</ele>
        <time>2016-01-02T08:30:57Z</time>
      </trkpt>
      <trkpt lat="43.77571" lon="1.28537">
        <ele>107.81</ele>
        <time>2016-01-02T08:30:58Z</time>
      </trkpt>
      <trkpt lat="43.77568" lon="1.28533">
        <ele>107.81</ele>
        <time>2016-01-02T08:30:59Z</time>
      </trkpt>
      <trkpt lat="43.77566" lon="1.28529">
        <ele>108.29</ele>
        <time>2016-01-02T08:31:00Z</time>
      </trkpt>
      <trkpt lat="43.77563" lon="1.28526">
        <ele>108.77</ele>
        <time>2016-01-02T08:31:01Z</time>
      </trkpt>
      <trkpt lat="43.77562" lon="1.28523">
        <ele>108.77</ele>
        <time>2016-01-02T08:31:02Z</time>
      </trkpt>
      <trkpt lat="43.7756" lon="1.28519">
        <ele>108.77</ele>
        <time>2016-01-02T08:31:03Z</time>
      </trkpt>
      <trkpt lat="43.77558" lon="1.28516">
        <ele>108.29</ele>
        <time>2016-01-02T08:31:04Z</time>
      </trkpt>
      <trkpt lat="43.77556" lon="1.28512">
        <ele>108.29</ele>
        <time>2016-01-02T08:31:05Z</time>
      </trkpt>
      <trkpt lat="43.77555" lon="1.28509">
        <ele>108.29</ele>
        <time>2016-01-02T08:31:06Z</time>
      </trkpt>
      <trkpt lat="43.77553" lon="1.28505">
        <ele>108.77</ele>
        <time>2016-01-02T08:31:07Z</time>
      </trkpt>
      <trkpt lat="43.77552" lon="1.28501">
        <ele>108.77</ele>
        <time>2016-01-02T08:31:08Z</time>
      </trkpt>
      <trkpt lat="43.7755" lon="1.28497">
        <ele>108.77</ele>
        <time>2016-01-02T08:31:09Z</time>
      </trkpt>
      <trkpt lat="43.77549" lon="1.28494">
        <ele>108.77</ele>
        <time>2016-01-02T08:31:10Z</time>
      </trkpt>
      <trkpt lat="43.77547" lon="1.2849">
        <ele>109.25</ele>
        <time>2016-01-02T08:31:11Z</time>
      </trkpt>
      <trkpt lat="43.77545" lon="1.28486">
        <ele>109.25</ele>
        <time>2016-01-02T08:31:12Z</time>
      </trkpt>
      <trkpt lat="43.77544" lon="1.28483">
        <ele>108.77</ele>
        <time>2016-01-02T08:31:13Z</time>
      </trkpt>
      <trkpt lat="43.77542" lon="1.2848">
        <ele>108.29</ele>
        <time>2016-01-02T08:31:14Z</time>
      </trkpt>
      <trkpt lat="43.7754" lon="1.28476">
        <ele>108.29</ele>
        <time>2016-01-02T08:31:15Z</time>
      </trkpt>
      <trkpt lat="43.77538" lon="1.28472">
        <ele>108.77</ele>
        <time>2016-01-02T08:31:16Z</time>
      </trkpt>
      <trkpt lat="43.77537" lon="1.28467">
        <ele>109.25</ele>
        <time>2016-01-02T08:31:17Z</time>
      </trkpt>
      <trkpt lat="43.77537" lon="1.28462">
        <ele>108.77</ele>
        <time>2016-01-02T08:31:18Z</time>
      </trkpt>
      <trkpt lat="43.77538" lon="1.28458">
        <ele>108.29</ele>
        <time>2016-01-02T08:31:19Z</time>
      </trkpt>
      <trkpt lat="43.7754" lon="1.28454">
        <ele>107.81</ele>
        <time>2016-01-02T08:31:20Z</time>
      </trkpt>
      <trkpt lat="43.77542" lon="1.2845">
        <ele>107.32</ele>
        <time>2016-01-02T08:31:21Z</time>
      </trkpt>
      <trkpt lat="43.77545" lon="1.28447">
        <ele>107.81</ele>
        <time>2016-01-02T08:31:22Z</time>
      </trkpt>
      <trkpt lat="43.77547" lon="1.28444">
        <ele>108.29</ele>
        <time>2016-01-02T08:31:23Z</time>
      </trkpt>
      <trkpt lat="43.7755" lon="1.2844">
        <ele>108.77</ele>
        <time>2016-01-02T08:31:24Z</time>
      </trkpt>
      <trkpt lat="43.77552" lon="1.28437">
        <ele>108.29</ele>
        <time>2016-01-02T08:31:25Z</time>
      </trkpt>
      <trkpt lat="43.77554" lon="1.28434">
        <ele>107.81</ele>
        <time>2016-01-02T08:31:26Z</time>
      </trkpt>
      <trkpt lat="43.77556" lon="1.2843">
        <ele>107.81</ele>
        <time>2016-01-02T08:31:27Z</time>
      </trkpt>
      <trkpt lat="43.77559" lon="1.28427">
        <ele>107.81</ele>
        <time>2016-01-02T08:31:28Z</time>
      </trkpt>
      <trkpt lat="43.77561" lon="1.28424">
        <ele>107.81</ele>
        <time>2016-01-02T08:31:29Z</time>
      </trkpt>
      <trkpt lat="43.77563" lon="1.28421">
        <ele>108.77</ele>
        <time>2016-01-02T08:31:30Z</time>
      </trkpt>
      <trkpt lat="43.77565" lon="1.28418">
        <ele>108.77</ele>
        <time>2016-01-02T08:31:31Z</time>
      </trkpt>
      <trkpt lat="43.77567" lon="1.28414">
        <ele>108.77</ele>
        <time>2016-01-02T08:31:32Z</time>
      </trkpt>
      <trkpt lat="43.77569" lon="1.28411">
        <ele>107.81</ele>
        <time>2016-01-02T08:31:33Z</time>
      </trkpt>
      <trkpt lat="43.77571" lon="1.28407">
        <ele>107.81</ele>
        <time>2016-01-02T08:31:34Z</time>
      </trkpt>
      <trkpt lat="43.77573" lon="1.28403">
        <ele>107.81</ele>
        <time>2016-01-02T08:31:35Z</time>
      </trkpt>
      <trkpt lat="43.77575" lon="1.284">
        <ele>108.29</ele>
        <time>2016-01-02T08:31:36Z</time>
      </trkpt>
      <trkpt lat="43.77578" lon="1.28396">
        <ele>108.29</ele>
        <time>2016-01-02T08:31:37Z</time>
      </trkpt>
      <trkpt lat="43.7758" lon="1.28392">
        <ele>107.81</ele>
        <time>2016-01-02T08:31:38Z</time>
      </trkpt>
      <trkpt lat="43.77583" lon="1.28389">
        <ele>107.32</ele>
        <time>2016-01-02T08:31:39Z</time>
      </trkpt>
      <trkpt lat="43.77585" lon="1.28385">
        <ele>106.84</ele>
        <time>2016-01-02T08:31:40Z</time>
      </trkpt>
      <trkpt lat="43.77588" lon="1.28382">
        <ele>106.84</ele>
        <time>2016-01-02T08:31:41Z</time>
      </trkpt>
      <trkpt lat="43.7759" lon="1.28379">
        <ele>106.84</ele>
        <time>2016-01-02T08:31:42Z</time>
      </trkpt>
      <trkpt lat="43.77593" lon="1.28375">
        <ele>106.84</ele>
        <time>2016-01-02T08:31:43Z</time>
      </trkpt>
      <trkpt lat="43.77595" lon="1.28372">
        <ele>106.84</ele>
        <time>2016-01-02T08:31:44Z</time>
      </trkpt>
      <trkpt lat="43.77598" lon="1.28369">
        <ele>106.84</ele>
        <time>2016-01-02T08:31:45Z</time>
      </trkpt>
      <trkpt lat="43.776" lon="1.28366">
        <ele>106.36</ele>
        <time>2016-01-02T08:31:46Z</time>
      </trkpt>
      <trkpt lat="43.77602" lon="1.28362">
        <ele>106.36</ele>
        <time>2016-01-02T08:31:47Z</time>
      </trkpt>
      <trkpt lat="43.77604" lon="1.28359">
        <ele>105.88</ele>
        <time>2016-01-02T08:31:48Z</time>
      </trkpt>
      <trkpt lat="43.77606" lon="1.28356">
        <ele>105.88</ele>
        <time>2016-01-02T08:31:49Z</time>
      </trkpt>
      <trkpt lat="43.77609" lon="1.28353">
        <ele>105.88</ele>
        <time>2016-01-02T08:31:50Z</time>
      </trkpt>
      <trkpt lat="43.77611" lon="1.2835">
        <ele>105.88</ele>
        <time>2016-01-02T08:31:51Z</time>
      </trkpt>
      <trkpt lat="43.77613" lon="1.28346">
        <ele>106.36</ele>
        <time>2016-01-02T08:31:52Z</time>
      </trkpt>
      <trkpt lat="43.77615" lon="1.28343">
        <ele>106.36</ele>
        <time>2016-01-02T08:31:53Z</time>
      </trkpt>
      <trkpt lat="43.77618" lon="1.2834">
        <ele>106.36</ele>
        <time>2016-01-02T08:31:54Z</time>
      </trkpt>
      <trkpt lat="43.7762" lon="1.28337">
        <ele>105.88</ele>
        <time>2016-01-02T08:31:55Z</time>
      </trkpt>
      <trkpt lat="43.77622" lon="1.28334">
        <ele>105.4</ele>
        <time>2016-01-02T08:31:56Z</time>
      </trkpt>
      <trkpt lat="43.77625" lon="1.28331">
        <ele>105.4</ele>
        <time>2016-01-02T08:31:57Z</time>
      </trkpt>
      <trkpt lat="43.77627" lon="1.28328">
        <ele>105.4</ele>
        <time>2016-01-02T08:31:58Z</time>
      </trkpt>
      <trkpt lat="43.77629" lon="1.28325">
        <ele>105.88</ele>
        <time>2016-01-02T08:31:59Z</time>
      </trkpt>
      <trkpt lat="43.77631" lon="1.28322">
        <ele>105.88</ele>
        <time>2016-01-02T08:32:00Z</time>
      </trkpt>
      <trkpt lat="43.77634" lon="1.28319">
        <ele>105.4</ele>
        <time>2016-01-02T08:32:01Z</time>
      </trkpt>
      <trkpt lat="43.77636" lon="1.28316">
        <ele>104.92</ele>
        <time>2016-01-02T08:32:02Z</time>
      </trkpt>
      <trkpt lat="43.77638" lon="1.28313">
        <ele>104.92</ele>
        <time>2016-01-02T08:32:03Z</time>
      </trkpt>
      <trkpt lat="43.7764" lon="1.2831">
        <ele>104.92</ele>
        <time>2016-01-02T08:32:04Z</time>
      </trkpt>
      <trkpt lat="43.77643" lon="1.28308">
        <ele>105.4</ele>
        <time>2016-01-02T08:32:05Z</time>
      </trkpt>
      <trkpt lat="43.77645" lon="1.28305">
        <ele>105.88</ele>
        <time>2016-01-02T08:32:06Z</time>
      </trkpt>
      <trkpt lat="43.77648" lon="1.28302">
        <ele>105.88</ele>
        <time>2016-01-02T08:32:07Z</time>
      </trkpt>
      <trkpt lat="43.7765" lon="1.283">
        <ele>105.4</ele>
        <time>2016-01-02T08:32:08Z</time>
      </trkpt>
      <trkpt lat="43.77653" lon="1.28298">
        <ele>105.4</ele>
        <time>2016-01-02T08:32:09Z</time>
      </trkpt>
      <trkpt lat="43.77656" lon="1.28295">
        <ele>105.4</ele>
        <time>2016-01-02T08:32:10Z</time>
      </trkpt>
      <trkpt lat="43.77659" lon="1.28292">
        <ele>105.4</ele>
        <time>2016-01-02T08:32:11Z</time>
      </trkpt>
      <trkpt lat="43.77661" lon="1.2829">
        <ele>105.88</ele>
        <time>2016-01-02T08:32:12Z</time>
      </trkpt>
      <trkpt lat="43.77664" lon="1.28287">
        <ele>105.88</ele>
        <time>2016-01-02T08:32:13Z</time>
      </trkpt>
      <trkpt lat="43.77667" lon="1.28285">
        <ele>105.4</ele>
        <time>2016-01-02T08:32:14Z</time>
      </trkpt>
      <trkpt lat="43.77669" lon="1.28283">
        <ele>105.4</ele>
        <time>2016-01-02T08:32:15Z</time>
      </trkpt>
      <trkpt lat="43.77672" lon="1.28281">
        <ele>104.92</ele>
        <time>2016-01-02T08:32:16Z</time>
      </trkpt>
      <trkpt lat="43.77675" lon="1.28279">
        <ele>104.92</ele>
        <time>2016-01-02T08:32:17Z</time>
      </trkpt>
      <trkpt lat="43.77678" lon="1.28277">
        <ele>105.4</ele>
        <time>2016-01-02T08:32:18Z</time>
      </trkpt>
      <trkpt lat="43.77681" lon="1.28274">
        <ele>105.4</ele>
        <time>2016-01-02T08:32:19Z</time>
      </trkpt>
      <trkpt lat="43.77683" lon="1.28272">
        <ele>105.4</ele>
        <time>2016-01-02T08:32:20Z</time>
      </trkpt>
      <trkpt lat="43.77686" lon="1.2827">
        <ele>105.4</ele>
        <time>2016-01-02T08:32:21Z</time>
      </trkpt>
      <trkpt lat="43.77689" lon="1.28267">
        <ele>105.4</ele>
        <time>2016-01-02T08:32:22Z</time>
      </trkpt>
      <trkpt lat="43.77691" lon="1.28265">
        <ele>105.4</ele>
        <time>2016-01-02T08:32:23Z</time>
      </trkpt>
      <trkpt lat="43.77694" lon="1.28263">
        <ele>104.92</ele>
        <time>2016-01-02T08:32:24Z</time>
      </trkpt>
      <trkpt lat="43.77696" lon="1.2826">
        <ele>104.44</ele>
        <time>2016-01-02T08:32:25Z</time>
      </trkpt>
      <trkpt lat="43.77699" lon="1.28258">
        <ele>104.44</ele>
        <time>2016-01-02T08:32:26Z</time>
      </trkpt>
      <trkpt lat="43.77702" lon="1.28256">
        <ele>104.44</ele>
        <time>2016-01-02T08:32:27Z</time>
      </trkpt>
      <trkpt lat="43.77705" lon="1.28254">
        <ele>104.92</ele>
        <time>2016-01-02T08:32:28Z</time>
      </trkpt>
      <trkpt lat="43.77708" lon="1.28252">
        <ele>105.4</ele>
        <time>2016-01-02T08:32:29Z</time>
      </trkpt>
      <trkpt lat="43.77711" lon="1.2825">
        <ele>105.88</ele>
        <time>2016-01-02T08:32:30Z</time>
      </trkpt>
      <trkpt lat="43.77714" lon="1.28248">
        <ele>105.88</ele>
        <time>2016-01-02T08:32:31Z</time>
      </trkpt>
      <trkpt lat="43.77716" lon="1.28246">
        <ele>105.4</ele>
        <time>2016-01-02T08:32:32Z</time>
      </trkpt>
      <trkpt lat="43.77719" lon="1.28243">
        <ele>104.92</ele>
        <time>2016-01-02T08:32:33Z</time>
      </trkpt>
      <trkpt lat="43.77722" lon="1.28241">
        <ele>104.44</ele>
        <time>2016-01-02T08:32:34Z</time>
      </trkpt>
      <trkpt lat="43.77724" lon="1.28239">
        <ele>103.96</ele>
        <time>2016-01-02T08:32:35Z</time>
      </trkpt>
      <trkpt lat="43.77727" lon="1.28236">
        <ele>103.48</ele>
        <time>2016-01-02T08:32:36Z</time>
      </trkpt>
      <trkpt lat="43.7773" lon="1.28234">
        <ele>103</ele>
        <time>2016-01-02T08:32:37Z</time>
      </trkpt>
      <trkpt lat="43.77732" lon="1.28232">
        <ele>103</ele>
        <time>2016-01-02T08:32:38Z</time>
      </trkpt>
      <trkpt lat="43.77735" lon="1.2823">
        <ele>103.48</ele>
        <time>2016-01-02T08:32:39Z</time>
      </trkpt>
      <trkpt lat="43.77738" lon="1.28228">
        <ele>103.96</ele>
        <time>2016-01-02T08:32:40Z</time>
      </trkpt>
      <trkpt lat="43.77741" lon="1.28225">
        <ele>103.96</ele>
        <time>2016-01-02T08:32:41Z</time>
      </trkpt>
      <trkpt lat="43.77743" lon="1.28223">
        <ele>103.96</ele>
        <time>2016-01-02T08:32:42Z</time>
      </trkpt>
      <trkpt lat="43.77746" lon="1.28221">
        <ele>103.96</ele>
        <time>2016-01-02T08:32:43Z</time>
      </trkpt>
      <trkpt lat="43.77749" lon="1.28219">
        <ele>104.44</ele>
        <time>2016-01-02T08:32:44Z</time>
      </trkpt>
      <trkpt lat="43.77752" lon="1.28217">
        <ele>104.44</ele>
        <time>2016-01-02T08:32:45Z</time>
      </trkpt>
      <trkpt lat="43.77755" lon="1.28214">
        <ele>103.96</ele>
        <time>2016-01-02T08:32:46Z</time>
      </trkpt>
      <trkpt lat="43.77757" lon="1.28212">
        <ele>103.96</ele>
        <time>2016-01-02T08:32:47Z</time>
      </trkpt>
      <trkpt lat="43.7776" lon="1.28209">
        <ele>103.48</ele>
        <time>2016-01-02T08:32:48Z</time>
      </trkpt>
      <trkpt lat="43.77763" lon="1.28207">
        <ele>103.48</ele>
        <time>2016-01-02T08:32:49Z</time>
      </trkpt>
      <trkpt lat="43.77766" lon="1.28204">
        <ele>103.96</ele>
        <time>2016-01-02T08:32:50Z</time>
      </trkpt>
      <trkpt lat="43.77768" lon="1.28202">
        <ele>104.44</ele>
        <time>2016-01-02T08:32:51Z</time>
      </trkpt>
      <trkpt lat="43.77771" lon="1.282">
        <ele>105.4</ele>
        <time>2016-01-02T08:32:52Z</time>
      </trkpt>
      <trkpt lat="43.77774" lon="1.28197">
        <ele>105.88</ele>
        <time>2016-01-02T08:32:53Z</time>
      </trkpt>
      <trkpt lat="43.77777" lon="1.28195">
        <ele>105.4</ele>
        <time>2016-01-02T08:32:54Z</time>
      </trkpt>
      <trkpt lat="43.77779" lon="1.28193">
        <ele>104.44</ele>
        <time>2016-01-02T08:32:55Z</time>
      </trkpt>
      <trkpt lat="43.77782" lon="1.28191">
        <ele>104.44</ele>
        <time>2016-01-02T08:32:56Z</time>
      </trkpt>
      <trkpt lat="43.77785" lon="1.28188">
        <ele>104.44</ele>
        <time>2016-01-02T08:32:57Z</time>
      </trkpt>
      <trkpt lat="43.77787" lon="1.28185">
        <ele>104.92</ele>
        <time>2016-01-02T08:32:58Z</time>
      </trkpt>
      <trkpt lat="43.7779" lon="1.28183">
        <ele>104.92</ele>
        <time>2016-01-02T08:32:59Z</time>
      </trkpt>
      <trkpt lat="43.77793" lon="1.2818">
        <ele>105.4</ele>
        <time>2016-01-02T08:33:00Z</time>
      </trkpt>
      <trkpt lat="43.77795" lon="1.28177">
        <ele>104.92</ele>
        <time>2016-01-02T08:33:01Z</time>
      </trkpt>
      <trkpt lat="43.77798" lon="1.28174">
        <ele>104.44</ele>
        <time>2016-01-02T08:33:02Z</time>
      </trkpt>
      <trkpt lat="43.77801" lon="1.28174">
        <ele>103.48</ele>
        <time>2016-01-02T08:33:03Z</time>
      </trkpt>
      <trkpt lat="43.77803" lon="1.28172">
        <ele>103.48</ele>
        <time>2016-01-02T08:33:04Z</time>
      </trkpt>
      <trkpt lat="43.77806" lon="1.2817">
        <ele>103.48</ele>
        <time>2016-01-02T08:33:05Z</time>
      </trkpt>
      <trkpt lat="43.77809" lon="1.28168">
        <ele>103.48</ele>
        <time>2016-01-02T08:33:06Z</time>
      </trkpt>
      <trkpt lat="43.77812" lon="1.28166">
        <ele>103.48</ele>
        <time>2016-01-02T08:33:07Z</time>
      </trkpt>
      <trkpt lat="43.77815" lon="1.28163">
        <ele>103.96</ele>
        <time>2016-01-02T08:33:08Z</time>
      </trkpt>
      <trkpt lat="43.77818" lon="1.28161">
        <ele>103.96</ele>
        <time>2016-01-02T08:33:09Z</time>
      </trkpt>
      <trkpt lat="43.77821" lon="1.28159">
        <ele>103.96</ele>
        <time>2016-01-02T08:33:10Z</time>
      </trkpt>
      <trkpt lat="43.77824" lon="1.28157">
        <ele>103.96</ele>
        <time>2016-01-02T08:33:11Z</time>
      </trkpt>
      <trkpt lat="43.77827" lon="1.28155">
        <ele>103.96</ele>
        <time>2016-01-02T08:33:12Z</time>
      </trkpt>
      <trkpt lat="43.77829" lon="1.28153">
        <ele>103.48</ele>
        <time>2016-01-02T08:33:13Z</time>
      </trkpt>
      <trkpt lat="43.77832" lon="1.28151">
        <ele>103</ele>
        <time>2016-01-02T08:33:14Z</time>
      </trkpt>
      <trkpt lat="43.77835" lon="1.28148">
        <ele>103</ele>
        <time>2016-01-02T08:33:15Z</time>
      </trkpt>
      <trkpt lat="43.77837" lon="1.28146">
        <ele>103</ele>
        <time>2016-01-02T08:33:16Z</time>
      </trkpt>
      <trkpt lat="43.7784" lon="1.28143">
        <ele>103</ele>
        <time>2016-01-02T08:33:17Z</time>
      </trkpt>
      <trkpt lat="43.77843" lon="1.2814">
        <ele>103.48</ele>
        <time>2016-01-02T08:33:18Z</time>
      </trkpt>
      <trkpt lat="43.77845" lon="1.28138">
        <ele>103.96</ele>
        <time>2016-01-02T08:33:19Z</time>
      </trkpt>
      <trkpt lat="43.77848" lon="1.28135">
        <ele>103.96</ele>
        <time>2016-01-02T08:33:20Z</time>
      </trkpt>
      <trkpt lat="43.7785" lon="1.28133">
        <ele>103.96</ele>
        <time>2016-01-02T08:33:21Z</time>
      </trkpt>
      <trkpt lat="43.77853" lon="1.2813">
        <ele>103.96</ele>
        <time>2016-01-02T08:33:22Z</time>
      </trkpt>
      <trkpt lat="43.77855" lon="1.28128">
        <ele>103.48</ele>
        <time>2016-01-02T08:33:23Z</time>
      </trkpt>
      <trkpt lat="43.77858" lon="1.28125">
        <ele>103.48</ele>
        <time>2016-01-02T08:33:24Z</time>
      </trkpt>
      <trkpt lat="43.7786" lon="1.28123">
        <ele>103.48</ele>
        <time>2016-01-02T08:33:25Z</time>
      </trkpt>
      <trkpt lat="43.77863" lon="1.2812">
        <ele>103.48</ele>
        <time>2016-01-02T08:33:26Z</time>
      </trkpt>
      <trkpt lat="43.77865" lon="1.28118">
        <ele>103.48</ele>
        <time>2016-01-02T08:33:27Z</time>
      </trkpt>
      <trkpt lat="43.77868" lon="1.28116">
        <ele>103.96</ele>
        <time>2016-01-02T08:33:28Z</time>
      </trkpt>
      <trkpt lat="43.77871" lon="1.28113">
        <ele>103.96</ele>
        <time>2016-01-02T08:33:29Z</time>
      </trkpt>
      <trkpt lat="43.77874" lon="1.28111">
        <ele>103.96</ele>
        <time>2016-01-02T08:33:30Z</time>
      </trkpt>
      <trkpt lat="43.77877" lon="1.2811">
        <ele>103.96</ele>
        <time>2016-01-02T08:33:31Z</time>
      </trkpt>
      <trkpt lat="43.7788" lon="1.28108">
        <ele>103.48</ele>
        <time>2016-01-02T08:33:32Z</time>
      </trkpt>
      <trkpt lat="43.77884" lon="1.28107">
        <ele>103</ele>
        <time>2016-01-02T08:33:33Z</time>
      </trkpt>
      <trkpt lat="43.77887" lon="1.28107">
        <ele>103</ele>
        <time>2016-01-02T08:33:34Z</time>
      </trkpt>
      <trkpt lat="43.77891" lon="1.28108">
        <ele>103</ele>
        <time>2016-01-02T08:33:35Z</time>
      </trkpt>
      <trkpt lat="43.77895" lon="1.28108">
        <ele>103.48</ele>
        <time>2016-01-02T08:33:36Z</time>
      </trkpt>
      <trkpt lat="43.77898" lon="1.28108">
        <ele>103.48</ele>
        <time>2016-01-02T08:33:37Z</time>
      </trkpt>
      <trkpt lat="43.77901" lon="1.28108">
        <ele>103.96</ele>
        <time>2016-01-02T08:33:38Z</time>
      </trkpt>
      <trkpt lat="43.77904" lon="1.28107">
        <ele>103.48</ele>
        <time>2016-01-02T08:33:39Z</time>
      </trkpt>
      <trkpt lat="43.77907" lon="1.28106">
        <ele>103.48</ele>
        <time>2016-01-02T08:33:40Z</time>
      </trkpt>
      <trkpt lat="43.7791" lon="1.28105">
        <ele>103.96</ele>
        <time>2016-01-02T08:33:41Z</time>
      </trkpt>
      <trkpt lat="43.77913" lon="1.28105">
        <ele>103.96</ele>
        <time>2016-01-02T08:33:42Z</time>
      </trkpt>
      <trkpt lat="43.77916" lon="1.28104">
        <ele>103.96</ele>
        <time>2016-01-02T08:33:43Z</time>
      </trkpt>
      <trkpt lat="43.77919" lon="1.28103">
        <ele>103.96</ele>
        <time>2016-01-02T08:33:44Z</time>
      </trkpt>
      <trkpt lat="43.77922" lon="1.28103">
        <ele>103.96</ele>
        <time>2016-01-02T08:33:45Z</time>
      </trkpt>
      <trkpt lat="43.77925" lon="1.28102">
        <ele>103.96</ele>
        <time>2016-01-02T08:33:46Z</time>
      </trkpt>
      <trkpt lat="43.77929" lon="1.28101">
        <ele>103.48</ele>
        <time>2016-01-02T08:33:47Z</time>
      </trkpt>
      <trkpt lat="43.77932" lon="1.28101">
        <ele>103</ele>
        <time>2016-01-02T08:33:48Z</time>
      </trkpt>
      <trkpt lat="43.77935" lon="1.281">
        <ele>103</ele>
        <time>2016-01-02T08:33:49Z</time>
      </trkpt>
      <trkpt lat="43.77938" lon="1.28099">
        <ele>103</ele>
        <time>2016-01-02T08:33:50Z</time>
      </trkpt>
      <trkpt lat="43.77941" lon="1.28098">
        <ele>103</ele>
        <time>2016-01-02T08:33:51Z</time>
      </trkpt>
      <trkpt lat="43.77944" lon="1.28098">
        <ele>103.48</ele>
        <time>2016-01-02T08:33:52Z</time>
      </trkpt>
      <trkpt lat="43.77948" lon="1.28098">
        <ele>103.48</ele>
        <time>2016-01-02T08:33:53Z</time>
      </trkpt>
      <trkpt lat="43.77951" lon="1.28098">
        <ele>103.48</ele>
        <time>2016-01-02T08:33:54Z</time>
      </trkpt>
      <trkpt lat="43.77954" lon="1.28097">
        <ele>103.48</ele>
        <time>2016-01-02T08:33:55Z</time>
      </trkpt>
      <trkpt lat="43.77957" lon="1.28097">
        <ele>103.48</ele>
        <time>2016-01-02T08:33:56Z</time>
      </trkpt>
      <trkpt lat="43.77961" lon="1.28096">
        <ele>103.48</ele>
        <time>2016-01-02T08:33:57Z</time>
      </trkpt>
      <trkpt lat="43.77964" lon="1.28096">
        <ele>103</ele>
        <time>2016-01-02T08:33:58Z</time>
      </trkpt>
      <trkpt lat="43.77967" lon="1.28095">
        <ele>102.04</ele>
        <time>2016-01-02T08:33:59Z</time>
      </trkpt>
      <trkpt lat="43.7797" lon="1.28095">
        <ele>102.04</ele>
        <time>2016-01-02T08:34:00Z</time>
      </trkpt>
      <trkpt lat="43.77973" lon="1.28094">
        <ele>102.04</ele>
        <time>2016-01-02T08:34:01Z</time>
      </trkpt>
      <trkpt lat="43.77975" lon="1.28094">
        <ele>102.52</ele>
        <time>2016-01-02T08:34:02Z</time>
      </trkpt>
      <trkpt lat="43.77977" lon="1.28093">
        <ele>103</ele>
        <time>2016-01-02T08:34:03Z</time>
      </trkpt>
      <trkpt lat="43.7798" lon="1.28092">
        <ele>103.48</ele>
        <time>2016-01-02T08:34:04Z</time>
      </trkpt>
      <trkpt lat="43.77983" lon="1.28091">
        <ele>103.48</ele>
        <time>2016-01-02T08:34:05Z</time>
      </trkpt>
      <trkpt lat="43.77986" lon="1.2809">
        <ele>103.48</ele>
        <time>2016-01-02T08:34:06Z</time>
      </trkpt>
      <trkpt lat="43.77989" lon="1.2809">
        <ele>103.48</ele>
        <time>2016-01-02T08:34:07Z</time>
      </trkpt>
      <trkpt lat="43.77992" lon="1.28089">
        <ele>103.48</ele>
        <time>2016-01-02T08:34:08Z</time>
      </trkpt>
      <trkpt lat="43.77995" lon="1.28088">
        <ele>103.48</ele>
        <time>2016-01-02T08:34:09Z</time>
      </trkpt>
      <trkpt lat="43.77998" lon="1.28087">
        <ele>103</ele>
        <time>2016-01-02T08:34:10Z</time>
      </trkpt>
      <trkpt lat="43.78001" lon="1.28086">
        <ele>102.52</ele>
        <time>2016-01-02T08:34:11Z</time>
      </trkpt>
      <trkpt lat="43.78005" lon="1.28086">
        <ele>102.04</ele>
        <time>2016-01-02T08:34:12Z</time>
      </trkpt>
      <trkpt lat="43.78008" lon="1.28085">
        <ele>102.04</ele>
        <time>2016-01-02T08:34:13Z</time>
      </trkpt>
      <trkpt lat="43.78011" lon="1.28083">
        <ele>102.04</ele>
        <time>2016-01-02T08:34:14Z</time>
      </trkpt>
      <trkpt lat="43.78015" lon="1.28082">
        <ele>102.04</ele>
        <time>2016-01-02T08:34:15Z</time>
      </trkpt>
      <trkpt lat="43.78018" lon="1.2808">
        <ele>102.52</ele>
        <time>2016-01-02T08:34:16Z</time>
      </trkpt>
      <trkpt lat="43.7802" lon="1.28078">
        <ele>103</ele>
        <time>2016-01-02T08:34:17Z</time>
      </trkpt>
      <trkpt lat="43.78023" lon="1.28076">
        <ele>103</ele>
        <time>2016-01-02T08:34:18Z</time>
      </trkpt>
      <trkpt lat="43.78027" lon="1.28074">
        <ele>102.52</ele>
        <time>2016-01-02T08:34:19Z</time>
      </trkpt>
      <trkpt lat="43.7803" lon="1.28072">
        <ele>102.04</ele>
        <time>2016-01-02T08:34:20Z</time>
      </trkpt>
      <trkpt lat="43.78032" lon="1.2807">
        <ele>102.04</ele>
        <time>2016-01-02T08:34:21Z</time>
      </trkpt>
      <trkpt lat="43.78035" lon="1.28067">
        <ele>102.04</ele>
        <time>2016-01-02T08:34:22Z</time>
      </trkpt>
      <trkpt lat="43.78038" lon="1.28065">
        <ele>102.04</ele>
        <time>2016-01-02T08:34:23Z</time>
      </trkpt>
      <trkpt lat="43.78041" lon="1.28063">
        <ele>102.52</ele>
        <time>2016-01-02T08:34:24Z</time>
      </trkpt>
      <trkpt lat="43.78044" lon="1.28062">
        <ele>103</ele>
        <time>2016-01-02T08:34:25Z</time>
      </trkpt>
      <trkpt lat="43.78047" lon="1.2806">
        <ele>103</ele>
        <time>2016-01-02T08:34:26Z</time>
      </trkpt>
      <trkpt lat="43.7805" lon="1.28058">
        <ele>102.52</ele>
        <time>2016-01-02T08:34:27Z</time>
      </trkpt>
      <trkpt lat="43.78053" lon="1.28056">
        <ele>102.52</ele>
        <time>2016-01-02T08:34:28Z</time>
      </trkpt>
      <trkpt lat="43.78056" lon="1.28055">
        <ele>102.52</ele>
        <time>2016-01-02T08:34:29Z</time>
      </trkpt>
      <trkpt lat="43.78058" lon="1.28053">
        <ele>102.52</ele>
        <time>2016-01-02T08:34:30Z</time>
      </trkpt>
      <trkpt lat="43.78061" lon="1.28051">
        <ele>103</ele>
        <time>2016-01-02T08:34:31Z</time>
      </trkpt>
      <trkpt lat="43.78064" lon="1.28049">
        <ele>103</ele>
        <time>2016-01-02T08:34:32Z</time>
      </trkpt>
      <trkpt lat="43.78067" lon="1.28047">
        <ele>103</ele>
        <time>2016-01-02T08:34:33Z</time>
      </trkpt>
      <trkpt lat="43.7807" lon="1.28046">
        <ele>102.52</ele>
        <time>2016-01-02T08:34:34Z</time>
      </trkpt>
      <trkpt lat="43.78073" lon="1.28044">
        <ele>102.04</ele>
        <time>2016-01-02T08:34:35Z</time>
      </trkpt>
      <trkpt lat="43.78075" lon="1.28042">
        <ele>102.04</ele>
        <time>2016-01-02T08:34:36Z</time>
      </trkpt>
      <trkpt lat="43.78079" lon="1.28041">
        <ele>102.04</ele>
        <time>2016-01-02T08:34:37Z</time>
      </trkpt>
      <trkpt lat="43.78082" lon="1.28039">
        <ele>102.04</ele>
        <time>2016-01-02T08:34:38Z</time>
      </trkpt>
      <trkpt lat="43.78085" lon="1.28038">
        <ele>102.04</ele>
        <time>2016-01-02T08:34:39Z</time>
      </trkpt>
      <trkpt lat="43.78088" lon="1.28037">
        <ele>102.52</ele>
        <time>2016-01-02T08:34:40Z</time>
      </trkpt>
      <trkpt lat="43.78091" lon="1.28036">
        <ele>102.52</ele>
        <time>2016-01-02T08:34:41Z</time>
      </trkpt>
      <trkpt lat="43.78094" lon="1.28034">
        <ele>102.04</ele>
        <time>2016-01-02T08:34:42Z</time>
      </trkpt>
      <trkpt lat="43.78097" lon="1.28033">
        <ele>102.04</ele>
        <time>2016-01-02T08:34:43Z</time>
      </trkpt>
      <trkpt lat="43.781" lon="1.28032">
        <ele>102.04</ele>
        <time>2016-01-02T08:34:44Z</time>
      </trkpt>
      <trkpt lat="43.78103" lon="1.2803">
        <ele>101.56</ele>
        <time>2016-01-02T08:34:45Z</time>
      </trkpt>
      <trkpt lat="43.78106" lon="1.28029">
        <ele>101.56</ele>
        <time>2016-01-02T08:34:46Z</time>
      </trkpt>
      <trkpt lat="43.78109" lon="1.28028">
        <ele>102.04</ele>
        <time>2016-01-02T08:34:47Z</time>
      </trkpt>
      <trkpt lat="43.78113" lon="1.28027">
        <ele>102.04</ele>
        <time>2016-01-02T08:34:48Z</time>
      </trkpt>
      <trkpt lat="43.78116" lon="1.28026">
        <ele>102.04</ele>
        <time>2016-01-02T08:34:49Z</time>
      </trkpt>
      <trkpt lat="43.78119" lon="1.28025">
        <ele>102.04</ele>
        <time>2016-01-02T08:34:50Z</time>
      </trkpt>
      <trkpt lat="43.78122" lon="1.28024">
        <ele>102.04</ele>
        <time>2016-01-02T08:34:51Z</time>
      </trkpt>
      <trkpt lat="43.78125" lon="1.28023">
        <ele>101.56</ele>
        <time>2016-01-02T08:34:52Z</time>
      </trkpt>
      <trkpt lat="43.78128" lon="1.28021">
        <ele>101.56</ele>
        <time>2016-01-02T08:34:53Z</time>
      </trkpt>
      <trkpt lat="43.7813" lon="1.2802">
        <ele>101.56</ele>
        <time>2016-01-02T08:34:54Z</time>
      </trkpt>
      <trkpt lat="43.78133" lon="1.28019">
        <ele>101.56</ele>
        <time>2016-01-02T08:34:55Z</time>
      </trkpt>
      <trkpt lat="43.78136" lon="1.28017">
        <ele>101.56</ele>
        <time>2016-01-02T08:34:56Z</time>
      </trkpt>
      <trkpt lat="43.78139" lon="1.28016">
        <ele>101.56</ele>
        <time>2016-01-02T08:34:57Z</time>
      </trkpt>
      <trkpt lat="43.78142" lon="1.28014">
        <ele>101.56</ele>
        <time>2016-01-02T08:34:58Z</time>
      </trkpt>
      <trkpt lat="43.78144" lon="1.28013">
        <ele>101.56</ele>
        <time>2016-01-02T08:34:59Z</time>
      </trkpt>
      <trkpt lat="43.78147" lon="1.28011">
        <ele>101.56</ele>
        <time>2016-01-02T08:35:00Z</time>
      </trkpt>
      <trkpt lat="43.7815" lon="1.2801">
        <ele>101.56</ele>
        <time>2016-01-02T08:35:01Z</time>
      </trkpt>
      <trkpt lat="43.78153" lon="1.28008">
        <ele>101.08</ele>
        <time>2016-01-02T08:35:02Z</time>
      </trkpt>
      <trkpt lat="43.78155" lon="1.28006">
        <ele>100.6</ele>
        <time>2016-01-02T08:35:03Z</time>
      </trkpt>
      <trkpt lat="43.78158" lon="1.28004">
        <ele>100.6</ele>
        <time>2016-01-02T08:35:04Z</time>
      </trkpt>
      <trkpt lat="43.78161" lon="1.28002">
        <ele>100.6</ele>
        <time>2016-01-02T08:35:05Z</time>
      </trkpt>
      <trkpt lat="43.78164" lon="1.28">
        <ele>101.08</ele>
        <time>2016-01-02T08:35:06Z</time>
      </trkpt>
      <trkpt lat="43.78166" lon="1.27998">
        <ele>101.08</ele>
        <time>2016-01-02T08:35:07Z</time>
      </trkpt>
      <trkpt lat="43.78169" lon="1.27996">
        <ele>101.08</ele>
        <time>2016-01-02T08:35:08Z</time>
      </trkpt>
      <trkpt lat="43.78172" lon="1.27994">
        <ele>101.08</ele>
        <time>2016-01-02T08:35:09Z</time>
      </trkpt>
      <trkpt lat="43.78174" lon="1.27992">
        <ele>101.56</ele>
        <time>2016-01-02T08:35:10Z</time>
      </trkpt>
      <trkpt lat="43.78176" lon="1.2799">
        <ele>101.56</ele>
        <time>2016-01-02T08:35:11Z</time>
      </trkpt>
      <trkpt lat="43.78179" lon="1.27988">
        <ele>101.08</ele>
        <time>2016-01-02T08:35:12Z</time>
      </trkpt>
      <trkpt lat="43.78182" lon="1.27987">
        <ele>101.08</ele>
        <time>2016-01-02T08:35:13Z</time>
      </trkpt>
      <trkpt lat="43.78185" lon="1.27986">
        <ele>101.08</ele>
        <time>2016-01-02T08:35:14Z</time>
      </trkpt>
      <trkpt lat="43.78188" lon="1.27986">
        <ele>101.56</ele>
        <time>2016-01-02T08:35:15Z</time>
      </trkpt>
      <trkpt lat="43.78191" lon="1.27985">
        <ele>101.56</ele>
        <time>2016-01-02T08:35:16Z</time>
      </trkpt>
      <trkpt lat="43.78194" lon="1.27984">
        <ele>102.04</ele>
        <time>2016-01-02T08:35:17Z</time>
      </trkpt>
      <trkpt lat="43.78197" lon="1.27983">
        <ele>102.04</ele>
        <time>2016-01-02T08:35:18Z</time>
      </trkpt>
      <trkpt lat="43.78199" lon="1.27983">
        <ele>102.04</ele>
        <time>2016-01-02T08:35:19Z</time>
      </trkpt>
      <trkpt lat="43.78202" lon="1.27982">
        <ele>101.56</ele>
        <time>2016-01-02T08:35:20Z</time>
      </trkpt>
      <trkpt lat="43.78205" lon="1.2798">
        <ele>101.56</ele>
        <time>2016-01-02T08:35:21Z</time>
      </trkpt>
      <trkpt lat="43.78208" lon="1.27979">
        <ele>101.56</ele>
        <time>2016-01-02T08:35:22Z</time>
      </trkpt>
      <trkpt lat="43.78211" lon="1.27978">
        <ele>101.56</ele>
        <time>2016-01-02T08:35:23Z</time>
      </trkpt>
      <trkpt lat="43.78214" lon="1.27977">
        <ele>102.04</ele>
        <time>2016-01-02T08:35:24Z</time>
      </trkpt>
      <trkpt lat="43.78217" lon="1.27976">
        <ele>102.04</ele>
        <time>2016-01-02T08:35:25Z</time>
      </trkpt>
      <trkpt lat="43.78221" lon="1.27975">
        <ele>102.04</ele>
        <time>2016-01-02T08:35:26Z</time>
      </trkpt>
      <trkpt lat="43.78224" lon="1.27975">
        <ele>102.04</ele>
        <time>2016-01-02T08:35:27Z</time>
      </trkpt>
      <trkpt lat="43.78228" lon="1.27974">
        <ele>101.56</ele>
        <time>2016-01-02T08:35:28Z</time>
      </trkpt>
      <trkpt lat="43.78231" lon="1.27974">
        <ele>101.56</ele>
        <time>2016-01-02T08:35:29Z</time>
      </trkpt>
      <trkpt lat="43.78233" lon="1.27973">
        <ele>101.56</ele>
        <time>2016-01-02T08:35:30Z</time>
      </trkpt>
      <trkpt lat="43.78237" lon="1.27973">
        <ele>101.56</ele>
        <time>2016-01-02T08:35:31Z</time>
      </trkpt>
      <trkpt lat="43.78239" lon="1.27972">
        <ele>102.04</ele>
        <time>2016-01-02T08:35:32Z</time>
      </trkpt>
      <trkpt lat="43.78242" lon="1.27971">
        <ele>102.04</ele>
        <time>2016-01-02T08:35:33Z</time>
      </trkpt>
      <trkpt lat="43.78245" lon="1.2797">
        <ele>102.04</ele>
        <time>2016-01-02T08:35:34Z</time>
      </trkpt>
      <trkpt lat="43.78248" lon="1.27969">
        <ele>102.04</ele>
        <time>2016-01-02T08:35:35Z</time>
      </trkpt>
      <trkpt lat="43.78251" lon="1.27968">
        <ele>102.52</ele>
        <time>2016-01-02T08:35:36Z</time>
      </trkpt>
      <trkpt lat="43.78255" lon="1.27967">
        <ele>102.52</ele>
        <time>2016-01-02T08:35:37Z</time>
      </trkpt>
      <trkpt lat="43.78258" lon="1.27966">
        <ele>102.52</ele>
        <time>2016-01-02T08:35:38Z</time>
      </trkpt>
      <trkpt lat="43.78262" lon="1.27965">
        <ele>102.52</ele>
        <time>2016-01-02T08:35:39Z</time>
      </trkpt>
      <trkpt lat="43.78264" lon="1.27963">
        <ele>102.04</ele>
        <time>2016-01-02T08:35:40Z</time>
      </trkpt>
      <trkpt lat="43.78267" lon="1.27961">
        <ele>102.04</ele>
        <time>2016-01-02T08:35:41Z</time>
      </trkpt>
      <trkpt lat="43.7827" lon="1.27959">
        <ele>102.04</ele>
        <time>2016-01-02T08:35:42Z</time>
      </trkpt>
      <trkpt lat="43.78272" lon="1.27956">
        <ele>102.04</ele>
        <time>2016-01-02T08:35:43Z</time>
      </trkpt>
      <trkpt lat="43.78275" lon="1.27954">
        <ele>102.04</ele>
        <time>2016-01-02T08:35:44Z</time>
      </trkpt>
      <trkpt lat="43.78278" lon="1.27952">
        <ele>102.04</ele>
        <time>2016-01-02T08:35:45Z</time>
      </trkpt>
      <trkpt lat="43.7828" lon="1.2795">
        <ele>102.04</ele>
        <time>2016-01-02T08:35:46Z</time>
      </trkpt>
      <trkpt lat="43.78283" lon="1.27948">
        <ele>102.04</ele>
        <time>2016-01-02T08:35:47Z</time>
      </trkpt>
      <trkpt lat="43.78285" lon="1.27946">
        <ele>102.04</ele>
        <time>2016-01-02T08:35:48Z</time>
      </trkpt>
      <trkpt lat="43.78288" lon="1.27944">
        <ele>101.56</ele>
        <time>2016-01-02T08:35:49Z</time>
      </trkpt>
      <trkpt lat="43.7829" lon="1.27941">
        <ele>101.56</ele>
        <time>2016-01-02T08:35:50Z</time>
      </trkpt>
      <trkpt lat="43.78291" lon="1.27938">
        <ele>101.56</ele>
        <time>2016-01-02T08:35:51Z</time>
      </trkpt>
      <trkpt lat="43.78293" lon="1.27934">
        <ele>101.56</ele>
        <time>2016-01-02T08:35:52Z</time>
      </trkpt>
      <trkpt lat="43.78295" lon="1.27931">
        <ele>101.56</ele>
        <time>2016-01-02T08:35:53Z</time>
      </trkpt>
      <trkpt lat="43.78296" lon="1.27928">
        <ele>101.56</ele>
        <time>2016-01-02T08:35:54Z</time>
      </trkpt>
      <trkpt lat="43.78298" lon="1.27925">
        <ele>101.08</ele>
        <time>2016-01-02T08:35:55Z</time>
      </trkpt>
      <trkpt lat="43.783" lon="1.27923">
        <ele>101.08</ele>
        <time>2016-01-02T08:35:56Z</time>
      </trkpt>
      <trkpt lat="43.78301" lon="1.2792">
        <ele>100.6</ele>
        <time>2016-01-02T08:35:57Z</time>
      </trkpt>
      <trkpt lat="43.78303" lon="1.27917">
        <ele>100.6</ele>
        <time>2016-01-02T08:35:58Z</time>
      </trkpt>
      <trkpt lat="43.78304" lon="1.27914">
        <ele>100.6</ele>
        <time>2016-01-02T08:35:59Z</time>
      </trkpt>
      <trkpt lat="43.78306" lon="1.27912">
        <ele>100.6</ele>
        <time>2016-01-02T08:36:00Z</time>
      </trkpt>
      <trkpt lat="43.78308" lon="1.2791">
        <ele>101.08</ele>
        <time>2016-01-02T08:36:01Z</time>
      </trkpt>
      <trkpt lat="43.78309" lon="1.27908">
        <ele>101.08</ele>
        <time>2016-01-02T08:36:02Z</time>
      </trkpt>
      <trkpt lat="43.78311" lon="1.27906">
        <ele>101.08</ele>
        <time>2016-01-02T08:36:03Z</time>
      </trkpt>
      <trkpt lat="43.78312" lon="1.27903">
        <ele>100.6</ele>
        <time>2016-01-02T08:36:04Z</time>
      </trkpt>
      <trkpt lat="43.78314" lon="1.279">
        <ele>100.6</ele>
        <time>2016-01-02T08:36:05Z</time>
      </trkpt>
      <trkpt lat="43.78315" lon="1.27896">
        <ele>100.6</ele>
        <time>2016-01-02T08:36:06Z</time>
      </trkpt>
      <trkpt lat="43.78317" lon="1.27893">
        <ele>100.6</ele>
        <time>2016-01-02T08:36:07Z</time>
      </trkpt>
      <trkpt lat="43.78319" lon="1.27891">
        <ele>100.6</ele>
        <time>2016-01-02T08:36:08Z</time>
      </trkpt>
      <trkpt lat="43.78321" lon="1.27889">
        <ele>100.6</ele>
        <time>2016-01-02T08:36:09Z</time>
      </trkpt>
      <trkpt lat="43.78322" lon="1.27886">
        <ele>100.6</ele>
        <time>2016-01-02T08:36:10Z</time>
      </trkpt>
      <trkpt lat="43.78323" lon="1.27882">
        <ele>100.6</ele>
        <time>2016-01-02T08:36:11Z</time>
      </trkpt>
      <trkpt lat="43.78324" lon="1.2788">
        <ele>100.6</ele>
        <time>2016-01-02T08:36:12Z</time>
      </trkpt>
      <trkpt lat="43.78326" lon="1.27877">
        <ele>100.11</ele>
        <time>2016-01-02T08:36:13Z</time>
      </trkpt>
      <trkpt lat="43.78327" lon="1.27874">
        <ele>100.11</ele>
        <time>2016-01-02T08:36:14Z</time>
      </trkpt>
      <trkpt lat="43.78329" lon="1.2787">
        <ele>100.11</ele>
        <time>2016-01-02T08:36:15Z</time>
      </trkpt>
      <trkpt lat="43.7833" lon="1.27867">
        <ele>100.11</ele>
        <time>2016-01-02T08:36:16Z</time>
      </trkpt>
      <trkpt lat="43.7833" lon="1.27863">
        <ele>100.11</ele>
        <time>2016-01-02T08:36:17Z</time>
      </trkpt>
      <trkpt lat="43.78331" lon="1.27859">
        <ele>100.11</ele>
        <time>2016-01-02T08:36:18Z</time>
      </trkpt>
      <trkpt lat="43.78331" lon="1.27856">
        <ele>100.6</ele>
        <time>2016-01-02T08:36:19Z</time>
      </trkpt>
      <trkpt lat="43.78332" lon="1.27851">
        <ele>100.6</ele>
        <time>2016-01-02T08:36:20Z</time>
      </trkpt>
      <trkpt lat="43.78332" lon="1.27847">
        <ele>101.08</ele>
        <time>2016-01-02T08:36:21Z</time>
      </trkpt>
      <trkpt lat="43.78333" lon="1.27843">
        <ele>100.6</ele>
        <time>2016-01-02T08:36:22Z</time>
      </trkpt>
      <trkpt lat="43.78333" lon="1.27839">
        <ele>100.6</ele>
        <time>2016-01-02T08:36:23Z</time>
      </trkpt>
      <trkpt lat="43.78333" lon="1.27834">
        <ele>100.6</ele>
        <time>2016-01-02T08:36:24Z</time>
      </trkpt>
      <trkpt lat="43.78334" lon="1.2783">
        <ele>100.11</ele>
        <time>2016-01-02T08:36:25Z</time>
      </trkpt>
      <trkpt lat="43.78334" lon="1.27826">
        <ele>100.11</ele>
        <time>2016-01-02T08:36:26Z</time>
      </trkpt>
      <trkpt lat="43.78334" lon="1.27822">
        <ele>100.11</ele>
        <time>2016-01-02T08:36:27Z</time>
      </trkpt>
      <trkpt lat="43.78334" lon="1.27818">
        <ele>100.6</ele>
        <time>2016-01-02T08:36:28Z</time>
      </trkpt>
      <trkpt lat="43.78334" lon="1.27815">
        <ele>100.6</ele>
        <time>2016-01-02T08:36:29Z</time>
      </trkpt>
      <trkpt lat="43.78333" lon="1.27811">
        <ele>101.08</ele>
        <time>2016-01-02T08:36:30Z</time>
      </trkpt>
      <trkpt lat="43.78333" lon="1.27807">
        <ele>101.56</ele>
        <time>2016-01-02T08:36:31Z</time>
      </trkpt>
      <trkpt lat="43.78333" lon="1.27803">
        <ele>102.04</ele>
        <time>2016-01-02T08:36:32Z</time>
      </trkpt>
      <trkpt lat="43.78332" lon="1.27799">
        <ele>101.56</ele>
        <time>2016-01-02T08:36:33Z</time>
      </trkpt>
      <trkpt lat="43.78332" lon="1.27794">
        <ele>101.56</ele>
        <time>2016-01-02T08:36:34Z</time>
      </trkpt>
      <trkpt lat="43.78332" lon="1.27789">
        <ele>101.56</ele>
        <time>2016-01-02T08:36:35Z</time>
      </trkpt>
      <trkpt lat="43.78331" lon="1.27785">
        <ele>101.56</ele>
        <time>2016-01-02T08:36:36Z</time>
      </trkpt>
      <trkpt lat="43.78332" lon="1.2778">
        <ele>101.56</ele>
        <time>2016-01-02T08:36:37Z</time>
      </trkpt>
      <trkpt lat="43.78332" lon="1.27775">
        <ele>102.04</ele>
        <time>2016-01-02T08:36:38Z</time>
      </trkpt>
      <trkpt lat="43.78332" lon="1.27771">
        <ele>102.04</ele>
        <time>2016-01-02T08:36:39Z</time>
      </trkpt>
      <trkpt lat="43.78332" lon="1.27767">
        <ele>102.04</ele>
        <time>2016-01-02T08:36:40Z</time>
      </trkpt>
      <trkpt lat="43.78331" lon="1.27762">
        <ele>102.04</ele>
        <time>2016-01-02T08:36:41Z</time>
      </trkpt>
      <trkpt lat="43.78331" lon="1.27758">
        <ele>101.56</ele>
        <time>2016-01-02T08:36:42Z</time>
      </trkpt>
      <trkpt lat="43.78331" lon="1.27754">
        <ele>101.08</ele>
        <time>2016-01-02T08:36:43Z</time>
      </trkpt>
      <trkpt lat="43.78331" lon="1.2775">
        <ele>101.08</ele>
        <time>2016-01-02T08:36:44Z</time>
      </trkpt>
      <trkpt lat="43.78331" lon="1.27746">
        <ele>100.6</ele>
        <time>2016-01-02T08:36:45Z</time>
      </trkpt>
      <trkpt lat="43.78332" lon="1.27742">
        <ele>100.6</ele>
        <time>2016-01-02T08:36:46Z</time>
      </trkpt>
      <trkpt lat="43.78332" lon="1.27737">
        <ele>101.08</ele>
        <time>2016-01-02T08:36:47Z</time>
      </trkpt>
      <trkpt lat="43.78332" lon="1.27733">
        <ele>101.56</ele>
        <time>2016-01-02T08:36:48Z</time>
      </trkpt>
      <trkpt lat="43.78334" lon="1.27728">
        <ele>102.04</ele>
        <time>2016-01-02T08:36:49Z</time>
      </trkpt>
      <trkpt lat="43.78334" lon="1.27724">
        <ele>102.04</ele>
        <time>2016-01-02T08:36:50Z</time>
      </trkpt>
      <trkpt lat="43.78334" lon="1.2772">
        <ele>102.04</ele>
        <time>2016-01-02T08:36:51Z</time>
      </trkpt>
      <trkpt lat="43.78335" lon="1.27717">
        <ele>101.56</ele>
        <time>2016-01-02T08:36:52Z</time>
      </trkpt>
      <trkpt lat="43.78335" lon="1.27714">
        <ele>101.08</ele>
        <time>2016-01-02T08:36:53Z</time>
      </trkpt>
      <trkpt lat="43.78336" lon="1.2771">
        <ele>101.08</ele>
        <time>2016-01-02T08:36:54Z</time>
      </trkpt>
      <trkpt lat="43.78338" lon="1.27707">
        <ele>101.08</ele>
        <time>2016-01-02T08:36:55Z</time>
      </trkpt>
      <trkpt lat="43.78339" lon="1.27703">
        <ele>101.08</ele>
        <time>2016-01-02T08:36:56Z</time>
      </trkpt>
      <trkpt lat="43.7834" lon="1.27699">
        <ele>101.56</ele>
        <time>2016-01-02T08:36:57Z</time>
      </trkpt>
      <trkpt lat="43.78341" lon="1.27694">
        <ele>101.56</ele>
        <time>2016-01-02T08:36:58Z</time>
      </trkpt>
      <trkpt lat="43.78342" lon="1.2769">
        <ele>101.56</ele>
        <time>2016-01-02T08:36:59Z</time>
      </trkpt>
      <trkpt lat="43.78344" lon="1.27686">
        <ele>102.04</ele>
        <time>2016-01-02T08:37:00Z</time>
      </trkpt>
      <trkpt lat="43.78346" lon="1.27683">
        <ele>102.04</ele>
        <time>2016-01-02T08:37:01Z</time>
      </trkpt>
      <trkpt lat="43.78348" lon="1.2768">
        <ele>102.04</ele>
        <time>2016-01-02T08:37:02Z</time>
      </trkpt>
      <trkpt lat="43.7835" lon="1.27677">
        <ele>102.04</ele>
        <time>2016-01-02T08:37:03Z</time>
      </trkpt>
      <trkpt lat="43.78352" lon="1.27674">
        <ele>102.04</ele>
        <time>2016-01-02T08:37:04Z</time>
      </trkpt>
      <trkpt lat="43.78354" lon="1.27671">
        <ele>102.04</ele>
        <time>2016-01-02T08:37:05Z</time>
      </trkpt>
      <trkpt lat="43.78357" lon="1.27669">
        <ele>102.04</ele>
        <time>2016-01-02T08:37:06Z</time>
      </trkpt>
      <trkpt lat="43.78359" lon="1.27666">
        <ele>102.04</ele>
        <time>2016-01-02T08:37:07Z</time>
      </trkpt>
      <trkpt lat="43.78361" lon="1.27664">
        <ele>102.04</ele>
        <time>2016-01-02T08:37:08Z</time>
      </trkpt>
      <trkpt lat="43.78364" lon="1.27662">
        <ele>102.52</ele>
        <time>2016-01-02T08:37:09Z</time>
      </trkpt>
      <trkpt lat="43.78367" lon="1.27661">
        <ele>102.04</ele>
        <time>2016-01-02T08:37:10Z</time>
      </trkpt>
      <trkpt lat="43.78369" lon="1.27661">
        <ele>102.04</ele>
        <time>2016-01-02T08:37:11Z</time>
      </trkpt>
      <trkpt lat="43.78372" lon="1.2766">
        <ele>102.04</ele>
        <time>2016-01-02T08:37:12Z</time>
      </trkpt>
      <trkpt lat="43.78375" lon="1.2766">
        <ele>102.04</ele>
        <time>2016-01-02T08:37:13Z</time>
      </trkpt>
      <trkpt lat="43.78377" lon="1.27659">
        <ele>102.52</ele>
        <time>2016-01-02T08:37:14Z</time>
      </trkpt>
      <trkpt lat="43.7838" lon="1.27657">
        <ele>102.52</ele>
        <time>2016-01-02T08:37:15Z</time>
      </trkpt>
      <trkpt lat="43.78381" lon="1.27654">
        <ele>102.52</ele>
        <time>2016-01-02T08:37:16Z</time>
      </trkpt>
      <trkpt lat="43.78381" lon="1.27652">
        <ele>102.04</ele>
        <time>2016-01-02T08:37:17Z</time>
      </trkpt>
      <trkpt lat="43.78381" lon="1.27649">
        <ele>102.04</ele>
        <time>2016-01-02T08:37:18Z</time>
      </trkpt>
      <trkpt lat="43.78379" lon="1.27646">
        <ele>101.56</ele>
        <time>2016-01-02T08:37:19Z</time>
      </trkpt>
      <trkpt lat="43.78378" lon="1.27642">
        <ele>101.56</ele>
        <time>2016-01-02T08:37:20Z</time>
      </trkpt>
      <trkpt lat="43.78378" lon="1.27638">
        <ele>101.08</ele>
        <time>2016-01-02T08:37:21Z</time>
      </trkpt>
      <trkpt lat="43.7838" lon="1.27635">
        <ele>101.08</ele>
        <time>2016-01-02T08:37:22Z</time>
      </trkpt>
      <trkpt lat="43.78381" lon="1.27631">
        <ele>101.08</ele>
        <time>2016-01-02T08:37:23Z</time>
      </trkpt>
      <trkpt lat="43.78382" lon="1.27628">
        <ele>100.6</ele>
        <time>2016-01-02T08:37:24Z</time>
      </trkpt>
      <trkpt lat="43.78383" lon="1.27625">
        <ele>100.11</ele>
        <time>2016-01-02T08:37:25Z</time>
      </trkpt>
      <trkpt lat="43.78386" lon="1.27623">
        <ele>99.63</ele>
        <time>2016-01-02T08:37:26Z</time>
      </trkpt>
      <trkpt lat="43.7839" lon="1.2762">
        <ele>99.63</ele>
        <time>2016-01-02T08:37:27Z</time>
      </trkpt>
      <trkpt lat="43.78392" lon="1.27618">
        <ele>99.15</ele>
        <time>2016-01-02T08:37:28Z</time>
      </trkpt>
      <trkpt lat="43.78394" lon="1.27615">
        <ele>98.67</ele>
        <time>2016-01-02T08:37:29Z</time>
      </trkpt>
      <trkpt lat="43.78396" lon="1.27611">
        <ele>98.19</ele>
        <time>2016-01-02T08:37:30Z</time>
      </trkpt>
      <trkpt lat="43.78398" lon="1.27609">
        <ele>98.19</ele>
        <time>2016-01-02T08:37:31Z</time>
      </trkpt>
      <trkpt lat="43.784" lon="1.27607">
        <ele>97.71</ele>
        <time>2016-01-02T08:37:32Z</time>
      </trkpt>
      <trkpt lat="43.78402" lon="1.27607">
        <ele>98.19</ele>
        <time>2016-01-02T08:37:33Z</time>
      </trkpt>
      <trkpt lat="43.78403" lon="1.27606">
        <ele>98.19</ele>
        <time>2016-01-02T08:37:34Z</time>
      </trkpt>
      <trkpt lat="43.78405" lon="1.27606">
        <ele>98.19</ele>
        <time>2016-01-02T08:37:35Z</time>
      </trkpt>
      <trkpt lat="43.78406" lon="1.27607">
        <ele>98.67</ele>
        <time>2016-01-02T08:37:36Z</time>
      </trkpt>
      <trkpt lat="43.78407" lon="1.27608">
        <ele>99.15</ele>
        <time>2016-01-02T08:37:37Z</time>
      </trkpt>
      <trkpt lat="43.78408" lon="1.2761">
        <ele>99.63</ele>
        <time>2016-01-02T08:37:38Z</time>
      </trkpt>
      <trkpt lat="43.78409" lon="1.2761">
        <ele>100.6</ele>
        <time>2016-01-02T08:37:40Z</time>
      </trkpt>
      <trkpt lat="43.78411" lon="1.27609">
        <ele>100.6</ele>
        <time>2016-01-02T08:37:41Z</time>
      </trkpt>
      <trkpt lat="43.78412" lon="1.27607">
        <ele>101.08</ele>
        <time>2016-01-02T08:37:42Z</time>
      </trkpt>
      <trkpt lat="43.78414" lon="1.27605">
        <ele>101.08</ele>
        <time>2016-01-02T08:37:43Z</time>
      </trkpt>
      <trkpt lat="43.78416" lon="1.27604">
        <ele>101.08</ele>
        <time>2016-01-02T08:37:44Z</time>
      </trkpt>
      <trkpt lat="43.78418" lon="1.27602">
        <ele>101.56</ele>
        <time>2016-01-02T08:37:45Z</time>
      </trkpt>
      <trkpt lat="43.7842" lon="1.276">
        <ele>101.56</ele>
        <time>2016-01-02T08:37:46Z</time>
      </trkpt>
      <trkpt lat="43.78421" lon="1.27597">
        <ele>101.08</ele>
        <time>2016-01-02T08:37:47Z</time>
      </trkpt>
      <trkpt lat="43.78423" lon="1.27595">
        <ele>101.08</ele>
        <time>2016-01-02T08:37:48Z</time>
      </trkpt>
      <trkpt lat="43.78425" lon="1.27593">
        <ele>101.08</ele>
        <time>2016-01-02T08:37:49Z</time>
      </trkpt>
      <trkpt lat="43.78427" lon="1.27591">
        <ele>101.08</ele>
        <time>2016-01-02T08:37:50Z</time>
      </trkpt>
      <trkpt lat="43.7843" lon="1.27589">
        <ele>101.08</ele>
        <time>2016-01-02T08:37:51Z</time>
      </trkpt>
      <trkpt lat="43.78432" lon="1.27586">
        <ele>101.08</ele>
        <time>2016-01-02T08:37:52Z</time>
      </trkpt>
      <trkpt lat="43.78434" lon="1.27584">
        <ele>101.08</ele>
        <time>2016-01-02T08:37:53Z</time>
      </trkpt>
      <trkpt lat="43.78436" lon="1.27581">
        <ele>101.56</ele>
        <time>2016-01-02T08:37:54Z</time>
      </trkpt>
      <trkpt lat="43.78438" lon="1.27579">
        <ele>101.56</ele>
        <time>2016-01-02T08:37:55Z</time>
      </trkpt>
      <trkpt lat="43.78439" lon="1.27577">
        <ele>101.56</ele>
        <time>2016-01-02T08:37:56Z</time>
      </trkpt>
      <trkpt lat="43.78441" lon="1.27575">
        <ele>101.08</ele>
        <time>2016-01-02T08:37:57Z</time>
      </trkpt>
      <trkpt lat="43.78443" lon="1.27573">
        <ele>100.6</ele>
        <time>2016-01-02T08:37:58Z</time>
      </trkpt>
      <trkpt lat="43.78446" lon="1.2757">
        <ele>100.6</ele>
        <time>2016-01-02T08:37:59Z</time>
      </trkpt>
      <trkpt lat="43.78448" lon="1.27568">
        <ele>100.11</ele>
        <time>2016-01-02T08:38:00Z</time>
      </trkpt>
      <trkpt lat="43.7845" lon="1.27565">
        <ele>99.63</ele>
        <time>2016-01-02T08:38:01Z</time>
      </trkpt>
      <trkpt lat="43.78452" lon="1.27563">
        <ele>99.15</ele>
        <time>2016-01-02T08:38:02Z</time>
      </trkpt>
      <trkpt lat="43.78454" lon="1.27561">
        <ele>98.67</ele>
        <time>2016-01-02T08:38:03Z</time>
      </trkpt>
      <trkpt lat="43.78456" lon="1.27559">
        <ele>98.67</ele>
        <time>2016-01-02T08:38:04Z</time>
      </trkpt>
      <trkpt lat="43.78458" lon="1.27557">
        <ele>98.19</ele>
        <time>2016-01-02T08:38:05Z</time>
      </trkpt>
      <trkpt lat="43.7846" lon="1.27555">
        <ele>98.67</ele>
        <time>2016-01-02T08:38:06Z</time>
      </trkpt>
      <trkpt lat="43.78462" lon="1.27554">
        <ele>98.67</ele>
        <time>2016-01-02T08:38:07Z</time>
      </trkpt>
      <trkpt lat="43.78463" lon="1.27553">
        <ele>99.15</ele>
        <time>2016-01-02T08:38:08Z</time>
      </trkpt>
      <trkpt lat="43.78465" lon="1.27551">
        <ele>99.63</ele>
        <time>2016-01-02T08:38:09Z</time>
      </trkpt>
      <trkpt lat="43.78468" lon="1.2755">
        <ele>99.63</ele>
        <time>2016-01-02T08:38:10Z</time>
      </trkpt>
      <trkpt lat="43.7847" lon="1.27548">
        <ele>99.63</ele>
        <time>2016-01-02T08:38:11Z</time>
      </trkpt>
      <trkpt lat="43.78472" lon="1.27546">
        <ele>99.15</ele>
        <time>2016-01-02T08:38:12Z</time>
      </trkpt>
      <trkpt lat="43.78474" lon="1.27545">
        <ele>99.63</ele>
        <time>2016-01-02T08:38:13Z</time>
      </trkpt>
      <trkpt lat="43.78476" lon="1.27544">
        <ele>100.11</ele>
        <time>2016-01-02T08:38:14Z</time>
      </trkpt>
      <trkpt lat="43.78478" lon="1.27542">
        <ele>100.6</ele>
        <time>2016-01-02T08:38:15Z</time>
      </trkpt>
      <trkpt lat="43.78481" lon="1.2754">
        <ele>100.6</ele>
        <time>2016-01-02T08:38:16Z</time>
      </trkpt>
      <trkpt lat="43.78483" lon="1.27538">
        <ele>100.6</ele>
        <time>2016-01-02T08:38:17Z</time>
      </trkpt>
      <trkpt lat="43.78485" lon="1.27536">
        <ele>100.11</ele>
        <time>2016-01-02T08:38:18Z</time>
      </trkpt>
      <trkpt lat="43.78487" lon="1.27534">
        <ele>100.11</ele>
        <time>2016-01-02T08:38:19Z</time>
      </trkpt>
      <trkpt lat="43.78489" lon="1.27532">
        <ele>100.11</ele>
        <time>2016-01-02T08:38:20Z</time>
      </trkpt>
      <trkpt lat="43.78491" lon="1.2753">
        <ele>100.11</ele>
        <time>2016-01-02T08:38:21Z</time>
      </trkpt>
      <trkpt lat="43.78493" lon="1.27528">
        <ele>100.11</ele>
        <time>2016-01-02T08:38:22Z</time>
      </trkpt>
      <trkpt lat="43.78495" lon="1.27526">
        <ele>100.11</ele>
        <time>2016-01-02T08:38:23Z</time>
      </trkpt>
      <trkpt lat="43.78497" lon="1.27524">
        <ele>100.11</ele>
        <time>2016-01-02T08:38:24Z</time>
      </trkpt>
      <trkpt lat="43.78499" lon="1.27523">
        <ele>99.63</ele>
        <time>2016-01-02T08:38:25Z</time>
      </trkpt>
      <trkpt lat="43.78501" lon="1.27523">
        <ele>99.63</ele>
        <time>2016-01-02T08:38:26Z</time>
      </trkpt>
      <trkpt lat="43.78504" lon="1.27523">
        <ele>99.63</ele>
        <time>2016-01-02T08:38:27Z</time>
      </trkpt>
      <trkpt lat="43.78506" lon="1.27522">
        <ele>100.6</ele>
        <time>2016-01-02T08:38:28Z</time>
      </trkpt>
      <trkpt lat="43.78508" lon="1.27522">
        <ele>100.6</ele>
        <time>2016-01-02T08:38:29Z</time>
      </trkpt>
      <trkpt lat="43.78511" lon="1.27521">
        <ele>101.08</ele>
        <time>2016-01-02T08:38:30Z</time>
      </trkpt>
      <trkpt lat="43.78513" lon="1.27521">
        <ele>101.08</ele>
        <time>2016-01-02T08:38:31Z</time>
      </trkpt>
      <trkpt lat="43.78516" lon="1.2752">
        <ele>101.56</ele>
        <time>2016-01-02T08:38:32Z</time>
      </trkpt>
      <trkpt lat="43.78518" lon="1.2752">
        <ele>101.56</ele>
        <time>2016-01-02T08:38:33Z</time>
      </trkpt>
      <trkpt lat="43.7852" lon="1.27518">
        <ele>101.56</ele>
        <time>2016-01-02T08:38:34Z</time>
      </trkpt>
      <trkpt lat="43.78523" lon="1.27516">
        <ele>101.08</ele>
        <time>2016-01-02T08:38:35Z</time>
      </trkpt>
      <trkpt lat="43.78525" lon="1.27515">
        <ele>101.08</ele>
        <time>2016-01-02T08:38:36Z</time>
      </trkpt>
      <trkpt lat="43.78528" lon="1.27514">
        <ele>101.08</ele>
        <time>2016-01-02T08:38:37Z</time>
      </trkpt>
      <trkpt lat="43.7853" lon="1.27513">
        <ele>100.6</ele>
        <time>2016-01-02T08:38:38Z</time>
      </trkpt>
      <trkpt lat="43.78533" lon="1.27512">
        <ele>100.6</ele>
        <time>2016-01-02T08:38:39Z</time>
      </trkpt>
      <trkpt lat="43.78536" lon="1.27511">
        <ele>100.6</ele>
        <time>2016-01-02T08:38:40Z</time>
      </trkpt>
      <trkpt lat="43.78539" lon="1.2751">
        <ele>100.6</ele>
        <time>2016-01-02T08:38:41Z</time>
      </trkpt>
      <trkpt lat="43.78541" lon="1.2751">
        <ele>101.08</ele>
        <time>2016-01-02T08:38:42Z</time>
      </trkpt>
      <trkpt lat="43.78544" lon="1.2751">
        <ele>101.08</ele>
        <time>2016-01-02T08:38:43Z</time>
      </trkpt>
      <trkpt lat="43.78546" lon="1.2751">
        <ele>100.6</ele>
        <time>2016-01-02T08:38:44Z</time>
      </trkpt>
      <trkpt lat="43.78549" lon="1.2751">
        <ele>100.6</ele>
        <time>2016-01-02T08:38:45Z</time>
      </trkpt>
      <trkpt lat="43.78552" lon="1.2751">
        <ele>100.6</ele>
        <time>2016-01-02T08:38:46Z</time>
      </trkpt>
      <trkpt lat="43.78555" lon="1.27511">
        <ele>100.6</ele>
        <time>2016-01-02T08:38:47Z</time>
      </trkpt>
      <trkpt lat="43.78557" lon="1.27512">
        <ele>100.6</ele>
        <time>2016-01-02T08:38:48Z</time>
      </trkpt>
      <trkpt lat="43.7856" lon="1.27513">
        <ele>100.6</ele>
        <time>2016-01-02T08:38:49Z</time>
      </trkpt>
      <trkpt lat="43.78563" lon="1.27514">
        <ele>100.6</ele>
        <time>2016-01-02T08:38:50Z</time>
      </trkpt>
      <trkpt lat="43.78566" lon="1.27513">
        <ele>100.6</ele>
        <time>2016-01-02T08:38:51Z</time>
      </trkpt>
      <trkpt lat="43.78568" lon="1.27513">
        <ele>100.6</ele>
        <time>2016-01-02T08:38:52Z</time>
      </trkpt>
      <trkpt lat="43.7857" lon="1.27513">
        <ele>100.6</ele>
        <time>2016-01-02T08:38:53Z</time>
      </trkpt>
      <trkpt lat="43.78572" lon="1.27513">
        <ele>100.6</ele>
        <time>2016-01-02T08:38:54Z</time>
      </trkpt>
      <trkpt lat="43.78574" lon="1.27515">
        <ele>100.6</ele>
        <time>2016-01-02T08:38:55Z</time>
      </trkpt>
      <trkpt lat="43.78576" lon="1.27517">
        <ele>101.08</ele>
        <time>2016-01-02T08:38:56Z</time>
      </trkpt>
      <trkpt lat="43.78577" lon="1.2752">
        <ele>101.08</ele>
        <time>2016-01-02T08:38:57Z</time>
      </trkpt>
      <trkpt lat="43.78579" lon="1.27524">
        <ele>101.08</ele>
        <time>2016-01-02T08:38:58Z</time>
      </trkpt>
      <trkpt lat="43.78581" lon="1.27527">
        <ele>100.6</ele>
        <time>2016-01-02T08:38:59Z</time>
      </trkpt>
      <trkpt lat="43.78583" lon="1.27529">
        <ele>100.6</ele>
        <time>2016-01-02T08:39:00Z</time>
      </trkpt>
      <trkpt lat="43.78585" lon="1.27532">
        <ele>100.6</ele>
        <time>2016-01-02T08:39:01Z</time>
      </trkpt>
      <trkpt lat="43.78587" lon="1.27535">
        <ele>100.6</ele>
        <time>2016-01-02T08:39:02Z</time>
      </trkpt>
      <trkpt lat="43.7859" lon="1.27538">
        <ele>100.6</ele>
        <time>2016-01-02T08:39:03Z</time>
      </trkpt>
      <trkpt lat="43.78592" lon="1.2754">
        <ele>101.08</ele>
        <time>2016-01-02T08:39:04Z</time>
      </trkpt>
      <trkpt lat="43.78593" lon="1.27543">
        <ele>101.08</ele>
        <time>2016-01-02T08:39:05Z</time>
      </trkpt>
      <trkpt lat="43.78595" lon="1.27546">
        <ele>100.6</ele>
        <time>2016-01-02T08:39:06Z</time>
      </trkpt>
      <trkpt lat="43.78596" lon="1.27549">
        <ele>100.6</ele>
        <time>2016-01-02T08:39:07Z</time>
      </trkpt>
      <trkpt lat="43.78597" lon="1.27552">
        <ele>100.6</ele>
        <time>2016-01-02T08:39:08Z</time>
      </trkpt>
      <trkpt lat="43.78599" lon="1.27556">
        <ele>100.6</ele>
        <time>2016-01-02T08:39:09Z</time>
      </trkpt>
      <trkpt lat="43.78602" lon="1.27559">
        <ele>100.6</ele>
        <time>2016-01-02T08:39:10Z</time>
      </trkpt>
      <trkpt lat="43.78605" lon="1.27561">
        <ele>100.6</ele>
        <time>2016-01-02T08:39:11Z</time>
      </trkpt>
      <trkpt lat="43.78607" lon="1.27563">
        <ele>100.6</ele>
        <time>2016-01-02T08:39:12Z</time>
      </trkpt>
      <trkpt lat="43.78609" lon="1.27566">
        <ele>101.08</ele>
        <time>2016-01-02T08:39:13Z</time>
      </trkpt>
      <trkpt lat="43.78611" lon="1.27569">
        <ele>101.08</ele>
        <time>2016-01-02T08:39:14Z</time>
      </trkpt>
      <trkpt lat="43.78612" lon="1.27571">
        <ele>100.6</ele>
        <time>2016-01-02T08:39:15Z</time>
      </trkpt>
      <trkpt lat="43.78614" lon="1.27573">
        <ele>100.6</ele>
        <time>2016-01-02T08:39:16Z</time>
      </trkpt>
      <trkpt lat="43.78615" lon="1.27575">
        <ele>100.6</ele>
        <time>2016-01-02T08:39:17Z</time>
      </trkpt>
      <trkpt lat="43.78618" lon="1.27577">
        <ele>100.6</ele>
        <time>2016-01-02T08:39:18Z</time>
      </trkpt>
      <trkpt lat="43.78621" lon="1.2758">
        <ele>100.11</ele>
        <time>2016-01-02T08:39:19Z</time>
      </trkpt>
      <trkpt lat="43.78624" lon="1.27582">
        <ele>99.63</ele>
        <time>2016-01-02T08:39:20Z</time>
      </trkpt>
      <trkpt lat="43.78626" lon="1.27585">
        <ele>99.63</ele>
        <time>2016-01-02T08:39:21Z</time>
      </trkpt>
      <trkpt lat="43.78627" lon="1.27589">
        <ele>99.15</ele>
        <time>2016-01-02T08:39:22Z</time>
      </trkpt>
      <trkpt lat="43.78628" lon="1.27591">
        <ele>99.15</ele>
        <time>2016-01-02T08:39:23Z</time>
      </trkpt>
      <trkpt lat="43.78629" lon="1.27594">
        <ele>98.67</ele>
        <time>2016-01-02T08:39:24Z</time>
      </trkpt>
      <trkpt lat="43.7863" lon="1.27597">
        <ele>98.67</ele>
        <time>2016-01-02T08:39:25Z</time>
      </trkpt>
      <trkpt lat="43.7863" lon="1.276">
        <ele>98.67</ele>
        <time>2016-01-02T08:39:26Z</time>
      </trkpt>
      <trkpt lat="43.78631" lon="1.27603">
        <ele>98.19</ele>
        <time>2016-01-02T08:39:27Z</time>
      </trkpt>
      <trkpt lat="43.78632" lon="1.27605">
        <ele>98.19</ele>
        <time>2016-01-02T08:39:28Z</time>
      </trkpt>
      <trkpt lat="43.78633" lon="1.27608">
        <ele>98.19</ele>
        <time>2016-01-02T08:39:29Z</time>
      </trkpt>
      <trkpt lat="43.78635" lon="1.27611">
        <ele>98.19</ele>
        <time>2016-01-02T08:39:30Z</time>
      </trkpt>
      <trkpt lat="43.78635" lon="1.27614">
        <ele>98.67</ele>
        <time>2016-01-02T08:39:31Z</time>
      </trkpt>
      <trkpt lat="43.78636" lon="1.27617">
        <ele>99.15</ele>
        <time>2016-01-02T08:39:32Z</time>
      </trkpt>
      <trkpt lat="43.78637" lon="1.2762">
        <ele>99.63</ele>
        <time>2016-01-02T08:39:33Z</time>
      </trkpt>
      <trkpt lat="43.78637" lon="1.27623">
        <ele>100.11</ele>
        <time>2016-01-02T08:39:34Z</time>
      </trkpt>
      <trkpt lat="43.78637" lon="1.27626">
        <ele>100.11</ele>
        <time>2016-01-02T08:39:35Z</time>
      </trkpt>
      <trkpt lat="43.78638" lon="1.27629">
        <ele>100.11</ele>
        <time>2016-01-02T08:39:36Z</time>
      </trkpt>
      <trkpt lat="43.78639" lon="1.27632">
        <ele>100.6</ele>
        <time>2016-01-02T08:39:37Z</time>
      </trkpt>
      <trkpt lat="43.78641" lon="1.27635">
        <ele>100.6</ele>
        <time>2016-01-02T08:39:38Z</time>
      </trkpt>
      <trkpt lat="43.78642" lon="1.27638">
        <ele>100.6</ele>
        <time>2016-01-02T08:39:39Z</time>
      </trkpt>
      <trkpt lat="43.78644" lon="1.27643">
        <ele>100.6</ele>
        <time>2016-01-02T08:39:40Z</time>
      </trkpt>
      <trkpt lat="43.78645" lon="1.27646">
        <ele>101.08</ele>
        <time>2016-01-02T08:39:41Z</time>
      </trkpt>
      <trkpt lat="43.78646" lon="1.2765">
        <ele>100.6</ele>
        <time>2016-01-02T08:39:42Z</time>
      </trkpt>
      <trkpt lat="43.78647" lon="1.27653">
        <ele>100.6</ele>
        <time>2016-01-02T08:39:43Z</time>
      </trkpt>
      <trkpt lat="43.78648" lon="1.27657">
        <ele>100.6</ele>
        <time>2016-01-02T08:39:44Z</time>
      </trkpt>
      <trkpt lat="43.78648" lon="1.27661">
        <ele>100.6</ele>
        <time>2016-01-02T08:39:45Z</time>
      </trkpt>
      <trkpt lat="43.78649" lon="1.27665">
        <ele>100.6</ele>
        <time>2016-01-02T08:39:46Z</time>
      </trkpt>
      <trkpt lat="43.7865" lon="1.27669">
        <ele>100.6</ele>
        <time>2016-01-02T08:39:47Z</time>
      </trkpt>
      <trkpt lat="43.78651" lon="1.27673">
        <ele>100.6</ele>
        <time>2016-01-02T08:39:48Z</time>
      </trkpt>
      <trkpt lat="43.78653" lon="1.27676">
        <ele>100.6</ele>
        <time>2016-01-02T08:39:49Z</time>
      </trkpt>
      <trkpt lat="43.78654" lon="1.27679">
        <ele>101.08</ele>
        <time>2016-01-02T08:39:50Z</time>
      </trkpt>
      <trkpt lat="43.78655" lon="1.27683">
        <ele>101.08</ele>
        <time>2016-01-02T08:39:51Z</time>
      </trkpt>
      <trkpt lat="43.78656" lon="1.27687">
        <ele>101.08</ele>
        <time>2016-01-02T08:39:52Z</time>
      </trkpt>
      <trkpt lat="43.78657" lon="1.2769">
        <ele>100.6</ele>
        <time>2016-01-02T08:39:53Z</time>
      </trkpt>
      <trkpt lat="43.7866" lon="1.27694">
        <ele>100.6</ele>
        <time>2016-01-02T08:39:54Z</time>
      </trkpt>
      <trkpt lat="43.78661" lon="1.27697">
        <ele>100.6</ele>
        <time>2016-01-02T08:39:55Z</time>
      </trkpt>
      <trkpt lat="43.78662" lon="1.277">
        <ele>100.6</ele>
        <time>2016-01-02T08:39:56Z</time>
      </trkpt>
      <trkpt lat="43.78664" lon="1.27702">
        <ele>100.11</ele>
        <time>2016-01-02T08:39:57Z</time>
      </trkpt>
      <trkpt lat="43.78666" lon="1.27704">
        <ele>100.11</ele>
        <time>2016-01-02T08:39:58Z</time>
      </trkpt>
      <trkpt lat="43.78668" lon="1.27706">
        <ele>99.63</ele>
        <time>2016-01-02T08:39:59Z</time>
      </trkpt>
      <trkpt lat="43.7867" lon="1.27708">
        <ele>98.67</ele>
        <time>2016-01-02T08:40:00Z</time>
      </trkpt>
      <trkpt lat="43.78671" lon="1.2771">
        <ele>98.67</ele>
        <time>2016-01-02T08:40:01Z</time>
      </trkpt>
      <trkpt lat="43.78672" lon="1.27712">
        <ele>98.19</ele>
        <time>2016-01-02T08:40:02Z</time>
      </trkpt>
      <trkpt lat="43.78672" lon="1.27714">
        <ele>98.19</ele>
        <time>2016-01-02T08:40:03Z</time>
      </trkpt>
      <trkpt lat="43.78673" lon="1.27716">
        <ele>98.19</ele>
        <time>2016-01-02T08:40:04Z</time>
      </trkpt>
      <trkpt lat="43.78674" lon="1.27718">
        <ele>98.67</ele>
        <time>2016-01-02T08:40:05Z</time>
      </trkpt>
      <trkpt lat="43.78675" lon="1.27719">
        <ele>98.67</ele>
        <time>2016-01-02T08:40:06Z</time>
      </trkpt>
      <trkpt lat="43.78676" lon="1.27721">
        <ele>98.67</ele>
        <time>2016-01-02T08:40:07Z</time>
      </trkpt>
      <trkpt lat="43.78677" lon="1.27724">
        <ele>98.19</ele>
        <time>2016-01-02T08:40:08Z</time>
      </trkpt>
      <trkpt lat="43.78679" lon="1.27727">
        <ele>98.19</ele>
        <time>2016-01-02T08:40:09Z</time>
      </trkpt>
      <trkpt lat="43.78679" lon="1.27731">
        <ele>97.71</ele>
        <time>2016-01-02T08:40:10Z</time>
      </trkpt>
      <trkpt lat="43.7868" lon="1.27734">
        <ele>97.71</ele>
        <time>2016-01-02T08:40:11Z</time>
      </trkpt>
      <trkpt lat="43.78681" lon="1.27738">
        <ele>97.71</ele>
        <time>2016-01-02T08:40:12Z</time>
      </trkpt>
      <trkpt lat="43.78683" lon="1.27742">
        <ele>97.71</ele>
        <time>2016-01-02T08:40:13Z</time>
      </trkpt>
      <trkpt lat="43.78685" lon="1.27745">
        <ele>98.19</ele>
        <time>2016-01-02T08:40:14Z</time>
      </trkpt>
      <trkpt lat="43.78687" lon="1.27748">
        <ele>98.19</ele>
        <time>2016-01-02T08:40:15Z</time>
      </trkpt>
      <trkpt lat="43.78689" lon="1.27751">
        <ele>98.19</ele>
        <time>2016-01-02T08:40:16Z</time>
      </trkpt>
      <trkpt lat="43.7869" lon="1.27755">
        <ele>97.71</ele>
        <time>2016-01-02T08:40:17Z</time>
      </trkpt>
      <trkpt lat="43.78691" lon="1.27758">
        <ele>97.23</ele>
        <time>2016-01-02T08:40:18Z</time>
      </trkpt>
      <trkpt lat="43.78692" lon="1.27761">
        <ele>97.23</ele>
        <time>2016-01-02T08:40:19Z</time>
      </trkpt>
      <trkpt lat="43.78692" lon="1.27765">
        <ele>97.23</ele>
        <time>2016-01-02T08:40:20Z</time>
      </trkpt>
      <trkpt lat="43.78693" lon="1.27768">
        <ele>97.23</ele>
        <time>2016-01-02T08:40:21Z</time>
      </trkpt>
      <trkpt lat="43.78693" lon="1.27772">
        <ele>97.23</ele>
        <time>2016-01-02T08:40:22Z</time>
      </trkpt>
      <trkpt lat="43.78695" lon="1.27775">
        <ele>97.71</ele>
        <time>2016-01-02T08:40:23Z</time>
      </trkpt>
      <trkpt lat="43.78696" lon="1.27779">
        <ele>98.19</ele>
        <time>2016-01-02T08:40:24Z</time>
      </trkpt>
      <trkpt lat="43.78697" lon="1.27783">
        <ele>98.19</ele>
        <time>2016-01-02T08:40:25Z</time>
      </trkpt>
      <trkpt lat="43.78698" lon="1.27786">
        <ele>98.19</ele>
        <time>2016-01-02T08:40:26Z</time>
      </trkpt>
      <trkpt lat="43.78699" lon="1.27789">
        <ele>98.19</ele>
        <time>2016-01-02T08:40:27Z</time>
      </trkpt>
      <trkpt lat="43.78699" lon="1.27792">
        <ele>97.71</ele>
        <time>2016-01-02T08:40:28Z</time>
      </trkpt>
      <trkpt lat="43.787" lon="1.27795">
        <ele>97.71</ele>
        <time>2016-01-02T08:40:29Z</time>
      </trkpt>
      <trkpt lat="43.78701" lon="1.27798">
        <ele>97.71</ele>
        <time>2016-01-02T08:40:30Z</time>
      </trkpt>
      <trkpt lat="43.78703" lon="1.27802">
        <ele>97.71</ele>
        <time>2016-01-02T08:40:31Z</time>
      </trkpt>
      <trkpt lat="43.78705" lon="1.27805">
        <ele>97.71</ele>
        <time>2016-01-02T08:40:32Z</time>
      </trkpt>
      <trkpt lat="43.78707" lon="1.27808">
        <ele>97.71</ele>
        <time>2016-01-02T08:40:33Z</time>
      </trkpt>
      <trkpt lat="43.78708" lon="1.2781">
        <ele>97.71</ele>
        <time>2016-01-02T08:40:34Z</time>
      </trkpt>
      <trkpt lat="43.78709" lon="1.27814">
        <ele>97.71</ele>
        <time>2016-01-02T08:40:35Z</time>
      </trkpt>
      <trkpt lat="43.78711" lon="1.27817">
        <ele>97.71</ele>
        <time>2016-01-02T08:40:36Z</time>
      </trkpt>
      <trkpt lat="43.78712" lon="1.2782">
        <ele>97.23</ele>
        <time>2016-01-02T08:40:37Z</time>
      </trkpt>
      <trkpt lat="43.78713" lon="1.27824">
        <ele>97.23</ele>
        <time>2016-01-02T08:40:38Z</time>
      </trkpt>
      <trkpt lat="43.78716" lon="1.27828">
        <ele>97.23</ele>
        <time>2016-01-02T08:40:39Z</time>
      </trkpt>
      <trkpt lat="43.78717" lon="1.2783">
        <ele>97.23</ele>
        <time>2016-01-02T08:40:40Z</time>
      </trkpt>
      <trkpt lat="43.78718" lon="1.27834">
        <ele>97.71</ele>
        <time>2016-01-02T08:40:41Z</time>
      </trkpt>
      <trkpt lat="43.78719" lon="1.27837">
        <ele>97.71</ele>
        <time>2016-01-02T08:40:42Z</time>
      </trkpt>
      <trkpt lat="43.7872" lon="1.27841">
        <ele>97.71</ele>
        <time>2016-01-02T08:40:43Z</time>
      </trkpt>
      <trkpt lat="43.78722" lon="1.27844">
        <ele>97.71</ele>
        <time>2016-01-02T08:40:44Z</time>
      </trkpt>
      <trkpt lat="43.78723" lon="1.27848">
        <ele>97.23</ele>
        <time>2016-01-02T08:40:45Z</time>
      </trkpt>
      <trkpt lat="43.78724" lon="1.27852">
        <ele>97.23</ele>
        <time>2016-01-02T08:40:46Z</time>
      </trkpt>
      <trkpt lat="43.78724" lon="1.27855">
        <ele>97.23</ele>
        <time>2016-01-02T08:40:47Z</time>
      </trkpt>
      <trkpt lat="43.78725" lon="1.27858">
        <ele>97.23</ele>
        <time>2016-01-02T08:40:48Z</time>
      </trkpt>
      <trkpt lat="43.78725" lon="1.27862">
        <ele>97.23</ele>
        <time>2016-01-02T08:40:49Z</time>
      </trkpt>
      <trkpt lat="43.78726" lon="1.27866">
        <ele>97.23</ele>
        <time>2016-01-02T08:40:50Z</time>
      </trkpt>
      <trkpt lat="43.78726" lon="1.2787">
        <ele>97.71</ele>
        <time>2016-01-02T08:40:51Z</time>
      </trkpt>
      <trkpt lat="43.78727" lon="1.27873">
        <ele>97.71</ele>
        <time>2016-01-02T08:40:52Z</time>
      </trkpt>
      <trkpt lat="43.78728" lon="1.27877">
        <ele>97.71</ele>
        <time>2016-01-02T08:40:53Z</time>
      </trkpt>
      <trkpt lat="43.7873" lon="1.27881">
        <ele>97.23</ele>
        <time>2016-01-02T08:40:54Z</time>
      </trkpt>
      <trkpt lat="43.7873" lon="1.27884">
        <ele>97.23</ele>
        <time>2016-01-02T08:40:55Z</time>
      </trkpt>
      <trkpt lat="43.78731" lon="1.27888">
        <ele>97.23</ele>
        <time>2016-01-02T08:40:56Z</time>
      </trkpt>
      <trkpt lat="43.78731" lon="1.2789">
        <ele>97.23</ele>
        <time>2016-01-02T08:40:57Z</time>
      </trkpt>
      <trkpt lat="43.78732" lon="1.27894">
        <ele>97.23</ele>
        <time>2016-01-02T08:40:58Z</time>
      </trkpt>
      <trkpt lat="43.78732" lon="1.27898">
        <ele>97.23</ele>
        <time>2016-01-02T08:40:59Z</time>
      </trkpt>
      <trkpt lat="43.78732" lon="1.27902">
        <ele>97.23</ele>
        <time>2016-01-02T08:41:00Z</time>
      </trkpt>
      <trkpt lat="43.78733" lon="1.27906">
        <ele>97.23</ele>
        <time>2016-01-02T08:41:01Z</time>
      </trkpt>
      <trkpt lat="43.78732" lon="1.27909">
        <ele>97.23</ele>
        <time>2016-01-02T08:41:02Z</time>
      </trkpt>
      <trkpt lat="43.78733" lon="1.27913">
        <ele>96.75</ele>
        <time>2016-01-02T08:41:03Z</time>
      </trkpt>
      <trkpt lat="43.78733" lon="1.27917">
        <ele>96.75</ele>
        <time>2016-01-02T08:41:04Z</time>
      </trkpt>
      <trkpt lat="43.78733" lon="1.2792">
        <ele>96.75</ele>
        <time>2016-01-02T08:41:05Z</time>
      </trkpt>
      <trkpt lat="43.78734" lon="1.27923">
        <ele>97.23</ele>
        <time>2016-01-02T08:41:06Z</time>
      </trkpt>
      <trkpt lat="43.78734" lon="1.27926">
        <ele>96.75</ele>
        <time>2016-01-02T08:41:07Z</time>
      </trkpt>
      <trkpt lat="43.78734" lon="1.27928">
        <ele>96.75</ele>
        <time>2016-01-02T08:41:08Z</time>
      </trkpt>
      <trkpt lat="43.78733" lon="1.27931">
        <ele>96.27</ele>
        <time>2016-01-02T08:41:09Z</time>
      </trkpt>
      <trkpt lat="43.78733" lon="1.27934">
        <ele>96.27</ele>
        <time>2016-01-02T08:41:10Z</time>
      </trkpt>
      <trkpt lat="43.78732" lon="1.27937">
        <ele>96.75</ele>
        <time>2016-01-02T08:41:11Z</time>
      </trkpt>
      <trkpt lat="43.78731" lon="1.27939">
        <ele>96.75</ele>
        <time>2016-01-02T08:41:12Z</time>
      </trkpt>
      <trkpt lat="43.7873" lon="1.27941">
        <ele>97.23</ele>
        <time>2016-01-02T08:41:13Z</time>
      </trkpt>
      <trkpt lat="43.78731" lon="1.27943">
        <ele>97.23</ele>
        <time>2016-01-02T08:41:14Z</time>
      </trkpt>
      <trkpt lat="43.7873" lon="1.27945">
        <ele>97.71</ele>
        <time>2016-01-02T08:41:15Z</time>
      </trkpt>
      <trkpt lat="43.78729" lon="1.27947">
        <ele>97.71</ele>
        <time>2016-01-02T08:41:16Z</time>
      </trkpt>
      <trkpt lat="43.78728" lon="1.2795">
        <ele>98.19</ele>
        <time>2016-01-02T08:41:17Z</time>
      </trkpt>
      <trkpt lat="43.78728" lon="1.27953">
        <ele>98.19</ele>
        <time>2016-01-02T08:41:18Z</time>
      </trkpt>
      <trkpt lat="43.78728" lon="1.27957">
        <ele>98.19</ele>
        <time>2016-01-02T08:41:19Z</time>
      </trkpt>
      <trkpt lat="43.78729" lon="1.27959">
        <ele>98.19</ele>
        <time>2016-01-02T08:41:20Z</time>
      </trkpt>
      <trkpt lat="43.78729" lon="1.27962">
        <ele>97.71</ele>
        <time>2016-01-02T08:41:21Z</time>
      </trkpt>
      <trkpt lat="43.78728" lon="1.27965">
        <ele>97.23</ele>
        <time>2016-01-02T08:41:22Z</time>
      </trkpt>
      <trkpt lat="43.78727" lon="1.27966">
        <ele>97.23</ele>
        <time>2016-01-02T08:41:23Z</time>
      </trkpt>
      <trkpt lat="43.78726" lon="1.27968">
        <ele>97.23</ele>
        <time>2016-01-02T08:41:24Z</time>
      </trkpt>
      <trkpt lat="43.78724" lon="1.27969">
        <ele>97.71</ele>
        <time>2016-01-02T08:41:25Z</time>
      </trkpt>
      <trkpt lat="43.78724" lon="1.2797">
        <ele>98.67</ele>
        <time>2016-01-02T08:41:26Z</time>
      </trkpt>
      <trkpt lat="43.78723" lon="1.27971">
        <ele>99.15</ele>
        <time>2016-01-02T08:41:27Z</time>
      </trkpt>
      <trkpt lat="43.78721" lon="1.27972">
        <ele>99.15</ele>
        <time>2016-01-02T08:41:28Z</time>
      </trkpt>
      <trkpt lat="43.7872" lon="1.27974">
        <ele>99.15</ele>
        <time>2016-01-02T08:41:29Z</time>
      </trkpt>
      <trkpt lat="43.78719" lon="1.27977">
        <ele>99.15</ele>
        <time>2016-01-02T08:41:30Z</time>
      </trkpt>
      <trkpt lat="43.78719" lon="1.2798">
        <ele>98.67</ele>
        <time>2016-01-02T08:41:31Z</time>
      </trkpt>
      <trkpt lat="43.78718" lon="1.27983">
        <ele>99.15</ele>
        <time>2016-01-02T08:41:32Z</time>
      </trkpt>
      <trkpt lat="43.78718" lon="1.27986">
        <ele>98.67</ele>
        <time>2016-01-02T08:41:33Z</time>
      </trkpt>
      <trkpt lat="43.78717" lon="1.2799">
        <ele>98.67</ele>
        <time>2016-01-02T08:41:34Z</time>
      </trkpt>
      <trkpt lat="43.78716" lon="1.27995">
        <ele>98.67</ele>
        <time>2016-01-02T08:41:35Z</time>
      </trkpt>
      <trkpt lat="43.78716" lon="1.27998">
        <ele>98.19</ele>
        <time>2016-01-02T08:41:36Z</time>
      </trkpt>
      <trkpt lat="43.78715" lon="1.28001">
        <ele>98.19</ele>
        <time>2016-01-02T08:41:37Z</time>
      </trkpt>
      <trkpt lat="43.78714" lon="1.28006">
        <ele>97.71</ele>
        <time>2016-01-02T08:41:38Z</time>
      </trkpt>
      <trkpt lat="43.78714" lon="1.28009">
        <ele>97.71</ele>
        <time>2016-01-02T08:41:39Z</time>
      </trkpt>
      <trkpt lat="43.78712" lon="1.28013">
        <ele>98.19</ele>
        <time>2016-01-02T08:41:40Z</time>
      </trkpt>
      <trkpt lat="43.78711" lon="1.28017">
        <ele>98.19</ele>
        <time>2016-01-02T08:41:41Z</time>
      </trkpt>
      <trkpt lat="43.7871" lon="1.2802">
        <ele>98.19</ele>
        <time>2016-01-02T08:41:42Z</time>
      </trkpt>
      <trkpt lat="43.78709" lon="1.28023">
        <ele>97.71</ele>
        <time>2016-01-02T08:41:43Z</time>
      </trkpt>
      <trkpt lat="43.78708" lon="1.28026">
        <ele>97.23</ele>
        <time>2016-01-02T08:41:44Z</time>
      </trkpt>
      <trkpt lat="43.78707" lon="1.28029">
        <ele>97.23</ele>
        <time>2016-01-02T08:41:45Z</time>
      </trkpt>
      <trkpt lat="43.78706" lon="1.28033">
        <ele>97.23</ele>
        <time>2016-01-02T08:41:46Z</time>
      </trkpt>
      <trkpt lat="43.78705" lon="1.28035">
        <ele>97.23</ele>
        <time>2016-01-02T08:41:47Z</time>
      </trkpt>
      <trkpt lat="43.78703" lon="1.28041">
        <ele>97.23</ele>
        <time>2016-01-02T08:41:48Z</time>
      </trkpt>
      <trkpt lat="43.78702" lon="1.28045">
        <ele>97.23</ele>
        <time>2016-01-02T08:41:49Z</time>
      </trkpt>
      <trkpt lat="43.78701" lon="1.28048">
        <ele>97.23</ele>
        <time>2016-01-02T08:41:50Z</time>
      </trkpt>
      <trkpt lat="43.78701" lon="1.28051">
        <ele>97.23</ele>
        <time>2016-01-02T08:41:51Z</time>
      </trkpt>
      <trkpt lat="43.787" lon="1.28055">
        <ele>97.23</ele>
        <time>2016-01-02T08:41:52Z</time>
      </trkpt>
      <trkpt lat="43.78699" lon="1.28058">
        <ele>97.23</ele>
        <time>2016-01-02T08:41:53Z</time>
      </trkpt>
      <trkpt lat="43.78698" lon="1.28063">
        <ele>97.23</ele>
        <time>2016-01-02T08:41:54Z</time>
      </trkpt>
      <trkpt lat="43.78697" lon="1.28066">
        <ele>96.75</ele>
        <time>2016-01-02T08:41:55Z</time>
      </trkpt>
      <trkpt lat="43.78697" lon="1.28069">
        <ele>96.27</ele>
        <time>2016-01-02T08:41:56Z</time>
      </trkpt>
      <trkpt lat="43.78695" lon="1.28072">
        <ele>95.79</ele>
        <time>2016-01-02T08:41:57Z</time>
      </trkpt>
      <trkpt lat="43.78694" lon="1.28074">
        <ele>95.79</ele>
        <time>2016-01-02T08:41:58Z</time>
      </trkpt>
      <trkpt lat="43.78693" lon="1.28076">
        <ele>95.79</ele>
        <time>2016-01-02T08:41:59Z</time>
      </trkpt>
      <trkpt lat="43.78692" lon="1.28077">
        <ele>95.79</ele>
        <time>2016-01-02T08:42:00Z</time>
      </trkpt>
      <trkpt lat="43.7869" lon="1.28079">
        <ele>95.79</ele>
        <time>2016-01-02T08:42:01Z</time>
      </trkpt>
      <trkpt lat="43.78689" lon="1.28081">
        <ele>95.79</ele>
        <time>2016-01-02T08:42:02Z</time>
      </trkpt>
      <trkpt lat="43.78687" lon="1.28083">
        <ele>95.79</ele>
        <time>2016-01-02T08:42:03Z</time>
      </trkpt>
      <trkpt lat="43.78686" lon="1.28085">
        <ele>95.79</ele>
        <time>2016-01-02T08:42:04Z</time>
      </trkpt>
      <trkpt lat="43.78685" lon="1.28087">
        <ele>95.79</ele>
        <time>2016-01-02T08:42:05Z</time>
      </trkpt>
      <trkpt lat="43.78684" lon="1.2809">
        <ele>96.27</ele>
        <time>2016-01-02T08:42:06Z</time>
      </trkpt>
      <trkpt lat="43.78682" lon="1.28091">
        <ele>96.27</ele>
        <time>2016-01-02T08:42:07Z</time>
      </trkpt>
      <trkpt lat="43.78681" lon="1.28093">
        <ele>96.75</ele>
        <time>2016-01-02T08:42:08Z</time>
      </trkpt>
      <trkpt lat="43.78679" lon="1.28096">
        <ele>96.75</ele>
        <time>2016-01-02T08:42:09Z</time>
      </trkpt>
      <trkpt lat="43.78678" lon="1.28098">
        <ele>96.75</ele>
        <time>2016-01-02T08:42:10Z</time>
      </trkpt>
      <trkpt lat="43.78676" lon="1.28101">
        <ele>96.75</ele>
        <time>2016-01-02T08:42:11Z</time>
      </trkpt>
      <trkpt lat="43.78674" lon="1.28103">
        <ele>96.75</ele>
        <time>2016-01-02T08:42:12Z</time>
      </trkpt>
      <trkpt lat="43.78672" lon="1.28105">
        <ele>96.75</ele>
        <time>2016-01-02T08:42:13Z</time>
      </trkpt>
      <trkpt lat="43.7867" lon="1.28106">
        <ele>96.75</ele>
        <time>2016-01-02T08:42:14Z</time>
      </trkpt>
      <trkpt lat="43.78669" lon="1.28109">
        <ele>96.27</ele>
        <time>2016-01-02T08:42:15Z</time>
      </trkpt>
      <trkpt lat="43.78668" lon="1.28113">
        <ele>96.75</ele>
        <time>2016-01-02T08:42:16Z</time>
      </trkpt>
      <trkpt lat="43.78666" lon="1.28117">
        <ele>96.75</ele>
        <time>2016-01-02T08:42:17Z</time>
      </trkpt>
      <trkpt lat="43.78665" lon="1.28119">
        <ele>96.75</ele>
        <time>2016-01-02T08:42:18Z</time>
      </trkpt>
      <trkpt lat="43.78664" lon="1.28121">
        <ele>96.75</ele>
        <time>2016-01-02T08:42:19Z</time>
      </trkpt>
      <trkpt lat="43.78662" lon="1.28125">
        <ele>96.75</ele>
        <time>2016-01-02T08:42:20Z</time>
      </trkpt>
      <trkpt lat="43.7866" lon="1.28128">
        <ele>96.75</ele>
        <time>2016-01-02T08:42:21Z</time>
      </trkpt>
      <trkpt lat="43.78659" lon="1.28131">
        <ele>96.27</ele>
        <time>2016-01-02T08:42:22Z</time>
      </trkpt>
      <trkpt lat="43.78657" lon="1.28133">
        <ele>95.79</ele>
        <time>2016-01-02T08:42:23Z</time>
      </trkpt>
      <trkpt lat="43.78656" lon="1.28135">
        <ele>95.79</ele>
        <time>2016-01-02T08:42:24Z</time>
      </trkpt>
      <trkpt lat="43.78654" lon="1.28139">
        <ele>95.79</ele>
        <time>2016-01-02T08:42:25Z</time>
      </trkpt>
      <trkpt lat="43.78652" lon="1.28141">
        <ele>95.79</ele>
        <time>2016-01-02T08:42:26Z</time>
      </trkpt>
      <trkpt lat="43.7865" lon="1.28143">
        <ele>96.27</ele>
        <time>2016-01-02T08:42:27Z</time>
      </trkpt>
      <trkpt lat="43.78648" lon="1.28146">
        <ele>96.27</ele>
        <time>2016-01-02T08:42:28Z</time>
      </trkpt>
      <trkpt lat="43.78646" lon="1.28148">
        <ele>96.27</ele>
        <time>2016-01-02T08:42:29Z</time>
      </trkpt>
      <trkpt lat="43.78645" lon="1.2815">
        <ele>95.79</ele>
        <time>2016-01-02T08:42:30Z</time>
      </trkpt>
      <trkpt lat="43.78642" lon="1.28155">
        <ele>95.79</ele>
        <time>2016-01-02T08:42:32Z</time>
      </trkpt>
      <trkpt lat="43.78641" lon="1.28161">
        <ele>95.79</ele>
        <time>2016-01-02T08:42:33Z</time>
      </trkpt>
      <trkpt lat="43.78639" lon="1.28166">
        <ele>95.79</ele>
        <time>2016-01-02T08:42:34Z</time>
      </trkpt>
      <trkpt lat="43.78638" lon="1.2817">
        <ele>95.79</ele>
        <time>2016-01-02T08:42:35Z</time>
      </trkpt>
      <trkpt lat="43.78636" lon="1.28175">
        <ele>95.79</ele>
        <time>2016-01-02T08:42:36Z</time>
      </trkpt>
      <trkpt lat="43.78634" lon="1.2818">
        <ele>95.79</ele>
        <time>2016-01-02T08:42:37Z</time>
      </trkpt>
      <trkpt lat="43.78633" lon="1.28188">
        <ele>95.79</ele>
        <time>2016-01-02T08:42:38Z</time>
      </trkpt>
      <trkpt lat="43.78631" lon="1.28192">
        <ele>95.79</ele>
        <time>2016-01-02T08:42:39Z</time>
      </trkpt>
      <trkpt lat="43.78629" lon="1.28197">
        <ele>95.31</ele>
        <time>2016-01-02T08:42:40Z</time>
      </trkpt>
      <trkpt lat="43.78627" lon="1.28202">
        <ele>94.83</ele>
        <time>2016-01-02T08:42:41Z</time>
      </trkpt>
      <trkpt lat="43.78626" lon="1.28206">
        <ele>94.83</ele>
        <time>2016-01-02T08:42:42Z</time>
      </trkpt>
      <trkpt lat="43.78625" lon="1.2821">
        <ele>94.83</ele>
        <time>2016-01-02T08:42:43Z</time>
      </trkpt>
      <trkpt lat="43.78623" lon="1.28214">
        <ele>94.83</ele>
        <time>2016-01-02T08:42:44Z</time>
      </trkpt>
      <trkpt lat="43.78622" lon="1.28219">
        <ele>94.83</ele>
        <time>2016-01-02T08:42:45Z</time>
      </trkpt>
      <trkpt lat="43.78621" lon="1.28222">
        <ele>95.31</ele>
        <time>2016-01-02T08:42:46Z</time>
      </trkpt>
      <trkpt lat="43.7862" lon="1.28225">
        <ele>95.79</ele>
        <time>2016-01-02T08:42:47Z</time>
      </trkpt>
      <trkpt lat="43.78619" lon="1.2823">
        <ele>96.75</ele>
        <time>2016-01-02T08:42:48Z</time>
      </trkpt>
      <trkpt lat="43.78618" lon="1.28234">
        <ele>97.23</ele>
        <time>2016-01-02T08:42:49Z</time>
      </trkpt>
      <trkpt lat="43.78616" lon="1.28241">
        <ele>97.23</ele>
        <time>2016-01-02T08:42:50Z</time>
      </trkpt>
      <trkpt lat="43.78614" lon="1.28244">
        <ele>97.71</ele>
        <time>2016-01-02T08:42:51Z</time>
      </trkpt>
      <trkpt lat="43.78611" lon="1.2825">
        <ele>98.19</ele>
        <time>2016-01-02T08:42:52Z</time>
      </trkpt>
      <trkpt lat="43.78611" lon="1.28253">
        <ele>98.19</ele>
        <time>2016-01-02T08:42:53Z</time>
      </trkpt>
      <trkpt lat="43.7861" lon="1.28256">
        <ele>98.67</ele>
        <time>2016-01-02T08:42:54Z</time>
      </trkpt>
      <trkpt lat="43.78609" lon="1.28259">
        <ele>98.67</ele>
        <time>2016-01-02T08:42:55Z</time>
      </trkpt>
      <trkpt lat="43.78608" lon="1.28261">
        <ele>98.67</ele>
        <time>2016-01-02T08:42:56Z</time>
      </trkpt>
      <trkpt lat="43.78606" lon="1.28262">
        <ele>98.67</ele>
        <time>2016-01-02T08:42:57Z</time>
      </trkpt>
      <trkpt lat="43.78605" lon="1.28265">
        <ele>98.67</ele>
        <time>2016-01-02T08:42:58Z</time>
      </trkpt>
      <trkpt lat="43.78605" lon="1.2827">
        <ele>98.67</ele>
        <time>2016-01-02T08:42:59Z</time>
      </trkpt>
      <trkpt lat="43.78605" lon="1.28275">
        <ele>98.67</ele>
        <time>2016-01-02T08:43:00Z</time>
      </trkpt>
      <trkpt lat="43.78606" lon="1.2828">
        <ele>98.19</ele>
        <time>2016-01-02T08:43:01Z</time>
      </trkpt>
      <trkpt lat="43.78607" lon="1.28283">
        <ele>98.19</ele>
        <time>2016-01-02T08:43:02Z</time>
      </trkpt>
      <trkpt lat="43.78608" lon="1.28287">
        <ele>98.19</ele>
        <time>2016-01-02T08:43:03Z</time>
      </trkpt>
      <trkpt lat="43.78609" lon="1.28292">
        <ele>98.19</ele>
        <time>2016-01-02T08:43:04Z</time>
      </trkpt>
      <trkpt lat="43.78609" lon="1.28296">
        <ele>98.19</ele>
        <time>2016-01-02T08:43:05Z</time>
      </trkpt>
      <trkpt lat="43.7861" lon="1.28301">
        <ele>98.19</ele>
        <time>2016-01-02T08:43:06Z</time>
      </trkpt>
      <trkpt lat="43.7861" lon="1.28305">
        <ele>97.71</ele>
        <time>2016-01-02T08:43:07Z</time>
      </trkpt>
      <trkpt lat="43.7861" lon="1.28308">
        <ele>97.23</ele>
        <time>2016-01-02T08:43:08Z</time>
      </trkpt>
      <trkpt lat="43.7861" lon="1.28311">
        <ele>97.23</ele>
        <time>2016-01-02T08:43:09Z</time>
      </trkpt>
      <trkpt lat="43.78611" lon="1.28314">
        <ele>97.23</ele>
        <time>2016-01-02T08:43:10Z</time>
      </trkpt>
      <trkpt lat="43.78611" lon="1.28318">
        <ele>97.23</ele>
        <time>2016-01-02T08:43:11Z</time>
      </trkpt>
      <trkpt lat="43.78612" lon="1.28321">
        <ele>97.23</ele>
        <time>2016-01-02T08:43:12Z</time>
      </trkpt>
      <trkpt lat="43.78613" lon="1.28325">
        <ele>97.23</ele>
        <time>2016-01-02T08:43:13Z</time>
      </trkpt>
      <trkpt lat="43.78614" lon="1.2833">
        <ele>96.75</ele>
        <time>2016-01-02T08:43:14Z</time>
      </trkpt>
      <trkpt lat="43.78615" lon="1.28334">
        <ele>96.75</ele>
        <time>2016-01-02T08:43:15Z</time>
      </trkpt>
      <trkpt lat="43.78615" lon="1.28338">
        <ele>96.75</ele>
        <time>2016-01-02T08:43:16Z</time>
      </trkpt>
      <trkpt lat="43.78616" lon="1.28342">
        <ele>96.75</ele>
        <time>2016-01-02T08:43:17Z</time>
      </trkpt>
      <trkpt lat="43.78618" lon="1.28345">
        <ele>96.75</ele>
        <time>2016-01-02T08:43:18Z</time>
      </trkpt>
      <trkpt lat="43.78619" lon="1.28349">
        <ele>96.75</ele>
        <time>2016-01-02T08:43:19Z</time>
      </trkpt>
      <trkpt lat="43.78621" lon="1.28353">
        <ele>96.75</ele>
        <time>2016-01-02T08:43:20Z</time>
      </trkpt>
      <trkpt lat="43.78622" lon="1.28356">
        <ele>97.23</ele>
        <time>2016-01-02T08:43:21Z</time>
      </trkpt>
      <trkpt lat="43.78624" lon="1.28359">
        <ele>96.75</ele>
        <time>2016-01-02T08:43:22Z</time>
      </trkpt>
      <trkpt lat="43.78626" lon="1.28363">
        <ele>96.75</ele>
        <time>2016-01-02T08:43:23Z</time>
      </trkpt>
      <trkpt lat="43.78628" lon="1.28366">
        <ele>96.75</ele>
        <time>2016-01-02T08:43:24Z</time>
      </trkpt>
      <trkpt lat="43.78629" lon="1.28369">
        <ele>96.75</ele>
        <time>2016-01-02T08:43:25Z</time>
      </trkpt>
      <trkpt lat="43.78631" lon="1.28373">
        <ele>96.75</ele>
        <time>2016-01-02T08:43:26Z</time>
      </trkpt>
      <trkpt lat="43.78633" lon="1.28376">
        <ele>97.23</ele>
        <time>2016-01-02T08:43:27Z</time>
      </trkpt>
      <trkpt lat="43.78635" lon="1.28379">
        <ele>97.23</ele>
        <time>2016-01-02T08:43:28Z</time>
      </trkpt>
      <trkpt lat="43.78637" lon="1.28383">
        <ele>97.23</ele>
        <time>2016-01-02T08:43:29Z</time>
      </trkpt>
      <trkpt lat="43.78638" lon="1.28386">
        <ele>97.23</ele>
        <time>2016-01-02T08:43:30Z</time>
      </trkpt>
      <trkpt lat="43.7864" lon="1.28389">
        <ele>97.23</ele>
        <time>2016-01-02T08:43:31Z</time>
      </trkpt>
      <trkpt lat="43.78642" lon="1.28391">
        <ele>96.75</ele>
        <time>2016-01-02T08:43:32Z</time>
      </trkpt>
      <trkpt lat="43.78645" lon="1.28392">
        <ele>96.75</ele>
        <time>2016-01-02T08:43:33Z</time>
      </trkpt>
      <trkpt lat="43.78647" lon="1.28393">
        <ele>96.75</ele>
        <time>2016-01-02T08:43:34Z</time>
      </trkpt>
      <trkpt lat="43.78649" lon="1.28394">
        <ele>96.75</ele>
        <time>2016-01-02T08:43:35Z</time>
      </trkpt>
      <trkpt lat="43.78652" lon="1.28395">
        <ele>97.23</ele>
        <time>2016-01-02T08:43:36Z</time>
      </trkpt>
      <trkpt lat="43.78653" lon="1.28397">
        <ele>97.23</ele>
        <time>2016-01-02T08:43:37Z</time>
      </trkpt>
      <trkpt lat="43.78655" lon="1.28398">
        <ele>97.23</ele>
        <time>2016-01-02T08:43:38Z</time>
      </trkpt>
      <trkpt lat="43.78657" lon="1.284">
        <ele>96.75</ele>
        <time>2016-01-02T08:43:39Z</time>
      </trkpt>
      <trkpt lat="43.7866" lon="1.28402">
        <ele>96.75</ele>
        <time>2016-01-02T08:43:40Z</time>
      </trkpt>
      <trkpt lat="43.78662" lon="1.28404">
        <ele>96.75</ele>
        <time>2016-01-02T08:43:41Z</time>
      </trkpt>
      <trkpt lat="43.78664" lon="1.28406">
        <ele>96.75</ele>
        <time>2016-01-02T08:43:42Z</time>
      </trkpt>
      <trkpt lat="43.78666" lon="1.28408">
        <ele>97.23</ele>
        <time>2016-01-02T08:43:43Z</time>
      </trkpt>
      <trkpt lat="43.78669" lon="1.2841">
        <ele>97.23</ele>
        <time>2016-01-02T08:43:44Z</time>
      </trkpt>
      <trkpt lat="43.78672" lon="1.28411">
        <ele>97.23</ele>
        <time>2016-01-02T08:43:45Z</time>
      </trkpt>
      <trkpt lat="43.78674" lon="1.28413">
        <ele>97.23</ele>
        <time>2016-01-02T08:43:46Z</time>
      </trkpt>
      <trkpt lat="43.78676" lon="1.28415">
        <ele>97.23</ele>
        <time>2016-01-02T08:43:47Z</time>
      </trkpt>
      <trkpt lat="43.78679" lon="1.28417">
        <ele>97.23</ele>
        <time>2016-01-02T08:43:48Z</time>
      </trkpt>
      <trkpt lat="43.78681" lon="1.28418">
        <ele>96.75</ele>
        <time>2016-01-02T08:43:49Z</time>
      </trkpt>
      <trkpt lat="43.78684" lon="1.2842">
        <ele>97.23</ele>
        <time>2016-01-02T08:43:50Z</time>
      </trkpt>
      <trkpt lat="43.78686" lon="1.28421">
        <ele>97.23</ele>
        <time>2016-01-02T08:43:51Z</time>
      </trkpt>
      <trkpt lat="43.78689" lon="1.28423">
        <ele>97.23</ele>
        <time>2016-01-02T08:43:52Z</time>
      </trkpt>
      <trkpt lat="43.78691" lon="1.28424">
        <ele>97.71</ele>
        <time>2016-01-02T08:43:53Z</time>
      </trkpt>
      <trkpt lat="43.78694" lon="1.28425">
        <ele>97.71</ele>
        <time>2016-01-02T08:43:54Z</time>
      </trkpt>
      <trkpt lat="43.78697" lon="1.28426">
        <ele>97.23</ele>
        <time>2016-01-02T08:43:55Z</time>
      </trkpt>
      <trkpt lat="43.787" lon="1.28427">
        <ele>97.23</ele>
        <time>2016-01-02T08:43:56Z</time>
      </trkpt>
      <trkpt lat="43.78703" lon="1.28428">
        <ele>97.23</ele>
        <time>2016-01-02T08:43:57Z</time>
      </trkpt>
      <trkpt lat="43.78706" lon="1.28429">
        <ele>97.23</ele>
        <time>2016-01-02T08:43:58Z</time>
      </trkpt>
      <trkpt lat="43.78708" lon="1.2843">
        <ele>97.23</ele>
        <time>2016-01-02T08:43:59Z</time>
      </trkpt>
      <trkpt lat="43.78711" lon="1.28431">
        <ele>97.23</ele>
        <time>2016-01-02T08:44:00Z</time>
      </trkpt>
      <trkpt lat="43.78714" lon="1.28432">
        <ele>97.23</ele>
        <time>2016-01-02T08:44:01Z</time>
      </trkpt>
      <trkpt lat="43.78718" lon="1.28431">
        <ele>97.23</ele>
        <time>2016-01-02T08:44:02Z</time>
      </trkpt>
      <trkpt lat="43.78721" lon="1.28429">
        <ele>97.23</ele>
        <time>2016-01-02T08:44:03Z</time>
      </trkpt>
      <trkpt lat="43.78724" lon="1.28428">
        <ele>97.23</ele>
        <time>2016-01-02T08:44:04Z</time>
      </trkpt>
      <trkpt lat="43.78727" lon="1.28427">
        <ele>96.75</ele>
        <time>2016-01-02T08:44:05Z</time>
      </trkpt>
      <trkpt lat="43.7873" lon="1.28427">
        <ele>96.75</ele>
        <time>2016-01-02T08:44:06Z</time>
      </trkpt>
      <trkpt lat="43.78733" lon="1.28428">
        <ele>96.75</ele>
        <time>2016-01-02T08:44:07Z</time>
      </trkpt>
      <trkpt lat="43.78735" lon="1.28428">
        <ele>97.23</ele>
        <time>2016-01-02T08:44:08Z</time>
      </trkpt>
      <trkpt lat="43.78738" lon="1.28428">
        <ele>97.23</ele>
        <time>2016-01-02T08:44:09Z</time>
      </trkpt>
      <trkpt lat="43.78741" lon="1.28427">
        <ele>97.23</ele>
        <time>2016-01-02T08:44:10Z</time>
      </trkpt>
      <trkpt lat="43.78744" lon="1.28427">
        <ele>97.23</ele>
        <time>2016-01-02T08:44:11Z</time>
      </trkpt>
      <trkpt lat="43.78748" lon="1.28427">
        <ele>97.23</ele>
        <time>2016-01-02T08:44:12Z</time>
      </trkpt>
      <trkpt lat="43.78751" lon="1.28428">
        <ele>97.23</ele>
        <time>2016-01-02T08:44:13Z</time>
      </trkpt>
      <trkpt lat="43.78753" lon="1.28428">
        <ele>97.23</ele>
        <time>2016-01-02T08:44:14Z</time>
      </trkpt>
      <trkpt lat="43.78756" lon="1.28428">
        <ele>97.23</ele>
        <time>2016-01-02T08:44:15Z</time>
      </trkpt>
      <trkpt lat="43.78759" lon="1.28428">
        <ele>97.23</ele>
        <time>2016-01-02T08:44:16Z</time>
      </trkpt>
      <trkpt lat="43.78762" lon="1.28429">
        <ele>97.23</ele>
        <time>2016-01-02T08:44:17Z</time>
      </trkpt>
      <trkpt lat="43.78765" lon="1.2843">
        <ele>97.23</ele>
        <time>2016-01-02T08:44:18Z</time>
      </trkpt>
      <trkpt lat="43.78767" lon="1.28431">
        <ele>96.75</ele>
        <time>2016-01-02T08:44:19Z</time>
      </trkpt>
      <trkpt lat="43.7877" lon="1.28432">
        <ele>96.75</ele>
        <time>2016-01-02T08:44:20Z</time>
      </trkpt>
      <trkpt lat="43.78772" lon="1.28433">
        <ele>96.75</ele>
        <time>2016-01-02T08:44:21Z</time>
      </trkpt>
      <trkpt lat="43.78775" lon="1.28434">
        <ele>96.75</ele>
        <time>2016-01-02T08:44:22Z</time>
      </trkpt>
      <trkpt lat="43.78778" lon="1.28435">
        <ele>96.75</ele>
        <time>2016-01-02T08:44:23Z</time>
      </trkpt>
      <trkpt lat="43.7878" lon="1.28437">
        <ele>96.75</ele>
        <time>2016-01-02T08:44:24Z</time>
      </trkpt>
      <trkpt lat="43.78783" lon="1.28439">
        <ele>96.75</ele>
        <time>2016-01-02T08:44:25Z</time>
      </trkpt>
      <trkpt lat="43.78786" lon="1.28441">
        <ele>97.23</ele>
        <time>2016-01-02T08:44:26Z</time>
      </trkpt>
      <trkpt lat="43.78789" lon="1.28445">
        <ele>97.23</ele>
        <time>2016-01-02T08:44:27Z</time>
      </trkpt>
      <trkpt lat="43.78791" lon="1.28449">
        <ele>96.75</ele>
        <time>2016-01-02T08:44:28Z</time>
      </trkpt>
      <trkpt lat="43.78793" lon="1.28452">
        <ele>96.75</ele>
        <time>2016-01-02T08:44:29Z</time>
      </trkpt>
      <trkpt lat="43.78796" lon="1.28456">
        <ele>96.75</ele>
        <time>2016-01-02T08:44:30Z</time>
      </trkpt>
      <trkpt lat="43.78798" lon="1.28459">
        <ele>96.75</ele>
        <time>2016-01-02T08:44:31Z</time>
      </trkpt>
      <trkpt lat="43.78799" lon="1.28462">
        <ele>96.75</ele>
        <time>2016-01-02T08:44:32Z</time>
      </trkpt>
      <trkpt lat="43.78802" lon="1.28465">
        <ele>96.75</ele>
        <time>2016-01-02T08:44:33Z</time>
      </trkpt>
      <trkpt lat="43.78804" lon="1.28467">
        <ele>96.75</ele>
        <time>2016-01-02T08:44:34Z</time>
      </trkpt>
      <trkpt lat="43.78807" lon="1.28469">
        <ele>96.75</ele>
        <time>2016-01-02T08:44:35Z</time>
      </trkpt>
      <trkpt lat="43.7881" lon="1.2847">
        <ele>96.75</ele>
        <time>2016-01-02T08:44:36Z</time>
      </trkpt>
      <trkpt lat="43.78814" lon="1.28471">
        <ele>96.75</ele>
        <time>2016-01-02T08:44:37Z</time>
      </trkpt>
      <trkpt lat="43.78817" lon="1.28471">
        <ele>96.27</ele>
        <time>2016-01-02T08:44:38Z</time>
      </trkpt>
      <trkpt lat="43.78821" lon="1.2847">
        <ele>95.79</ele>
        <time>2016-01-02T08:44:39Z</time>
      </trkpt>
      <trkpt lat="43.78824" lon="1.28468">
        <ele>95.31</ele>
        <time>2016-01-02T08:44:40Z</time>
      </trkpt>
      <trkpt lat="43.78826" lon="1.28466">
        <ele>95.31</ele>
        <time>2016-01-02T08:44:41Z</time>
      </trkpt>
      <trkpt lat="43.78828" lon="1.28463">
        <ele>95.31</ele>
        <time>2016-01-02T08:44:42Z</time>
      </trkpt>
      <trkpt lat="43.78831" lon="1.2846">
        <ele>95.31</ele>
        <time>2016-01-02T08:44:43Z</time>
      </trkpt>
      <trkpt lat="43.78833" lon="1.28457">
        <ele>95.31</ele>
        <time>2016-01-02T08:44:44Z</time>
      </trkpt>
      <trkpt lat="43.78835" lon="1.28454">
        <ele>95.79</ele>
        <time>2016-01-02T08:44:45Z</time>
      </trkpt>
      <trkpt lat="43.78837" lon="1.28451">
        <ele>95.79</ele>
        <time>2016-01-02T08:44:46Z</time>
      </trkpt>
      <trkpt lat="43.78839" lon="1.28448">
        <ele>96.27</ele>
        <time>2016-01-02T08:44:47Z</time>
      </trkpt>
      <trkpt lat="43.78841" lon="1.28445">
        <ele>97.23</ele>
        <time>2016-01-02T08:44:48Z</time>
      </trkpt>
      <trkpt lat="43.78843" lon="1.28442">
        <ele>97.71</ele>
        <time>2016-01-02T08:44:49Z</time>
      </trkpt>
      <trkpt lat="43.78845" lon="1.28439">
        <ele>97.23</ele>
        <time>2016-01-02T08:44:50Z</time>
      </trkpt>
      <trkpt lat="43.78847" lon="1.28436">
        <ele>96.27</ele>
        <time>2016-01-02T08:44:51Z</time>
      </trkpt>
      <trkpt lat="43.78848" lon="1.28433">
        <ele>95.79</ele>
        <time>2016-01-02T08:44:52Z</time>
      </trkpt>
      <trkpt lat="43.7885" lon="1.2843">
        <ele>95.79</ele>
        <time>2016-01-02T08:44:53Z</time>
      </trkpt>
      <trkpt lat="43.78851" lon="1.28426">
        <ele>95.79</ele>
        <time>2016-01-02T08:44:54Z</time>
      </trkpt>
      <trkpt lat="43.78853" lon="1.28423">
        <ele>95.79</ele>
        <time>2016-01-02T08:44:55Z</time>
      </trkpt>
      <trkpt lat="43.78854" lon="1.2842">
        <ele>95.79</ele>
        <time>2016-01-02T08:44:56Z</time>
      </trkpt>
      <trkpt lat="43.78855" lon="1.28417">
        <ele>96.27</ele>
        <time>2016-01-02T08:44:57Z</time>
      </trkpt>
      <trkpt lat="43.78857" lon="1.28414">
        <ele>96.27</ele>
        <time>2016-01-02T08:44:58Z</time>
      </trkpt>
      <trkpt lat="43.78858" lon="1.28411">
        <ele>96.75</ele>
        <time>2016-01-02T08:44:59Z</time>
      </trkpt>
      <trkpt lat="43.78858" lon="1.28407">
        <ele>96.75</ele>
        <time>2016-01-02T08:45:00Z</time>
      </trkpt>
      <trkpt lat="43.78859" lon="1.28403">
        <ele>96.75</ele>
        <time>2016-01-02T08:45:01Z</time>
      </trkpt>
      <trkpt lat="43.7886" lon="1.28398">
        <ele>96.27</ele>
        <time>2016-01-02T08:45:02Z</time>
      </trkpt>
      <trkpt lat="43.7886" lon="1.28395">
        <ele>96.27</ele>
        <time>2016-01-02T08:45:03Z</time>
      </trkpt>
      <trkpt lat="43.78861" lon="1.28391">
        <ele>96.27</ele>
        <time>2016-01-02T08:45:04Z</time>
      </trkpt>
      <trkpt lat="43.78861" lon="1.28387">
        <ele>96.27</ele>
        <time>2016-01-02T08:45:05Z</time>
      </trkpt>
      <trkpt lat="43.78861" lon="1.28383">
        <ele>96.27</ele>
        <time>2016-01-02T08:45:06Z</time>
      </trkpt>
      <trkpt lat="43.78861" lon="1.2838">
        <ele>96.27</ele>
        <time>2016-01-02T08:45:07Z</time>
      </trkpt>
      <trkpt lat="43.78862" lon="1.28376">
        <ele>96.75</ele>
        <time>2016-01-02T08:45:08Z</time>
      </trkpt>
      <trkpt lat="43.78861" lon="1.28372">
        <ele>96.75</ele>
        <time>2016-01-02T08:45:09Z</time>
      </trkpt>
      <trkpt lat="43.78861" lon="1.28369">
        <ele>96.75</ele>
        <time>2016-01-02T08:45:10Z</time>
      </trkpt>
      <trkpt lat="43.7886" lon="1.28365">
        <ele>97.23</ele>
        <time>2016-01-02T08:45:11Z</time>
      </trkpt>
      <trkpt lat="43.7886" lon="1.28361">
        <ele>97.23</ele>
        <time>2016-01-02T08:45:12Z</time>
      </trkpt>
      <trkpt lat="43.7886" lon="1.28357">
        <ele>96.75</ele>
        <time>2016-01-02T08:45:13Z</time>
      </trkpt>
      <trkpt lat="43.7886" lon="1.28353">
        <ele>96.27</ele>
        <time>2016-01-02T08:45:14Z</time>
      </trkpt>
      <trkpt lat="43.7886" lon="1.28349">
        <ele>96.27</ele>
        <time>2016-01-02T08:45:15Z</time>
      </trkpt>
      <trkpt lat="43.78861" lon="1.28345">
        <ele>95.79</ele>
        <time>2016-01-02T08:45:16Z</time>
      </trkpt>
      <trkpt lat="43.78862" lon="1.28341">
        <ele>95.79</ele>
        <time>2016-01-02T08:45:17Z</time>
      </trkpt>
      <trkpt lat="43.78862" lon="1.28336">
        <ele>95.79</ele>
        <time>2016-01-02T08:45:18Z</time>
      </trkpt>
      <trkpt lat="43.78862" lon="1.28332">
        <ele>96.27</ele>
        <time>2016-01-02T08:45:19Z</time>
      </trkpt>
      <trkpt lat="43.78862" lon="1.28328">
        <ele>96.75</ele>
        <time>2016-01-02T08:45:20Z</time>
      </trkpt>
      <trkpt lat="43.78863" lon="1.28324">
        <ele>96.75</ele>
        <time>2016-01-02T08:45:21Z</time>
      </trkpt>
      <trkpt lat="43.78863" lon="1.2832">
        <ele>96.75</ele>
        <time>2016-01-02T08:45:22Z</time>
      </trkpt>
      <trkpt lat="43.78865" lon="1.28316">
        <ele>95.79</ele>
        <time>2016-01-02T08:45:23Z</time>
      </trkpt>
      <trkpt lat="43.78865" lon="1.28312">
        <ele>95.79</ele>
        <time>2016-01-02T08:45:24Z</time>
      </trkpt>
      <trkpt lat="43.78865" lon="1.28308">
        <ele>95.79</ele>
        <time>2016-01-02T08:45:25Z</time>
      </trkpt>
      <trkpt lat="43.78865" lon="1.28304">
        <ele>95.79</ele>
        <time>2016-01-02T08:45:26Z</time>
      </trkpt>
      <trkpt lat="43.78866" lon="1.28301">
        <ele>95.79</ele>
        <time>2016-01-02T08:45:27Z</time>
      </trkpt>
      <trkpt lat="43.78868" lon="1.28297">
        <ele>95.79</ele>
        <time>2016-01-02T08:45:28Z</time>
      </trkpt>
      <trkpt lat="43.7887" lon="1.28294">
        <ele>95.79</ele>
        <time>2016-01-02T08:45:29Z</time>
      </trkpt>
      <trkpt lat="43.78873" lon="1.28291">
        <ele>95.79</ele>
        <time>2016-01-02T08:45:30Z</time>
      </trkpt>
      <trkpt lat="43.78876" lon="1.28289">
        <ele>95.79</ele>
        <time>2016-01-02T08:45:31Z</time>
      </trkpt>
      <trkpt lat="43.78879" lon="1.28286">
        <ele>96.27</ele>
        <time>2016-01-02T08:45:32Z</time>
      </trkpt>
      <trkpt lat="43.78881" lon="1.28284">
        <ele>96.27</ele>
        <time>2016-01-02T08:45:33Z</time>
      </trkpt>
      <trkpt lat="43.78884" lon="1.28281">
        <ele>95.79</ele>
        <time>2016-01-02T08:45:34Z</time>
      </trkpt>
      <trkpt lat="43.78887" lon="1.28279">
        <ele>95.79</ele>
        <time>2016-01-02T08:45:35Z</time>
      </trkpt>
      <trkpt lat="43.7889" lon="1.28276">
        <ele>95.79</ele>
        <time>2016-01-02T08:45:36Z</time>
      </trkpt>
      <trkpt lat="43.78893" lon="1.28274">
        <ele>95.79</ele>
        <time>2016-01-02T08:45:37Z</time>
      </trkpt>
      <trkpt lat="43.78896" lon="1.28272">
        <ele>95.79</ele>
        <time>2016-01-02T08:45:38Z</time>
      </trkpt>
      <trkpt lat="43.78899" lon="1.28269">
        <ele>95.79</ele>
        <time>2016-01-02T08:45:39Z</time>
      </trkpt>
      <trkpt lat="43.78901" lon="1.28267">
        <ele>95.79</ele>
        <time>2016-01-02T08:45:40Z</time>
      </trkpt>
      <trkpt lat="43.78904" lon="1.28265">
        <ele>95.79</ele>
        <time>2016-01-02T08:45:41Z</time>
      </trkpt>
      <trkpt lat="43.78907" lon="1.28263">
        <ele>95.79</ele>
        <time>2016-01-02T08:45:42Z</time>
      </trkpt>
      <trkpt lat="43.7891" lon="1.2826">
        <ele>95.79</ele>
        <time>2016-01-02T08:45:43Z</time>
      </trkpt>
      <trkpt lat="43.78913" lon="1.28258">
        <ele>95.31</ele>
        <time>2016-01-02T08:45:44Z</time>
      </trkpt>
      <trkpt lat="43.78916" lon="1.28255">
        <ele>94.83</ele>
        <time>2016-01-02T08:45:45Z</time>
      </trkpt>
      <trkpt lat="43.78918" lon="1.28253">
        <ele>94.83</ele>
        <time>2016-01-02T08:45:46Z</time>
      </trkpt>
      <trkpt lat="43.78921" lon="1.2825">
        <ele>94.83</ele>
        <time>2016-01-02T08:45:47Z</time>
      </trkpt>
      <trkpt lat="43.78923" lon="1.28247">
        <ele>94.83</ele>
        <time>2016-01-02T08:45:48Z</time>
      </trkpt>
      <trkpt lat="43.78926" lon="1.28245">
        <ele>94.83</ele>
        <time>2016-01-02T08:45:49Z</time>
      </trkpt>
      <trkpt lat="43.78929" lon="1.28243">
        <ele>95.31</ele>
        <time>2016-01-02T08:45:50Z</time>
      </trkpt>
      <trkpt lat="43.78931" lon="1.2824">
        <ele>95.79</ele>
        <time>2016-01-02T08:45:51Z</time>
      </trkpt>
      <trkpt lat="43.78933" lon="1.28238">
        <ele>95.31</ele>
        <time>2016-01-02T08:45:52Z</time>
      </trkpt>
      <trkpt lat="43.78936" lon="1.28235">
        <ele>95.31</ele>
        <time>2016-01-02T08:45:53Z</time>
      </trkpt>
      <trkpt lat="43.78938" lon="1.28233">
        <ele>94.83</ele>
        <time>2016-01-02T08:45:54Z</time>
      </trkpt>
      <trkpt lat="43.7894" lon="1.2823">
        <ele>94.83</ele>
        <time>2016-01-02T08:45:55Z</time>
      </trkpt>
      <trkpt lat="43.78943" lon="1.28228">
        <ele>94.83</ele>
        <time>2016-01-02T08:45:56Z</time>
      </trkpt>
      <trkpt lat="43.78945" lon="1.28226">
        <ele>94.83</ele>
        <time>2016-01-02T08:45:57Z</time>
      </trkpt>
      <trkpt lat="43.78948" lon="1.28223">
        <ele>94.83</ele>
        <time>2016-01-02T08:45:58Z</time>
      </trkpt>
      <trkpt lat="43.7895" lon="1.28221">
        <ele>95.31</ele>
        <time>2016-01-02T08:45:59Z</time>
      </trkpt>
      <trkpt lat="43.78953" lon="1.28218">
        <ele>95.31</ele>
        <time>2016-01-02T08:46:00Z</time>
      </trkpt>
      <trkpt lat="43.78956" lon="1.28216">
        <ele>95.79</ele>
        <time>2016-01-02T08:46:01Z</time>
      </trkpt>
      <trkpt lat="43.78958" lon="1.28213">
        <ele>95.79</ele>
        <time>2016-01-02T08:46:02Z</time>
      </trkpt>
      <trkpt lat="43.78961" lon="1.28211">
        <ele>95.79</ele>
        <time>2016-01-02T08:46:03Z</time>
      </trkpt>
      <trkpt lat="43.78963" lon="1.28208">
        <ele>95.79</ele>
        <time>2016-01-02T08:46:04Z</time>
      </trkpt>
      <trkpt lat="43.78965" lon="1.28206">
        <ele>95.31</ele>
        <time>2016-01-02T08:46:05Z</time>
      </trkpt>
      <trkpt lat="43.78968" lon="1.28203">
        <ele>95.31</ele>
        <time>2016-01-02T08:46:06Z</time>
      </trkpt>
      <trkpt lat="43.7897" lon="1.28201">
        <ele>95.31</ele>
        <time>2016-01-02T08:46:07Z</time>
      </trkpt>
      <trkpt lat="43.78972" lon="1.28198">
        <ele>95.31</ele>
        <time>2016-01-02T08:46:08Z</time>
      </trkpt>
      <trkpt lat="43.78974" lon="1.28195">
        <ele>95.31</ele>
        <time>2016-01-02T08:46:09Z</time>
      </trkpt>
      <trkpt lat="43.78977" lon="1.28193">
        <ele>95.31</ele>
        <time>2016-01-02T08:46:10Z</time>
      </trkpt>
      <trkpt lat="43.7898" lon="1.2819">
        <ele>95.31</ele>
        <time>2016-01-02T08:46:11Z</time>
      </trkpt>
      <trkpt lat="43.78982" lon="1.28188">
        <ele>95.79</ele>
        <time>2016-01-02T08:46:12Z</time>
      </trkpt>
      <trkpt lat="43.78985" lon="1.28185">
        <ele>95.79</ele>
        <time>2016-01-02T08:46:13Z</time>
      </trkpt>
      <trkpt lat="43.78987" lon="1.28182">
        <ele>95.79</ele>
        <time>2016-01-02T08:46:14Z</time>
      </trkpt>
      <trkpt lat="43.78989" lon="1.2818">
        <ele>95.31</ele>
        <time>2016-01-02T08:46:15Z</time>
      </trkpt>
      <trkpt lat="43.78991" lon="1.28177">
        <ele>94.83</ele>
        <time>2016-01-02T08:46:16Z</time>
      </trkpt>
      <trkpt lat="43.78994" lon="1.28174">
        <ele>94.83</ele>
        <time>2016-01-02T08:46:17Z</time>
      </trkpt>
      <trkpt lat="43.78996" lon="1.28171">
        <ele>94.83</ele>
        <time>2016-01-02T08:46:18Z</time>
      </trkpt>
      <trkpt lat="43.78998" lon="1.28169">
        <ele>94.83</ele>
        <time>2016-01-02T08:46:19Z</time>
      </trkpt>
      <trkpt lat="43.79" lon="1.28166">
        <ele>94.83</ele>
        <time>2016-01-02T08:46:20Z</time>
      </trkpt>
      <trkpt lat="43.79002" lon="1.28163">
        <ele>94.83</ele>
        <time>2016-01-02T08:46:21Z</time>
      </trkpt>
      <trkpt lat="43.79004" lon="1.28159">
        <ele>94.83</ele>
        <time>2016-01-02T08:46:22Z</time>
      </trkpt>
      <trkpt lat="43.79006" lon="1.28157">
        <ele>94.83</ele>
        <time>2016-01-02T08:46:23Z</time>
      </trkpt>
      <trkpt lat="43.79007" lon="1.28154">
        <ele>95.31</ele>
        <time>2016-01-02T08:46:24Z</time>
      </trkpt>
      <trkpt lat="43.79009" lon="1.28151">
        <ele>95.31</ele>
        <time>2016-01-02T08:46:25Z</time>
      </trkpt>
      <trkpt lat="43.79011" lon="1.28148">
        <ele>94.83</ele>
        <time>2016-01-02T08:46:26Z</time>
      </trkpt>
      <trkpt lat="43.79013" lon="1.28146">
        <ele>94.83</ele>
        <time>2016-01-02T08:46:27Z</time>
      </trkpt>
      <trkpt lat="43.79016" lon="1.28144">
        <ele>94.83</ele>
        <time>2016-01-02T08:46:28Z</time>
      </trkpt>
      <trkpt lat="43.79018" lon="1.28142">
        <ele>94.35</ele>
        <time>2016-01-02T08:46:29Z</time>
      </trkpt>
      <trkpt lat="43.7902" lon="1.28139">
        <ele>94.35</ele>
        <time>2016-01-02T08:46:30Z</time>
      </trkpt>
      <trkpt lat="43.79023" lon="1.28135">
        <ele>94.35</ele>
        <time>2016-01-02T08:46:31Z</time>
      </trkpt>
      <trkpt lat="43.79025" lon="1.28132">
        <ele>93.87</ele>
        <time>2016-01-02T08:46:32Z</time>
      </trkpt>
      <trkpt lat="43.79027" lon="1.28129">
        <ele>93.87</ele>
        <time>2016-01-02T08:46:33Z</time>
      </trkpt>
      <trkpt lat="43.79029" lon="1.28127">
        <ele>93.39</ele>
        <time>2016-01-02T08:46:34Z</time>
      </trkpt>
      <trkpt lat="43.79031" lon="1.28124">
        <ele>93.87</ele>
        <time>2016-01-02T08:46:35Z</time>
      </trkpt>
      <trkpt lat="43.79032" lon="1.28121">
        <ele>93.87</ele>
        <time>2016-01-02T08:46:36Z</time>
      </trkpt>
      <trkpt lat="43.79034" lon="1.28119">
        <ele>94.35</ele>
        <time>2016-01-02T08:46:37Z</time>
      </trkpt>
      <trkpt lat="43.79036" lon="1.28116">
        <ele>94.35</ele>
        <time>2016-01-02T08:46:38Z</time>
      </trkpt>
      <trkpt lat="43.79038" lon="1.28113">
        <ele>94.83</ele>
        <time>2016-01-02T08:46:39Z</time>
      </trkpt>
      <trkpt lat="43.7904" lon="1.28111">
        <ele>94.83</ele>
        <time>2016-01-02T08:46:40Z</time>
      </trkpt>
      <trkpt lat="43.79042" lon="1.28108">
        <ele>95.31</ele>
        <time>2016-01-02T08:46:41Z</time>
      </trkpt>
      <trkpt lat="43.79044" lon="1.28105">
        <ele>95.31</ele>
        <time>2016-01-02T08:46:42Z</time>
      </trkpt>
      <trkpt lat="43.79046" lon="1.28102">
        <ele>95.31</ele>
        <time>2016-01-02T08:46:43Z</time>
      </trkpt>
      <trkpt lat="43.79048" lon="1.28099">
        <ele>94.83</ele>
        <time>2016-01-02T08:46:44Z</time>
      </trkpt>
      <trkpt lat="43.79051" lon="1.28096">
        <ele>94.83</ele>
        <time>2016-01-02T08:46:45Z</time>
      </trkpt>
      <trkpt lat="43.79053" lon="1.28092">
        <ele>94.83</ele>
        <time>2016-01-02T08:46:46Z</time>
      </trkpt>
      <trkpt lat="43.79055" lon="1.28089">
        <ele>94.83</ele>
        <time>2016-01-02T08:46:47Z</time>
      </trkpt>
      <trkpt lat="43.79057" lon="1.28086">
        <ele>94.35</ele>
        <time>2016-01-02T08:46:48Z</time>
      </trkpt>
      <trkpt lat="43.79059" lon="1.28083">
        <ele>94.35</ele>
        <time>2016-01-02T08:46:49Z</time>
      </trkpt>
      <trkpt lat="43.79061" lon="1.28079">
        <ele>94.35</ele>
        <time>2016-01-02T08:46:50Z</time>
      </trkpt>
      <trkpt lat="43.79063" lon="1.28076">
        <ele>94.83</ele>
        <time>2016-01-02T08:46:51Z</time>
      </trkpt>
      <trkpt lat="43.79065" lon="1.28073">
        <ele>94.83</ele>
        <time>2016-01-02T08:46:52Z</time>
      </trkpt>
      <trkpt lat="43.79067" lon="1.2807">
        <ele>94.83</ele>
        <time>2016-01-02T08:46:53Z</time>
      </trkpt>
      <trkpt lat="43.79069" lon="1.28067">
        <ele>95.31</ele>
        <time>2016-01-02T08:46:54Z</time>
      </trkpt>
      <trkpt lat="43.79072" lon="1.28064">
        <ele>95.31</ele>
        <time>2016-01-02T08:46:55Z</time>
      </trkpt>
      <trkpt lat="43.79074" lon="1.28062">
        <ele>95.31</ele>
        <time>2016-01-02T08:46:56Z</time>
      </trkpt>
      <trkpt lat="43.79076" lon="1.28058">
        <ele>95.31</ele>
        <time>2016-01-02T08:46:57Z</time>
      </trkpt>
      <trkpt lat="43.79078" lon="1.28055">
        <ele>94.83</ele>
        <time>2016-01-02T08:46:58Z</time>
      </trkpt>
      <trkpt lat="43.7908" lon="1.28052">
        <ele>94.35</ele>
        <time>2016-01-02T08:46:59Z</time>
      </trkpt>
      <trkpt lat="43.79083" lon="1.28049">
        <ele>93.87</ele>
        <time>2016-01-02T08:47:00Z</time>
      </trkpt>
      <trkpt lat="43.79084" lon="1.28046">
        <ele>93.87</ele>
        <time>2016-01-02T08:47:01Z</time>
      </trkpt>
      <trkpt lat="43.79086" lon="1.28043">
        <ele>93.87</ele>
        <time>2016-01-02T08:47:02Z</time>
      </trkpt>
      <trkpt lat="43.79088" lon="1.2804">
        <ele>93.87</ele>
        <time>2016-01-02T08:47:03Z</time>
      </trkpt>
      <trkpt lat="43.7909" lon="1.28038">
        <ele>93.87</ele>
        <time>2016-01-02T08:47:04Z</time>
      </trkpt>
      <trkpt lat="43.79092" lon="1.28035">
        <ele>93.87</ele>
        <time>2016-01-02T08:47:05Z</time>
      </trkpt>
      <trkpt lat="43.79095" lon="1.28032">
        <ele>94.35</ele>
        <time>2016-01-02T08:47:06Z</time>
      </trkpt>
      <trkpt lat="43.79097" lon="1.28029">
        <ele>94.35</ele>
        <time>2016-01-02T08:47:07Z</time>
      </trkpt>
      <trkpt lat="43.79099" lon="1.28026">
        <ele>94.35</ele>
        <time>2016-01-02T08:47:08Z</time>
      </trkpt>
      <trkpt lat="43.79101" lon="1.28024">
        <ele>94.35</ele>
        <time>2016-01-02T08:47:09Z</time>
      </trkpt>
      <trkpt lat="43.79104" lon="1.28021">
        <ele>94.83</ele>
        <time>2016-01-02T08:47:10Z</time>
      </trkpt>
      <trkpt lat="43.79106" lon="1.28018">
        <ele>94.35</ele>
        <time>2016-01-02T08:47:11Z</time>
      </trkpt>
      <trkpt lat="43.79108" lon="1.28016">
        <ele>93.87</ele>
        <time>2016-01-02T08:47:12Z</time>
      </trkpt>
      <trkpt lat="43.7911" lon="1.28014">
        <ele>93.87</ele>
        <time>2016-01-02T08:47:13Z</time>
      </trkpt>
      <trkpt lat="43.79113" lon="1.28012">
        <ele>94.35</ele>
        <time>2016-01-02T08:47:14Z</time>
      </trkpt>
      <trkpt lat="43.79115" lon="1.2801">
        <ele>94.35</ele>
        <time>2016-01-02T08:47:15Z</time>
      </trkpt>
      <trkpt lat="43.79118" lon="1.28007">
        <ele>94.35</ele>
        <time>2016-01-02T08:47:16Z</time>
      </trkpt>
      <trkpt lat="43.7912" lon="1.28005">
        <ele>94.35</ele>
        <time>2016-01-02T08:47:17Z</time>
      </trkpt>
      <trkpt lat="43.79123" lon="1.28002">
        <ele>94.83</ele>
        <time>2016-01-02T08:47:18Z</time>
      </trkpt>
      <trkpt lat="43.79124" lon="1.27999">
        <ele>94.83</ele>
        <time>2016-01-02T08:47:19Z</time>
      </trkpt>
      <trkpt lat="43.79126" lon="1.27996">
        <ele>95.31</ele>
        <time>2016-01-02T08:47:20Z</time>
      </trkpt>
      <trkpt lat="43.79129" lon="1.27994">
        <ele>95.31</ele>
        <time>2016-01-02T08:47:21Z</time>
      </trkpt>
      <trkpt lat="43.7913" lon="1.27991">
        <ele>94.83</ele>
        <time>2016-01-02T08:47:22Z</time>
      </trkpt>
      <trkpt lat="43.79133" lon="1.27988">
        <ele>94.35</ele>
        <time>2016-01-02T08:47:23Z</time>
      </trkpt>
      <trkpt lat="43.79136" lon="1.27985">
        <ele>94.35</ele>
        <time>2016-01-02T08:47:24Z</time>
      </trkpt>
      <trkpt lat="43.79138" lon="1.27983">
        <ele>93.87</ele>
        <time>2016-01-02T08:47:25Z</time>
      </trkpt>
      <trkpt lat="43.79141" lon="1.27981">
        <ele>93.87</ele>
        <time>2016-01-02T08:47:26Z</time>
      </trkpt>
      <trkpt lat="43.79143" lon="1.27978">
        <ele>93.87</ele>
        <time>2016-01-02T08:47:27Z</time>
      </trkpt>
      <trkpt lat="43.79146" lon="1.27976">
        <ele>94.35</ele>
        <time>2016-01-02T08:47:28Z</time>
      </trkpt>
      <trkpt lat="43.79149" lon="1.27974">
        <ele>94.83</ele>
        <time>2016-01-02T08:47:29Z</time>
      </trkpt>
      <trkpt lat="43.79151" lon="1.27971">
        <ele>94.83</ele>
        <time>2016-01-02T08:47:30Z</time>
      </trkpt>
      <trkpt lat="43.79154" lon="1.27969">
        <ele>94.83</ele>
        <time>2016-01-02T08:47:31Z</time>
      </trkpt>
      <trkpt lat="43.79157" lon="1.27966">
        <ele>94.83</ele>
        <time>2016-01-02T08:47:32Z</time>
      </trkpt>
      <trkpt lat="43.79159" lon="1.27962">
        <ele>94.83</ele>
        <time>2016-01-02T08:47:33Z</time>
      </trkpt>
      <trkpt lat="43.79162" lon="1.27959">
        <ele>94.83</ele>
        <time>2016-01-02T08:47:34Z</time>
      </trkpt>
      <trkpt lat="43.79164" lon="1.27956">
        <ele>94.83</ele>
        <time>2016-01-02T08:47:35Z</time>
      </trkpt>
      <trkpt lat="43.79166" lon="1.27954">
        <ele>94.83</ele>
        <time>2016-01-02T08:47:36Z</time>
      </trkpt>
      <trkpt lat="43.79169" lon="1.27952">
        <ele>94.83</ele>
        <time>2016-01-02T08:47:37Z</time>
      </trkpt>
      <trkpt lat="43.79171" lon="1.27949">
        <ele>94.83</ele>
        <time>2016-01-02T08:47:38Z</time>
      </trkpt>
      <trkpt lat="43.79173" lon="1.27947">
        <ele>94.83</ele>
        <time>2016-01-02T08:47:39Z</time>
      </trkpt>
      <trkpt lat="43.79176" lon="1.27944">
        <ele>94.83</ele>
        <time>2016-01-02T08:47:40Z</time>
      </trkpt>
      <trkpt lat="43.79178" lon="1.27942">
        <ele>94.83</ele>
        <time>2016-01-02T08:47:41Z</time>
      </trkpt>
      <trkpt lat="43.7918" lon="1.2794">
        <ele>94.83</ele>
        <time>2016-01-02T08:47:42Z</time>
      </trkpt>
      <trkpt lat="43.79183" lon="1.27938">
        <ele>94.83</ele>
        <time>2016-01-02T08:47:43Z</time>
      </trkpt>
      <trkpt lat="43.79187" lon="1.27936">
        <ele>94.83</ele>
        <time>2016-01-02T08:47:44Z</time>
      </trkpt>
      <trkpt lat="43.7919" lon="1.27935">
        <ele>95.31</ele>
        <time>2016-01-02T08:47:45Z</time>
      </trkpt>
      <trkpt lat="43.79193" lon="1.27934">
        <ele>95.31</ele>
        <time>2016-01-02T08:47:46Z</time>
      </trkpt>
      <trkpt lat="43.79195" lon="1.27935">
        <ele>94.83</ele>
        <time>2016-01-02T08:47:47Z</time>
      </trkpt>
      <trkpt lat="43.79198" lon="1.27936">
        <ele>94.83</ele>
        <time>2016-01-02T08:47:48Z</time>
      </trkpt>
      <trkpt lat="43.792" lon="1.27936">
        <ele>94.83</ele>
        <time>2016-01-02T08:47:49Z</time>
      </trkpt>
      <trkpt lat="43.79203" lon="1.27938">
        <ele>94.83</ele>
        <time>2016-01-02T08:47:50Z</time>
      </trkpt>
      <trkpt lat="43.79206" lon="1.2794">
        <ele>94.35</ele>
        <time>2016-01-02T08:47:51Z</time>
      </trkpt>
      <trkpt lat="43.79208" lon="1.27942">
        <ele>94.35</ele>
        <time>2016-01-02T08:47:52Z</time>
      </trkpt>
      <trkpt lat="43.7921" lon="1.27944">
        <ele>94.35</ele>
        <time>2016-01-02T08:47:53Z</time>
      </trkpt>
      <trkpt lat="43.79213" lon="1.27946">
        <ele>94.35</ele>
        <time>2016-01-02T08:47:54Z</time>
      </trkpt>
      <trkpt lat="43.79215" lon="1.27948">
        <ele>94.35</ele>
        <time>2016-01-02T08:47:55Z</time>
      </trkpt>
      <trkpt lat="43.79218" lon="1.2795">
        <ele>94.35</ele>
        <time>2016-01-02T08:47:56Z</time>
      </trkpt>
      <trkpt lat="43.7922" lon="1.27952">
        <ele>94.83</ele>
        <time>2016-01-02T08:47:57Z</time>
      </trkpt>
      <trkpt lat="43.79222" lon="1.27955">
        <ele>94.83</ele>
        <time>2016-01-02T08:47:58Z</time>
      </trkpt>
      <trkpt lat="43.79224" lon="1.27958">
        <ele>95.31</ele>
        <time>2016-01-02T08:47:59Z</time>
      </trkpt>
      <trkpt lat="43.79226" lon="1.2796">
        <ele>95.79</ele>
        <time>2016-01-02T08:48:00Z</time>
      </trkpt>
      <trkpt lat="43.79228" lon="1.27964">
        <ele>95.79</ele>
        <time>2016-01-02T08:48:01Z</time>
      </trkpt>
      <trkpt lat="43.79228" lon="1.27968">
        <ele>95.79</ele>
        <time>2016-01-02T08:48:02Z</time>
      </trkpt>
      <trkpt lat="43.79229" lon="1.27972">
        <ele>95.79</ele>
        <time>2016-01-02T08:48:03Z</time>
      </trkpt>
      <trkpt lat="43.79229" lon="1.27975">
        <ele>95.31</ele>
        <time>2016-01-02T08:48:04Z</time>
      </trkpt>
      <trkpt lat="43.79229" lon="1.27979">
        <ele>94.83</ele>
        <time>2016-01-02T08:48:05Z</time>
      </trkpt>
      <trkpt lat="43.79229" lon="1.27983">
        <ele>94.83</ele>
        <time>2016-01-02T08:48:06Z</time>
      </trkpt>
      <trkpt lat="43.79229" lon="1.27988">
        <ele>94.83</ele>
        <time>2016-01-02T08:48:07Z</time>
      </trkpt>
      <trkpt lat="43.79228" lon="1.27992">
        <ele>94.83</ele>
        <time>2016-01-02T08:48:08Z</time>
      </trkpt>
      <trkpt lat="43.79229" lon="1.27996">
        <ele>94.83</ele>
        <time>2016-01-02T08:48:09Z</time>
      </trkpt>
      <trkpt lat="43.79228" lon="1.28001">
        <ele>94.83</ele>
        <time>2016-01-02T08:48:10Z</time>
      </trkpt>
      <trkpt lat="43.79228" lon="1.28005">
        <ele>94.83</ele>
        <time>2016-01-02T08:48:11Z</time>
      </trkpt>
      <trkpt lat="43.79228" lon="1.28009">
        <ele>95.31</ele>
        <time>2016-01-02T08:48:12Z</time>
      </trkpt>
      <trkpt lat="43.79227" lon="1.28014">
        <ele>95.31</ele>
        <time>2016-01-02T08:48:13Z</time>
      </trkpt>
      <trkpt lat="43.79226" lon="1.28018">
        <ele>94.83</ele>
        <time>2016-01-02T08:48:14Z</time>
      </trkpt>
      <trkpt lat="43.79225" lon="1.28022">
        <ele>94.35</ele>
        <time>2016-01-02T08:48:15Z</time>
      </trkpt>
      <trkpt lat="43.79224" lon="1.28026">
        <ele>94.35</ele>
        <time>2016-01-02T08:48:16Z</time>
      </trkpt>
      <trkpt lat="43.79224" lon="1.2803">
        <ele>94.35</ele>
        <time>2016-01-02T08:48:17Z</time>
      </trkpt>
      <trkpt lat="43.79223" lon="1.28034">
        <ele>94.83</ele>
        <time>2016-01-02T08:48:18Z</time>
      </trkpt>
      <trkpt lat="43.79222" lon="1.28038">
        <ele>94.83</ele>
        <time>2016-01-02T08:48:19Z</time>
      </trkpt>
      <trkpt lat="43.79222" lon="1.28043">
        <ele>94.35</ele>
        <time>2016-01-02T08:48:20Z</time>
      </trkpt>
      <trkpt lat="43.79222" lon="1.28047">
        <ele>94.83</ele>
        <time>2016-01-02T08:48:21Z</time>
      </trkpt>
      <trkpt lat="43.79222" lon="1.28051">
        <ele>94.83</ele>
        <time>2016-01-02T08:48:22Z</time>
      </trkpt>
      <trkpt lat="43.79222" lon="1.28055">
        <ele>94.83</ele>
        <time>2016-01-02T08:48:23Z</time>
      </trkpt>
      <trkpt lat="43.79223" lon="1.28059">
        <ele>94.83</ele>
        <time>2016-01-02T08:48:24Z</time>
      </trkpt>
      <trkpt lat="43.79223" lon="1.28063">
        <ele>94.83</ele>
        <time>2016-01-02T08:48:25Z</time>
      </trkpt>
      <trkpt lat="43.79223" lon="1.28067">
        <ele>94.83</ele>
        <time>2016-01-02T08:48:26Z</time>
      </trkpt>
      <trkpt lat="43.79223" lon="1.28071">
        <ele>94.83</ele>
        <time>2016-01-02T08:48:27Z</time>
      </trkpt>
      <trkpt lat="43.79222" lon="1.28075">
        <ele>94.83</ele>
        <time>2016-01-02T08:48:28Z</time>
      </trkpt>
      <trkpt lat="43.79222" lon="1.28079">
        <ele>94.83</ele>
        <time>2016-01-02T08:48:29Z</time>
      </trkpt>
      <trkpt lat="43.79222" lon="1.28083">
        <ele>94.83</ele>
        <time>2016-01-02T08:48:30Z</time>
      </trkpt>
      <trkpt lat="43.79223" lon="1.28087">
        <ele>95.31</ele>
        <time>2016-01-02T08:48:31Z</time>
      </trkpt>
      <trkpt lat="43.79225" lon="1.28091">
        <ele>95.31</ele>
        <time>2016-01-02T08:48:32Z</time>
      </trkpt>
      <trkpt lat="43.79226" lon="1.28094">
        <ele>95.31</ele>
        <time>2016-01-02T08:48:33Z</time>
      </trkpt>
      <trkpt lat="43.79227" lon="1.28097">
        <ele>95.31</ele>
        <time>2016-01-02T08:48:34Z</time>
      </trkpt>
      <trkpt lat="43.79228" lon="1.281">
        <ele>95.31</ele>
        <time>2016-01-02T08:48:35Z</time>
      </trkpt>
      <trkpt lat="43.79229" lon="1.28103">
        <ele>95.31</ele>
        <time>2016-01-02T08:48:36Z</time>
      </trkpt>
      <trkpt lat="43.79229" lon="1.28106">
        <ele>95.31</ele>
        <time>2016-01-02T08:48:37Z</time>
      </trkpt>
      <trkpt lat="43.79229" lon="1.2811">
        <ele>95.31</ele>
        <time>2016-01-02T08:48:38Z</time>
      </trkpt>
      <trkpt lat="43.79228" lon="1.28114">
        <ele>95.79</ele>
        <time>2016-01-02T08:48:39Z</time>
      </trkpt>
      <trkpt lat="43.79227" lon="1.28118">
        <ele>95.79</ele>
        <time>2016-01-02T08:48:40Z</time>
      </trkpt>
      <trkpt lat="43.79226" lon="1.28122">
        <ele>95.79</ele>
        <time>2016-01-02T08:48:41Z</time>
      </trkpt>
      <trkpt lat="43.79226" lon="1.28126">
        <ele>95.79</ele>
        <time>2016-01-02T08:48:42Z</time>
      </trkpt>
      <trkpt lat="43.79226" lon="1.2813">
        <ele>95.31</ele>
        <time>2016-01-02T08:48:43Z</time>
      </trkpt>
      <trkpt lat="43.79226" lon="1.28134">
        <ele>95.31</ele>
        <time>2016-01-02T08:48:44Z</time>
      </trkpt>
      <trkpt lat="43.79227" lon="1.28137">
        <ele>95.31</ele>
        <time>2016-01-02T08:48:45Z</time>
      </trkpt>
      <trkpt lat="43.79227" lon="1.28139">
        <ele>94.83</ele>
        <time>2016-01-02T08:48:46Z</time>
      </trkpt>
      <trkpt lat="43.79228" lon="1.28142">
        <ele>95.31</ele>
        <time>2016-01-02T08:48:47Z</time>
      </trkpt>
      <trkpt lat="43.79228" lon="1.28145">
        <ele>95.31</ele>
        <time>2016-01-02T08:48:48Z</time>
      </trkpt>
      <trkpt lat="43.79228" lon="1.28149">
        <ele>95.31</ele>
        <time>2016-01-02T08:48:49Z</time>
      </trkpt>
      <trkpt lat="43.79229" lon="1.28152">
        <ele>95.79</ele>
        <time>2016-01-02T08:48:50Z</time>
      </trkpt>
      <trkpt lat="43.79229" lon="1.28154">
        <ele>95.79</ele>
        <time>2016-01-02T08:48:51Z</time>
      </trkpt>
      <trkpt lat="43.7923" lon="1.28156">
        <ele>95.79</ele>
        <time>2016-01-02T08:48:52Z</time>
      </trkpt>
      <trkpt lat="43.7923" lon="1.28158">
        <ele>95.79</ele>
        <time>2016-01-02T08:48:53Z</time>
      </trkpt>
      <trkpt lat="43.79231" lon="1.28161">
        <ele>95.79</ele>
        <time>2016-01-02T08:48:54Z</time>
      </trkpt>
      <trkpt lat="43.79232" lon="1.28164">
        <ele>95.79</ele>
        <time>2016-01-02T08:48:55Z</time>
      </trkpt>
      <trkpt lat="43.79232" lon="1.28167">
        <ele>95.31</ele>
        <time>2016-01-02T08:48:56Z</time>
      </trkpt>
      <trkpt lat="43.79233" lon="1.28171">
        <ele>94.83</ele>
        <time>2016-01-02T08:48:57Z</time>
      </trkpt>
      <trkpt lat="43.79234" lon="1.28175">
        <ele>94.83</ele>
        <time>2016-01-02T08:48:58Z</time>
      </trkpt>
      <trkpt lat="43.79234" lon="1.28179">
        <ele>94.83</ele>
        <time>2016-01-02T08:48:59Z</time>
      </trkpt>
      <trkpt lat="43.79234" lon="1.28183">
        <ele>94.83</ele>
        <time>2016-01-02T08:49:00Z</time>
      </trkpt>
      <trkpt lat="43.79234" lon="1.28187">
        <ele>94.83</ele>
        <time>2016-01-02T08:49:01Z</time>
      </trkpt>
      <trkpt lat="43.79234" lon="1.28191">
        <ele>94.83</ele>
        <time>2016-01-02T08:49:02Z</time>
      </trkpt>
      <trkpt lat="43.79233" lon="1.28196">
        <ele>94.83</ele>
        <time>2016-01-02T08:49:03Z</time>
      </trkpt>
      <trkpt lat="43.79232" lon="1.282">
        <ele>95.31</ele>
        <time>2016-01-02T08:49:04Z</time>
      </trkpt>
      <trkpt lat="43.79231" lon="1.28204">
        <ele>95.31</ele>
        <time>2016-01-02T08:49:05Z</time>
      </trkpt>
      <trkpt lat="43.7923" lon="1.28209">
        <ele>95.31</ele>
        <time>2016-01-02T08:49:06Z</time>
      </trkpt>
      <trkpt lat="43.79229" lon="1.28213">
        <ele>95.79</ele>
        <time>2016-01-02T08:49:07Z</time>
      </trkpt>
      <trkpt lat="43.79228" lon="1.28217">
        <ele>95.79</ele>
        <time>2016-01-02T08:49:08Z</time>
      </trkpt>
      <trkpt lat="43.79227" lon="1.28221">
        <ele>95.31</ele>
        <time>2016-01-02T08:49:09Z</time>
      </trkpt>
      <trkpt lat="43.79227" lon="1.28225">
        <ele>95.31</ele>
        <time>2016-01-02T08:49:10Z</time>
      </trkpt>
      <trkpt lat="43.79227" lon="1.28229">
        <ele>95.31</ele>
        <time>2016-01-02T08:49:11Z</time>
      </trkpt>
      <trkpt lat="43.79226" lon="1.28233">
        <ele>95.31</ele>
        <time>2016-01-02T08:49:12Z</time>
      </trkpt>
      <trkpt lat="43.79226" lon="1.28237">
        <ele>95.31</ele>
        <time>2016-01-02T08:49:13Z</time>
      </trkpt>
      <trkpt lat="43.79225" lon="1.28242">
        <ele>95.31</ele>
        <time>2016-01-02T08:49:14Z</time>
      </trkpt>
      <trkpt lat="43.79224" lon="1.28246">
        <ele>95.31</ele>
        <time>2016-01-02T08:49:15Z</time>
      </trkpt>
      <trkpt lat="43.79223" lon="1.2825">
        <ele>95.31</ele>
        <time>2016-01-02T08:49:16Z</time>
      </trkpt>
      <trkpt lat="43.79223" lon="1.28254">
        <ele>95.79</ele>
        <time>2016-01-02T08:49:17Z</time>
      </trkpt>
      <trkpt lat="43.79223" lon="1.28257">
        <ele>95.79</ele>
        <time>2016-01-02T08:49:18Z</time>
      </trkpt>
      <trkpt lat="43.79223" lon="1.2826">
        <ele>95.79</ele>
        <time>2016-01-02T08:49:19Z</time>
      </trkpt>
      <trkpt lat="43.79223" lon="1.28263">
        <ele>95.79</ele>
        <time>2016-01-02T08:49:20Z</time>
      </trkpt>
      <trkpt lat="43.79224" lon="1.28266">
        <ele>95.79</ele>
        <time>2016-01-02T08:49:21Z</time>
      </trkpt>
      <trkpt lat="43.79225" lon="1.2827">
        <ele>95.79</ele>
        <time>2016-01-02T08:49:22Z</time>
      </trkpt>
      <trkpt lat="43.79226" lon="1.28274">
        <ele>95.79</ele>
        <time>2016-01-02T08:49:23Z</time>
      </trkpt>
      <trkpt lat="43.79227" lon="1.28277">
        <ele>95.79</ele>
        <time>2016-01-02T08:49:24Z</time>
      </trkpt>
      <trkpt lat="43.79228" lon="1.28281">
        <ele>95.31</ele>
        <time>2016-01-02T08:49:25Z</time>
      </trkpt>
      <trkpt lat="43.79229" lon="1.28285">
        <ele>95.31</ele>
        <time>2016-01-02T08:49:26Z</time>
      </trkpt>
      <trkpt lat="43.7923" lon="1.28289">
        <ele>94.83</ele>
        <time>2016-01-02T08:49:27Z</time>
      </trkpt>
      <trkpt lat="43.7923" lon="1.28293">
        <ele>94.83</ele>
        <time>2016-01-02T08:49:28Z</time>
      </trkpt>
      <trkpt lat="43.79231" lon="1.28297">
        <ele>94.83</ele>
        <time>2016-01-02T08:49:29Z</time>
      </trkpt>
      <trkpt lat="43.79232" lon="1.28301">
        <ele>94.83</ele>
        <time>2016-01-02T08:49:30Z</time>
      </trkpt>
      <trkpt lat="43.79232" lon="1.28305">
        <ele>94.83</ele>
        <time>2016-01-02T08:49:31Z</time>
      </trkpt>
      <trkpt lat="43.79233" lon="1.28309">
        <ele>94.83</ele>
        <time>2016-01-02T08:49:32Z</time>
      </trkpt>
      <trkpt lat="43.79234" lon="1.28313">
        <ele>94.83</ele>
        <time>2016-01-02T08:49:33Z</time>
      </trkpt>
      <trkpt lat="43.79235" lon="1.28317">
        <ele>94.83</ele>
        <time>2016-01-02T08:49:34Z</time>
      </trkpt>
      <trkpt lat="43.79235" lon="1.28321">
        <ele>94.83</ele>
        <time>2016-01-02T08:49:35Z</time>
      </trkpt>
      <trkpt lat="43.79236" lon="1.28326">
        <ele>95.31</ele>
        <time>2016-01-02T08:49:36Z</time>
      </trkpt>
      <trkpt lat="43.79237" lon="1.2833">
        <ele>95.31</ele>
        <time>2016-01-02T08:49:37Z</time>
      </trkpt>
      <trkpt lat="43.79237" lon="1.28334">
        <ele>95.31</ele>
        <time>2016-01-02T08:49:38Z</time>
      </trkpt>
      <trkpt lat="43.79238" lon="1.28338">
        <ele>95.31</ele>
        <time>2016-01-02T08:49:39Z</time>
      </trkpt>
      <trkpt lat="43.79239" lon="1.28341">
        <ele>95.31</ele>
        <time>2016-01-02T08:49:40Z</time>
      </trkpt>
      <trkpt lat="43.79239" lon="1.28345">
        <ele>94.83</ele>
        <time>2016-01-02T08:49:41Z</time>
      </trkpt>
      <trkpt lat="43.7924" lon="1.28354">
        <ele>94.83</ele>
        <time>2016-01-02T08:49:43Z</time>
      </trkpt>
      <trkpt lat="43.7924" lon="1.28358">
        <ele>94.83</ele>
        <time>2016-01-02T08:49:44Z</time>
      </trkpt>
      <trkpt lat="43.7924" lon="1.28362">
        <ele>94.83</ele>
        <time>2016-01-02T08:49:45Z</time>
      </trkpt>
      <trkpt lat="43.7924" lon="1.28366">
        <ele>95.31</ele>
        <time>2016-01-02T08:49:46Z</time>
      </trkpt>
      <trkpt lat="43.7924" lon="1.28371">
        <ele>95.31</ele>
        <time>2016-01-02T08:49:47Z</time>
      </trkpt>
      <trkpt lat="43.7924" lon="1.28375">
        <ele>95.31</ele>
        <time>2016-01-02T08:49:48Z</time>
      </trkpt>
      <trkpt lat="43.7924" lon="1.2838">
        <ele>95.79</ele>
        <time>2016-01-02T08:49:49Z</time>
      </trkpt>
      <trkpt lat="43.79239" lon="1.28385">
        <ele>95.79</ele>
        <time>2016-01-02T08:49:50Z</time>
      </trkpt>
      <trkpt lat="43.79238" lon="1.28389">
        <ele>95.79</ele>
        <time>2016-01-02T08:49:51Z</time>
      </trkpt>
      <trkpt lat="43.79237" lon="1.28394">
        <ele>95.31</ele>
        <time>2016-01-02T08:49:52Z</time>
      </trkpt>
      <trkpt lat="43.79236" lon="1.28398">
        <ele>95.31</ele>
        <time>2016-01-02T08:49:53Z</time>
      </trkpt>
      <trkpt lat="43.79236" lon="1.28403">
        <ele>95.31</ele>
        <time>2016-01-02T08:49:54Z</time>
      </trkpt>
      <trkpt lat="43.79235" lon="1.28408">
        <ele>94.83</ele>
        <time>2016-01-02T08:49:55Z</time>
      </trkpt>
      <trkpt lat="43.79234" lon="1.28412">
        <ele>95.31</ele>
        <time>2016-01-02T08:49:56Z</time>
      </trkpt>
      <trkpt lat="43.79232" lon="1.28416">
        <ele>95.31</ele>
        <time>2016-01-02T08:49:57Z</time>
      </trkpt>
      <trkpt lat="43.79231" lon="1.28421">
        <ele>95.79</ele>
        <time>2016-01-02T08:49:58Z</time>
      </trkpt>
      <trkpt lat="43.79229" lon="1.28425">
        <ele>95.79</ele>
        <time>2016-01-02T08:49:59Z</time>
      </trkpt>
      <trkpt lat="43.79228" lon="1.28429">
        <ele>95.31</ele>
        <time>2016-01-02T08:50:00Z</time>
      </trkpt>
      <trkpt lat="43.79227" lon="1.28433">
        <ele>95.31</ele>
        <time>2016-01-02T08:50:01Z</time>
      </trkpt>
      <trkpt lat="43.79225" lon="1.28438">
        <ele>94.83</ele>
        <time>2016-01-02T08:50:02Z</time>
      </trkpt>
      <trkpt lat="43.79224" lon="1.28442">
        <ele>95.31</ele>
        <time>2016-01-02T08:50:03Z</time>
      </trkpt>
      <trkpt lat="43.79222" lon="1.28446">
        <ele>95.31</ele>
        <time>2016-01-02T08:50:04Z</time>
      </trkpt>
      <trkpt lat="43.79221" lon="1.2845">
        <ele>95.31</ele>
        <time>2016-01-02T08:50:05Z</time>
      </trkpt>
      <trkpt lat="43.79219" lon="1.28454">
        <ele>95.31</ele>
        <time>2016-01-02T08:50:06Z</time>
      </trkpt>
      <trkpt lat="43.79218" lon="1.28458">
        <ele>95.79</ele>
        <time>2016-01-02T08:50:07Z</time>
      </trkpt>
      <trkpt lat="43.79216" lon="1.28462">
        <ele>95.79</ele>
        <time>2016-01-02T08:50:08Z</time>
      </trkpt>
      <trkpt lat="43.79214" lon="1.28466">
        <ele>95.79</ele>
        <time>2016-01-02T08:50:09Z</time>
      </trkpt>
      <trkpt lat="43.79213" lon="1.28471">
        <ele>95.79</ele>
        <time>2016-01-02T08:50:10Z</time>
      </trkpt>
      <trkpt lat="43.79211" lon="1.28474">
        <ele>95.31</ele>
        <time>2016-01-02T08:50:11Z</time>
      </trkpt>
      <trkpt lat="43.7921" lon="1.28478">
        <ele>95.79</ele>
        <time>2016-01-02T08:50:12Z</time>
      </trkpt>
      <trkpt lat="43.79208" lon="1.28481">
        <ele>95.79</ele>
        <time>2016-01-02T08:50:13Z</time>
      </trkpt>
      <trkpt lat="43.79206" lon="1.28485">
        <ele>95.79</ele>
        <time>2016-01-02T08:50:14Z</time>
      </trkpt>
      <trkpt lat="43.79204" lon="1.28488">
        <ele>95.79</ele>
        <time>2016-01-02T08:50:15Z</time>
      </trkpt>
      <trkpt lat="43.79203" lon="1.28491">
        <ele>96.27</ele>
        <time>2016-01-02T08:50:16Z</time>
      </trkpt>
      <trkpt lat="43.79201" lon="1.28494">
        <ele>96.75</ele>
        <time>2016-01-02T08:50:17Z</time>
      </trkpt>
      <trkpt lat="43.79199" lon="1.28498">
        <ele>96.75</ele>
        <time>2016-01-02T08:50:18Z</time>
      </trkpt>
      <trkpt lat="43.79196" lon="1.28501">
        <ele>96.75</ele>
        <time>2016-01-02T08:50:19Z</time>
      </trkpt>
      <trkpt lat="43.79194" lon="1.28503">
        <ele>96.27</ele>
        <time>2016-01-02T08:50:20Z</time>
      </trkpt>
      <trkpt lat="43.79192" lon="1.28506">
        <ele>96.27</ele>
        <time>2016-01-02T08:50:21Z</time>
      </trkpt>
      <trkpt lat="43.7919" lon="1.28508">
        <ele>96.27</ele>
        <time>2016-01-02T08:50:22Z</time>
      </trkpt>
      <trkpt lat="43.79188" lon="1.28511">
        <ele>96.27</ele>
        <time>2016-01-02T08:50:23Z</time>
      </trkpt>
      <trkpt lat="43.79186" lon="1.28514">
        <ele>95.79</ele>
        <time>2016-01-02T08:50:24Z</time>
      </trkpt>
      <trkpt lat="43.79184" lon="1.28516">
        <ele>96.27</ele>
        <time>2016-01-02T08:50:25Z</time>
      </trkpt>
      <trkpt lat="43.79182" lon="1.2852">
        <ele>96.27</ele>
        <time>2016-01-02T08:50:26Z</time>
      </trkpt>
      <trkpt lat="43.7918" lon="1.28523">
        <ele>96.27</ele>
        <time>2016-01-02T08:50:27Z</time>
      </trkpt>
      <trkpt lat="43.79178" lon="1.28526">
        <ele>96.27</ele>
        <time>2016-01-02T08:50:28Z</time>
      </trkpt>
      <trkpt lat="43.79175" lon="1.28528">
        <ele>96.75</ele>
        <time>2016-01-02T08:50:29Z</time>
      </trkpt>
      <trkpt lat="43.79173" lon="1.28531">
        <ele>96.75</ele>
        <time>2016-01-02T08:50:30Z</time>
      </trkpt>
      <trkpt lat="43.79171" lon="1.28533">
        <ele>97.23</ele>
        <time>2016-01-02T08:50:31Z</time>
      </trkpt>
      <trkpt lat="43.79168" lon="1.28536">
        <ele>97.23</ele>
        <time>2016-01-02T08:50:32Z</time>
      </trkpt>
      <trkpt lat="43.79165" lon="1.28538">
        <ele>97.23</ele>
        <time>2016-01-02T08:50:33Z</time>
      </trkpt>
      <trkpt lat="43.79163" lon="1.28539">
        <ele>96.75</ele>
        <time>2016-01-02T08:50:34Z</time>
      </trkpt>
      <trkpt lat="43.79161" lon="1.28541">
        <ele>96.75</ele>
        <time>2016-01-02T08:50:35Z</time>
      </trkpt>
      <trkpt lat="43.79158" lon="1.28543">
        <ele>96.27</ele>
        <time>2016-01-02T08:50:36Z</time>
      </trkpt>
      <trkpt lat="43.79155" lon="1.28545">
        <ele>96.27</ele>
        <time>2016-01-02T08:50:37Z</time>
      </trkpt>
      <trkpt lat="43.79152" lon="1.28547">
        <ele>96.75</ele>
        <time>2016-01-02T08:50:38Z</time>
      </trkpt>
      <trkpt lat="43.7915" lon="1.28548">
        <ele>96.75</ele>
        <time>2016-01-02T08:50:39Z</time>
      </trkpt>
      <trkpt lat="43.79147" lon="1.2855">
        <ele>97.23</ele>
        <time>2016-01-02T08:50:40Z</time>
      </trkpt>
      <trkpt lat="43.79145" lon="1.28552">
        <ele>97.23</ele>
        <time>2016-01-02T08:50:41Z</time>
      </trkpt>
      <trkpt lat="43.79143" lon="1.28555">
        <ele>97.23</ele>
        <time>2016-01-02T08:50:42Z</time>
      </trkpt>
      <trkpt lat="43.79141" lon="1.28557">
        <ele>97.23</ele>
        <time>2016-01-02T08:50:43Z</time>
      </trkpt>
      <trkpt lat="43.79139" lon="1.2856">
        <ele>96.75</ele>
        <time>2016-01-02T08:50:44Z</time>
      </trkpt>
      <trkpt lat="43.79137" lon="1.28563">
        <ele>96.75</ele>
        <time>2016-01-02T08:50:45Z</time>
      </trkpt>
      <trkpt lat="43.79135" lon="1.28566">
        <ele>96.27</ele>
        <time>2016-01-02T08:50:46Z</time>
      </trkpt>
      <trkpt lat="43.79133" lon="1.28568">
        <ele>96.75</ele>
        <time>2016-01-02T08:50:47Z</time>
      </trkpt>
      <trkpt lat="43.79131" lon="1.28571">
        <ele>96.75</ele>
        <time>2016-01-02T08:50:48Z</time>
      </trkpt>
      <trkpt lat="43.79129" lon="1.28575">
        <ele>96.75</ele>
        <time>2016-01-02T08:50:49Z</time>
      </trkpt>
      <trkpt lat="43.79127" lon="1.28578">
        <ele>97.23</ele>
        <time>2016-01-02T08:50:50Z</time>
      </trkpt>
      <trkpt lat="43.79124" lon="1.28581">
        <ele>97.23</ele>
        <time>2016-01-02T08:50:51Z</time>
      </trkpt>
      <trkpt lat="43.79122" lon="1.28583">
        <ele>97.23</ele>
        <time>2016-01-02T08:50:52Z</time>
      </trkpt>
      <trkpt lat="43.7912" lon="1.28586">
        <ele>97.23</ele>
        <time>2016-01-02T08:50:53Z</time>
      </trkpt>
      <trkpt lat="43.79118" lon="1.28589">
        <ele>97.23</ele>
        <time>2016-01-02T08:50:54Z</time>
      </trkpt>
      <trkpt lat="43.79115" lon="1.28592">
        <ele>96.75</ele>
        <time>2016-01-02T08:50:55Z</time>
      </trkpt>
      <trkpt lat="43.79113" lon="1.28595">
        <ele>96.75</ele>
        <time>2016-01-02T08:50:56Z</time>
      </trkpt>
      <trkpt lat="43.7911" lon="1.28598">
        <ele>96.75</ele>
        <time>2016-01-02T08:50:57Z</time>
      </trkpt>
      <trkpt lat="43.79106" lon="1.28599">
        <ele>96.75</ele>
        <time>2016-01-02T08:50:58Z</time>
      </trkpt>
      <trkpt lat="43.79103" lon="1.28601">
        <ele>96.27</ele>
        <time>2016-01-02T08:50:59Z</time>
      </trkpt>
      <trkpt lat="43.79099" lon="1.28603">
        <ele>96.75</ele>
        <time>2016-01-02T08:51:00Z</time>
      </trkpt>
      <trkpt lat="43.79096" lon="1.28604">
        <ele>96.75</ele>
        <time>2016-01-02T08:51:01Z</time>
      </trkpt>
      <trkpt lat="43.79093" lon="1.28605">
        <ele>96.75</ele>
        <time>2016-01-02T08:51:02Z</time>
      </trkpt>
      <trkpt lat="43.7909" lon="1.28607">
        <ele>96.75</ele>
        <time>2016-01-02T08:51:03Z</time>
      </trkpt>
      <trkpt lat="43.79087" lon="1.28609">
        <ele>96.75</ele>
        <time>2016-01-02T08:51:04Z</time>
      </trkpt>
      <trkpt lat="43.79084" lon="1.28611">
        <ele>96.75</ele>
        <time>2016-01-02T08:51:05Z</time>
      </trkpt>
      <trkpt lat="43.79081" lon="1.28612">
        <ele>96.75</ele>
        <time>2016-01-02T08:51:06Z</time>
      </trkpt>
      <trkpt lat="43.79078" lon="1.28614">
        <ele>96.27</ele>
        <time>2016-01-02T08:51:07Z</time>
      </trkpt>
      <trkpt lat="43.79075" lon="1.28615">
        <ele>96.27</ele>
        <time>2016-01-02T08:51:08Z</time>
      </trkpt>
      <trkpt lat="43.79072" lon="1.28616">
        <ele>96.27</ele>
        <time>2016-01-02T08:51:09Z</time>
      </trkpt>
      <trkpt lat="43.79069" lon="1.28617">
        <ele>96.27</ele>
        <time>2016-01-02T08:51:10Z</time>
      </trkpt>
      <trkpt lat="43.79067" lon="1.28618">
        <ele>96.27</ele>
        <time>2016-01-02T08:51:11Z</time>
      </trkpt>
      <trkpt lat="43.79064" lon="1.28619">
        <ele>96.27</ele>
        <time>2016-01-02T08:51:12Z</time>
      </trkpt>
      <trkpt lat="43.79061" lon="1.2862">
        <ele>96.75</ele>
        <time>2016-01-02T08:51:13Z</time>
      </trkpt>
      <trkpt lat="43.79057" lon="1.2862">
        <ele>96.75</ele>
        <time>2016-01-02T08:51:14Z</time>
      </trkpt>
      <trkpt lat="43.79054" lon="1.28618">
        <ele>97.23</ele>
        <time>2016-01-02T08:51:15Z</time>
      </trkpt>
      <trkpt lat="43.79051" lon="1.28617">
        <ele>97.23</ele>
        <time>2016-01-02T08:51:16Z</time>
      </trkpt>
      <trkpt lat="43.79048" lon="1.28615">
        <ele>97.23</ele>
        <time>2016-01-02T08:51:17Z</time>
      </trkpt>
      <trkpt lat="43.79045" lon="1.28614">
        <ele>97.71</ele>
        <time>2016-01-02T08:51:18Z</time>
      </trkpt>
      <trkpt lat="43.79042" lon="1.28613">
        <ele>97.71</ele>
        <time>2016-01-02T08:51:19Z</time>
      </trkpt>
      <trkpt lat="43.79039" lon="1.28611">
        <ele>98.19</ele>
        <time>2016-01-02T08:51:20Z</time>
      </trkpt>
      <trkpt lat="43.79036" lon="1.2861">
        <ele>98.19</ele>
        <time>2016-01-02T08:51:21Z</time>
      </trkpt>
      <trkpt lat="43.79033" lon="1.28608">
        <ele>98.19</ele>
        <time>2016-01-02T08:51:22Z</time>
      </trkpt>
      <trkpt lat="43.7903" lon="1.28607">
        <ele>97.71</ele>
        <time>2016-01-02T08:51:23Z</time>
      </trkpt>
      <trkpt lat="43.79027" lon="1.28606">
        <ele>97.23</ele>
        <time>2016-01-02T08:51:24Z</time>
      </trkpt>
      <trkpt lat="43.79024" lon="1.28605">
        <ele>97.23</ele>
        <time>2016-01-02T08:51:25Z</time>
      </trkpt>
      <trkpt lat="43.79022" lon="1.28604">
        <ele>96.75</ele>
        <time>2016-01-02T08:51:26Z</time>
      </trkpt>
      <trkpt lat="43.79019" lon="1.28603">
        <ele>96.75</ele>
        <time>2016-01-02T08:51:27Z</time>
      </trkpt>
      <trkpt lat="43.79015" lon="1.28602">
        <ele>96.75</ele>
        <time>2016-01-02T08:51:28Z</time>
      </trkpt>
      <trkpt lat="43.79012" lon="1.286">
        <ele>97.23</ele>
        <time>2016-01-02T08:51:29Z</time>
      </trkpt>
      <trkpt lat="43.79009" lon="1.28599">
        <ele>97.23</ele>
        <time>2016-01-02T08:51:30Z</time>
      </trkpt>
      <trkpt lat="43.79006" lon="1.28597">
        <ele>97.23</ele>
        <time>2016-01-02T08:51:31Z</time>
      </trkpt>
      <trkpt lat="43.79003" lon="1.28596">
        <ele>96.75</ele>
        <time>2016-01-02T08:51:32Z</time>
      </trkpt>
      <trkpt lat="43.79" lon="1.28595">
        <ele>97.23</ele>
        <time>2016-01-02T08:51:33Z</time>
      </trkpt>
      <trkpt lat="43.78997" lon="1.28594">
        <ele>97.23</ele>
        <time>2016-01-02T08:51:34Z</time>
      </trkpt>
      <trkpt lat="43.78993" lon="1.28592">
        <ele>97.23</ele>
        <time>2016-01-02T08:51:35Z</time>
      </trkpt>
      <trkpt lat="43.7899" lon="1.28591">
        <ele>96.75</ele>
        <time>2016-01-02T08:51:36Z</time>
      </trkpt>
      <trkpt lat="43.78987" lon="1.28589">
        <ele>97.23</ele>
        <time>2016-01-02T08:51:37Z</time>
      </trkpt>
      <trkpt lat="43.78984" lon="1.28588">
        <ele>97.23</ele>
        <time>2016-01-02T08:51:38Z</time>
      </trkpt>
      <trkpt lat="43.78981" lon="1.28586">
        <ele>97.23</ele>
        <time>2016-01-02T08:51:39Z</time>
      </trkpt>
      <trkpt lat="43.78978" lon="1.28585">
        <ele>97.23</ele>
        <time>2016-01-02T08:51:40Z</time>
      </trkpt>
      <trkpt lat="43.78975" lon="1.28583">
        <ele>97.23</ele>
        <time>2016-01-02T08:51:41Z</time>
      </trkpt>
      <trkpt lat="43.78972" lon="1.28582">
        <ele>97.23</ele>
        <time>2016-01-02T08:51:42Z</time>
      </trkpt>
      <trkpt lat="43.78969" lon="1.2858">
        <ele>96.75</ele>
        <time>2016-01-02T08:51:43Z</time>
      </trkpt>
      <trkpt lat="43.78965" lon="1.28579">
        <ele>96.75</ele>
        <time>2016-01-02T08:51:44Z</time>
      </trkpt>
      <trkpt lat="43.78962" lon="1.28578">
        <ele>96.75</ele>
        <time>2016-01-02T08:51:45Z</time>
      </trkpt>
      <trkpt lat="43.78959" lon="1.28576">
        <ele>96.75</ele>
        <time>2016-01-02T08:51:46Z</time>
      </trkpt>
      <trkpt lat="43.78956" lon="1.28574">
        <ele>96.75</ele>
        <time>2016-01-02T08:51:47Z</time>
      </trkpt>
      <trkpt lat="43.78954" lon="1.28573">
        <ele>96.75</ele>
        <time>2016-01-02T08:51:48Z</time>
      </trkpt>
      <trkpt lat="43.78951" lon="1.28571">
        <ele>96.75</ele>
        <time>2016-01-02T08:51:49Z</time>
      </trkpt>
      <trkpt lat="43.78948" lon="1.2857">
        <ele>96.75</ele>
        <time>2016-01-02T08:51:50Z</time>
      </trkpt>
      <trkpt lat="43.78945" lon="1.28568">
        <ele>96.27</ele>
        <time>2016-01-02T08:51:51Z</time>
      </trkpt>
      <trkpt lat="43.78942" lon="1.28567">
        <ele>96.27</ele>
        <time>2016-01-02T08:51:52Z</time>
      </trkpt>
      <trkpt lat="43.78939" lon="1.28566">
        <ele>96.75</ele>
        <time>2016-01-02T08:51:53Z</time>
      </trkpt>
      <trkpt lat="43.78936" lon="1.28565">
        <ele>96.75</ele>
        <time>2016-01-02T08:51:54Z</time>
      </trkpt>
      <trkpt lat="43.78933" lon="1.28564">
        <ele>96.75</ele>
        <time>2016-01-02T08:51:55Z</time>
      </trkpt>
      <trkpt lat="43.7893" lon="1.28563">
        <ele>96.75</ele>
        <time>2016-01-02T08:51:56Z</time>
      </trkpt>
      <trkpt lat="43.78927" lon="1.28562">
        <ele>97.23</ele>
        <time>2016-01-02T08:51:57Z</time>
      </trkpt>
      <trkpt lat="43.78923" lon="1.28562">
        <ele>97.23</ele>
        <time>2016-01-02T08:51:58Z</time>
      </trkpt>
      <trkpt lat="43.7892" lon="1.28561">
        <ele>97.23</ele>
        <time>2016-01-02T08:51:59Z</time>
      </trkpt>
      <trkpt lat="43.78917" lon="1.2856">
        <ele>96.75</ele>
        <time>2016-01-02T08:52:00Z</time>
      </trkpt>
      <trkpt lat="43.78915" lon="1.28559">
        <ele>96.75</ele>
        <time>2016-01-02T08:52:01Z</time>
      </trkpt>
      <trkpt lat="43.78911" lon="1.28559">
        <ele>96.75</ele>
        <time>2016-01-02T08:52:02Z</time>
      </trkpt>
      <trkpt lat="43.78908" lon="1.28558">
        <ele>96.75</ele>
        <time>2016-01-02T08:52:03Z</time>
      </trkpt>
      <trkpt lat="43.78905" lon="1.28557">
        <ele>96.75</ele>
        <time>2016-01-02T08:52:04Z</time>
      </trkpt>
      <trkpt lat="43.78903" lon="1.28556">
        <ele>96.75</ele>
        <time>2016-01-02T08:52:05Z</time>
      </trkpt>
      <trkpt lat="43.789" lon="1.28554">
        <ele>96.75</ele>
        <time>2016-01-02T08:52:06Z</time>
      </trkpt>
      <trkpt lat="43.78897" lon="1.28553">
        <ele>96.75</ele>
        <time>2016-01-02T08:52:07Z</time>
      </trkpt>
      <trkpt lat="43.78894" lon="1.28552">
        <ele>96.75</ele>
        <time>2016-01-02T08:52:08Z</time>
      </trkpt>
      <trkpt lat="43.78891" lon="1.2855">
        <ele>96.75</ele>
        <time>2016-01-02T08:52:09Z</time>
      </trkpt>
      <trkpt lat="43.78888" lon="1.28548">
        <ele>96.75</ele>
        <time>2016-01-02T08:52:10Z</time>
      </trkpt>
      <trkpt lat="43.78885" lon="1.28546">
        <ele>96.75</ele>
        <time>2016-01-02T08:52:11Z</time>
      </trkpt>
      <trkpt lat="43.78881" lon="1.28545">
        <ele>96.75</ele>
        <time>2016-01-02T08:52:12Z</time>
      </trkpt>
      <trkpt lat="43.78878" lon="1.28544">
        <ele>97.23</ele>
        <time>2016-01-02T08:52:13Z</time>
      </trkpt>
      <trkpt lat="43.78876" lon="1.28543">
        <ele>97.23</ele>
        <time>2016-01-02T08:52:14Z</time>
      </trkpt>
      <trkpt lat="43.78872" lon="1.28542">
        <ele>97.23</ele>
        <time>2016-01-02T08:52:15Z</time>
      </trkpt>
      <trkpt lat="43.78869" lon="1.2854">
        <ele>97.23</ele>
        <time>2016-01-02T08:52:16Z</time>
      </trkpt>
      <trkpt lat="43.78866" lon="1.2854">
        <ele>97.23</ele>
        <time>2016-01-02T08:52:17Z</time>
      </trkpt>
      <trkpt lat="43.78864" lon="1.2854">
        <ele>97.23</ele>
        <time>2016-01-02T08:52:18Z</time>
      </trkpt>
      <trkpt lat="43.78862" lon="1.28541">
        <ele>97.23</ele>
        <time>2016-01-02T08:52:19Z</time>
      </trkpt>
      <trkpt lat="43.78859" lon="1.28542">
        <ele>96.75</ele>
        <time>2016-01-02T08:52:20Z</time>
      </trkpt>
      <trkpt lat="43.78858" lon="1.28545">
        <ele>96.27</ele>
        <time>2016-01-02T08:52:21Z</time>
      </trkpt>
      <trkpt lat="43.78856" lon="1.28548">
        <ele>96.27</ele>
        <time>2016-01-02T08:52:22Z</time>
      </trkpt>
      <trkpt lat="43.78855" lon="1.28552">
        <ele>96.27</ele>
        <time>2016-01-02T08:52:23Z</time>
      </trkpt>
      <trkpt lat="43.78854" lon="1.28556">
        <ele>96.27</ele>
        <time>2016-01-02T08:52:24Z</time>
      </trkpt>
      <trkpt lat="43.78852" lon="1.28559">
        <ele>96.27</ele>
        <time>2016-01-02T08:52:25Z</time>
      </trkpt>
      <trkpt lat="43.78851" lon="1.28563">
        <ele>96.75</ele>
        <time>2016-01-02T08:52:26Z</time>
      </trkpt>
      <trkpt lat="43.7885" lon="1.28566">
        <ele>96.75</ele>
        <time>2016-01-02T08:52:27Z</time>
      </trkpt>
      <trkpt lat="43.78849" lon="1.2857">
        <ele>96.75</ele>
        <time>2016-01-02T08:52:28Z</time>
      </trkpt>
      <trkpt lat="43.78849" lon="1.28575">
        <ele>96.75</ele>
        <time>2016-01-02T08:52:29Z</time>
      </trkpt>
      <trkpt lat="43.7885" lon="1.28579">
        <ele>97.23</ele>
        <time>2016-01-02T08:52:30Z</time>
      </trkpt>
      <trkpt lat="43.78851" lon="1.28583">
        <ele>97.23</ele>
        <time>2016-01-02T08:52:31Z</time>
      </trkpt>
      <trkpt lat="43.78852" lon="1.28588">
        <ele>97.23</ele>
        <time>2016-01-02T08:52:32Z</time>
      </trkpt>
      <trkpt lat="43.78853" lon="1.28593">
        <ele>97.23</ele>
        <time>2016-01-02T08:52:33Z</time>
      </trkpt>
      <trkpt lat="43.78853" lon="1.28597">
        <ele>97.23</ele>
        <time>2016-01-02T08:52:34Z</time>
      </trkpt>
      <trkpt lat="43.78854" lon="1.28602">
        <ele>97.23</ele>
        <time>2016-01-02T08:52:35Z</time>
      </trkpt>
      <trkpt lat="43.78855" lon="1.28607">
        <ele>97.23</ele>
        <time>2016-01-02T08:52:36Z</time>
      </trkpt>
      <trkpt lat="43.78856" lon="1.28611">
        <ele>96.75</ele>
        <time>2016-01-02T08:52:37Z</time>
      </trkpt>
      <trkpt lat="43.78858" lon="1.28616">
        <ele>96.27</ele>
        <time>2016-01-02T08:52:38Z</time>
      </trkpt>
      <trkpt lat="43.78859" lon="1.2862">
        <ele>96.27</ele>
        <time>2016-01-02T08:52:39Z</time>
      </trkpt>
      <trkpt lat="43.78861" lon="1.28624">
        <ele>96.27</ele>
        <time>2016-01-02T08:52:40Z</time>
      </trkpt>
      <trkpt lat="43.78862" lon="1.28628">
        <ele>95.79</ele>
        <time>2016-01-02T08:52:41Z</time>
      </trkpt>
      <trkpt lat="43.78864" lon="1.28631">
        <ele>95.79</ele>
        <time>2016-01-02T08:52:42Z</time>
      </trkpt>
      <trkpt lat="43.78866" lon="1.28633">
        <ele>95.79</ele>
        <time>2016-01-02T08:52:43Z</time>
      </trkpt>
      <trkpt lat="43.78868" lon="1.28635">
        <ele>95.79</ele>
        <time>2016-01-02T08:52:44Z</time>
      </trkpt>
      <trkpt lat="43.7887" lon="1.28638">
        <ele>95.79</ele>
        <time>2016-01-02T08:52:45Z</time>
      </trkpt>
      <trkpt lat="43.78872" lon="1.28641">
        <ele>96.27</ele>
        <time>2016-01-02T08:52:46Z</time>
      </trkpt>
      <trkpt lat="43.78873" lon="1.28644">
        <ele>96.27</ele>
        <time>2016-01-02T08:52:47Z</time>
      </trkpt>
      <trkpt lat="43.78874" lon="1.28648">
        <ele>96.27</ele>
        <time>2016-01-02T08:52:48Z</time>
      </trkpt>
      <trkpt lat="43.78874" lon="1.28652">
        <ele>96.75</ele>
        <time>2016-01-02T08:52:49Z</time>
      </trkpt>
      <trkpt lat="43.78873" lon="1.28656">
        <ele>96.75</ele>
        <time>2016-01-02T08:52:50Z</time>
      </trkpt>
      <trkpt lat="43.78872" lon="1.2866">
        <ele>96.75</ele>
        <time>2016-01-02T08:52:51Z</time>
      </trkpt>
      <trkpt lat="43.78871" lon="1.28665">
        <ele>96.75</ele>
        <time>2016-01-02T08:52:52Z</time>
      </trkpt>
      <trkpt lat="43.78869" lon="1.28669">
        <ele>96.27</ele>
        <time>2016-01-02T08:52:53Z</time>
      </trkpt>
      <trkpt lat="43.78868" lon="1.28673">
        <ele>96.27</ele>
        <time>2016-01-02T08:52:54Z</time>
      </trkpt>
      <trkpt lat="43.78866" lon="1.28677">
        <ele>96.27</ele>
        <time>2016-01-02T08:52:55Z</time>
      </trkpt>
      <trkpt lat="43.78864" lon="1.28681">
        <ele>95.79</ele>
        <time>2016-01-02T08:52:56Z</time>
      </trkpt>
      <trkpt lat="43.78863" lon="1.28684">
        <ele>95.79</ele>
        <time>2016-01-02T08:52:57Z</time>
      </trkpt>
      <trkpt lat="43.7886" lon="1.28686">
        <ele>95.31</ele>
        <time>2016-01-02T08:52:58Z</time>
      </trkpt>
      <trkpt lat="43.78858" lon="1.28688">
        <ele>95.31</ele>
        <time>2016-01-02T08:52:59Z</time>
      </trkpt>
      <trkpt lat="43.78855" lon="1.2869">
        <ele>94.83</ele>
        <time>2016-01-02T08:53:00Z</time>
      </trkpt>
      <trkpt lat="43.78852" lon="1.28692">
        <ele>94.83</ele>
        <time>2016-01-02T08:53:01Z</time>
      </trkpt>
      <trkpt lat="43.7885" lon="1.28694">
        <ele>94.83</ele>
        <time>2016-01-02T08:53:02Z</time>
      </trkpt>
      <trkpt lat="43.78846" lon="1.28696">
        <ele>94.83</ele>
        <time>2016-01-02T08:53:03Z</time>
      </trkpt>
      <trkpt lat="43.78843" lon="1.28697">
        <ele>94.83</ele>
        <time>2016-01-02T08:53:04Z</time>
      </trkpt>
      <trkpt lat="43.78841" lon="1.28699">
        <ele>94.83</ele>
        <time>2016-01-02T08:53:05Z</time>
      </trkpt>
      <trkpt lat="43.78838" lon="1.287">
        <ele>94.83</ele>
        <time>2016-01-02T08:53:06Z</time>
      </trkpt>
      <trkpt lat="43.78836" lon="1.28702">
        <ele>94.83</ele>
        <time>2016-01-02T08:53:07Z</time>
      </trkpt>
      <trkpt lat="43.78834" lon="1.28705">
        <ele>94.83</ele>
        <time>2016-01-02T08:53:08Z</time>
      </trkpt>
      <trkpt lat="43.78832" lon="1.28708">
        <ele>94.83</ele>
        <time>2016-01-02T08:53:09Z</time>
      </trkpt>
      <trkpt lat="43.78831" lon="1.28712">
        <ele>95.31</ele>
        <time>2016-01-02T08:53:10Z</time>
      </trkpt>
      <trkpt lat="43.78829" lon="1.28716">
        <ele>95.31</ele>
        <time>2016-01-02T08:53:11Z</time>
      </trkpt>
      <trkpt lat="43.78828" lon="1.28719">
        <ele>95.31</ele>
        <time>2016-01-02T08:53:12Z</time>
      </trkpt>
      <trkpt lat="43.78826" lon="1.28723">
        <ele>95.79</ele>
        <time>2016-01-02T08:53:13Z</time>
      </trkpt>
      <trkpt lat="43.78824" lon="1.28726">
        <ele>95.79</ele>
        <time>2016-01-02T08:53:14Z</time>
      </trkpt>
      <trkpt lat="43.78822" lon="1.28729">
        <ele>95.79</ele>
        <time>2016-01-02T08:53:15Z</time>
      </trkpt>
      <trkpt lat="43.78819" lon="1.2873">
        <ele>95.31</ele>
        <time>2016-01-02T08:53:16Z</time>
      </trkpt>
      <trkpt lat="43.78817" lon="1.28732">
        <ele>95.31</ele>
        <time>2016-01-02T08:53:17Z</time>
      </trkpt>
      <trkpt lat="43.78814" lon="1.28732">
        <ele>95.31</ele>
        <time>2016-01-02T08:53:18Z</time>
      </trkpt>
      <trkpt lat="43.78811" lon="1.28733">
        <ele>95.31</ele>
        <time>2016-01-02T08:53:19Z</time>
      </trkpt>
      <trkpt lat="43.78809" lon="1.28733">
        <ele>95.31</ele>
        <time>2016-01-02T08:53:20Z</time>
      </trkpt>
      <trkpt lat="43.78806" lon="1.28732">
        <ele>95.31</ele>
        <time>2016-01-02T08:53:21Z</time>
      </trkpt>
      <trkpt lat="43.78804" lon="1.28731">
        <ele>95.31</ele>
        <time>2016-01-02T08:53:22Z</time>
      </trkpt>
      <trkpt lat="43.78802" lon="1.2873">
        <ele>95.31</ele>
        <time>2016-01-02T08:53:23Z</time>
      </trkpt>
      <trkpt lat="43.78799" lon="1.28728">
        <ele>95.79</ele>
        <time>2016-01-02T08:53:24Z</time>
      </trkpt>
      <trkpt lat="43.78797" lon="1.28726">
        <ele>95.79</ele>
        <time>2016-01-02T08:53:25Z</time>
      </trkpt>
      <trkpt lat="43.78794" lon="1.28724">
        <ele>95.79</ele>
        <time>2016-01-02T08:53:26Z</time>
      </trkpt>
      <trkpt lat="43.78792" lon="1.28722">
        <ele>96.27</ele>
        <time>2016-01-02T08:53:27Z</time>
      </trkpt>
      <trkpt lat="43.78791" lon="1.28722">
        <ele>96.75</ele>
        <time>2016-01-02T08:53:28Z</time>
      </trkpt>
      <trkpt lat="43.78789" lon="1.28724">
        <ele>96.27</ele>
        <time>2016-01-02T08:53:29Z</time>
      </trkpt>
      <trkpt lat="43.78788" lon="1.28726">
        <ele>96.27</ele>
        <time>2016-01-02T08:53:30Z</time>
      </trkpt>
      <trkpt lat="43.78787" lon="1.28727">
        <ele>96.27</ele>
        <time>2016-01-02T08:53:31Z</time>
      </trkpt>
      <trkpt lat="43.78785" lon="1.28728">
        <ele>96.27</ele>
        <time>2016-01-02T08:53:32Z</time>
      </trkpt>
      <trkpt lat="43.78783" lon="1.2873">
        <ele>96.27</ele>
        <time>2016-01-02T08:53:33Z</time>
      </trkpt>
      <trkpt lat="43.78781" lon="1.28732">
        <ele>96.27</ele>
        <time>2016-01-02T08:53:34Z</time>
      </trkpt>
      <trkpt lat="43.7878" lon="1.28734">
        <ele>96.27</ele>
        <time>2016-01-02T08:53:35Z</time>
      </trkpt>
      <trkpt lat="43.78778" lon="1.28737">
        <ele>96.75</ele>
        <time>2016-01-02T08:53:36Z</time>
      </trkpt>
      <trkpt lat="43.78776" lon="1.28739">
        <ele>96.75</ele>
        <time>2016-01-02T08:53:37Z</time>
      </trkpt>
      <trkpt lat="43.78773" lon="1.28741">
        <ele>96.75</ele>
        <time>2016-01-02T08:53:38Z</time>
      </trkpt>
      <trkpt lat="43.7877" lon="1.28742">
        <ele>96.75</ele>
        <time>2016-01-02T08:53:39Z</time>
      </trkpt>
      <trkpt lat="43.78767" lon="1.28742">
        <ele>97.23</ele>
        <time>2016-01-02T08:53:40Z</time>
      </trkpt>
      <trkpt lat="43.78764" lon="1.28742">
        <ele>97.23</ele>
        <time>2016-01-02T08:53:41Z</time>
      </trkpt>
      <trkpt lat="43.78761" lon="1.28741">
        <ele>96.75</ele>
        <time>2016-01-02T08:53:42Z</time>
      </trkpt>
      <trkpt lat="43.78758" lon="1.28742">
        <ele>97.23</ele>
        <time>2016-01-02T08:53:43Z</time>
      </trkpt>
      <trkpt lat="43.78756" lon="1.2874">
        <ele>97.23</ele>
        <time>2016-01-02T08:53:44Z</time>
      </trkpt>
      <trkpt lat="43.78754" lon="1.28739">
        <ele>97.71</ele>
        <time>2016-01-02T08:53:45Z</time>
      </trkpt>
      <trkpt lat="43.78753" lon="1.28737">
        <ele>98.19</ele>
        <time>2016-01-02T08:53:46Z</time>
      </trkpt>
      <trkpt lat="43.7875" lon="1.28735">
        <ele>98.19</ele>
        <time>2016-01-02T08:53:47Z</time>
      </trkpt>
      <trkpt lat="43.78748" lon="1.28732">
        <ele>98.19</ele>
        <time>2016-01-02T08:53:48Z</time>
      </trkpt>
      <trkpt lat="43.78745" lon="1.2873">
        <ele>97.71</ele>
        <time>2016-01-02T08:53:49Z</time>
      </trkpt>
      <trkpt lat="43.78743" lon="1.28727">
        <ele>97.71</ele>
        <time>2016-01-02T08:53:50Z</time>
      </trkpt>
      <trkpt lat="43.78741" lon="1.28723">
        <ele>97.71</ele>
        <time>2016-01-02T08:53:51Z</time>
      </trkpt>
      <trkpt lat="43.7874" lon="1.2872">
        <ele>97.71</ele>
        <time>2016-01-02T08:53:52Z</time>
      </trkpt>
      <trkpt lat="43.78738" lon="1.28717">
        <ele>97.71</ele>
        <time>2016-01-02T08:53:53Z</time>
      </trkpt>
      <trkpt lat="43.78736" lon="1.28716">
        <ele>97.23</ele>
        <time>2016-01-02T08:53:54Z</time>
      </trkpt>
      <trkpt lat="43.78733" lon="1.28717">
        <ele>97.71</ele>
        <time>2016-01-02T08:53:55Z</time>
      </trkpt>
      <trkpt lat="43.78732" lon="1.28719">
        <ele>97.71</ele>
        <time>2016-01-02T08:53:56Z</time>
      </trkpt>
      <trkpt lat="43.78729" lon="1.2872">
        <ele>97.71</ele>
        <time>2016-01-02T08:53:57Z</time>
      </trkpt>
      <trkpt lat="43.78727" lon="1.28719">
        <ele>97.71</ele>
        <time>2016-01-02T08:53:58Z</time>
      </trkpt>
      <trkpt lat="43.78724" lon="1.28719">
        <ele>97.23</ele>
        <time>2016-01-02T08:53:59Z</time>
      </trkpt>
      <trkpt lat="43.78721" lon="1.28719">
        <ele>97.23</ele>
        <time>2016-01-02T08:54:00Z</time>
      </trkpt>
      <trkpt lat="43.78719" lon="1.28719">
        <ele>97.23</ele>
        <time>2016-01-02T08:54:01Z</time>
      </trkpt>
      <trkpt lat="43.78716" lon="1.2872">
        <ele>97.23</ele>
        <time>2016-01-02T08:54:02Z</time>
      </trkpt>
      <trkpt lat="43.78714" lon="1.2872">
        <ele>97.71</ele>
        <time>2016-01-02T08:54:03Z</time>
      </trkpt>
      <trkpt lat="43.78713" lon="1.2872">
        <ele>97.71</ele>
        <time>2016-01-02T08:54:04Z</time>
      </trkpt>
      <trkpt lat="43.78711" lon="1.2872">
        <ele>97.71</ele>
        <time>2016-01-02T08:54:05Z</time>
      </trkpt>
      <trkpt lat="43.78708" lon="1.28719">
        <ele>97.23</ele>
        <time>2016-01-02T08:54:06Z</time>
      </trkpt>
      <trkpt lat="43.78706" lon="1.28718">
        <ele>97.23</ele>
        <time>2016-01-02T08:54:07Z</time>
      </trkpt>
      <trkpt lat="43.78704" lon="1.28717">
        <ele>97.23</ele>
        <time>2016-01-02T08:54:08Z</time>
      </trkpt>
      <trkpt lat="43.78703" lon="1.28715">
        <ele>97.71</ele>
        <time>2016-01-02T08:54:09Z</time>
      </trkpt>
      <trkpt lat="43.78703" lon="1.28713">
        <ele>97.71</ele>
        <time>2016-01-02T08:54:10Z</time>
      </trkpt>
      <trkpt lat="43.78702" lon="1.28711">
        <ele>97.71</ele>
        <time>2016-01-02T08:54:11Z</time>
      </trkpt>
      <trkpt lat="43.78701" lon="1.2871">
        <ele>98.19</ele>
        <time>2016-01-02T08:54:12Z</time>
      </trkpt>
      <trkpt lat="43.78699" lon="1.28708">
        <ele>97.71</ele>
        <time>2016-01-02T08:54:13Z</time>
      </trkpt>
      <trkpt lat="43.78696" lon="1.28705">
        <ele>97.23</ele>
        <time>2016-01-02T08:54:14Z</time>
      </trkpt>
      <trkpt lat="43.78694" lon="1.28701">
        <ele>97.23</ele>
        <time>2016-01-02T08:54:15Z</time>
      </trkpt>
      <trkpt lat="43.78692" lon="1.28698">
        <ele>97.23</ele>
        <time>2016-01-02T08:54:16Z</time>
      </trkpt>
      <trkpt lat="43.78691" lon="1.28696">
        <ele>97.23</ele>
        <time>2016-01-02T08:54:17Z</time>
      </trkpt>
      <trkpt lat="43.78688" lon="1.28694">
        <ele>97.23</ele>
        <time>2016-01-02T08:54:18Z</time>
      </trkpt>
      <trkpt lat="43.78686" lon="1.28694">
        <ele>97.23</ele>
        <time>2016-01-02T08:54:19Z</time>
      </trkpt>
      <trkpt lat="43.78683" lon="1.28693">
        <ele>97.71</ele>
        <time>2016-01-02T08:54:20Z</time>
      </trkpt>
      <trkpt lat="43.78681" lon="1.28693">
        <ele>97.71</ele>
        <time>2016-01-02T08:54:21Z</time>
      </trkpt>
      <trkpt lat="43.78679" lon="1.28691">
        <ele>97.71</ele>
        <time>2016-01-02T08:54:22Z</time>
      </trkpt>
      <trkpt lat="43.78676" lon="1.28689">
        <ele>97.71</ele>
        <time>2016-01-02T08:54:23Z</time>
      </trkpt>
      <trkpt lat="43.78675" lon="1.28688">
        <ele>97.23</ele>
        <time>2016-01-02T08:54:24Z</time>
      </trkpt>
      <trkpt lat="43.78673" lon="1.28686">
        <ele>97.23</ele>
        <time>2016-01-02T08:54:25Z</time>
      </trkpt>
      <trkpt lat="43.78672" lon="1.28685">
        <ele>97.23</ele>
        <time>2016-01-02T08:54:26Z</time>
      </trkpt>
      <trkpt lat="43.78669" lon="1.28683">
        <ele>97.23</ele>
        <time>2016-01-02T08:54:27Z</time>
      </trkpt>
      <trkpt lat="43.78667" lon="1.28682">
        <ele>96.75</ele>
        <time>2016-01-02T08:54:28Z</time>
      </trkpt>
      <trkpt lat="43.78664" lon="1.28682">
        <ele>96.27</ele>
        <time>2016-01-02T08:54:29Z</time>
      </trkpt>
      <trkpt lat="43.78662" lon="1.28681">
        <ele>96.27</ele>
        <time>2016-01-02T08:54:30Z</time>
      </trkpt>
      <trkpt lat="43.78659" lon="1.2868">
        <ele>96.27</ele>
        <time>2016-01-02T08:54:31Z</time>
      </trkpt>
      <trkpt lat="43.78657" lon="1.2868">
        <ele>96.75</ele>
        <time>2016-01-02T08:54:32Z</time>
      </trkpt>
      <trkpt lat="43.78654" lon="1.2868">
        <ele>96.75</ele>
        <time>2016-01-02T08:54:33Z</time>
      </trkpt>
      <trkpt lat="43.78651" lon="1.28682">
        <ele>97.23</ele>
        <time>2016-01-02T08:54:34Z</time>
      </trkpt>
      <trkpt lat="43.7865" lon="1.28685">
        <ele>97.23</ele>
        <time>2016-01-02T08:54:35Z</time>
      </trkpt>
      <trkpt lat="43.78648" lon="1.28692">
        <ele>97.23</ele>
        <time>2016-01-02T08:54:36Z</time>
      </trkpt>
      <trkpt lat="43.78646" lon="1.28696">
        <ele>96.75</ele>
        <time>2016-01-02T08:54:37Z</time>
      </trkpt>
      <trkpt lat="43.78644" lon="1.28698">
        <ele>96.75</ele>
        <time>2016-01-02T08:54:38Z</time>
      </trkpt>
      <trkpt lat="43.78642" lon="1.287">
        <ele>96.75</ele>
        <time>2016-01-02T08:54:39Z</time>
      </trkpt>
      <trkpt lat="43.78639" lon="1.287">
        <ele>96.75</ele>
        <time>2016-01-02T08:54:40Z</time>
      </trkpt>
      <trkpt lat="43.78637" lon="1.287">
        <ele>96.75</ele>
        <time>2016-01-02T08:54:41Z</time>
      </trkpt>
      <trkpt lat="43.78634" lon="1.28699">
        <ele>96.75</ele>
        <time>2016-01-02T08:54:42Z</time>
      </trkpt>
      <trkpt lat="43.78631" lon="1.28698">
        <ele>96.75</ele>
        <time>2016-01-02T08:54:43Z</time>
      </trkpt>
      <trkpt lat="43.78628" lon="1.28697">
        <ele>96.75</ele>
        <time>2016-01-02T08:54:44Z</time>
      </trkpt>
      <trkpt lat="43.78625" lon="1.28695">
        <ele>97.23</ele>
        <time>2016-01-02T08:54:45Z</time>
      </trkpt>
      <trkpt lat="43.78622" lon="1.28695">
        <ele>97.71</ele>
        <time>2016-01-02T08:54:46Z</time>
      </trkpt>
      <trkpt lat="43.7862" lon="1.28694">
        <ele>97.71</ele>
        <time>2016-01-02T08:54:47Z</time>
      </trkpt>
      <trkpt lat="43.78617" lon="1.28692">
        <ele>97.23</ele>
        <time>2016-01-02T08:54:48Z</time>
      </trkpt>
      <trkpt lat="43.78614" lon="1.28691">
        <ele>97.23</ele>
        <time>2016-01-02T08:54:49Z</time>
      </trkpt>
      <trkpt lat="43.7861" lon="1.28689">
        <ele>96.75</ele>
        <time>2016-01-02T08:54:50Z</time>
      </trkpt>
      <trkpt lat="43.78607" lon="1.28688">
        <ele>96.75</ele>
        <time>2016-01-02T08:54:51Z</time>
      </trkpt>
      <trkpt lat="43.78604" lon="1.28688">
        <ele>96.27</ele>
        <time>2016-01-02T08:54:52Z</time>
      </trkpt>
      <trkpt lat="43.78601" lon="1.28687">
        <ele>96.27</ele>
        <time>2016-01-02T08:54:53Z</time>
      </trkpt>
      <trkpt lat="43.78597" lon="1.28687">
        <ele>96.27</ele>
        <time>2016-01-02T08:54:54Z</time>
      </trkpt>
      <trkpt lat="43.78594" lon="1.28686">
        <ele>96.27</ele>
        <time>2016-01-02T08:54:55Z</time>
      </trkpt>
      <trkpt lat="43.78591" lon="1.28686">
        <ele>96.27</ele>
        <time>2016-01-02T08:54:56Z</time>
      </trkpt>
      <trkpt lat="43.78588" lon="1.28686">
        <ele>96.27</ele>
        <time>2016-01-02T08:54:57Z</time>
      </trkpt>
      <trkpt lat="43.78585" lon="1.28686">
        <ele>96.75</ele>
        <time>2016-01-02T08:54:58Z</time>
      </trkpt>
      <trkpt lat="43.78582" lon="1.28685">
        <ele>96.27</ele>
        <time>2016-01-02T08:54:59Z</time>
      </trkpt>
      <trkpt lat="43.78579" lon="1.28685">
        <ele>96.27</ele>
        <time>2016-01-02T08:55:00Z</time>
      </trkpt>
      <trkpt lat="43.78576" lon="1.28686">
        <ele>96.27</ele>
        <time>2016-01-02T08:55:01Z</time>
      </trkpt>
      <trkpt lat="43.78572" lon="1.28686">
        <ele>96.27</ele>
        <time>2016-01-02T08:55:02Z</time>
      </trkpt>
      <trkpt lat="43.78568" lon="1.28686">
        <ele>95.79</ele>
        <time>2016-01-02T08:55:03Z</time>
      </trkpt>
      <trkpt lat="43.78565" lon="1.28686">
        <ele>95.79</ele>
        <time>2016-01-02T08:55:04Z</time>
      </trkpt>
      <trkpt lat="43.78561" lon="1.28686">
        <ele>95.79</ele>
        <time>2016-01-02T08:55:05Z</time>
      </trkpt>
      <trkpt lat="43.78558" lon="1.28686">
        <ele>95.79</ele>
        <time>2016-01-02T08:55:06Z</time>
      </trkpt>
      <trkpt lat="43.78554" lon="1.28685">
        <ele>95.79</ele>
        <time>2016-01-02T08:55:07Z</time>
      </trkpt>
      <trkpt lat="43.78551" lon="1.28685">
        <ele>95.79</ele>
        <time>2016-01-02T08:55:08Z</time>
      </trkpt>
      <trkpt lat="43.78547" lon="1.28684">
        <ele>96.27</ele>
        <time>2016-01-02T08:55:09Z</time>
      </trkpt>
      <trkpt lat="43.78544" lon="1.28684">
        <ele>96.75</ele>
        <time>2016-01-02T08:55:10Z</time>
      </trkpt>
      <trkpt lat="43.78541" lon="1.28684">
        <ele>96.75</ele>
        <time>2016-01-02T08:55:11Z</time>
      </trkpt>
      <trkpt lat="43.78538" lon="1.28684">
        <ele>96.75</ele>
        <time>2016-01-02T08:55:12Z</time>
      </trkpt>
      <trkpt lat="43.78535" lon="1.28684">
        <ele>96.27</ele>
        <time>2016-01-02T08:55:13Z</time>
      </trkpt>
      <trkpt lat="43.78532" lon="1.28684">
        <ele>96.27</ele>
        <time>2016-01-02T08:55:14Z</time>
      </trkpt>
      <trkpt lat="43.78528" lon="1.28684">
        <ele>96.27</ele>
        <time>2016-01-02T08:55:15Z</time>
      </trkpt>
      <trkpt lat="43.78525" lon="1.28685">
        <ele>96.27</ele>
        <time>2016-01-02T08:55:16Z</time>
      </trkpt>
      <trkpt lat="43.78522" lon="1.28685">
        <ele>96.27</ele>
        <time>2016-01-02T08:55:17Z</time>
      </trkpt>
      <trkpt lat="43.78519" lon="1.28686">
        <ele>96.27</ele>
        <time>2016-01-02T08:55:18Z</time>
      </trkpt>
      <trkpt lat="43.78516" lon="1.28686">
        <ele>96.75</ele>
        <time>2016-01-02T08:55:19Z</time>
      </trkpt>
      <trkpt lat="43.78513" lon="1.28686">
        <ele>96.75</ele>
        <time>2016-01-02T08:55:20Z</time>
      </trkpt>
      <trkpt lat="43.7851" lon="1.28687">
        <ele>96.75</ele>
        <time>2016-01-02T08:55:21Z</time>
      </trkpt>
      <trkpt lat="43.78507" lon="1.28687">
        <ele>96.75</ele>
        <time>2016-01-02T08:55:22Z</time>
      </trkpt>
      <trkpt lat="43.78504" lon="1.28688">
        <ele>96.75</ele>
        <time>2016-01-02T08:55:23Z</time>
      </trkpt>
      <trkpt lat="43.78502" lon="1.28688">
        <ele>97.23</ele>
        <time>2016-01-02T08:55:24Z</time>
      </trkpt>
      <trkpt lat="43.78499" lon="1.28689">
        <ele>97.23</ele>
        <time>2016-01-02T08:55:25Z</time>
      </trkpt>
      <trkpt lat="43.78496" lon="1.28689">
        <ele>96.75</ele>
        <time>2016-01-02T08:55:26Z</time>
      </trkpt>
      <trkpt lat="43.78493" lon="1.2869">
        <ele>96.75</ele>
        <time>2016-01-02T08:55:27Z</time>
      </trkpt>
      <trkpt lat="43.78491" lon="1.28691">
        <ele>96.75</ele>
        <time>2016-01-02T08:55:28Z</time>
      </trkpt>
      <trkpt lat="43.78488" lon="1.28692">
        <ele>96.75</ele>
        <time>2016-01-02T08:55:29Z</time>
      </trkpt>
      <trkpt lat="43.78485" lon="1.28692">
        <ele>96.75</ele>
        <time>2016-01-02T08:55:30Z</time>
      </trkpt>
      <trkpt lat="43.78482" lon="1.28693">
        <ele>96.75</ele>
        <time>2016-01-02T08:55:31Z</time>
      </trkpt>
      <trkpt lat="43.78479" lon="1.28693">
        <ele>96.75</ele>
        <time>2016-01-02T08:55:32Z</time>
      </trkpt>
      <trkpt lat="43.78476" lon="1.28693">
        <ele>96.75</ele>
        <time>2016-01-02T08:55:33Z</time>
      </trkpt>
      <trkpt lat="43.78473" lon="1.28693">
        <ele>96.75</ele>
        <time>2016-01-02T08:55:34Z</time>
      </trkpt>
      <trkpt lat="43.7847" lon="1.28693">
        <ele>97.23</ele>
        <time>2016-01-02T08:55:35Z</time>
      </trkpt>
      <trkpt lat="43.78467" lon="1.28694">
        <ele>97.23</ele>
        <time>2016-01-02T08:55:36Z</time>
      </trkpt>
      <trkpt lat="43.78465" lon="1.28695">
        <ele>97.23</ele>
        <time>2016-01-02T08:55:37Z</time>
      </trkpt>
      <trkpt lat="43.78462" lon="1.28696">
        <ele>96.75</ele>
        <time>2016-01-02T08:55:38Z</time>
      </trkpt>
      <trkpt lat="43.78459" lon="1.28696">
        <ele>96.75</ele>
        <time>2016-01-02T08:55:39Z</time>
      </trkpt>
      <trkpt lat="43.78456" lon="1.28697">
        <ele>96.75</ele>
        <time>2016-01-02T08:55:40Z</time>
      </trkpt>
      <trkpt lat="43.78453" lon="1.28697">
        <ele>96.27</ele>
        <time>2016-01-02T08:55:41Z</time>
      </trkpt>
      <trkpt lat="43.78451" lon="1.28698">
        <ele>96.27</ele>
        <time>2016-01-02T08:55:42Z</time>
      </trkpt>
      <trkpt lat="43.78448" lon="1.28699">
        <ele>96.27</ele>
        <time>2016-01-02T08:55:43Z</time>
      </trkpt>
      <trkpt lat="43.78445" lon="1.28698">
        <ele>96.75</ele>
        <time>2016-01-02T08:55:44Z</time>
      </trkpt>
      <trkpt lat="43.78442" lon="1.28699">
        <ele>96.75</ele>
        <time>2016-01-02T08:55:45Z</time>
      </trkpt>
      <trkpt lat="43.78439" lon="1.287">
        <ele>97.23</ele>
        <time>2016-01-02T08:55:46Z</time>
      </trkpt>
      <trkpt lat="43.78437" lon="1.287">
        <ele>97.23</ele>
        <time>2016-01-02T08:55:47Z</time>
      </trkpt>
      <trkpt lat="43.78434" lon="1.28701">
        <ele>97.23</ele>
        <time>2016-01-02T08:55:48Z</time>
      </trkpt>
      <trkpt lat="43.78431" lon="1.28702">
        <ele>96.75</ele>
        <time>2016-01-02T08:55:49Z</time>
      </trkpt>
      <trkpt lat="43.78428" lon="1.28702">
        <ele>96.75</ele>
        <time>2016-01-02T08:55:50Z</time>
      </trkpt>
      <trkpt lat="43.78424" lon="1.28703">
        <ele>96.27</ele>
        <time>2016-01-02T08:55:51Z</time>
      </trkpt>
      <trkpt lat="43.78421" lon="1.28704">
        <ele>96.75</ele>
        <time>2016-01-02T08:55:52Z</time>
      </trkpt>
      <trkpt lat="43.78419" lon="1.28705">
        <ele>96.75</ele>
        <time>2016-01-02T08:55:53Z</time>
      </trkpt>
      <trkpt lat="43.78416" lon="1.28706">
        <ele>96.75</ele>
        <time>2016-01-02T08:55:54Z</time>
      </trkpt>
      <trkpt lat="43.78413" lon="1.28707">
        <ele>96.75</ele>
        <time>2016-01-02T08:55:55Z</time>
      </trkpt>
      <trkpt lat="43.78411" lon="1.28708">
        <ele>97.23</ele>
        <time>2016-01-02T08:55:56Z</time>
      </trkpt>
      <trkpt lat="43.78408" lon="1.2871">
        <ele>97.23</ele>
        <time>2016-01-02T08:55:57Z</time>
      </trkpt>
      <trkpt lat="43.78406" lon="1.28711">
        <ele>97.23</ele>
        <time>2016-01-02T08:55:58Z</time>
      </trkpt>
      <trkpt lat="43.78403" lon="1.28713">
        <ele>97.23</ele>
        <time>2016-01-02T08:55:59Z</time>
      </trkpt>
      <trkpt lat="43.784" lon="1.28715">
        <ele>96.75</ele>
        <time>2016-01-02T08:56:00Z</time>
      </trkpt>
      <trkpt lat="43.78398" lon="1.28716">
        <ele>96.75</ele>
        <time>2016-01-02T08:56:01Z</time>
      </trkpt>
      <trkpt lat="43.78395" lon="1.28718">
        <ele>96.75</ele>
        <time>2016-01-02T08:56:02Z</time>
      </trkpt>
      <trkpt lat="43.78392" lon="1.28719">
        <ele>96.75</ele>
        <time>2016-01-02T08:56:03Z</time>
      </trkpt>
      <trkpt lat="43.7839" lon="1.28721">
        <ele>96.75</ele>
        <time>2016-01-02T08:56:04Z</time>
      </trkpt>
      <trkpt lat="43.78387" lon="1.28723">
        <ele>96.27</ele>
        <time>2016-01-02T08:56:05Z</time>
      </trkpt>
      <trkpt lat="43.78384" lon="1.28724">
        <ele>96.27</ele>
        <time>2016-01-02T08:56:06Z</time>
      </trkpt>
      <trkpt lat="43.78382" lon="1.28727">
        <ele>96.27</ele>
        <time>2016-01-02T08:56:07Z</time>
      </trkpt>
      <trkpt lat="43.7838" lon="1.28729">
        <ele>96.27</ele>
        <time>2016-01-02T08:56:08Z</time>
      </trkpt>
      <trkpt lat="43.78377" lon="1.28732">
        <ele>96.27</ele>
        <time>2016-01-02T08:56:09Z</time>
      </trkpt>
      <trkpt lat="43.78374" lon="1.28734">
        <ele>95.79</ele>
        <time>2016-01-02T08:56:10Z</time>
      </trkpt>
      <trkpt lat="43.78371" lon="1.28736">
        <ele>95.79</ele>
        <time>2016-01-02T08:56:11Z</time>
      </trkpt>
      <trkpt lat="43.78368" lon="1.28738">
        <ele>95.79</ele>
        <time>2016-01-02T08:56:12Z</time>
      </trkpt>
      <trkpt lat="43.78365" lon="1.2874">
        <ele>95.79</ele>
        <time>2016-01-02T08:56:13Z</time>
      </trkpt>
      <trkpt lat="43.78362" lon="1.28742">
        <ele>96.27</ele>
        <time>2016-01-02T08:56:14Z</time>
      </trkpt>
      <trkpt lat="43.78359" lon="1.28744">
        <ele>96.27</ele>
        <time>2016-01-02T08:56:15Z</time>
      </trkpt>
      <trkpt lat="43.78356" lon="1.28746">
        <ele>96.75</ele>
        <time>2016-01-02T08:56:16Z</time>
      </trkpt>
      <trkpt lat="43.78353" lon="1.28748">
        <ele>96.75</ele>
        <time>2016-01-02T08:56:17Z</time>
      </trkpt>
      <trkpt lat="43.7835" lon="1.2875">
        <ele>96.27</ele>
        <time>2016-01-02T08:56:18Z</time>
      </trkpt>
      <trkpt lat="43.78347" lon="1.28752">
        <ele>96.27</ele>
        <time>2016-01-02T08:56:19Z</time>
      </trkpt>
      <trkpt lat="43.78345" lon="1.28754">
        <ele>96.27</ele>
        <time>2016-01-02T08:56:20Z</time>
      </trkpt>
      <trkpt lat="43.78342" lon="1.28756">
        <ele>96.27</ele>
        <time>2016-01-02T08:56:21Z</time>
      </trkpt>
      <trkpt lat="43.78339" lon="1.28757">
        <ele>96.75</ele>
        <time>2016-01-02T08:56:22Z</time>
      </trkpt>
      <trkpt lat="43.78336" lon="1.28759">
        <ele>96.75</ele>
        <time>2016-01-02T08:56:23Z</time>
      </trkpt>
      <trkpt lat="43.78333" lon="1.28761">
        <ele>96.75</ele>
        <time>2016-01-02T08:56:24Z</time>
      </trkpt>
      <trkpt lat="43.7833" lon="1.28763">
        <ele>96.27</ele>
        <time>2016-01-02T08:56:25Z</time>
      </trkpt>
      <trkpt lat="43.78327" lon="1.28765">
        <ele>96.27</ele>
        <time>2016-01-02T08:56:26Z</time>
      </trkpt>
      <trkpt lat="43.78324" lon="1.28767">
        <ele>95.79</ele>
        <time>2016-01-02T08:56:27Z</time>
      </trkpt>
      <trkpt lat="43.78321" lon="1.28769">
        <ele>95.79</ele>
        <time>2016-01-02T08:56:28Z</time>
      </trkpt>
      <trkpt lat="43.78318" lon="1.28771">
        <ele>95.79</ele>
        <time>2016-01-02T08:56:29Z</time>
      </trkpt>
      <trkpt lat="43.78316" lon="1.28773">
        <ele>96.27</ele>
        <time>2016-01-02T08:56:30Z</time>
      </trkpt>
      <trkpt lat="43.78313" lon="1.28775">
        <ele>96.27</ele>
        <time>2016-01-02T08:56:31Z</time>
      </trkpt>
      <trkpt lat="43.7831" lon="1.28778">
        <ele>96.27</ele>
        <time>2016-01-02T08:56:32Z</time>
      </trkpt>
      <trkpt lat="43.78308" lon="1.28782">
        <ele>96.27</ele>
        <time>2016-01-02T08:56:33Z</time>
      </trkpt>
      <trkpt lat="43.78305" lon="1.28784">
        <ele>96.27</ele>
        <time>2016-01-02T08:56:34Z</time>
      </trkpt>
      <trkpt lat="43.78302" lon="1.28787">
        <ele>96.27</ele>
        <time>2016-01-02T08:56:35Z</time>
      </trkpt>
      <trkpt lat="43.783" lon="1.2879">
        <ele>95.79</ele>
        <time>2016-01-02T08:56:36Z</time>
      </trkpt>
      <trkpt lat="43.78297" lon="1.28793">
        <ele>95.79</ele>
        <time>2016-01-02T08:56:37Z</time>
      </trkpt>
      <trkpt lat="43.78295" lon="1.28795">
        <ele>95.79</ele>
        <time>2016-01-02T08:56:38Z</time>
      </trkpt>
      <trkpt lat="43.78292" lon="1.28798">
        <ele>95.79</ele>
        <time>2016-01-02T08:56:39Z</time>
      </trkpt>
      <trkpt lat="43.7829" lon="1.288">
        <ele>95.79</ele>
        <time>2016-01-02T08:56:40Z</time>
      </trkpt>
      <trkpt lat="43.78287" lon="1.28802">
        <ele>95.79</ele>
        <time>2016-01-02T08:56:41Z</time>
      </trkpt>
      <trkpt lat="43.78284" lon="1.28805">
        <ele>96.27</ele>
        <time>2016-01-02T08:56:42Z</time>
      </trkpt>
      <trkpt lat="43.78281" lon="1.28808">
        <ele>96.27</ele>
        <time>2016-01-02T08:56:43Z</time>
      </trkpt>
      <trkpt lat="43.78278" lon="1.28811">
        <ele>96.75</ele>
        <time>2016-01-02T08:56:44Z</time>
      </trkpt>
      <trkpt lat="43.78276" lon="1.28814">
        <ele>96.75</ele>
        <time>2016-01-02T08:56:45Z</time>
      </trkpt>
      <trkpt lat="43.78273" lon="1.28816">
        <ele>96.75</ele>
        <time>2016-01-02T08:56:46Z</time>
      </trkpt>
      <trkpt lat="43.78271" lon="1.28819">
        <ele>96.27</ele>
        <time>2016-01-02T08:56:47Z</time>
      </trkpt>
      <trkpt lat="43.78268" lon="1.28821">
        <ele>96.27</ele>
        <time>2016-01-02T08:56:48Z</time>
      </trkpt>
      <trkpt lat="43.78266" lon="1.28825">
        <ele>95.79</ele>
        <time>2016-01-02T08:56:49Z</time>
      </trkpt>
      <trkpt lat="43.78263" lon="1.28828">
        <ele>95.79</ele>
        <time>2016-01-02T08:56:50Z</time>
      </trkpt>
      <trkpt lat="43.7826" lon="1.28831">
        <ele>95.79</ele>
        <time>2016-01-02T08:56:51Z</time>
      </trkpt>
      <trkpt lat="43.78258" lon="1.28834">
        <ele>95.79</ele>
        <time>2016-01-02T08:56:52Z</time>
      </trkpt>
      <trkpt lat="43.78255" lon="1.28838">
        <ele>96.27</ele>
        <time>2016-01-02T08:56:53Z</time>
      </trkpt>
      <trkpt lat="43.78253" lon="1.2884">
        <ele>96.27</ele>
        <time>2016-01-02T08:56:54Z</time>
      </trkpt>
      <trkpt lat="43.78251" lon="1.28843">
        <ele>96.75</ele>
        <time>2016-01-02T08:56:55Z</time>
      </trkpt>
      <trkpt lat="43.78248" lon="1.28845">
        <ele>96.27</ele>
        <time>2016-01-02T08:56:56Z</time>
      </trkpt>
      <trkpt lat="43.78246" lon="1.28848">
        <ele>96.27</ele>
        <time>2016-01-02T08:56:57Z</time>
      </trkpt>
      <trkpt lat="43.78243" lon="1.28851">
        <ele>95.79</ele>
        <time>2016-01-02T08:56:58Z</time>
      </trkpt>
      <trkpt lat="43.78241" lon="1.28854">
        <ele>95.79</ele>
        <time>2016-01-02T08:56:59Z</time>
      </trkpt>
      <trkpt lat="43.78238" lon="1.28858">
        <ele>96.27</ele>
        <time>2016-01-02T08:57:00Z</time>
      </trkpt>
      <trkpt lat="43.78235" lon="1.28861">
        <ele>96.27</ele>
        <time>2016-01-02T08:57:01Z</time>
      </trkpt>
      <trkpt lat="43.78232" lon="1.28864">
        <ele>96.27</ele>
        <time>2016-01-02T08:57:02Z</time>
      </trkpt>
      <trkpt lat="43.7823" lon="1.28867">
        <ele>96.27</ele>
        <time>2016-01-02T08:57:03Z</time>
      </trkpt>
      <trkpt lat="43.78227" lon="1.2887">
        <ele>96.27</ele>
        <time>2016-01-02T08:57:04Z</time>
      </trkpt>
      <trkpt lat="43.78225" lon="1.28874">
        <ele>96.27</ele>
        <time>2016-01-02T08:57:05Z</time>
      </trkpt>
      <trkpt lat="43.78222" lon="1.28877">
        <ele>96.27</ele>
        <time>2016-01-02T08:57:06Z</time>
      </trkpt>
      <trkpt lat="43.7822" lon="1.2888">
        <ele>95.79</ele>
        <time>2016-01-02T08:57:07Z</time>
      </trkpt>
      <trkpt lat="43.78217" lon="1.28883">
        <ele>95.79</ele>
        <time>2016-01-02T08:57:08Z</time>
      </trkpt>
      <trkpt lat="43.78215" lon="1.28887">
        <ele>96.27</ele>
        <time>2016-01-02T08:57:09Z</time>
      </trkpt>
      <trkpt lat="43.78213" lon="1.2889">
        <ele>96.27</ele>
        <time>2016-01-02T08:57:10Z</time>
      </trkpt>
      <trkpt lat="43.7821" lon="1.28893">
        <ele>96.27</ele>
        <time>2016-01-02T08:57:11Z</time>
      </trkpt>
      <trkpt lat="43.78208" lon="1.28896">
        <ele>96.75</ele>
        <time>2016-01-02T08:57:12Z</time>
      </trkpt>
      <trkpt lat="43.78206" lon="1.28899">
        <ele>96.75</ele>
        <time>2016-01-02T08:57:13Z</time>
      </trkpt>
      <trkpt lat="43.78204" lon="1.28902">
        <ele>96.75</ele>
        <time>2016-01-02T08:57:14Z</time>
      </trkpt>
      <trkpt lat="43.78201" lon="1.28905">
        <ele>96.75</ele>
        <time>2016-01-02T08:57:15Z</time>
      </trkpt>
      <trkpt lat="43.78199" lon="1.28908">
        <ele>96.27</ele>
        <time>2016-01-02T08:57:16Z</time>
      </trkpt>
      <trkpt lat="43.78197" lon="1.28911">
        <ele>96.27</ele>
        <time>2016-01-02T08:57:17Z</time>
      </trkpt>
      <trkpt lat="43.78195" lon="1.28914">
        <ele>96.27</ele>
        <time>2016-01-02T08:57:18Z</time>
      </trkpt>
      <trkpt lat="43.78192" lon="1.28917">
        <ele>96.75</ele>
        <time>2016-01-02T08:57:19Z</time>
      </trkpt>
      <trkpt lat="43.7819" lon="1.2892">
        <ele>96.75</ele>
        <time>2016-01-02T08:57:20Z</time>
      </trkpt>
      <trkpt lat="43.78187" lon="1.28923">
        <ele>97.23</ele>
        <time>2016-01-02T08:57:21Z</time>
      </trkpt>
      <trkpt lat="43.78185" lon="1.28926">
        <ele>97.23</ele>
        <time>2016-01-02T08:57:22Z</time>
      </trkpt>
      <trkpt lat="43.78183" lon="1.28929">
        <ele>97.23</ele>
        <time>2016-01-02T08:57:23Z</time>
      </trkpt>
      <trkpt lat="43.7818" lon="1.28931">
        <ele>97.23</ele>
        <time>2016-01-02T08:57:24Z</time>
      </trkpt>
      <trkpt lat="43.78178" lon="1.28934">
        <ele>96.75</ele>
        <time>2016-01-02T08:57:25Z</time>
      </trkpt>
      <trkpt lat="43.78176" lon="1.28938">
        <ele>96.75</ele>
        <time>2016-01-02T08:57:26Z</time>
      </trkpt>
      <trkpt lat="43.78174" lon="1.28941">
        <ele>96.75</ele>
        <time>2016-01-02T08:57:27Z</time>
      </trkpt>
      <trkpt lat="43.78172" lon="1.28944">
        <ele>96.75</ele>
        <time>2016-01-02T08:57:28Z</time>
      </trkpt>
      <trkpt lat="43.7817" lon="1.28947">
        <ele>96.75</ele>
        <time>2016-01-02T08:57:29Z</time>
      </trkpt>
      <trkpt lat="43.78168" lon="1.2895">
        <ele>97.23</ele>
        <time>2016-01-02T08:57:30Z</time>
      </trkpt>
      <trkpt lat="43.78166" lon="1.28953">
        <ele>97.23</ele>
        <time>2016-01-02T08:57:31Z</time>
      </trkpt>
      <trkpt lat="43.78164" lon="1.28956">
        <ele>97.23</ele>
        <time>2016-01-02T08:57:32Z</time>
      </trkpt>
      <trkpt lat="43.78162" lon="1.28959">
        <ele>97.23</ele>
        <time>2016-01-02T08:57:33Z</time>
      </trkpt>
      <trkpt lat="43.78159" lon="1.28962">
        <ele>96.75</ele>
        <time>2016-01-02T08:57:34Z</time>
      </trkpt>
      <trkpt lat="43.78157" lon="1.28965">
        <ele>96.75</ele>
        <time>2016-01-02T08:57:35Z</time>
      </trkpt>
      <trkpt lat="43.78155" lon="1.28968">
        <ele>96.75</ele>
        <time>2016-01-02T08:57:36Z</time>
      </trkpt>
      <trkpt lat="43.78153" lon="1.28971">
        <ele>96.75</ele>
        <time>2016-01-02T08:57:37Z</time>
      </trkpt>
      <trkpt lat="43.78151" lon="1.28974">
        <ele>96.75</ele>
        <time>2016-01-02T08:57:38Z</time>
      </trkpt>
      <trkpt lat="43.78149" lon="1.28977">
        <ele>96.75</ele>
        <time>2016-01-02T08:57:39Z</time>
      </trkpt>
      <trkpt lat="43.78147" lon="1.28981">
        <ele>97.23</ele>
        <time>2016-01-02T08:57:40Z</time>
      </trkpt>
      <trkpt lat="43.78145" lon="1.28985">
        <ele>97.23</ele>
        <time>2016-01-02T08:57:41Z</time>
      </trkpt>
      <trkpt lat="43.78143" lon="1.28988">
        <ele>97.23</ele>
        <time>2016-01-02T08:57:42Z</time>
      </trkpt>
      <trkpt lat="43.78141" lon="1.28991">
        <ele>97.23</ele>
        <time>2016-01-02T08:57:43Z</time>
      </trkpt>
      <trkpt lat="43.78139" lon="1.28995">
        <ele>97.23</ele>
        <time>2016-01-02T08:57:44Z</time>
      </trkpt>
      <trkpt lat="43.78137" lon="1.28998">
        <ele>96.75</ele>
        <time>2016-01-02T08:57:45Z</time>
      </trkpt>
      <trkpt lat="43.78135" lon="1.29002">
        <ele>97.23</ele>
        <time>2016-01-02T08:57:46Z</time>
      </trkpt>
      <trkpt lat="43.78133" lon="1.29006">
        <ele>97.23</ele>
        <time>2016-01-02T08:57:47Z</time>
      </trkpt>
      <trkpt lat="43.78131" lon="1.2901">
        <ele>97.23</ele>
        <time>2016-01-02T08:57:48Z</time>
      </trkpt>
      <trkpt lat="43.78128" lon="1.29014">
        <ele>97.71</ele>
        <time>2016-01-02T08:57:49Z</time>
      </trkpt>
      <trkpt lat="43.78126" lon="1.29017">
        <ele>97.71</ele>
        <time>2016-01-02T08:57:50Z</time>
      </trkpt>
      <trkpt lat="43.78124" lon="1.29021">
        <ele>97.23</ele>
        <time>2016-01-02T08:57:51Z</time>
      </trkpt>
      <trkpt lat="43.78122" lon="1.29024">
        <ele>97.23</ele>
        <time>2016-01-02T08:57:52Z</time>
      </trkpt>
      <trkpt lat="43.78121" lon="1.29027">
        <ele>97.23</ele>
        <time>2016-01-02T08:57:53Z</time>
      </trkpt>
      <trkpt lat="43.78119" lon="1.2903">
        <ele>97.23</ele>
        <time>2016-01-02T08:57:54Z</time>
      </trkpt>
      <trkpt lat="43.78117" lon="1.29034">
        <ele>97.23</ele>
        <time>2016-01-02T08:57:55Z</time>
      </trkpt>
      <trkpt lat="43.78115" lon="1.29037">
        <ele>97.23</ele>
        <time>2016-01-02T08:57:56Z</time>
      </trkpt>
      <trkpt lat="43.78113" lon="1.2904">
        <ele>97.71</ele>
        <time>2016-01-02T08:57:57Z</time>
      </trkpt>
      <trkpt lat="43.78111" lon="1.29043">
        <ele>98.19</ele>
        <time>2016-01-02T08:57:58Z</time>
      </trkpt>
      <trkpt lat="43.78108" lon="1.29046">
        <ele>98.19</ele>
        <time>2016-01-02T08:57:59Z</time>
      </trkpt>
      <trkpt lat="43.78107" lon="1.2905">
        <ele>97.71</ele>
        <time>2016-01-02T08:58:00Z</time>
      </trkpt>
      <trkpt lat="43.78105" lon="1.29054">
        <ele>97.71</ele>
        <time>2016-01-02T08:58:01Z</time>
      </trkpt>
      <trkpt lat="43.78103" lon="1.29058">
        <ele>97.23</ele>
        <time>2016-01-02T08:58:02Z</time>
      </trkpt>
      <trkpt lat="43.78102" lon="1.29062">
        <ele>97.23</ele>
        <time>2016-01-02T08:58:03Z</time>
      </trkpt>
      <trkpt lat="43.781" lon="1.29066">
        <ele>97.23</ele>
        <time>2016-01-02T08:58:04Z</time>
      </trkpt>
      <trkpt lat="43.78098" lon="1.29069">
        <ele>97.23</ele>
        <time>2016-01-02T08:58:05Z</time>
      </trkpt>
      <trkpt lat="43.78096" lon="1.29073">
        <ele>97.23</ele>
        <time>2016-01-02T08:58:06Z</time>
      </trkpt>
      <trkpt lat="43.78094" lon="1.29076">
        <ele>97.71</ele>
        <time>2016-01-02T08:58:07Z</time>
      </trkpt>
      <trkpt lat="43.78092" lon="1.2908">
        <ele>97.71</ele>
        <time>2016-01-02T08:58:08Z</time>
      </trkpt>
      <trkpt lat="43.78091" lon="1.29083">
        <ele>97.71</ele>
        <time>2016-01-02T08:58:09Z</time>
      </trkpt>
      <trkpt lat="43.78089" lon="1.29087">
        <ele>97.23</ele>
        <time>2016-01-02T08:58:10Z</time>
      </trkpt>
      <trkpt lat="43.78087" lon="1.2909">
        <ele>97.23</ele>
        <time>2016-01-02T08:58:11Z</time>
      </trkpt>
      <trkpt lat="43.78085" lon="1.29094">
        <ele>96.75</ele>
        <time>2016-01-02T08:58:12Z</time>
      </trkpt>
      <trkpt lat="43.78083" lon="1.29097">
        <ele>97.23</ele>
        <time>2016-01-02T08:58:13Z</time>
      </trkpt>
      <trkpt lat="43.78082" lon="1.291">
        <ele>97.23</ele>
        <time>2016-01-02T08:58:14Z</time>
      </trkpt>
      <trkpt lat="43.7808" lon="1.29104">
        <ele>97.23</ele>
        <time>2016-01-02T08:58:15Z</time>
      </trkpt>
      <trkpt lat="43.78078" lon="1.29106">
        <ele>97.23</ele>
        <time>2016-01-02T08:58:16Z</time>
      </trkpt>
      <trkpt lat="43.78077" lon="1.2911">
        <ele>97.71</ele>
        <time>2016-01-02T08:58:17Z</time>
      </trkpt>
      <trkpt lat="43.78075" lon="1.29114">
        <ele>97.23</ele>
        <time>2016-01-02T08:58:18Z</time>
      </trkpt>
      <trkpt lat="43.78074" lon="1.29117">
        <ele>97.23</ele>
        <time>2016-01-02T08:58:19Z</time>
      </trkpt>
      <trkpt lat="43.78072" lon="1.29121">
        <ele>97.23</ele>
        <time>2016-01-02T08:58:20Z</time>
      </trkpt>
      <trkpt lat="43.7807" lon="1.29125">
        <ele>97.23</ele>
        <time>2016-01-02T08:58:21Z</time>
      </trkpt>
      <trkpt lat="43.78069" lon="1.29129">
        <ele>97.23</ele>
        <time>2016-01-02T08:58:22Z</time>
      </trkpt>
      <trkpt lat="43.78068" lon="1.29132">
        <ele>97.23</ele>
        <time>2016-01-02T08:58:23Z</time>
      </trkpt>
      <trkpt lat="43.78066" lon="1.29136">
        <ele>97.71</ele>
        <time>2016-01-02T08:58:24Z</time>
      </trkpt>
      <trkpt lat="43.78064" lon="1.2914">
        <ele>97.71</ele>
        <time>2016-01-02T08:58:25Z</time>
      </trkpt>
      <trkpt lat="43.78063" lon="1.29143">
        <ele>97.71</ele>
        <time>2016-01-02T08:58:26Z</time>
      </trkpt>
      <trkpt lat="43.78061" lon="1.29146">
        <ele>97.71</ele>
        <time>2016-01-02T08:58:27Z</time>
      </trkpt>
      <trkpt lat="43.78055" lon="1.2916">
        <ele>97.71</ele>
        <time>2016-01-02T08:58:31Z</time>
      </trkpt>
      <trkpt lat="43.78054" lon="1.29163">
        <ele>97.23</ele>
        <time>2016-01-02T08:58:32Z</time>
      </trkpt>
      <trkpt lat="43.78052" lon="1.29167">
        <ele>97.71</ele>
        <time>2016-01-02T08:58:33Z</time>
      </trkpt>
      <trkpt lat="43.78051" lon="1.29171">
        <ele>97.71</ele>
        <time>2016-01-02T08:58:34Z</time>
      </trkpt>
      <trkpt lat="43.78049" lon="1.29175">
        <ele>97.71</ele>
        <time>2016-01-02T08:58:35Z</time>
      </trkpt>
      <trkpt lat="43.78048" lon="1.29178">
        <ele>97.71</ele>
        <time>2016-01-02T08:58:36Z</time>
      </trkpt>
      <trkpt lat="43.78046" lon="1.29181">
        <ele>97.23</ele>
        <time>2016-01-02T08:58:37Z</time>
      </trkpt>
      <trkpt lat="43.78045" lon="1.29184">
        <ele>97.23</ele>
        <time>2016-01-02T08:58:38Z</time>
      </trkpt>
      <trkpt lat="43.78043" lon="1.29187">
        <ele>97.23</ele>
        <time>2016-01-02T08:58:39Z</time>
      </trkpt>
      <trkpt lat="43.78042" lon="1.29191">
        <ele>97.23</ele>
        <time>2016-01-02T08:58:40Z</time>
      </trkpt>
      <trkpt lat="43.7804" lon="1.29194">
        <ele>97.71</ele>
        <time>2016-01-02T08:58:41Z</time>
      </trkpt>
      <trkpt lat="43.78038" lon="1.29197">
        <ele>97.71</ele>
        <time>2016-01-02T08:58:42Z</time>
      </trkpt>
      <trkpt lat="43.78036" lon="1.29199">
        <ele>97.71</ele>
        <time>2016-01-02T08:58:43Z</time>
      </trkpt>
      <trkpt lat="43.78035" lon="1.29203">
        <ele>97.23</ele>
        <time>2016-01-02T08:58:44Z</time>
      </trkpt>
      <trkpt lat="43.78033" lon="1.29206">
        <ele>97.23</ele>
        <time>2016-01-02T08:58:45Z</time>
      </trkpt>
      <trkpt lat="43.78032" lon="1.29209">
        <ele>97.23</ele>
        <time>2016-01-02T08:58:46Z</time>
      </trkpt>
      <trkpt lat="43.7803" lon="1.29212">
        <ele>97.23</ele>
        <time>2016-01-02T08:58:47Z</time>
      </trkpt>
      <trkpt lat="43.78028" lon="1.29215">
        <ele>97.23</ele>
        <time>2016-01-02T08:58:48Z</time>
      </trkpt>
      <trkpt lat="43.78026" lon="1.29219">
        <ele>97.23</ele>
        <time>2016-01-02T08:58:49Z</time>
      </trkpt>
      <trkpt lat="43.78025" lon="1.29222">
        <ele>97.71</ele>
        <time>2016-01-02T08:58:50Z</time>
      </trkpt>
      <trkpt lat="43.78023" lon="1.29225">
        <ele>97.71</ele>
        <time>2016-01-02T08:58:51Z</time>
      </trkpt>
      <trkpt lat="43.78021" lon="1.29228">
        <ele>97.71</ele>
        <time>2016-01-02T08:58:52Z</time>
      </trkpt>
      <trkpt lat="43.7802" lon="1.29232">
        <ele>97.71</ele>
        <time>2016-01-02T08:58:53Z</time>
      </trkpt>
      <trkpt lat="43.78018" lon="1.29235">
        <ele>97.71</ele>
        <time>2016-01-02T08:58:54Z</time>
      </trkpt>
      <trkpt lat="43.78017" lon="1.29239">
        <ele>98.19</ele>
        <time>2016-01-02T08:58:55Z</time>
      </trkpt>
      <trkpt lat="43.78016" lon="1.29242">
        <ele>98.19</ele>
        <time>2016-01-02T08:58:56Z</time>
      </trkpt>
      <trkpt lat="43.78014" lon="1.29246">
        <ele>98.67</ele>
        <time>2016-01-02T08:58:57Z</time>
      </trkpt>
      <trkpt lat="43.78013" lon="1.29249">
        <ele>98.67</ele>
        <time>2016-01-02T08:58:58Z</time>
      </trkpt>
      <trkpt lat="43.78011" lon="1.29253">
        <ele>98.19</ele>
        <time>2016-01-02T08:58:59Z</time>
      </trkpt>
      <trkpt lat="43.78009" lon="1.29256">
        <ele>98.19</ele>
        <time>2016-01-02T08:59:00Z</time>
      </trkpt>
      <trkpt lat="43.78008" lon="1.29259">
        <ele>97.71</ele>
        <time>2016-01-02T08:59:01Z</time>
      </trkpt>
      <trkpt lat="43.78006" lon="1.29262">
        <ele>97.71</ele>
        <time>2016-01-02T08:59:02Z</time>
      </trkpt>
      <trkpt lat="43.78005" lon="1.29266">
        <ele>97.71</ele>
        <time>2016-01-02T08:59:03Z</time>
      </trkpt>
      <trkpt lat="43.78003" lon="1.29269">
        <ele>97.71</ele>
        <time>2016-01-02T08:59:04Z</time>
      </trkpt>
      <trkpt lat="43.78001" lon="1.29273">
        <ele>98.19</ele>
        <time>2016-01-02T08:59:05Z</time>
      </trkpt>
      <trkpt lat="43.77999" lon="1.29277">
        <ele>98.19</ele>
        <time>2016-01-02T08:59:06Z</time>
      </trkpt>
      <trkpt lat="43.77997" lon="1.2928">
        <ele>98.67</ele>
        <time>2016-01-02T08:59:07Z</time>
      </trkpt>
      <trkpt lat="43.77995" lon="1.29283">
        <ele>98.19</ele>
        <time>2016-01-02T08:59:08Z</time>
      </trkpt>
      <trkpt lat="43.77992" lon="1.29284">
        <ele>98.19</ele>
        <time>2016-01-02T08:59:09Z</time>
      </trkpt>
      <trkpt lat="43.77989" lon="1.29285">
        <ele>97.71</ele>
        <time>2016-01-02T08:59:10Z</time>
      </trkpt>
      <trkpt lat="43.77986" lon="1.29286">
        <ele>97.71</ele>
        <time>2016-01-02T08:59:11Z</time>
      </trkpt>
      <trkpt lat="43.77984" lon="1.29287">
        <ele>97.71</ele>
        <time>2016-01-02T08:59:12Z</time>
      </trkpt>
      <trkpt lat="43.77981" lon="1.29288">
        <ele>97.71</ele>
        <time>2016-01-02T08:59:13Z</time>
      </trkpt>
      <trkpt lat="43.77979" lon="1.29289">
        <ele>97.71</ele>
        <time>2016-01-02T08:59:14Z</time>
      </trkpt>
      <trkpt lat="43.77976" lon="1.2929">
        <ele>97.71</ele>
        <time>2016-01-02T08:59:15Z</time>
      </trkpt>
      <trkpt lat="43.77973" lon="1.2929">
        <ele>97.71</ele>
        <time>2016-01-02T08:59:16Z</time>
      </trkpt>
      <trkpt lat="43.77971" lon="1.29292">
        <ele>97.71</ele>
        <time>2016-01-02T08:59:17Z</time>
      </trkpt>
      <trkpt lat="43.77968" lon="1.29292">
        <ele>98.19</ele>
        <time>2016-01-02T08:59:18Z</time>
      </trkpt>
      <trkpt lat="43.77965" lon="1.29293">
        <ele>98.19</ele>
        <time>2016-01-02T08:59:19Z</time>
      </trkpt>
      <trkpt lat="43.77963" lon="1.29294">
        <ele>98.19</ele>
        <time>2016-01-02T08:59:20Z</time>
      </trkpt>
      <trkpt lat="43.7796" lon="1.29295">
        <ele>97.71</ele>
        <time>2016-01-02T08:59:21Z</time>
      </trkpt>
      <trkpt lat="43.77957" lon="1.29296">
        <ele>97.71</ele>
        <time>2016-01-02T08:59:22Z</time>
      </trkpt>
      <trkpt lat="43.77954" lon="1.29296">
        <ele>97.23</ele>
        <time>2016-01-02T08:59:23Z</time>
      </trkpt>
      <trkpt lat="43.77951" lon="1.29296">
        <ele>97.71</ele>
        <time>2016-01-02T08:59:24Z</time>
      </trkpt>
      <trkpt lat="43.77948" lon="1.29297">
        <ele>97.71</ele>
        <time>2016-01-02T08:59:25Z</time>
      </trkpt>
      <trkpt lat="43.77946" lon="1.29298">
        <ele>97.71</ele>
        <time>2016-01-02T08:59:26Z</time>
      </trkpt>
      <trkpt lat="43.77943" lon="1.293">
        <ele>97.71</ele>
        <time>2016-01-02T08:59:27Z</time>
      </trkpt>
      <trkpt lat="43.77941" lon="1.29301">
        <ele>98.19</ele>
        <time>2016-01-02T08:59:28Z</time>
      </trkpt>
      <trkpt lat="43.77938" lon="1.29303">
        <ele>98.19</ele>
        <time>2016-01-02T08:59:29Z</time>
      </trkpt>
      <trkpt lat="43.77936" lon="1.29307">
        <ele>98.19</ele>
        <time>2016-01-02T08:59:30Z</time>
      </trkpt>
      <trkpt lat="43.77934" lon="1.2931">
        <ele>98.19</ele>
        <time>2016-01-02T08:59:31Z</time>
      </trkpt>
      <trkpt lat="43.77934" lon="1.29313">
        <ele>97.71</ele>
        <time>2016-01-02T08:59:32Z</time>
      </trkpt>
      <trkpt lat="43.77934" lon="1.29315">
        <ele>97.23</ele>
        <time>2016-01-02T08:59:33Z</time>
      </trkpt>
      <trkpt lat="43.77934" lon="1.29318">
        <ele>96.75</ele>
        <time>2016-01-02T08:59:34Z</time>
      </trkpt>
      <trkpt lat="43.77935" lon="1.29322">
        <ele>95.79</ele>
        <time>2016-01-02T08:59:35Z</time>
      </trkpt>
      <trkpt lat="43.77935" lon="1.29327">
        <ele>95.79</ele>
        <time>2016-01-02T08:59:36Z</time>
      </trkpt>
      <trkpt lat="43.77936" lon="1.29331">
        <ele>95.79</ele>
        <time>2016-01-02T08:59:37Z</time>
      </trkpt>
      <trkpt lat="43.77937" lon="1.29335">
        <ele>95.79</ele>
        <time>2016-01-02T08:59:38Z</time>
      </trkpt>
      <trkpt lat="43.77937" lon="1.29339">
        <ele>96.27</ele>
        <time>2016-01-02T08:59:39Z</time>
      </trkpt>
      <trkpt lat="43.77936" lon="1.29345">
        <ele>96.27</ele>
        <time>2016-01-02T08:59:40Z</time>
      </trkpt>
      <trkpt lat="43.77936" lon="1.29349">
        <ele>96.75</ele>
        <time>2016-01-02T08:59:41Z</time>
      </trkpt>
      <trkpt lat="43.77935" lon="1.29353">
        <ele>96.27</ele>
        <time>2016-01-02T08:59:42Z</time>
      </trkpt>
      <trkpt lat="43.77933" lon="1.29357">
        <ele>96.27</ele>
        <time>2016-01-02T08:59:43Z</time>
      </trkpt>
      <trkpt lat="43.77932" lon="1.2936">
        <ele>95.79</ele>
        <time>2016-01-02T08:59:44Z</time>
      </trkpt>
      <trkpt lat="43.77931" lon="1.29364">
        <ele>95.79</ele>
        <time>2016-01-02T08:59:45Z</time>
      </trkpt>
      <trkpt lat="43.77929" lon="1.29368">
        <ele>95.79</ele>
        <time>2016-01-02T08:59:46Z</time>
      </trkpt>
      <trkpt lat="43.77928" lon="1.29371">
        <ele>95.79</ele>
        <time>2016-01-02T08:59:47Z</time>
      </trkpt>
      <trkpt lat="43.77927" lon="1.29375">
        <ele>95.79</ele>
        <time>2016-01-02T08:59:48Z</time>
      </trkpt>
      <trkpt lat="43.77927" lon="1.2938">
        <ele>95.79</ele>
        <time>2016-01-02T08:59:49Z</time>
      </trkpt>
      <trkpt lat="43.77926" lon="1.29384">
        <ele>95.79</ele>
        <time>2016-01-02T08:59:50Z</time>
      </trkpt>
      <trkpt lat="43.77926" lon="1.29389">
        <ele>96.27</ele>
        <time>2016-01-02T08:59:51Z</time>
      </trkpt>
      <trkpt lat="43.77926" lon="1.29393">
        <ele>96.27</ele>
        <time>2016-01-02T08:59:52Z</time>
      </trkpt>
      <trkpt lat="43.77926" lon="1.29397">
        <ele>96.75</ele>
        <time>2016-01-02T08:59:53Z</time>
      </trkpt>
      <trkpt lat="43.77925" lon="1.29401">
        <ele>96.75</ele>
        <time>2016-01-02T08:59:54Z</time>
      </trkpt>
      <trkpt lat="43.77925" lon="1.29405">
        <ele>96.75</ele>
        <time>2016-01-02T08:59:55Z</time>
      </trkpt>
      <trkpt lat="43.77924" lon="1.29408">
        <ele>96.27</ele>
        <time>2016-01-02T08:59:56Z</time>
      </trkpt>
      <trkpt lat="43.77923" lon="1.29413">
        <ele>96.27</ele>
        <time>2016-01-02T08:59:57Z</time>
      </trkpt>
      <trkpt lat="43.77923" lon="1.29417">
        <ele>95.79</ele>
        <time>2016-01-02T08:59:58Z</time>
      </trkpt>
      <trkpt lat="43.77923" lon="1.29421">
        <ele>95.79</ele>
        <time>2016-01-02T08:59:59Z</time>
      </trkpt>
      <trkpt lat="43.77924" lon="1.29426">
        <ele>95.79</ele>
        <time>2016-01-02T09:00:00Z</time>
      </trkpt>
      <trkpt lat="43.77924" lon="1.29429">
        <ele>95.79</ele>
        <time>2016-01-02T09:00:01Z</time>
      </trkpt>
      <trkpt lat="43.77924" lon="1.29433">
        <ele>96.27</ele>
        <time>2016-01-02T09:00:02Z</time>
      </trkpt>
      <trkpt lat="43.77924" lon="1.29437">
        <ele>96.27</ele>
        <time>2016-01-02T09:00:03Z</time>
      </trkpt>
      <trkpt lat="43.77924" lon="1.2944">
        <ele>96.27</ele>
        <time>2016-01-02T09:00:04Z</time>
      </trkpt>
      <trkpt lat="43.77925" lon="1.29443">
        <ele>95.79</ele>
        <time>2016-01-02T09:00:05Z</time>
      </trkpt>
      <trkpt lat="43.77926" lon="1.29447">
        <ele>95.79</ele>
        <time>2016-01-02T09:00:06Z</time>
      </trkpt>
      <trkpt lat="43.77927" lon="1.29451">
        <ele>95.79</ele>
        <time>2016-01-02T09:00:07Z</time>
      </trkpt>
      <trkpt lat="43.77927" lon="1.29455">
        <ele>95.79</ele>
        <time>2016-01-02T09:00:08Z</time>
      </trkpt>
      <trkpt lat="43.77927" lon="1.29459">
        <ele>95.31</ele>
        <time>2016-01-02T09:00:09Z</time>
      </trkpt>
      <trkpt lat="43.77927" lon="1.29462">
        <ele>95.31</ele>
        <time>2016-01-02T09:00:10Z</time>
      </trkpt>
      <trkpt lat="43.77927" lon="1.29465">
        <ele>94.83</ele>
        <time>2016-01-02T09:00:11Z</time>
      </trkpt>
      <trkpt lat="43.77926" lon="1.29468">
        <ele>94.83</ele>
        <time>2016-01-02T09:00:12Z</time>
      </trkpt>
      <trkpt lat="43.77926" lon="1.29472">
        <ele>94.83</ele>
        <time>2016-01-02T09:00:13Z</time>
      </trkpt>
      <trkpt lat="43.77925" lon="1.29476">
        <ele>94.83</ele>
        <time>2016-01-02T09:00:14Z</time>
      </trkpt>
      <trkpt lat="43.77925" lon="1.2948">
        <ele>94.83</ele>
        <time>2016-01-02T09:00:15Z</time>
      </trkpt>
      <trkpt lat="43.77925" lon="1.29484">
        <ele>94.83</ele>
        <time>2016-01-02T09:00:16Z</time>
      </trkpt>
      <trkpt lat="43.77925" lon="1.29489">
        <ele>94.83</ele>
        <time>2016-01-02T09:00:17Z</time>
      </trkpt>
      <trkpt lat="43.77923" lon="1.29493">
        <ele>95.31</ele>
        <time>2016-01-02T09:00:18Z</time>
      </trkpt>
      <trkpt lat="43.77922" lon="1.29496">
        <ele>95.79</ele>
        <time>2016-01-02T09:00:19Z</time>
      </trkpt>
      <trkpt lat="43.7792" lon="1.29499">
        <ele>96.27</ele>
        <time>2016-01-02T09:00:20Z</time>
      </trkpt>
      <trkpt lat="43.77919" lon="1.29502">
        <ele>96.75</ele>
        <time>2016-01-02T09:00:21Z</time>
      </trkpt>
      <trkpt lat="43.77918" lon="1.29507">
        <ele>96.75</ele>
        <time>2016-01-02T09:00:22Z</time>
      </trkpt>
      <trkpt lat="43.77916" lon="1.2951">
        <ele>96.27</ele>
        <time>2016-01-02T09:00:23Z</time>
      </trkpt>
      <trkpt lat="43.77915" lon="1.29514">
        <ele>96.27</ele>
        <time>2016-01-02T09:00:24Z</time>
      </trkpt>
      <trkpt lat="43.77914" lon="1.29517">
        <ele>96.75</ele>
        <time>2016-01-02T09:00:25Z</time>
      </trkpt>
      <trkpt lat="43.77913" lon="1.2952">
        <ele>96.75</ele>
        <time>2016-01-02T09:00:26Z</time>
      </trkpt>
      <trkpt lat="43.77913" lon="1.29523">
        <ele>97.23</ele>
        <time>2016-01-02T09:00:27Z</time>
      </trkpt>
      <trkpt lat="43.77914" lon="1.29525">
        <ele>97.23</ele>
        <time>2016-01-02T09:00:28Z</time>
      </trkpt>
      <trkpt lat="43.77915" lon="1.29529">
        <ele>96.75</ele>
        <time>2016-01-02T09:00:29Z</time>
      </trkpt>
      <trkpt lat="43.77916" lon="1.29533">
        <ele>96.27</ele>
        <time>2016-01-02T09:00:30Z</time>
      </trkpt>
      <trkpt lat="43.77917" lon="1.29537">
        <ele>96.27</ele>
        <time>2016-01-02T09:00:31Z</time>
      </trkpt>
      <trkpt lat="43.77918" lon="1.29541">
        <ele>96.27</ele>
        <time>2016-01-02T09:00:32Z</time>
      </trkpt>
      <trkpt lat="43.77918" lon="1.29545">
        <ele>95.79</ele>
        <time>2016-01-02T09:00:33Z</time>
      </trkpt>
      <trkpt lat="43.77918" lon="1.29548">
        <ele>95.79</ele>
        <time>2016-01-02T09:00:34Z</time>
      </trkpt>
      <trkpt lat="43.77918" lon="1.2955">
        <ele>95.79</ele>
        <time>2016-01-02T09:00:35Z</time>
      </trkpt>
      <trkpt lat="43.77917" lon="1.29553">
        <ele>95.79</ele>
        <time>2016-01-02T09:00:36Z</time>
      </trkpt>
      <trkpt lat="43.77916" lon="1.29557">
        <ele>95.79</ele>
        <time>2016-01-02T09:00:37Z</time>
      </trkpt>
      <trkpt lat="43.77916" lon="1.29561">
        <ele>96.27</ele>
        <time>2016-01-02T09:00:38Z</time>
      </trkpt>
      <trkpt lat="43.77916" lon="1.29564">
        <ele>96.27</ele>
        <time>2016-01-02T09:00:39Z</time>
      </trkpt>
      <trkpt lat="43.77916" lon="1.29567">
        <ele>96.27</ele>
        <time>2016-01-02T09:00:40Z</time>
      </trkpt>
      <trkpt lat="43.77915" lon="1.2957">
        <ele>96.75</ele>
        <time>2016-01-02T09:00:41Z</time>
      </trkpt>
      <trkpt lat="43.77914" lon="1.29573">
        <ele>96.75</ele>
        <time>2016-01-02T09:00:42Z</time>
      </trkpt>
      <trkpt lat="43.77913" lon="1.29575">
        <ele>96.75</ele>
        <time>2016-01-02T09:00:43Z</time>
      </trkpt>
      <trkpt lat="43.77911" lon="1.29577">
        <ele>96.75</ele>
        <time>2016-01-02T09:00:44Z</time>
      </trkpt>
      <trkpt lat="43.77909" lon="1.29579">
        <ele>97.23</ele>
        <time>2016-01-02T09:00:45Z</time>
      </trkpt>
      <trkpt lat="43.77908" lon="1.29582">
        <ele>97.23</ele>
        <time>2016-01-02T09:00:46Z</time>
      </trkpt>
      <trkpt lat="43.77906" lon="1.29585">
        <ele>97.23</ele>
        <time>2016-01-02T09:00:47Z</time>
      </trkpt>
      <trkpt lat="43.77904" lon="1.29588">
        <ele>97.71</ele>
        <time>2016-01-02T09:00:48Z</time>
      </trkpt>
      <trkpt lat="43.77902" lon="1.2959">
        <ele>97.71</ele>
        <time>2016-01-02T09:00:49Z</time>
      </trkpt>
      <trkpt lat="43.779" lon="1.29593">
        <ele>98.19</ele>
        <time>2016-01-02T09:00:50Z</time>
      </trkpt>
      <trkpt lat="43.77898" lon="1.29595">
        <ele>98.19</ele>
        <time>2016-01-02T09:00:51Z</time>
      </trkpt>
      <trkpt lat="43.77897" lon="1.29597">
        <ele>97.71</ele>
        <time>2016-01-02T09:00:52Z</time>
      </trkpt>
      <trkpt lat="43.77895" lon="1.296">
        <ele>97.71</ele>
        <time>2016-01-02T09:00:53Z</time>
      </trkpt>
      <trkpt lat="43.77893" lon="1.29602">
        <ele>97.23</ele>
        <time>2016-01-02T09:00:54Z</time>
      </trkpt>
      <trkpt lat="43.77891" lon="1.29604">
        <ele>97.23</ele>
        <time>2016-01-02T09:00:55Z</time>
      </trkpt>
      <trkpt lat="43.77889" lon="1.29607">
        <ele>97.23</ele>
        <time>2016-01-02T09:00:56Z</time>
      </trkpt>
      <trkpt lat="43.77887" lon="1.2961">
        <ele>97.23</ele>
        <time>2016-01-02T09:00:57Z</time>
      </trkpt>
      <trkpt lat="43.77885" lon="1.29614">
        <ele>97.23</ele>
        <time>2016-01-02T09:00:58Z</time>
      </trkpt>
      <trkpt lat="43.77884" lon="1.2962">
        <ele>97.23</ele>
        <time>2016-01-02T09:00:59Z</time>
      </trkpt>
      <trkpt lat="43.77882" lon="1.29624">
        <ele>97.71</ele>
        <time>2016-01-02T09:01:00Z</time>
      </trkpt>
      <trkpt lat="43.77879" lon="1.29626">
        <ele>97.71</ele>
        <time>2016-01-02T09:01:01Z</time>
      </trkpt>
      <trkpt lat="43.77877" lon="1.29627">
        <ele>98.19</ele>
        <time>2016-01-02T09:01:02Z</time>
      </trkpt>
      <trkpt lat="43.77874" lon="1.29626">
        <ele>98.19</ele>
        <time>2016-01-02T09:01:03Z</time>
      </trkpt>
      <trkpt lat="43.77871" lon="1.29624">
        <ele>98.19</ele>
        <time>2016-01-02T09:01:04Z</time>
      </trkpt>
      <trkpt lat="43.77868" lon="1.29623">
        <ele>98.19</ele>
        <time>2016-01-02T09:01:05Z</time>
      </trkpt>
      <trkpt lat="43.77865" lon="1.29622">
        <ele>98.19</ele>
        <time>2016-01-02T09:01:06Z</time>
      </trkpt>
      <trkpt lat="43.77862" lon="1.29621">
        <ele>97.71</ele>
        <time>2016-01-02T09:01:07Z</time>
      </trkpt>
      <trkpt lat="43.7786" lon="1.2962">
        <ele>97.71</ele>
        <time>2016-01-02T09:01:08Z</time>
      </trkpt>
      <trkpt lat="43.77857" lon="1.29618">
        <ele>97.71</ele>
        <time>2016-01-02T09:01:09Z</time>
      </trkpt>
      <trkpt lat="43.77854" lon="1.29616">
        <ele>97.71</ele>
        <time>2016-01-02T09:01:10Z</time>
      </trkpt>
      <trkpt lat="43.77851" lon="1.29614">
        <ele>97.71</ele>
        <time>2016-01-02T09:01:11Z</time>
      </trkpt>
      <trkpt lat="43.77848" lon="1.29613">
        <ele>97.71</ele>
        <time>2016-01-02T09:01:12Z</time>
      </trkpt>
      <trkpt lat="43.77846" lon="1.29611">
        <ele>98.19</ele>
        <time>2016-01-02T09:01:13Z</time>
      </trkpt>
      <trkpt lat="43.77843" lon="1.2961">
        <ele>98.19</ele>
        <time>2016-01-02T09:01:14Z</time>
      </trkpt>
      <trkpt lat="43.7784" lon="1.29608">
        <ele>98.19</ele>
        <time>2016-01-02T09:01:15Z</time>
      </trkpt>
      <trkpt lat="43.77838" lon="1.29606">
        <ele>98.19</ele>
        <time>2016-01-02T09:01:16Z</time>
      </trkpt>
      <trkpt lat="43.77835" lon="1.29604">
        <ele>97.71</ele>
        <time>2016-01-02T09:01:17Z</time>
      </trkpt>
      <trkpt lat="43.77832" lon="1.29602">
        <ele>97.71</ele>
        <time>2016-01-02T09:01:18Z</time>
      </trkpt>
      <trkpt lat="43.77829" lon="1.296">
        <ele>97.23</ele>
        <time>2016-01-02T09:01:19Z</time>
      </trkpt>
      <trkpt lat="43.77826" lon="1.29598">
        <ele>97.23</ele>
        <time>2016-01-02T09:01:20Z</time>
      </trkpt>
      <trkpt lat="43.77823" lon="1.29596">
        <ele>97.23</ele>
        <time>2016-01-02T09:01:21Z</time>
      </trkpt>
      <trkpt lat="43.77821" lon="1.29594">
        <ele>97.23</ele>
        <time>2016-01-02T09:01:22Z</time>
      </trkpt>
      <trkpt lat="43.77817" lon="1.29592">
        <ele>97.23</ele>
        <time>2016-01-02T09:01:23Z</time>
      </trkpt>
      <trkpt lat="43.77814" lon="1.2959">
        <ele>97.23</ele>
        <time>2016-01-02T09:01:24Z</time>
      </trkpt>
      <trkpt lat="43.77811" lon="1.29589">
        <ele>97.23</ele>
        <time>2016-01-02T09:01:25Z</time>
      </trkpt>
      <trkpt lat="43.77808" lon="1.29587">
        <ele>97.23</ele>
        <time>2016-01-02T09:01:26Z</time>
      </trkpt>
      <trkpt lat="43.77805" lon="1.29586">
        <ele>97.23</ele>
        <time>2016-01-02T09:01:27Z</time>
      </trkpt>
      <trkpt lat="43.77802" lon="1.29585">
        <ele>96.75</ele>
        <time>2016-01-02T09:01:28Z</time>
      </trkpt>
      <trkpt lat="43.77799" lon="1.29583">
        <ele>96.75</ele>
        <time>2016-01-02T09:01:29Z</time>
      </trkpt>
      <trkpt lat="43.77796" lon="1.29581">
        <ele>96.75</ele>
        <time>2016-01-02T09:01:30Z</time>
      </trkpt>
      <trkpt lat="43.77793" lon="1.29579">
        <ele>96.75</ele>
        <time>2016-01-02T09:01:31Z</time>
      </trkpt>
      <trkpt lat="43.7779" lon="1.29578">
        <ele>96.75</ele>
        <time>2016-01-02T09:01:32Z</time>
      </trkpt>
      <trkpt lat="43.77788" lon="1.29577">
        <ele>97.23</ele>
        <time>2016-01-02T09:01:33Z</time>
      </trkpt>
      <trkpt lat="43.77785" lon="1.29576">
        <ele>97.23</ele>
        <time>2016-01-02T09:01:34Z</time>
      </trkpt>
      <trkpt lat="43.77783" lon="1.29576">
        <ele>97.23</ele>
        <time>2016-01-02T09:01:35Z</time>
      </trkpt>
      <trkpt lat="43.7778" lon="1.29575">
        <ele>97.23</ele>
        <time>2016-01-02T09:01:36Z</time>
      </trkpt>
      <trkpt lat="43.77777" lon="1.29575">
        <ele>97.23</ele>
        <time>2016-01-02T09:01:37Z</time>
      </trkpt>
      <trkpt lat="43.77774" lon="1.29575">
        <ele>97.23</ele>
        <time>2016-01-02T09:01:38Z</time>
      </trkpt>
      <trkpt lat="43.77771" lon="1.29575">
        <ele>97.23</ele>
        <time>2016-01-02T09:01:39Z</time>
      </trkpt>
      <trkpt lat="43.77769" lon="1.29575">
        <ele>97.23</ele>
        <time>2016-01-02T09:01:40Z</time>
      </trkpt>
      <trkpt lat="43.77766" lon="1.29575">
        <ele>97.23</ele>
        <time>2016-01-02T09:01:41Z</time>
      </trkpt>
      <trkpt lat="43.77764" lon="1.29575">
        <ele>97.23</ele>
        <time>2016-01-02T09:01:42Z</time>
      </trkpt>
      <trkpt lat="43.77762" lon="1.29577">
        <ele>97.23</ele>
        <time>2016-01-02T09:01:43Z</time>
      </trkpt>
      <trkpt lat="43.7776" lon="1.2958">
        <ele>96.75</ele>
        <time>2016-01-02T09:01:44Z</time>
      </trkpt>
      <trkpt lat="43.77758" lon="1.29585">
        <ele>96.75</ele>
        <time>2016-01-02T09:01:45Z</time>
      </trkpt>
      <trkpt lat="43.77756" lon="1.29588">
        <ele>96.75</ele>
        <time>2016-01-02T09:01:46Z</time>
      </trkpt>
      <trkpt lat="43.77754" lon="1.2959">
        <ele>96.75</ele>
        <time>2016-01-02T09:01:47Z</time>
      </trkpt>
      <trkpt lat="43.77752" lon="1.29591">
        <ele>96.75</ele>
        <time>2016-01-02T09:01:48Z</time>
      </trkpt>
      <trkpt lat="43.7775" lon="1.29592">
        <ele>96.75</ele>
        <time>2016-01-02T09:01:49Z</time>
      </trkpt>
      <trkpt lat="43.77748" lon="1.29593">
        <ele>96.75</ele>
        <time>2016-01-02T09:01:50Z</time>
      </trkpt>
      <trkpt lat="43.77745" lon="1.29594">
        <ele>96.75</ele>
        <time>2016-01-02T09:01:51Z</time>
      </trkpt>
      <trkpt lat="43.77742" lon="1.29596">
        <ele>96.75</ele>
        <time>2016-01-02T09:01:52Z</time>
      </trkpt>
      <trkpt lat="43.7774" lon="1.29597">
        <ele>96.75</ele>
        <time>2016-01-02T09:01:53Z</time>
      </trkpt>
      <trkpt lat="43.77738" lon="1.29597">
        <ele>96.75</ele>
        <time>2016-01-02T09:01:54Z</time>
      </trkpt>
      <trkpt lat="43.77735" lon="1.29597">
        <ele>97.23</ele>
        <time>2016-01-02T09:01:55Z</time>
      </trkpt>
      <trkpt lat="43.77733" lon="1.29597">
        <ele>97.23</ele>
        <time>2016-01-02T09:01:56Z</time>
      </trkpt>
      <trkpt lat="43.77731" lon="1.29596">
        <ele>97.23</ele>
        <time>2016-01-02T09:01:57Z</time>
      </trkpt>
      <trkpt lat="43.77728" lon="1.29596">
        <ele>97.23</ele>
        <time>2016-01-02T09:01:58Z</time>
      </trkpt>
      <trkpt lat="43.77725" lon="1.29595">
        <ele>97.23</ele>
        <time>2016-01-02T09:01:59Z</time>
      </trkpt>
      <trkpt lat="43.77723" lon="1.29594">
        <ele>97.71</ele>
        <time>2016-01-02T09:02:00Z</time>
      </trkpt>
      <trkpt lat="43.7772" lon="1.29593">
        <ele>97.71</ele>
        <time>2016-01-02T09:02:01Z</time>
      </trkpt>
      <trkpt lat="43.77718" lon="1.29593">
        <ele>98.19</ele>
        <time>2016-01-02T09:02:02Z</time>
      </trkpt>
      <trkpt lat="43.77715" lon="1.29592">
        <ele>98.19</ele>
        <time>2016-01-02T09:02:03Z</time>
      </trkpt>
      <trkpt lat="43.77712" lon="1.29592">
        <ele>98.19</ele>
        <time>2016-01-02T09:02:04Z</time>
      </trkpt>
      <trkpt lat="43.7771" lon="1.29591">
        <ele>98.19</ele>
        <time>2016-01-02T09:02:05Z</time>
      </trkpt>
      <trkpt lat="43.77707" lon="1.29589">
        <ele>98.19</ele>
        <time>2016-01-02T09:02:06Z</time>
      </trkpt>
      <trkpt lat="43.77705" lon="1.29588">
        <ele>97.71</ele>
        <time>2016-01-02T09:02:07Z</time>
      </trkpt>
      <trkpt lat="43.77702" lon="1.29586">
        <ele>98.19</ele>
        <time>2016-01-02T09:02:08Z</time>
      </trkpt>
      <trkpt lat="43.777" lon="1.29586">
        <ele>98.19</ele>
        <time>2016-01-02T09:02:09Z</time>
      </trkpt>
      <trkpt lat="43.77698" lon="1.29586">
        <ele>97.71</ele>
        <time>2016-01-02T09:02:10Z</time>
      </trkpt>
      <trkpt lat="43.77696" lon="1.29587">
        <ele>97.71</ele>
        <time>2016-01-02T09:02:11Z</time>
      </trkpt>
      <trkpt lat="43.77694" lon="1.29586">
        <ele>97.71</ele>
        <time>2016-01-02T09:02:12Z</time>
      </trkpt>
      <trkpt lat="43.77692" lon="1.29584">
        <ele>97.71</ele>
        <time>2016-01-02T09:02:13Z</time>
      </trkpt>
      <trkpt lat="43.77689" lon="1.29583">
        <ele>97.71</ele>
        <time>2016-01-02T09:02:14Z</time>
      </trkpt>
      <trkpt lat="43.77687" lon="1.29583">
        <ele>97.71</ele>
        <time>2016-01-02T09:02:15Z</time>
      </trkpt>
      <trkpt lat="43.77684" lon="1.29582">
        <ele>97.71</ele>
        <time>2016-01-02T09:02:16Z</time>
      </trkpt>
      <trkpt lat="43.77682" lon="1.29582">
        <ele>97.71</ele>
        <time>2016-01-02T09:02:17Z</time>
      </trkpt>
      <trkpt lat="43.77679" lon="1.29582">
        <ele>97.71</ele>
        <time>2016-01-02T09:02:18Z</time>
      </trkpt>
      <trkpt lat="43.77676" lon="1.29581">
        <ele>97.71</ele>
        <time>2016-01-02T09:02:19Z</time>
      </trkpt>
      <trkpt lat="43.77673" lon="1.2958">
        <ele>98.19</ele>
        <time>2016-01-02T09:02:20Z</time>
      </trkpt>
      <trkpt lat="43.7767" lon="1.29579">
        <ele>98.19</ele>
        <time>2016-01-02T09:02:21Z</time>
      </trkpt>
      <trkpt lat="43.77667" lon="1.29578">
        <ele>98.19</ele>
        <time>2016-01-02T09:02:22Z</time>
      </trkpt>
      <trkpt lat="43.77664" lon="1.29576">
        <ele>98.19</ele>
        <time>2016-01-02T09:02:23Z</time>
      </trkpt>
      <trkpt lat="43.77661" lon="1.29575">
        <ele>97.71</ele>
        <time>2016-01-02T09:02:24Z</time>
      </trkpt>
      <trkpt lat="43.77658" lon="1.29573">
        <ele>97.71</ele>
        <time>2016-01-02T09:02:25Z</time>
      </trkpt>
      <trkpt lat="43.77653" lon="1.29569">
        <ele>97.23</ele>
        <time>2016-01-02T09:02:26Z</time>
      </trkpt>
      <trkpt lat="43.7765" lon="1.29567">
        <ele>97.23</ele>
        <time>2016-01-02T09:02:27Z</time>
      </trkpt>
      <trkpt lat="43.77647" lon="1.29564">
        <ele>97.23</ele>
        <time>2016-01-02T09:02:28Z</time>
      </trkpt>
      <trkpt lat="43.77645" lon="1.29562">
        <ele>96.75</ele>
        <time>2016-01-02T09:02:29Z</time>
      </trkpt>
      <trkpt lat="43.77643" lon="1.2956">
        <ele>96.75</ele>
        <time>2016-01-02T09:02:30Z</time>
      </trkpt>
      <trkpt lat="43.77641" lon="1.29558">
        <ele>97.23</ele>
        <time>2016-01-02T09:02:31Z</time>
      </trkpt>
      <trkpt lat="43.77639" lon="1.29556">
        <ele>97.23</ele>
        <time>2016-01-02T09:02:32Z</time>
      </trkpt>
      <trkpt lat="43.77638" lon="1.29555">
        <ele>97.71</ele>
        <time>2016-01-02T09:02:33Z</time>
      </trkpt>
      <trkpt lat="43.77636" lon="1.29553">
        <ele>98.19</ele>
        <time>2016-01-02T09:02:34Z</time>
      </trkpt>
      <trkpt lat="43.77634" lon="1.29551">
        <ele>98.19</ele>
        <time>2016-01-02T09:02:35Z</time>
      </trkpt>
      <trkpt lat="43.77631" lon="1.29549">
        <ele>97.71</ele>
        <time>2016-01-02T09:02:36Z</time>
      </trkpt>
      <trkpt lat="43.77628" lon="1.29545">
        <ele>97.23</ele>
        <time>2016-01-02T09:02:37Z</time>
      </trkpt>
      <trkpt lat="43.77625" lon="1.29542">
        <ele>97.23</ele>
        <time>2016-01-02T09:02:38Z</time>
      </trkpt>
      <trkpt lat="43.77623" lon="1.29539">
        <ele>97.23</ele>
        <time>2016-01-02T09:02:39Z</time>
      </trkpt>
      <trkpt lat="43.7762" lon="1.29537">
        <ele>97.23</ele>
        <time>2016-01-02T09:02:40Z</time>
      </trkpt>
      <trkpt lat="43.77618" lon="1.29534">
        <ele>97.23</ele>
        <time>2016-01-02T09:02:41Z</time>
      </trkpt>
      <trkpt lat="43.77615" lon="1.29531">
        <ele>97.23</ele>
        <time>2016-01-02T09:02:42Z</time>
      </trkpt>
      <trkpt lat="43.77613" lon="1.29528">
        <ele>97.23</ele>
        <time>2016-01-02T09:02:43Z</time>
      </trkpt>
      <trkpt lat="43.7761" lon="1.29525">
        <ele>97.23</ele>
        <time>2016-01-02T09:02:44Z</time>
      </trkpt>
      <trkpt lat="43.77608" lon="1.29522">
        <ele>97.23</ele>
        <time>2016-01-02T09:02:45Z</time>
      </trkpt>
      <trkpt lat="43.77605" lon="1.29519">
        <ele>97.23</ele>
        <time>2016-01-02T09:02:46Z</time>
      </trkpt>
      <trkpt lat="43.77603" lon="1.29516">
        <ele>97.23</ele>
        <time>2016-01-02T09:02:47Z</time>
      </trkpt>
      <trkpt lat="43.77601" lon="1.29513">
        <ele>96.75</ele>
        <time>2016-01-02T09:02:48Z</time>
      </trkpt>
      <trkpt lat="43.77599" lon="1.2951">
        <ele>96.75</ele>
        <time>2016-01-02T09:02:49Z</time>
      </trkpt>
      <trkpt lat="43.77596" lon="1.29508">
        <ele>96.75</ele>
        <time>2016-01-02T09:02:50Z</time>
      </trkpt>
      <trkpt lat="43.77594" lon="1.29505">
        <ele>97.23</ele>
        <time>2016-01-02T09:02:51Z</time>
      </trkpt>
      <trkpt lat="43.77591" lon="1.29501">
        <ele>97.23</ele>
        <time>2016-01-02T09:02:52Z</time>
      </trkpt>
      <trkpt lat="43.77589" lon="1.29498">
        <ele>97.23</ele>
        <time>2016-01-02T09:02:53Z</time>
      </trkpt>
      <trkpt lat="43.77586" lon="1.29496">
        <ele>97.71</ele>
        <time>2016-01-02T09:02:54Z</time>
      </trkpt>
      <trkpt lat="43.77583" lon="1.29494">
        <ele>98.19</ele>
        <time>2016-01-02T09:02:55Z</time>
      </trkpt>
      <trkpt lat="43.7758" lon="1.29491">
        <ele>97.71</ele>
        <time>2016-01-02T09:02:56Z</time>
      </trkpt>
      <trkpt lat="43.77577" lon="1.2949">
        <ele>97.71</ele>
        <time>2016-01-02T09:02:57Z</time>
      </trkpt>
      <trkpt lat="43.77574" lon="1.29488">
        <ele>97.23</ele>
        <time>2016-01-02T09:02:58Z</time>
      </trkpt>
      <trkpt lat="43.77571" lon="1.29486">
        <ele>97.23</ele>
        <time>2016-01-02T09:02:59Z</time>
      </trkpt>
      <trkpt lat="43.77569" lon="1.29483">
        <ele>97.23</ele>
        <time>2016-01-02T09:03:00Z</time>
      </trkpt>
      <trkpt lat="43.77566" lon="1.2948">
        <ele>97.23</ele>
        <time>2016-01-02T09:03:01Z</time>
      </trkpt>
      <trkpt lat="43.77564" lon="1.29476">
        <ele>97.71</ele>
        <time>2016-01-02T09:03:02Z</time>
      </trkpt>
      <trkpt lat="43.77562" lon="1.29473">
        <ele>97.71</ele>
        <time>2016-01-02T09:03:03Z</time>
      </trkpt>
      <trkpt lat="43.7756" lon="1.29469">
        <ele>97.71</ele>
        <time>2016-01-02T09:03:04Z</time>
      </trkpt>
      <trkpt lat="43.77558" lon="1.29466">
        <ele>97.23</ele>
        <time>2016-01-02T09:03:05Z</time>
      </trkpt>
      <trkpt lat="43.77556" lon="1.29463">
        <ele>97.23</ele>
        <time>2016-01-02T09:03:06Z</time>
      </trkpt>
      <trkpt lat="43.77553" lon="1.2946">
        <ele>97.23</ele>
        <time>2016-01-02T09:03:07Z</time>
      </trkpt>
      <trkpt lat="43.77551" lon="1.29458">
        <ele>97.23</ele>
        <time>2016-01-02T09:03:08Z</time>
      </trkpt>
      <trkpt lat="43.77548" lon="1.29455">
        <ele>97.71</ele>
        <time>2016-01-02T09:03:09Z</time>
      </trkpt>
      <trkpt lat="43.77545" lon="1.29453">
        <ele>97.71</ele>
        <time>2016-01-02T09:03:10Z</time>
      </trkpt>
      <trkpt lat="43.77543" lon="1.29452">
        <ele>97.71</ele>
        <time>2016-01-02T09:03:11Z</time>
      </trkpt>
      <trkpt lat="43.7754" lon="1.2945">
        <ele>97.71</ele>
        <time>2016-01-02T09:03:12Z</time>
      </trkpt>
      <trkpt lat="43.77538" lon="1.29447">
        <ele>97.23</ele>
        <time>2016-01-02T09:03:13Z</time>
      </trkpt>
      <trkpt lat="43.77536" lon="1.29445">
        <ele>96.75</ele>
        <time>2016-01-02T09:03:14Z</time>
      </trkpt>
      <trkpt lat="43.77535" lon="1.29441">
        <ele>96.75</ele>
        <time>2016-01-02T09:03:15Z</time>
      </trkpt>
      <trkpt lat="43.77534" lon="1.29439">
        <ele>96.75</ele>
        <time>2016-01-02T09:03:16Z</time>
      </trkpt>
      <trkpt lat="43.77532" lon="1.29436">
        <ele>96.75</ele>
        <time>2016-01-02T09:03:17Z</time>
      </trkpt>
      <trkpt lat="43.77531" lon="1.29434">
        <ele>96.75</ele>
        <time>2016-01-02T09:03:18Z</time>
      </trkpt>
      <trkpt lat="43.77529" lon="1.29432">
        <ele>97.23</ele>
        <time>2016-01-02T09:03:19Z</time>
      </trkpt>
      <trkpt lat="43.77526" lon="1.2943">
        <ele>97.23</ele>
        <time>2016-01-02T09:03:20Z</time>
      </trkpt>
      <trkpt lat="43.77524" lon="1.29428">
        <ele>97.71</ele>
        <time>2016-01-02T09:03:21Z</time>
      </trkpt>
      <trkpt lat="43.77521" lon="1.29426">
        <ele>98.19</ele>
        <time>2016-01-02T09:03:22Z</time>
      </trkpt>
      <trkpt lat="43.77518" lon="1.29426">
        <ele>98.19</ele>
        <time>2016-01-02T09:03:23Z</time>
      </trkpt>
      <trkpt lat="43.77516" lon="1.29428">
        <ele>99.15</ele>
        <time>2016-01-02T09:03:24Z</time>
      </trkpt>
      <trkpt lat="43.77514" lon="1.2943">
        <ele>99.63</ele>
        <time>2016-01-02T09:03:25Z</time>
      </trkpt>
      <trkpt lat="43.77512" lon="1.29432">
        <ele>100.11</ele>
        <time>2016-01-02T09:03:26Z</time>
      </trkpt>
      <trkpt lat="43.7751" lon="1.29434">
        <ele>100.11</ele>
        <time>2016-01-02T09:03:27Z</time>
      </trkpt>
      <trkpt lat="43.77509" lon="1.29436">
        <ele>100.6</ele>
        <time>2016-01-02T09:03:28Z</time>
      </trkpt>
      <trkpt lat="43.77507" lon="1.29439">
        <ele>100.6</ele>
        <time>2016-01-02T09:03:29Z</time>
      </trkpt>
      <trkpt lat="43.77505" lon="1.29442">
        <ele>100.6</ele>
        <time>2016-01-02T09:03:30Z</time>
      </trkpt>
      <trkpt lat="43.77503" lon="1.29445">
        <ele>100.6</ele>
        <time>2016-01-02T09:03:31Z</time>
      </trkpt>
      <trkpt lat="43.77501" lon="1.29448">
        <ele>101.08</ele>
        <time>2016-01-02T09:03:32Z</time>
      </trkpt>
      <trkpt lat="43.77499" lon="1.2945">
        <ele>101.08</ele>
        <time>2016-01-02T09:03:33Z</time>
      </trkpt>
      <trkpt lat="43.77497" lon="1.29453">
        <ele>101.56</ele>
        <time>2016-01-02T09:03:34Z</time>
      </trkpt>
      <trkpt lat="43.77495" lon="1.29455">
        <ele>102.04</ele>
        <time>2016-01-02T09:03:35Z</time>
      </trkpt>
      <trkpt lat="43.77493" lon="1.29457">
        <ele>102.04</ele>
        <time>2016-01-02T09:03:36Z</time>
      </trkpt>
      <trkpt lat="43.77491" lon="1.2946">
        <ele>102.52</ele>
        <time>2016-01-02T09:03:37Z</time>
      </trkpt>
      <trkpt lat="43.77489" lon="1.29463">
        <ele>102.52</ele>
        <time>2016-01-02T09:03:38Z</time>
      </trkpt>
      <trkpt lat="43.77486" lon="1.29466">
        <ele>102.52</ele>
        <time>2016-01-02T09:03:39Z</time>
      </trkpt>
      <trkpt lat="43.77484" lon="1.29469">
        <ele>102.04</ele>
        <time>2016-01-02T09:03:40Z</time>
      </trkpt>
      <trkpt lat="43.77482" lon="1.29471">
        <ele>102.52</ele>
        <time>2016-01-02T09:03:41Z</time>
      </trkpt>
      <trkpt lat="43.77479" lon="1.29474">
        <ele>102.52</ele>
        <time>2016-01-02T09:03:42Z</time>
      </trkpt>
      <trkpt lat="43.77477" lon="1.29477">
        <ele>102.52</ele>
        <time>2016-01-02T09:03:43Z</time>
      </trkpt>
      <trkpt lat="43.77474" lon="1.2948">
        <ele>102.52</ele>
        <time>2016-01-02T09:03:44Z</time>
      </trkpt>
      <trkpt lat="43.77472" lon="1.29483">
        <ele>103</ele>
        <time>2016-01-02T09:03:45Z</time>
      </trkpt>
      <trkpt lat="43.7747" lon="1.29485">
        <ele>103</ele>
        <time>2016-01-02T09:03:46Z</time>
      </trkpt>
      <trkpt lat="43.77468" lon="1.29488">
        <ele>103</ele>
        <time>2016-01-02T09:03:47Z</time>
      </trkpt>
      <trkpt lat="43.77465" lon="1.29491">
        <ele>103</ele>
        <time>2016-01-02T09:03:48Z</time>
      </trkpt>
      <trkpt lat="43.77463" lon="1.29494">
        <ele>103</ele>
        <time>2016-01-02T09:03:49Z</time>
      </trkpt>
      <trkpt lat="43.7746" lon="1.29496">
        <ele>103</ele>
        <time>2016-01-02T09:03:50Z</time>
      </trkpt>
      <trkpt lat="43.77458" lon="1.29498">
        <ele>103</ele>
        <time>2016-01-02T09:03:51Z</time>
      </trkpt>
      <trkpt lat="43.77455" lon="1.29501">
        <ele>102.52</ele>
        <time>2016-01-02T09:03:52Z</time>
      </trkpt>
      <trkpt lat="43.77453" lon="1.29503">
        <ele>103</ele>
        <time>2016-01-02T09:03:53Z</time>
      </trkpt>
      <trkpt lat="43.7745" lon="1.29504">
        <ele>103</ele>
        <time>2016-01-02T09:03:54Z</time>
      </trkpt>
      <trkpt lat="43.77448" lon="1.29503">
        <ele>103.48</ele>
        <time>2016-01-02T09:03:55Z</time>
      </trkpt>
      <trkpt lat="43.77445" lon="1.29501">
        <ele>103.96</ele>
        <time>2016-01-02T09:03:56Z</time>
      </trkpt>
      <trkpt lat="43.77444" lon="1.29498">
        <ele>104.44</ele>
        <time>2016-01-02T09:03:57Z</time>
      </trkpt>
      <trkpt lat="43.77442" lon="1.29494">
        <ele>104.44</ele>
        <time>2016-01-02T09:03:58Z</time>
      </trkpt>
      <trkpt lat="43.7744" lon="1.29489">
        <ele>103.96</ele>
        <time>2016-01-02T09:03:59Z</time>
      </trkpt>
      <trkpt lat="43.77438" lon="1.29485">
        <ele>103.96</ele>
        <time>2016-01-02T09:04:00Z</time>
      </trkpt>
      <trkpt lat="43.77437" lon="1.29482">
        <ele>103.96</ele>
        <time>2016-01-02T09:04:01Z</time>
      </trkpt>
      <trkpt lat="43.77435" lon="1.29478">
        <ele>103.96</ele>
        <time>2016-01-02T09:04:02Z</time>
      </trkpt>
      <trkpt lat="43.77434" lon="1.29475">
        <ele>103.96</ele>
        <time>2016-01-02T09:04:03Z</time>
      </trkpt>
      <trkpt lat="43.77434" lon="1.29472">
        <ele>103.96</ele>
        <time>2016-01-02T09:04:04Z</time>
      </trkpt>
      <trkpt lat="43.77434" lon="1.29469">
        <ele>104.44</ele>
        <time>2016-01-02T09:04:05Z</time>
      </trkpt>
      <trkpt lat="43.77435" lon="1.29466">
        <ele>104.92</ele>
        <time>2016-01-02T09:04:06Z</time>
      </trkpt>
      <trkpt lat="43.77437" lon="1.29462">
        <ele>104.92</ele>
        <time>2016-01-02T09:04:07Z</time>
      </trkpt>
      <trkpt lat="43.77439" lon="1.29459">
        <ele>104.92</ele>
        <time>2016-01-02T09:04:08Z</time>
      </trkpt>
      <trkpt lat="43.77441" lon="1.29456">
        <ele>104.92</ele>
        <time>2016-01-02T09:04:09Z</time>
      </trkpt>
      <trkpt lat="43.77443" lon="1.29453">
        <ele>104.44</ele>
        <time>2016-01-02T09:04:10Z</time>
      </trkpt>
      <trkpt lat="43.77446" lon="1.2945">
        <ele>104.44</ele>
        <time>2016-01-02T09:04:11Z</time>
      </trkpt>
      <trkpt lat="43.77448" lon="1.29447">
        <ele>104.44</ele>
        <time>2016-01-02T09:04:12Z</time>
      </trkpt>
      <trkpt lat="43.77451" lon="1.29444">
        <ele>104.44</ele>
        <time>2016-01-02T09:04:13Z</time>
      </trkpt>
      <trkpt lat="43.77454" lon="1.29442">
        <ele>104.92</ele>
        <time>2016-01-02T09:04:14Z</time>
      </trkpt>
      <trkpt lat="43.77456" lon="1.29439">
        <ele>104.92</ele>
        <time>2016-01-02T09:04:15Z</time>
      </trkpt>
      <trkpt lat="43.77458" lon="1.29437">
        <ele>105.4</ele>
        <time>2016-01-02T09:04:16Z</time>
      </trkpt>
      <trkpt lat="43.7746" lon="1.29434">
        <ele>105.4</ele>
        <time>2016-01-02T09:04:17Z</time>
      </trkpt>
      <trkpt lat="43.77461" lon="1.2943">
        <ele>105.4</ele>
        <time>2016-01-02T09:04:18Z</time>
      </trkpt>
      <trkpt lat="43.77463" lon="1.29428">
        <ele>104.92</ele>
        <time>2016-01-02T09:04:19Z</time>
      </trkpt>
      <trkpt lat="43.77465" lon="1.29424">
        <ele>104.92</ele>
        <time>2016-01-02T09:04:20Z</time>
      </trkpt>
      <trkpt lat="43.77468" lon="1.29421">
        <ele>105.4</ele>
        <time>2016-01-02T09:04:21Z</time>
      </trkpt>
      <trkpt lat="43.7747" lon="1.29419">
        <ele>105.4</ele>
        <time>2016-01-02T09:04:22Z</time>
      </trkpt>
      <trkpt lat="43.77473" lon="1.29416">
        <ele>105.4</ele>
        <time>2016-01-02T09:04:23Z</time>
      </trkpt>
      <trkpt lat="43.77476" lon="1.29414">
        <ele>105.4</ele>
        <time>2016-01-02T09:04:24Z</time>
      </trkpt>
      <trkpt lat="43.77479" lon="1.29411">
        <ele>105.4</ele>
        <time>2016-01-02T09:04:25Z</time>
      </trkpt>
      <trkpt lat="43.77481" lon="1.29408">
        <ele>105.4</ele>
        <time>2016-01-02T09:04:26Z</time>
      </trkpt>
      <trkpt lat="43.77484" lon="1.29406">
        <ele>104.92</ele>
        <time>2016-01-02T09:04:27Z</time>
      </trkpt>
      <trkpt lat="43.77486" lon="1.29404">
        <ele>104.92</ele>
        <time>2016-01-02T09:04:28Z</time>
      </trkpt>
      <trkpt lat="43.7749" lon="1.29401">
        <ele>104.92</ele>
        <time>2016-01-02T09:04:29Z</time>
      </trkpt>
      <trkpt lat="43.77491" lon="1.29397">
        <ele>104.92</ele>
        <time>2016-01-02T09:04:30Z</time>
      </trkpt>
      <trkpt lat="43.77494" lon="1.29393">
        <ele>104.44</ele>
        <time>2016-01-02T09:04:31Z</time>
      </trkpt>
      <trkpt lat="43.77496" lon="1.2939">
        <ele>104.44</ele>
        <time>2016-01-02T09:04:32Z</time>
      </trkpt>
      <trkpt lat="43.77499" lon="1.29387">
        <ele>104.44</ele>
        <time>2016-01-02T09:04:33Z</time>
      </trkpt>
      <trkpt lat="43.77502" lon="1.29385">
        <ele>103.96</ele>
        <time>2016-01-02T09:04:34Z</time>
      </trkpt>
      <trkpt lat="43.77505" lon="1.29383">
        <ele>103.96</ele>
        <time>2016-01-02T09:04:35Z</time>
      </trkpt>
      <trkpt lat="43.77508" lon="1.29381">
        <ele>103.48</ele>
        <time>2016-01-02T09:04:36Z</time>
      </trkpt>
      <trkpt lat="43.7751" lon="1.29378">
        <ele>103.48</ele>
        <time>2016-01-02T09:04:37Z</time>
      </trkpt>
      <trkpt lat="43.77512" lon="1.29375">
        <ele>103.48</ele>
        <time>2016-01-02T09:04:38Z</time>
      </trkpt>
      <trkpt lat="43.77513" lon="1.29371">
        <ele>103.48</ele>
        <time>2016-01-02T09:04:39Z</time>
      </trkpt>
      <trkpt lat="43.77513" lon="1.29367">
        <ele>103.48</ele>
        <time>2016-01-02T09:04:40Z</time>
      </trkpt>
      <trkpt lat="43.77512" lon="1.29364">
        <ele>103.48</ele>
        <time>2016-01-02T09:04:41Z</time>
      </trkpt>
      <trkpt lat="43.77511" lon="1.29361">
        <ele>103</ele>
        <time>2016-01-02T09:04:42Z</time>
      </trkpt>
      <trkpt lat="43.77509" lon="1.29357">
        <ele>103</ele>
        <time>2016-01-02T09:04:43Z</time>
      </trkpt>
      <trkpt lat="43.77508" lon="1.29354">
        <ele>103</ele>
        <time>2016-01-02T09:04:44Z</time>
      </trkpt>
      <trkpt lat="43.77505" lon="1.29351">
        <ele>103.48</ele>
        <time>2016-01-02T09:04:45Z</time>
      </trkpt>
      <trkpt lat="43.77503" lon="1.29347">
        <ele>103.96</ele>
        <time>2016-01-02T09:04:46Z</time>
      </trkpt>
      <trkpt lat="43.77501" lon="1.29344">
        <ele>103.96</ele>
        <time>2016-01-02T09:04:47Z</time>
      </trkpt>
      <trkpt lat="43.775" lon="1.2934">
        <ele>103.96</ele>
        <time>2016-01-02T09:04:48Z</time>
      </trkpt>
      <trkpt lat="43.77499" lon="1.29337">
        <ele>104.44</ele>
        <time>2016-01-02T09:04:49Z</time>
      </trkpt>
      <trkpt lat="43.77498" lon="1.29333">
        <ele>104.44</ele>
        <time>2016-01-02T09:04:50Z</time>
      </trkpt>
      <trkpt lat="43.77497" lon="1.29329">
        <ele>103.96</ele>
        <time>2016-01-02T09:04:51Z</time>
      </trkpt>
      <trkpt lat="43.77496" lon="1.29326">
        <ele>103.96</ele>
        <time>2016-01-02T09:04:52Z</time>
      </trkpt>
      <trkpt lat="43.77494" lon="1.29322">
        <ele>103.96</ele>
        <time>2016-01-02T09:04:53Z</time>
      </trkpt>
      <trkpt lat="43.77493" lon="1.29319">
        <ele>104.44</ele>
        <time>2016-01-02T09:04:54Z</time>
      </trkpt>
      <trkpt lat="43.77491" lon="1.29316">
        <ele>104.44</ele>
        <time>2016-01-02T09:04:55Z</time>
      </trkpt>
      <trkpt lat="43.7749" lon="1.29313">
        <ele>104.92</ele>
        <time>2016-01-02T09:04:56Z</time>
      </trkpt>
      <trkpt lat="43.77487" lon="1.29309">
        <ele>104.92</ele>
        <time>2016-01-02T09:04:57Z</time>
      </trkpt>
      <trkpt lat="43.77485" lon="1.29306">
        <ele>104.44</ele>
        <time>2016-01-02T09:04:58Z</time>
      </trkpt>
      <trkpt lat="43.77482" lon="1.29302">
        <ele>103.96</ele>
        <time>2016-01-02T09:04:59Z</time>
      </trkpt>
      <trkpt lat="43.77481" lon="1.29299">
        <ele>103.96</ele>
        <time>2016-01-02T09:05:00Z</time>
      </trkpt>
      <trkpt lat="43.77479" lon="1.29296">
        <ele>103.96</ele>
        <time>2016-01-02T09:05:01Z</time>
      </trkpt>
      <trkpt lat="43.77478" lon="1.29293">
        <ele>103.96</ele>
        <time>2016-01-02T09:05:02Z</time>
      </trkpt>
      <trkpt lat="43.77477" lon="1.29289">
        <ele>104.44</ele>
        <time>2016-01-02T09:05:03Z</time>
      </trkpt>
      <trkpt lat="43.77476" lon="1.29285">
        <ele>104.92</ele>
        <time>2016-01-02T09:05:04Z</time>
      </trkpt>
      <trkpt lat="43.77474" lon="1.2928">
        <ele>104.92</ele>
        <time>2016-01-02T09:05:05Z</time>
      </trkpt>
      <trkpt lat="43.77472" lon="1.29276">
        <ele>104.92</ele>
        <time>2016-01-02T09:05:06Z</time>
      </trkpt>
      <trkpt lat="43.77471" lon="1.29272">
        <ele>104.44</ele>
        <time>2016-01-02T09:05:07Z</time>
      </trkpt>
      <trkpt lat="43.7747" lon="1.29269">
        <ele>104.44</ele>
        <time>2016-01-02T09:05:08Z</time>
      </trkpt>
      <trkpt lat="43.77468" lon="1.29265">
        <ele>103.96</ele>
        <time>2016-01-02T09:05:09Z</time>
      </trkpt>
      <trkpt lat="43.77468" lon="1.29261">
        <ele>103.96</ele>
        <time>2016-01-02T09:05:10Z</time>
      </trkpt>
      <trkpt lat="43.77466" lon="1.29257">
        <ele>103.96</ele>
        <time>2016-01-02T09:05:11Z</time>
      </trkpt>
      <trkpt lat="43.77465" lon="1.29253">
        <ele>104.44</ele>
        <time>2016-01-02T09:05:12Z</time>
      </trkpt>
      <trkpt lat="43.77464" lon="1.29249">
        <ele>104.44</ele>
        <time>2016-01-02T09:05:13Z</time>
      </trkpt>
      <trkpt lat="43.77463" lon="1.29245">
        <ele>104.92</ele>
        <time>2016-01-02T09:05:14Z</time>
      </trkpt>
      <trkpt lat="43.77461" lon="1.29242">
        <ele>105.4</ele>
        <time>2016-01-02T09:05:15Z</time>
      </trkpt>
      <trkpt lat="43.7746" lon="1.29239">
        <ele>104.92</ele>
        <time>2016-01-02T09:05:16Z</time>
      </trkpt>
      <trkpt lat="43.77458" lon="1.29235">
        <ele>104.44</ele>
        <time>2016-01-02T09:05:17Z</time>
      </trkpt>
      <trkpt lat="43.77457" lon="1.29231">
        <ele>104.44</ele>
        <time>2016-01-02T09:05:18Z</time>
      </trkpt>
      <trkpt lat="43.77455" lon="1.29227">
        <ele>104.44</ele>
        <time>2016-01-02T09:05:19Z</time>
      </trkpt>
      <trkpt lat="43.77454" lon="1.29223">
        <ele>104.44</ele>
        <time>2016-01-02T09:05:20Z</time>
      </trkpt>
      <trkpt lat="43.77452" lon="1.29219">
        <ele>104.44</ele>
        <time>2016-01-02T09:05:21Z</time>
      </trkpt>
      <trkpt lat="43.77451" lon="1.29215">
        <ele>104.92</ele>
        <time>2016-01-02T09:05:22Z</time>
      </trkpt>
      <trkpt lat="43.77451" lon="1.2921">
        <ele>105.4</ele>
        <time>2016-01-02T09:05:23Z</time>
      </trkpt>
      <trkpt lat="43.77453" lon="1.29206">
        <ele>104.92</ele>
        <time>2016-01-02T09:05:24Z</time>
      </trkpt>
      <trkpt lat="43.77455" lon="1.29202">
        <ele>104.92</ele>
        <time>2016-01-02T09:05:25Z</time>
      </trkpt>
      <trkpt lat="43.77458" lon="1.29199">
        <ele>104.92</ele>
        <time>2016-01-02T09:05:26Z</time>
      </trkpt>
      <trkpt lat="43.77461" lon="1.29197">
        <ele>104.44</ele>
        <time>2016-01-02T09:05:27Z</time>
      </trkpt>
      <trkpt lat="43.77464" lon="1.29195">
        <ele>104.92</ele>
        <time>2016-01-02T09:05:28Z</time>
      </trkpt>
      <trkpt lat="43.77468" lon="1.29193">
        <ele>104.92</ele>
        <time>2016-01-02T09:05:29Z</time>
      </trkpt>
      <trkpt lat="43.77471" lon="1.29191">
        <ele>105.4</ele>
        <time>2016-01-02T09:05:30Z</time>
      </trkpt>
      <trkpt lat="43.77474" lon="1.29188">
        <ele>105.4</ele>
        <time>2016-01-02T09:05:31Z</time>
      </trkpt>
      <trkpt lat="43.77477" lon="1.29185">
        <ele>105.4</ele>
        <time>2016-01-02T09:05:32Z</time>
      </trkpt>
      <trkpt lat="43.7748" lon="1.29183">
        <ele>104.92</ele>
        <time>2016-01-02T09:05:33Z</time>
      </trkpt>
      <trkpt lat="43.77484" lon="1.2918">
        <ele>104.44</ele>
        <time>2016-01-02T09:05:34Z</time>
      </trkpt>
      <trkpt lat="43.77487" lon="1.29178">
        <ele>104.44</ele>
        <time>2016-01-02T09:05:35Z</time>
      </trkpt>
      <trkpt lat="43.7749" lon="1.29175">
        <ele>104.44</ele>
        <time>2016-01-02T09:05:36Z</time>
      </trkpt>
      <trkpt lat="43.77492" lon="1.29173">
        <ele>104.92</ele>
        <time>2016-01-02T09:05:37Z</time>
      </trkpt>
      <trkpt lat="43.77494" lon="1.29169">
        <ele>104.92</ele>
        <time>2016-01-02T09:05:38Z</time>
      </trkpt>
      <trkpt lat="43.77496" lon="1.29166">
        <ele>104.92</ele>
        <time>2016-01-02T09:05:39Z</time>
      </trkpt>
      <trkpt lat="43.77499" lon="1.29163">
        <ele>104.44</ele>
        <time>2016-01-02T09:05:40Z</time>
      </trkpt>
      <trkpt lat="43.77501" lon="1.29161">
        <ele>104.44</ele>
        <time>2016-01-02T09:05:41Z</time>
      </trkpt>
      <trkpt lat="43.77503" lon="1.29158">
        <ele>103.96</ele>
        <time>2016-01-02T09:05:42Z</time>
      </trkpt>
      <trkpt lat="43.77506" lon="1.29156">
        <ele>103.96</ele>
        <time>2016-01-02T09:05:43Z</time>
      </trkpt>
      <trkpt lat="43.77508" lon="1.29154">
        <ele>103.96</ele>
        <time>2016-01-02T09:05:44Z</time>
      </trkpt>
      <trkpt lat="43.7751" lon="1.29151">
        <ele>103.96</ele>
        <time>2016-01-02T09:05:45Z</time>
      </trkpt>
      <trkpt lat="43.77513" lon="1.29149">
        <ele>104.44</ele>
        <time>2016-01-02T09:05:46Z</time>
      </trkpt>
      <trkpt lat="43.77516" lon="1.29146">
        <ele>104.44</ele>
        <time>2016-01-02T09:05:47Z</time>
      </trkpt>
      <trkpt lat="43.77518" lon="1.29144">
        <ele>104.44</ele>
        <time>2016-01-02T09:05:48Z</time>
      </trkpt>
      <trkpt lat="43.77521" lon="1.29142">
        <ele>103.96</ele>
        <time>2016-01-02T09:05:49Z</time>
      </trkpt>
      <trkpt lat="43.77524" lon="1.2914">
        <ele>103.96</ele>
        <time>2016-01-02T09:05:50Z</time>
      </trkpt>
      <trkpt lat="43.77527" lon="1.29138">
        <ele>103.96</ele>
        <time>2016-01-02T09:05:51Z</time>
      </trkpt>
      <trkpt lat="43.77529" lon="1.29135">
        <ele>103.96</ele>
        <time>2016-01-02T09:05:52Z</time>
      </trkpt>
      <trkpt lat="43.77532" lon="1.29133">
        <ele>103.96</ele>
        <time>2016-01-02T09:05:53Z</time>
      </trkpt>
      <trkpt lat="43.77535" lon="1.29131">
        <ele>103.96</ele>
        <time>2016-01-02T09:05:54Z</time>
      </trkpt>
      <trkpt lat="43.77537" lon="1.29128">
        <ele>103.96</ele>
        <time>2016-01-02T09:05:55Z</time>
      </trkpt>
      <trkpt lat="43.77539" lon="1.29126">
        <ele>103.96</ele>
        <time>2016-01-02T09:05:56Z</time>
      </trkpt>
      <trkpt lat="43.77542" lon="1.29123">
        <ele>103.48</ele>
        <time>2016-01-02T09:05:57Z</time>
      </trkpt>
      <trkpt lat="43.77544" lon="1.29121">
        <ele>103.48</ele>
        <time>2016-01-02T09:05:58Z</time>
      </trkpt>
      <trkpt lat="43.77547" lon="1.29119">
        <ele>103.48</ele>
        <time>2016-01-02T09:05:59Z</time>
      </trkpt>
      <trkpt lat="43.7755" lon="1.29117">
        <ele>103.48</ele>
        <time>2016-01-02T09:06:00Z</time>
      </trkpt>
      <trkpt lat="43.77552" lon="1.29114">
        <ele>103.48</ele>
        <time>2016-01-02T09:06:01Z</time>
      </trkpt>
      <trkpt lat="43.77555" lon="1.29112">
        <ele>103.96</ele>
        <time>2016-01-02T09:06:02Z</time>
      </trkpt>
      <trkpt lat="43.77558" lon="1.29109">
        <ele>103.96</ele>
        <time>2016-01-02T09:06:03Z</time>
      </trkpt>
      <trkpt lat="43.77561" lon="1.29107">
        <ele>103.96</ele>
        <time>2016-01-02T09:06:04Z</time>
      </trkpt>
      <trkpt lat="43.77564" lon="1.29104">
        <ele>103.96</ele>
        <time>2016-01-02T09:06:05Z</time>
      </trkpt>
      <trkpt lat="43.77567" lon="1.29101">
        <ele>103.48</ele>
        <time>2016-01-02T09:06:06Z</time>
      </trkpt>
      <trkpt lat="43.77569" lon="1.29098">
        <ele>103</ele>
        <time>2016-01-02T09:06:07Z</time>
      </trkpt>
      <trkpt lat="43.77572" lon="1.29096">
        <ele>103</ele>
        <time>2016-01-02T09:06:08Z</time>
      </trkpt>
      <trkpt lat="43.77574" lon="1.29093">
        <ele>103.48</ele>
        <time>2016-01-02T09:06:09Z</time>
      </trkpt>
      <trkpt lat="43.77577" lon="1.2909">
        <ele>103.48</ele>
        <time>2016-01-02T09:06:10Z</time>
      </trkpt>
      <trkpt lat="43.7758" lon="1.29088">
        <ele>103.48</ele>
        <time>2016-01-02T09:06:11Z</time>
      </trkpt>
      <trkpt lat="43.77582" lon="1.29086">
        <ele>103.48</ele>
        <time>2016-01-02T09:06:12Z</time>
      </trkpt>
      <trkpt lat="43.77584" lon="1.29084">
        <ele>103.48</ele>
        <time>2016-01-02T09:06:13Z</time>
      </trkpt>
      <trkpt lat="43.77587" lon="1.29081">
        <ele>103</ele>
        <time>2016-01-02T09:06:14Z</time>
      </trkpt>
      <trkpt lat="43.7759" lon="1.29078">
        <ele>103</ele>
        <time>2016-01-02T09:06:15Z</time>
      </trkpt>
      <trkpt lat="43.77593" lon="1.29076">
        <ele>103</ele>
        <time>2016-01-02T09:06:16Z</time>
      </trkpt>
      <trkpt lat="43.77596" lon="1.29073">
        <ele>103</ele>
        <time>2016-01-02T09:06:17Z</time>
      </trkpt>
      <trkpt lat="43.77598" lon="1.29071">
        <ele>103.48</ele>
        <time>2016-01-02T09:06:18Z</time>
      </trkpt>
      <trkpt lat="43.77601" lon="1.29068">
        <ele>103.48</ele>
        <time>2016-01-02T09:06:19Z</time>
      </trkpt>
      <trkpt lat="43.77603" lon="1.29066">
        <ele>103.96</ele>
        <time>2016-01-02T09:06:20Z</time>
      </trkpt>
      <trkpt lat="43.77606" lon="1.29064">
        <ele>103.48</ele>
        <time>2016-01-02T09:06:21Z</time>
      </trkpt>
      <trkpt lat="43.77609" lon="1.29062">
        <ele>103.48</ele>
        <time>2016-01-02T09:06:22Z</time>
      </trkpt>
      <trkpt lat="43.77612" lon="1.2906">
        <ele>103.48</ele>
        <time>2016-01-02T09:06:23Z</time>
      </trkpt>
      <trkpt lat="43.77614" lon="1.29057">
        <ele>103.48</ele>
        <time>2016-01-02T09:06:24Z</time>
      </trkpt>
      <trkpt lat="43.77617" lon="1.29055">
        <ele>103.48</ele>
        <time>2016-01-02T09:06:25Z</time>
      </trkpt>
      <trkpt lat="43.77619" lon="1.29053">
        <ele>103.48</ele>
        <time>2016-01-02T09:06:26Z</time>
      </trkpt>
      <trkpt lat="43.77622" lon="1.29051">
        <ele>103.96</ele>
        <time>2016-01-02T09:06:27Z</time>
      </trkpt>
      <trkpt lat="43.77625" lon="1.29049">
        <ele>103.96</ele>
        <time>2016-01-02T09:06:28Z</time>
      </trkpt>
      <trkpt lat="43.77627" lon="1.29046">
        <ele>103.96</ele>
        <time>2016-01-02T09:06:29Z</time>
      </trkpt>
      <trkpt lat="43.7763" lon="1.29044">
        <ele>103.96</ele>
        <time>2016-01-02T09:06:30Z</time>
      </trkpt>
      <trkpt lat="43.77633" lon="1.29042">
        <ele>103.48</ele>
        <time>2016-01-02T09:06:31Z</time>
      </trkpt>
      <trkpt lat="43.77636" lon="1.2904">
        <ele>103</ele>
        <time>2016-01-02T09:06:32Z</time>
      </trkpt>
      <trkpt lat="43.77638" lon="1.29038">
        <ele>103</ele>
        <time>2016-01-02T09:06:33Z</time>
      </trkpt>
      <trkpt lat="43.77641" lon="1.29035">
        <ele>103</ele>
        <time>2016-01-02T09:06:34Z</time>
      </trkpt>
      <trkpt lat="43.77643" lon="1.29033">
        <ele>103</ele>
        <time>2016-01-02T09:06:35Z</time>
      </trkpt>
      <trkpt lat="43.77646" lon="1.29031">
        <ele>102.52</ele>
        <time>2016-01-02T09:06:36Z</time>
      </trkpt>
      <trkpt lat="43.77649" lon="1.29028">
        <ele>103</ele>
        <time>2016-01-02T09:06:37Z</time>
      </trkpt>
      <trkpt lat="43.77651" lon="1.29025">
        <ele>103</ele>
        <time>2016-01-02T09:06:38Z</time>
      </trkpt>
      <trkpt lat="43.77654" lon="1.29023">
        <ele>103.48</ele>
        <time>2016-01-02T09:06:39Z</time>
      </trkpt>
      <trkpt lat="43.77657" lon="1.29021">
        <ele>103.48</ele>
        <time>2016-01-02T09:06:40Z</time>
      </trkpt>
      <trkpt lat="43.7766" lon="1.29018">
        <ele>103.96</ele>
        <time>2016-01-02T09:06:41Z</time>
      </trkpt>
      <trkpt lat="43.77663" lon="1.29016">
        <ele>103.48</ele>
        <time>2016-01-02T09:06:42Z</time>
      </trkpt>
      <trkpt lat="43.77666" lon="1.29014">
        <ele>103.48</ele>
        <time>2016-01-02T09:06:43Z</time>
      </trkpt>
      <trkpt lat="43.77668" lon="1.29012">
        <ele>103.48</ele>
        <time>2016-01-02T09:06:44Z</time>
      </trkpt>
      <trkpt lat="43.77671" lon="1.2901">
        <ele>103</ele>
        <time>2016-01-02T09:06:45Z</time>
      </trkpt>
      <trkpt lat="43.77674" lon="1.29008">
        <ele>103</ele>
        <time>2016-01-02T09:06:46Z</time>
      </trkpt>
      <trkpt lat="43.77677" lon="1.29006">
        <ele>103</ele>
        <time>2016-01-02T09:06:47Z</time>
      </trkpt>
      <trkpt lat="43.7768" lon="1.29003">
        <ele>102.52</ele>
        <time>2016-01-02T09:06:48Z</time>
      </trkpt>
      <trkpt lat="43.77683" lon="1.29001">
        <ele>102.52</ele>
        <time>2016-01-02T09:06:49Z</time>
      </trkpt>
      <trkpt lat="43.77685" lon="1.28999">
        <ele>103</ele>
        <time>2016-01-02T09:06:50Z</time>
      </trkpt>
      <trkpt lat="43.77688" lon="1.28996">
        <ele>103.48</ele>
        <time>2016-01-02T09:06:51Z</time>
      </trkpt>
      <trkpt lat="43.77691" lon="1.28994">
        <ele>103.96</ele>
        <time>2016-01-02T09:06:52Z</time>
      </trkpt>
      <trkpt lat="43.77693" lon="1.28992">
        <ele>103.96</ele>
        <time>2016-01-02T09:06:53Z</time>
      </trkpt>
      <trkpt lat="43.77696" lon="1.28991">
        <ele>103.48</ele>
        <time>2016-01-02T09:06:54Z</time>
      </trkpt>
      <trkpt lat="43.77699" lon="1.28989">
        <ele>103.48</ele>
        <time>2016-01-02T09:06:55Z</time>
      </trkpt>
      <trkpt lat="43.77702" lon="1.28987">
        <ele>103.48</ele>
        <time>2016-01-02T09:06:56Z</time>
      </trkpt>
      <trkpt lat="43.77705" lon="1.28985">
        <ele>103.48</ele>
        <time>2016-01-02T09:06:57Z</time>
      </trkpt>
      <trkpt lat="43.77708" lon="1.28983">
        <ele>103.48</ele>
        <time>2016-01-02T09:06:58Z</time>
      </trkpt>
      <trkpt lat="43.7771" lon="1.2898">
        <ele>103.96</ele>
        <time>2016-01-02T09:06:59Z</time>
      </trkpt>
      <trkpt lat="43.77712" lon="1.28977">
        <ele>103.96</ele>
        <time>2016-01-02T09:07:00Z</time>
      </trkpt>
      <trkpt lat="43.77715" lon="1.28975">
        <ele>103.96</ele>
        <time>2016-01-02T09:07:01Z</time>
      </trkpt>
      <trkpt lat="43.77717" lon="1.28973">
        <ele>103.96</ele>
        <time>2016-01-02T09:07:02Z</time>
      </trkpt>
      <trkpt lat="43.7772" lon="1.28971">
        <ele>103.96</ele>
        <time>2016-01-02T09:07:03Z</time>
      </trkpt>
      <trkpt lat="43.77723" lon="1.28969">
        <ele>103.48</ele>
        <time>2016-01-02T09:07:04Z</time>
      </trkpt>
      <trkpt lat="43.77725" lon="1.28966">
        <ele>103.48</ele>
        <time>2016-01-02T09:07:05Z</time>
      </trkpt>
      <trkpt lat="43.77728" lon="1.28964">
        <ele>103.48</ele>
        <time>2016-01-02T09:07:06Z</time>
      </trkpt>
      <trkpt lat="43.77731" lon="1.28962">
        <ele>103.96</ele>
        <time>2016-01-02T09:07:07Z</time>
      </trkpt>
      <trkpt lat="43.77733" lon="1.28959">
        <ele>104.44</ele>
        <time>2016-01-02T09:07:08Z</time>
      </trkpt>
      <trkpt lat="43.77736" lon="1.28957">
        <ele>104.92</ele>
        <time>2016-01-02T09:07:09Z</time>
      </trkpt>
      <trkpt lat="43.77738" lon="1.28954">
        <ele>104.92</ele>
        <time>2016-01-02T09:07:10Z</time>
      </trkpt>
      <trkpt lat="43.7774" lon="1.28952">
        <ele>104.44</ele>
        <time>2016-01-02T09:07:11Z</time>
      </trkpt>
      <trkpt lat="43.77743" lon="1.28949">
        <ele>103.96</ele>
        <time>2016-01-02T09:07:12Z</time>
      </trkpt>
      <trkpt lat="43.77746" lon="1.28947">
        <ele>103.96</ele>
        <time>2016-01-02T09:07:13Z</time>
      </trkpt>
      <trkpt lat="43.77749" lon="1.28944">
        <ele>103.96</ele>
        <time>2016-01-02T09:07:14Z</time>
      </trkpt>
      <trkpt lat="43.77751" lon="1.28942">
        <ele>104.44</ele>
        <time>2016-01-02T09:07:15Z</time>
      </trkpt>
      <trkpt lat="43.77754" lon="1.2894">
        <ele>104.44</ele>
        <time>2016-01-02T09:07:16Z</time>
      </trkpt>
      <trkpt lat="43.77757" lon="1.28937">
        <ele>104.44</ele>
        <time>2016-01-02T09:07:17Z</time>
      </trkpt>
      <trkpt lat="43.77759" lon="1.28934">
        <ele>103.96</ele>
        <time>2016-01-02T09:07:18Z</time>
      </trkpt>
      <trkpt lat="43.77762" lon="1.28932">
        <ele>103.96</ele>
        <time>2016-01-02T09:07:19Z</time>
      </trkpt>
      <trkpt lat="43.77765" lon="1.2893">
        <ele>103.96</ele>
        <time>2016-01-02T09:07:20Z</time>
      </trkpt>
      <trkpt lat="43.77768" lon="1.28929">
        <ele>103.96</ele>
        <time>2016-01-02T09:07:21Z</time>
      </trkpt>
      <trkpt lat="43.77771" lon="1.2893">
        <ele>103.96</ele>
        <time>2016-01-02T09:07:22Z</time>
      </trkpt>
      <trkpt lat="43.77774" lon="1.28933">
        <ele>103.96</ele>
        <time>2016-01-02T09:07:23Z</time>
      </trkpt>
      <trkpt lat="43.77776" lon="1.28937">
        <ele>104.44</ele>
        <time>2016-01-02T09:07:24Z</time>
      </trkpt>
      <trkpt lat="43.77777" lon="1.28939">
        <ele>104.44</ele>
        <time>2016-01-02T09:07:25Z</time>
      </trkpt>
      <trkpt lat="43.77779" lon="1.28943">
        <ele>104.44</ele>
        <time>2016-01-02T09:07:26Z</time>
      </trkpt>
      <trkpt lat="43.7778" lon="1.28947">
        <ele>103.96</ele>
        <time>2016-01-02T09:07:27Z</time>
      </trkpt>
      <trkpt lat="43.77781" lon="1.28951">
        <ele>104.44</ele>
        <time>2016-01-02T09:07:28Z</time>
      </trkpt>
      <trkpt lat="43.77782" lon="1.28956">
        <ele>104.44</ele>
        <time>2016-01-02T09:07:29Z</time>
      </trkpt>
      <trkpt lat="43.77783" lon="1.2896">
        <ele>104.92</ele>
        <time>2016-01-02T09:07:30Z</time>
      </trkpt>
      <trkpt lat="43.77784" lon="1.28965">
        <ele>104.92</ele>
        <time>2016-01-02T09:07:31Z</time>
      </trkpt>
      <trkpt lat="43.77785" lon="1.28969">
        <ele>105.4</ele>
        <time>2016-01-02T09:07:32Z</time>
      </trkpt>
      <trkpt lat="43.77786" lon="1.28974">
        <ele>105.88</ele>
        <time>2016-01-02T09:07:33Z</time>
      </trkpt>
      <trkpt lat="43.77787" lon="1.28978">
        <ele>105.4</ele>
        <time>2016-01-02T09:07:34Z</time>
      </trkpt>
      <trkpt lat="43.77788" lon="1.28983">
        <ele>105.4</ele>
        <time>2016-01-02T09:07:35Z</time>
      </trkpt>
      <trkpt lat="43.77789" lon="1.28987">
        <ele>105.4</ele>
        <time>2016-01-02T09:07:36Z</time>
      </trkpt>
      <trkpt lat="43.77789" lon="1.28992">
        <ele>105.4</ele>
        <time>2016-01-02T09:07:37Z</time>
      </trkpt>
      <trkpt lat="43.7779" lon="1.28996">
        <ele>105.4</ele>
        <time>2016-01-02T09:07:38Z</time>
      </trkpt>
      <trkpt lat="43.77791" lon="1.29">
        <ele>105.88</ele>
        <time>2016-01-02T09:07:39Z</time>
      </trkpt>
      <trkpt lat="43.77792" lon="1.29004">
        <ele>105.88</ele>
        <time>2016-01-02T09:07:40Z</time>
      </trkpt>
      <trkpt lat="43.77792" lon="1.29008">
        <ele>105.88</ele>
        <time>2016-01-02T09:07:41Z</time>
      </trkpt>
      <trkpt lat="43.77793" lon="1.29012">
        <ele>105.88</ele>
        <time>2016-01-02T09:07:42Z</time>
      </trkpt>
      <trkpt lat="43.77794" lon="1.29016">
        <ele>105.88</ele>
        <time>2016-01-02T09:07:43Z</time>
      </trkpt>
      <trkpt lat="43.77795" lon="1.2902">
        <ele>105.88</ele>
        <time>2016-01-02T09:07:44Z</time>
      </trkpt>
      <trkpt lat="43.77796" lon="1.29023">
        <ele>105.88</ele>
        <time>2016-01-02T09:07:45Z</time>
      </trkpt>
      <trkpt lat="43.77798" lon="1.29027">
        <ele>106.36</ele>
        <time>2016-01-02T09:07:46Z</time>
      </trkpt>
      <trkpt lat="43.77799" lon="1.2903">
        <ele>106.36</ele>
        <time>2016-01-02T09:07:47Z</time>
      </trkpt>
      <trkpt lat="43.778" lon="1.29034">
        <ele>106.36</ele>
        <time>2016-01-02T09:07:48Z</time>
      </trkpt>
      <trkpt lat="43.77802" lon="1.29037">
        <ele>105.88</ele>
        <time>2016-01-02T09:07:49Z</time>
      </trkpt>
      <trkpt lat="43.77803" lon="1.29041">
        <ele>105.88</ele>
        <time>2016-01-02T09:07:50Z</time>
      </trkpt>
      <trkpt lat="43.77805" lon="1.29044">
        <ele>105.4</ele>
        <time>2016-01-02T09:07:51Z</time>
      </trkpt>
      <trkpt lat="43.77806" lon="1.29047">
        <ele>105.88</ele>
        <time>2016-01-02T09:07:52Z</time>
      </trkpt>
      <trkpt lat="43.77808" lon="1.29051">
        <ele>105.88</ele>
        <time>2016-01-02T09:07:53Z</time>
      </trkpt>
      <trkpt lat="43.7781" lon="1.29054">
        <ele>105.88</ele>
        <time>2016-01-02T09:07:54Z</time>
      </trkpt>
      <trkpt lat="43.77813" lon="1.29057">
        <ele>105.88</ele>
        <time>2016-01-02T09:07:55Z</time>
      </trkpt>
      <trkpt lat="43.77815" lon="1.29059">
        <ele>105.88</ele>
        <time>2016-01-02T09:07:56Z</time>
      </trkpt>
      <trkpt lat="43.77818" lon="1.2906">
        <ele>105.4</ele>
        <time>2016-01-02T09:07:57Z</time>
      </trkpt>
      <trkpt lat="43.77821" lon="1.29059">
        <ele>105.4</ele>
        <time>2016-01-02T09:07:58Z</time>
      </trkpt>
      <trkpt lat="43.77823" lon="1.29058">
        <ele>105.4</ele>
        <time>2016-01-02T09:07:59Z</time>
      </trkpt>
      <trkpt lat="43.77825" lon="1.29057">
        <ele>105.4</ele>
        <time>2016-01-02T09:08:00Z</time>
      </trkpt>
      <trkpt lat="43.77828" lon="1.29055">
        <ele>105.4</ele>
        <time>2016-01-02T09:08:01Z</time>
      </trkpt>
      <trkpt lat="43.77831" lon="1.29052">
        <ele>105.4</ele>
        <time>2016-01-02T09:08:02Z</time>
      </trkpt>
      <trkpt lat="43.77834" lon="1.2905">
        <ele>105.88</ele>
        <time>2016-01-02T09:08:03Z</time>
      </trkpt>
      <trkpt lat="43.77837" lon="1.29047">
        <ele>106.36</ele>
        <time>2016-01-02T09:08:04Z</time>
      </trkpt>
      <trkpt lat="43.77839" lon="1.29045">
        <ele>106.36</ele>
        <time>2016-01-02T09:08:05Z</time>
      </trkpt>
      <trkpt lat="43.77842" lon="1.29042">
        <ele>105.88</ele>
        <time>2016-01-02T09:08:06Z</time>
      </trkpt>
      <trkpt lat="43.77845" lon="1.29039">
        <ele>105.4</ele>
        <time>2016-01-02T09:08:07Z</time>
      </trkpt>
      <trkpt lat="43.77848" lon="1.29037">
        <ele>105.4</ele>
        <time>2016-01-02T09:08:08Z</time>
      </trkpt>
      <trkpt lat="43.7785" lon="1.29035">
        <ele>105.4</ele>
        <time>2016-01-02T09:08:09Z</time>
      </trkpt>
      <trkpt lat="43.77853" lon="1.29033">
        <ele>105.88</ele>
        <time>2016-01-02T09:08:10Z</time>
      </trkpt>
      <trkpt lat="43.77856" lon="1.29031">
        <ele>106.36</ele>
        <time>2016-01-02T09:08:11Z</time>
      </trkpt>
      <trkpt lat="43.77858" lon="1.29028">
        <ele>106.84</ele>
        <time>2016-01-02T09:08:12Z</time>
      </trkpt>
      <trkpt lat="43.77861" lon="1.29026">
        <ele>106.36</ele>
        <time>2016-01-02T09:08:13Z</time>
      </trkpt>
      <trkpt lat="43.77864" lon="1.29023">
        <ele>105.88</ele>
        <time>2016-01-02T09:08:14Z</time>
      </trkpt>
      <trkpt lat="43.77866" lon="1.29021">
        <ele>105.88</ele>
        <time>2016-01-02T09:08:15Z</time>
      </trkpt>
      <trkpt lat="43.77869" lon="1.29019">
        <ele>105.88</ele>
        <time>2016-01-02T09:08:16Z</time>
      </trkpt>
      <trkpt lat="43.77872" lon="1.29017">
        <ele>106.36</ele>
        <time>2016-01-02T09:08:17Z</time>
      </trkpt>
      <trkpt lat="43.77874" lon="1.29014">
        <ele>106.36</ele>
        <time>2016-01-02T09:08:18Z</time>
      </trkpt>
      <trkpt lat="43.77877" lon="1.29012">
        <ele>106.36</ele>
        <time>2016-01-02T09:08:19Z</time>
      </trkpt>
      <trkpt lat="43.7788" lon="1.2901">
        <ele>106.36</ele>
        <time>2016-01-02T09:08:20Z</time>
      </trkpt>
      <trkpt lat="43.77882" lon="1.29007">
        <ele>106.36</ele>
        <time>2016-01-02T09:08:21Z</time>
      </trkpt>
      <trkpt lat="43.77885" lon="1.29005">
        <ele>106.36</ele>
        <time>2016-01-02T09:08:22Z</time>
      </trkpt>
      <trkpt lat="43.77888" lon="1.29003">
        <ele>106.36</ele>
        <time>2016-01-02T09:08:23Z</time>
      </trkpt>
      <trkpt lat="43.77891" lon="1.29001">
        <ele>105.88</ele>
        <time>2016-01-02T09:08:24Z</time>
      </trkpt>
      <trkpt lat="43.77894" lon="1.28999">
        <ele>105.88</ele>
        <time>2016-01-02T09:08:25Z</time>
      </trkpt>
      <trkpt lat="43.77896" lon="1.28996">
        <ele>105.88</ele>
        <time>2016-01-02T09:08:26Z</time>
      </trkpt>
      <trkpt lat="43.779" lon="1.28994">
        <ele>106.36</ele>
        <time>2016-01-02T09:08:27Z</time>
      </trkpt>
      <trkpt lat="43.77902" lon="1.28992">
        <ele>106.36</ele>
        <time>2016-01-02T09:08:28Z</time>
      </trkpt>
      <trkpt lat="43.77905" lon="1.28989">
        <ele>106.84</ele>
        <time>2016-01-02T09:08:29Z</time>
      </trkpt>
      <trkpt lat="43.77908" lon="1.28987">
        <ele>107.32</ele>
        <time>2016-01-02T09:08:30Z</time>
      </trkpt>
      <trkpt lat="43.77911" lon="1.28984">
        <ele>107.81</ele>
        <time>2016-01-02T09:08:31Z</time>
      </trkpt>
      <trkpt lat="43.77914" lon="1.28982">
        <ele>106.84</ele>
        <time>2016-01-02T09:08:32Z</time>
      </trkpt>
      <trkpt lat="43.77917" lon="1.28979">
        <ele>106.36</ele>
        <time>2016-01-02T09:08:33Z</time>
      </trkpt>
      <trkpt lat="43.77919" lon="1.28977">
        <ele>106.36</ele>
        <time>2016-01-02T09:08:34Z</time>
      </trkpt>
      <trkpt lat="43.77922" lon="1.28974">
        <ele>105.88</ele>
        <time>2016-01-02T09:08:35Z</time>
      </trkpt>
      <trkpt lat="43.77925" lon="1.28971">
        <ele>106.36</ele>
        <time>2016-01-02T09:08:36Z</time>
      </trkpt>
      <trkpt lat="43.77927" lon="1.28968">
        <ele>106.36</ele>
        <time>2016-01-02T09:08:37Z</time>
      </trkpt>
      <trkpt lat="43.7793" lon="1.28966">
        <ele>106.36</ele>
        <time>2016-01-02T09:08:38Z</time>
      </trkpt>
      <trkpt lat="43.77932" lon="1.28963">
        <ele>106.36</ele>
        <time>2016-01-02T09:08:39Z</time>
      </trkpt>
      <trkpt lat="43.77935" lon="1.28961">
        <ele>106.36</ele>
        <time>2016-01-02T09:08:40Z</time>
      </trkpt>
      <trkpt lat="43.77938" lon="1.28958">
        <ele>105.88</ele>
        <time>2016-01-02T09:08:41Z</time>
      </trkpt>
      <trkpt lat="43.77941" lon="1.28956">
        <ele>105.88</ele>
        <time>2016-01-02T09:08:42Z</time>
      </trkpt>
      <trkpt lat="43.77944" lon="1.28954">
        <ele>105.88</ele>
        <time>2016-01-02T09:08:43Z</time>
      </trkpt>
      <trkpt lat="43.77947" lon="1.28952">
        <ele>106.36</ele>
        <time>2016-01-02T09:08:44Z</time>
      </trkpt>
      <trkpt lat="43.7795" lon="1.2895">
        <ele>106.36</ele>
        <time>2016-01-02T09:08:45Z</time>
      </trkpt>
      <trkpt lat="43.77952" lon="1.28948">
        <ele>106.36</ele>
        <time>2016-01-02T09:08:46Z</time>
      </trkpt>
      <trkpt lat="43.77955" lon="1.28945">
        <ele>106.36</ele>
        <time>2016-01-02T09:08:47Z</time>
      </trkpt>
      <trkpt lat="43.77957" lon="1.28942">
        <ele>105.88</ele>
        <time>2016-01-02T09:08:48Z</time>
      </trkpt>
      <trkpt lat="43.7796" lon="1.2894">
        <ele>105.88</ele>
        <time>2016-01-02T09:08:49Z</time>
      </trkpt>
      <trkpt lat="43.77962" lon="1.28938">
        <ele>105.88</ele>
        <time>2016-01-02T09:08:50Z</time>
      </trkpt>
      <trkpt lat="43.77964" lon="1.28936">
        <ele>106.36</ele>
        <time>2016-01-02T09:08:51Z</time>
      </trkpt>
      <trkpt lat="43.77967" lon="1.28933">
        <ele>105.88</ele>
        <time>2016-01-02T09:08:52Z</time>
      </trkpt>
      <trkpt lat="43.77969" lon="1.28931">
        <ele>105.88</ele>
        <time>2016-01-02T09:08:53Z</time>
      </trkpt>
      <trkpt lat="43.77972" lon="1.28929">
        <ele>105.4</ele>
        <time>2016-01-02T09:08:54Z</time>
      </trkpt>
      <trkpt lat="43.77974" lon="1.28926">
        <ele>104.92</ele>
        <time>2016-01-02T09:08:55Z</time>
      </trkpt>
      <trkpt lat="43.77977" lon="1.28924">
        <ele>104.92</ele>
        <time>2016-01-02T09:08:56Z</time>
      </trkpt>
      <trkpt lat="43.7798" lon="1.28921">
        <ele>104.92</ele>
        <time>2016-01-02T09:08:57Z</time>
      </trkpt>
      <trkpt lat="43.77983" lon="1.28918">
        <ele>105.4</ele>
        <time>2016-01-02T09:08:58Z</time>
      </trkpt>
      <trkpt lat="43.77986" lon="1.28916">
        <ele>105.4</ele>
        <time>2016-01-02T09:08:59Z</time>
      </trkpt>
      <trkpt lat="43.77988" lon="1.28914">
        <ele>105.4</ele>
        <time>2016-01-02T09:09:00Z</time>
      </trkpt>
      <trkpt lat="43.77991" lon="1.28912">
        <ele>105.88</ele>
        <time>2016-01-02T09:09:01Z</time>
      </trkpt>
      <trkpt lat="43.77994" lon="1.2891">
        <ele>105.88</ele>
        <time>2016-01-02T09:09:02Z</time>
      </trkpt>
      <trkpt lat="43.77996" lon="1.28908">
        <ele>105.88</ele>
        <time>2016-01-02T09:09:03Z</time>
      </trkpt>
      <trkpt lat="43.77998" lon="1.28904">
        <ele>105.88</ele>
        <time>2016-01-02T09:09:04Z</time>
      </trkpt>
    </trkseg>
  </trk>
</gpx>